<?xml version="1.0" encoding="utf-8"?>
<gpx xmlns:xsi="http://www.w3.org/2001/XMLSchema-instance" xmlns:xsd="http://www.w3.org/2001/XMLSchema" version="1.1" creator="Shapelink.com" xmlns="http://www.topografix.com/GPX/1/1" xmlns:gpxtpx="http://www.garmin.com/xmlschemas/TrackPointExtension/v1">
  <metadata>
    <name>Löpning 10.66 km, 2018-01-21</name>
    <desc></desc>
    <author><name>Bengt-Åke Forslund</name></author> 
    <time>2018-01-21T11:42:50Z</time>
  </metadata>
  <trk>
    <name>Löpning 10.66 km, 2018-01-21</name>
    <trkseg>
      <trkpt lat="62.641620114299" lon="17.899147549551">
        <ele>50.4</ele>
        <time>2018-01-21T11:42:50Z</time>
      </trkpt>
      <trkpt lat="62.641708627163" lon="17.898828702075">
        <ele>50.6</ele>
        <time>2018-01-21T11:44:40Z</time>
      </trkpt>
      <trkpt lat="62.641714410674" lon="17.898778662132">
        <ele>50.6</ele>
        <time>2018-01-21T11:44:41Z</time>
      </trkpt>
      <trkpt lat="62.641720445642" lon="17.898723425411">
        <ele>50.4</ele>
        <time>2018-01-21T11:44:42Z</time>
      </trkpt>
      <trkpt lat="62.641726145334" lon="17.898662153722">
        <ele>50.2</ele>
        <time>2018-01-21T11:44:43Z</time>
      </trkpt>
      <trkpt lat="62.641730001008" lon="17.898613538702">
        <ele>50.2</ele>
        <time>2018-01-21T11:44:44Z</time>
      </trkpt>
      <trkpt lat="62.641737209442" lon="17.898538604516">
        <ele>50.2</ele>
        <time>2018-01-21T11:44:45Z</time>
      </trkpt>
      <trkpt lat="62.641742322401" lon="17.898469034746">
        <ele>50.2</ele>
        <time>2018-01-21T11:44:46Z</time>
      </trkpt>
      <trkpt lat="62.641749698473" lon="17.898394184379">
        <ele>50</ele>
        <time>2018-01-21T11:44:47Z</time>
      </trkpt>
      <trkpt lat="62.64175665545" lon="17.898312377035">
        <ele>50</ele>
        <time>2018-01-21T11:44:48Z</time>
      </trkpt>
      <trkpt lat="62.641762941875" lon="17.898245992387">
        <ele>50</ele>
        <time>2018-01-21T11:44:49Z</time>
      </trkpt>
      <trkpt lat="62.641770485585" lon="17.89816192193">
        <ele>49.8</ele>
        <time>2018-01-21T11:44:50Z</time>
      </trkpt>
      <trkpt lat="62.641778532209" lon="17.89808229388">
        <ele>49.8</ele>
        <time>2018-01-21T11:44:51Z</time>
      </trkpt>
      <trkpt lat="62.641786411195" lon="17.897999229251">
        <ele>49.6</ele>
        <time>2018-01-21T11:44:52Z</time>
      </trkpt>
      <trkpt lat="62.641793703448" lon="17.897923708332">
        <ele>49.4</ele>
        <time>2018-01-21T11:44:53Z</time>
      </trkpt>
      <trkpt lat="62.641798313493" lon="17.897852881277">
        <ele>49</ele>
        <time>2018-01-21T11:44:54Z</time>
      </trkpt>
      <trkpt lat="62.641799654597" lon="17.89776881082">
        <ele>48.6</ele>
        <time>2018-01-21T11:44:55Z</time>
      </trkpt>
      <trkpt lat="62.641792194706" lon="17.897693289901">
        <ele>48.2</ele>
        <time>2018-01-21T11:44:56Z</time>
      </trkpt>
      <trkpt lat="62.641781046779" lon="17.897639981017">
        <ele>48</ele>
        <time>2018-01-21T11:44:57Z</time>
      </trkpt>
      <trkpt lat="62.64175917002" lon="17.89759027635">
        <ele>47.8</ele>
        <time>2018-01-21T11:44:58Z</time>
      </trkpt>
      <trkpt lat="62.641740394564" lon="17.897567058487">
        <ele>47.6</ele>
        <time>2018-01-21T11:44:59Z</time>
      </trkpt>
      <trkpt lat="62.641718769262" lon="17.897554988551">
        <ele>47.6</ele>
        <time>2018-01-21T11:45:00Z</time>
      </trkpt>
      <trkpt lat="62.641695719037" lon="17.897553647447">
        <ele>47.6</ele>
        <time>2018-01-21T11:45:01Z</time>
      </trkpt>
      <trkpt lat="62.641679122875" lon="17.897565298288">
        <ele>47.4</ele>
        <time>2018-01-21T11:45:02Z</time>
      </trkpt>
      <trkpt lat="62.641658671039" lon="17.897586755952">
        <ele>47.4</ele>
        <time>2018-01-21T11:45:03Z</time>
      </trkpt>
      <trkpt lat="62.641642326334" lon="17.897605950503">
        <ele>47.4</ele>
        <time>2018-01-21T11:45:04Z</time>
      </trkpt>
      <trkpt lat="62.641624640525" lon="17.89763721499">
        <ele>47.6</ele>
        <time>2018-01-21T11:45:05Z</time>
      </trkpt>
      <trkpt lat="62.641599997739" lon="17.897678370119">
        <ele>47.6</ele>
        <time>2018-01-21T11:45:06Z</time>
      </trkpt>
      <trkpt lat="62.641581725197" lon="17.897706868579">
        <ele>47.6</ele>
        <time>2018-01-21T11:45:07Z</time>
      </trkpt>
      <trkpt lat="62.641558088239" lon="17.897737211057">
        <ele>47.8</ele>
        <time>2018-01-21T11:45:08Z</time>
      </trkpt>
      <trkpt lat="62.641540905344" lon="17.897762775852">
        <ele>47.8</ele>
        <time>2018-01-21T11:45:09Z</time>
      </trkpt>
      <trkpt lat="62.641525566467" lon="17.897782976231">
        <ele>47.8</ele>
        <time>2018-01-21T11:45:10Z</time>
      </trkpt>
      <trkpt lat="62.641504946993" lon="17.897807702836">
        <ele>47.6</ele>
        <time>2018-01-21T11:45:11Z</time>
      </trkpt>
      <trkpt lat="62.641485417166" lon="17.897830585423">
        <ele>47.6</ele>
        <time>2018-01-21T11:45:12Z</time>
      </trkpt>
      <trkpt lat="62.641467060805" lon="17.897852546001">
        <ele>47.6</ele>
        <time>2018-01-21T11:45:13Z</time>
      </trkpt>
      <trkpt lat="62.641452057204" lon="17.897870650905">
        <ele>47.6</ele>
        <time>2018-01-21T11:45:14Z</time>
      </trkpt>
      <trkpt lat="62.641434287576" lon="17.897888923447">
        <ele>47.8</ele>
        <time>2018-01-21T11:45:15Z</time>
      </trkpt>
      <trkpt lat="62.641416517948" lon="17.897907698903">
        <ele>48</ele>
        <time>2018-01-21T11:45:16Z</time>
      </trkpt>
      <trkpt lat="62.641403358365" lon="17.897922786323">
        <ele>48</ele>
        <time>2018-01-21T11:45:17Z</time>
      </trkpt>
      <trkpt lat="62.641382403615" lon="17.8979465071">
        <ele>48.2</ele>
        <time>2018-01-21T11:45:18Z</time>
      </trkpt>
      <trkpt lat="62.641367567652" lon="17.897964192909">
        <ele>48.8</ele>
        <time>2018-01-21T11:45:19Z</time>
      </trkpt>
      <trkpt lat="62.641347702549" lon="17.897989841523">
        <ele>49</ele>
        <time>2018-01-21T11:45:20Z</time>
      </trkpt>
      <trkpt lat="62.641329513826" lon="17.898007192056">
        <ele>49</ele>
        <time>2018-01-21T11:45:21Z</time>
      </trkpt>
      <trkpt lat="62.641310235456" lon="17.898028565901">
        <ele>49.2</ele>
        <time>2018-01-21T11:45:22Z</time>
      </trkpt>
      <trkpt lat="62.641289699801" lon="17.89804373714">
        <ele>49.4</ele>
        <time>2018-01-21T11:45:23Z</time>
      </trkpt>
      <trkpt lat="62.641266984852" lon="17.898057902551">
        <ele>49.4</ele>
        <time>2018-01-21T11:45:24Z</time>
      </trkpt>
      <trkpt lat="62.641246281559" lon="17.898071816505">
        <ele>49.4</ele>
        <time>2018-01-21T11:45:25Z</time>
      </trkpt>
      <trkpt lat="62.641221135859" lon="17.898083718803">
        <ele>49.6</ele>
        <time>2018-01-21T11:45:26Z</time>
      </trkpt>
      <trkpt lat="62.641196912168" lon="17.89809319035">
        <ele>49.8</ele>
        <time>2018-01-21T11:45:27Z</time>
      </trkpt>
      <trkpt lat="62.641178807264" lon="17.898101823707">
        <ele>49.8</ele>
        <time>2018-01-21T11:45:28Z</time>
      </trkpt>
      <trkpt lat="62.641156679048" lon="17.898102494259">
        <ele>50</ele>
        <time>2018-01-21T11:45:29Z</time>
      </trkpt>
      <trkpt lat="62.641129856968" lon="17.898098806223">
        <ele>50</ele>
        <time>2018-01-21T11:45:30Z</time>
      </trkpt>
      <trkpt lat="62.641107812571" lon="17.898085311364">
        <ele>50</ele>
        <time>2018-01-21T11:45:31Z</time>
      </trkpt>
      <trkpt lat="62.641088701839" lon="17.89806804465">
        <ele>50.2</ele>
        <time>2018-01-21T11:45:32Z</time>
      </trkpt>
      <trkpt lat="62.64106766327" lon="17.898040216742">
        <ele>50.2</ele>
        <time>2018-01-21T11:45:33Z</time>
      </trkpt>
      <trkpt lat="62.641052324393" lon="17.898013813757">
        <ele>50.4</ele>
        <time>2018-01-21T11:45:34Z</time>
      </trkpt>
      <trkpt lat="62.641036147326" lon="17.897979615605">
        <ele>50.4</ele>
        <time>2018-01-21T11:45:35Z</time>
      </trkpt>
      <trkpt lat="62.641020389354" lon="17.897941561779">
        <ele>50.8</ele>
        <time>2018-01-21T11:45:36Z</time>
      </trkpt>
      <trkpt lat="62.641009073789" lon="17.897904932876">
        <ele>51</ele>
        <time>2018-01-21T11:45:37Z</time>
      </trkpt>
      <trkpt lat="62.640998428776" lon="17.897871405276">
        <ele>51.2</ele>
        <time>2018-01-21T11:45:38Z</time>
      </trkpt>
      <trkpt lat="62.640988957229" lon="17.897838129133">
        <ele>51.6</ele>
        <time>2018-01-21T11:45:39Z</time>
      </trkpt>
      <trkpt lat="62.640981832614" lon="17.89780233842">
        <ele>52</ele>
        <time>2018-01-21T11:45:40Z</time>
      </trkpt>
      <trkpt lat="62.640976719655" lon="17.897763194947">
        <ele>52.2</ele>
        <time>2018-01-21T11:45:41Z</time>
      </trkpt>
      <trkpt lat="62.640969930316" lon="17.897725979311">
        <ele>52.4</ele>
        <time>2018-01-21T11:45:42Z</time>
      </trkpt>
      <trkpt lat="62.640962638063" lon="17.897694463367">
        <ele>52.6</ele>
        <time>2018-01-21T11:45:43Z</time>
      </trkpt>
      <trkpt lat="62.64095702219" lon="17.89765984612">
        <ele>52.6</ele>
        <time>2018-01-21T11:45:44Z</time>
      </trkpt>
      <trkpt lat="62.640953250335" lon="17.897619277724">
        <ele>52.8</ele>
        <time>2018-01-21T11:45:45Z</time>
      </trkpt>
      <trkpt lat="62.640947885919" lon="17.897576613853">
        <ele>53</ele>
        <time>2018-01-21T11:45:46Z</time>
      </trkpt>
      <trkpt lat="62.640942102408" lon="17.89753495581">
        <ele>53.2</ele>
        <time>2018-01-21T11:45:47Z</time>
      </trkpt>
      <trkpt lat="62.640933469051" lon="17.897494974147">
        <ele>53.4</ele>
        <time>2018-01-21T11:45:48Z</time>
      </trkpt>
      <trkpt lat="62.640927853178" lon="17.897462368556">
        <ele>53.4</ele>
        <time>2018-01-21T11:45:49Z</time>
      </trkpt>
      <trkpt lat="62.64091930364" lon="17.897421716341">
        <ele>53.6</ele>
        <time>2018-01-21T11:45:50Z</time>
      </trkpt>
      <trkpt lat="62.640909664455" lon="17.897390284216">
        <ele>53.8</ele>
        <time>2018-01-21T11:45:51Z</time>
      </trkpt>
      <trkpt lat="62.640900612003" lon="17.897343764671">
        <ele>54.2</ele>
        <time>2018-01-21T11:45:52Z</time>
      </trkpt>
      <trkpt lat="62.640893235931" lon="17.897300933162">
        <ele>54.2</ele>
        <time>2018-01-21T11:45:53Z</time>
      </trkpt>
      <trkpt lat="62.64088577604" lon="17.897264136621">
        <ele>54.4</ele>
        <time>2018-01-21T11:45:54Z</time>
      </trkpt>
      <trkpt lat="62.640873789923" lon="17.897229184098">
        <ele>54.4</ele>
        <time>2018-01-21T11:45:55Z</time>
      </trkpt>
      <trkpt lat="62.640868257869" lon="17.897186687865">
        <ele>54.6</ele>
        <time>2018-01-21T11:45:56Z</time>
      </trkpt>
      <trkpt lat="62.640858618684" lon="17.897147460573">
        <ele>54.6</ele>
        <time>2018-01-21T11:45:57Z</time>
      </trkpt>
      <trkpt lat="62.64084805749" lon="17.897111166946">
        <ele>54.8</ele>
        <time>2018-01-21T11:45:58Z</time>
      </trkpt>
      <trkpt lat="62.640840681418" lon="17.897078728993">
        <ele>55.2</ele>
        <time>2018-01-21T11:45:59Z</time>
      </trkpt>
      <trkpt lat="62.640831964242" lon="17.897036735674">
        <ele>55.2</ele>
        <time>2018-01-21T11:46:00Z</time>
      </trkpt>
      <trkpt lat="62.640821905962" lon="17.896999436219">
        <ele>55.4</ele>
        <time>2018-01-21T11:46:01Z</time>
      </trkpt>
      <trkpt lat="62.640812518234" lon="17.896960376565">
        <ele>55.8</ele>
        <time>2018-01-21T11:46:02Z</time>
      </trkpt>
      <trkpt lat="62.640803465782" lon="17.896920897816">
        <ele>56</ele>
        <time>2018-01-21T11:46:03Z</time>
      </trkpt>
      <trkpt lat="62.640791395846" lon="17.896896506487">
        <ele>56</ele>
        <time>2018-01-21T11:46:04Z</time>
      </trkpt>
      <trkpt lat="62.640780415557" lon="17.896862811249">
        <ele>56.4</ele>
        <time>2018-01-21T11:46:05Z</time>
      </trkpt>
      <trkpt lat="62.640769602906" lon="17.89683255259">
        <ele>56.6</ele>
        <time>2018-01-21T11:46:06Z</time>
      </trkpt>
      <trkpt lat="62.64075753297" lon="17.896801874836">
        <ele>56.6</ele>
        <time>2018-01-21T11:46:07Z</time>
      </trkpt>
      <trkpt lat="62.640744373387" lon="17.896766587037">
        <ele>56.8</ele>
        <time>2018-01-21T11:46:08Z</time>
      </trkpt>
      <trkpt lat="62.640733309279" lon="17.896734651998">
        <ele>57</ele>
        <time>2018-01-21T11:46:09Z</time>
      </trkpt>
      <trkpt lat="62.640722915723" lon="17.896701040579">
        <ele>57.2</ele>
        <time>2018-01-21T11:46:10Z</time>
      </trkpt>
      <trkpt lat="62.640713863271" lon="17.896666926246">
        <ele>57.4</ele>
        <time>2018-01-21T11:46:11Z</time>
      </trkpt>
      <trkpt lat="62.640702128611" lon="17.896635829397">
        <ele>57.6</ele>
        <time>2018-01-21T11:46:12Z</time>
      </trkpt>
      <trkpt lat="62.640689471942" lon="17.896606073652">
        <ele>57.8</ele>
        <time>2018-01-21T11:46:13Z</time>
      </trkpt>
      <trkpt lat="62.640677988739" lon="17.896574054794">
        <ele>58</ele>
        <time>2018-01-21T11:46:14Z</time>
      </trkpt>
      <trkpt lat="62.640662314586" lon="17.896536168606">
        <ele>58.4</ele>
        <time>2018-01-21T11:46:15Z</time>
      </trkpt>
      <trkpt lat="62.640650160831" lon="17.89649560021">
        <ele>58.4</ele>
        <time>2018-01-21T11:46:16Z</time>
      </trkpt>
      <trkpt lat="62.640632558841" lon="17.896432568322">
        <ele>58.6</ele>
        <time>2018-01-21T11:46:17Z</time>
      </trkpt>
      <trkpt lat="62.640625015131" lon="17.89639669379">
        <ele>58.8</ele>
        <time>2018-01-21T11:46:18Z</time>
      </trkpt>
      <trkpt lat="62.640609760073" lon="17.896358639964">
        <ele>59</ele>
        <time>2018-01-21T11:46:19Z</time>
      </trkpt>
      <trkpt lat="62.640598779784" lon="17.896321591966">
        <ele>59.2</ele>
        <time>2018-01-21T11:46:20Z</time>
      </trkpt>
      <trkpt lat="62.640588805323" lon="17.896270797652">
        <ele>59.4</ele>
        <time>2018-01-21T11:46:21Z</time>
      </trkpt>
      <trkpt lat="62.640584446735" lon="17.896230899808">
        <ele>59.6</ele>
        <time>2018-01-21T11:46:22Z</time>
      </trkpt>
      <trkpt lat="62.640578495586" lon="17.896201730796">
        <ele>59.8</ele>
        <time>2018-01-21T11:46:23Z</time>
      </trkpt>
      <trkpt lat="62.640571706247" lon="17.896155211251">
        <ele>60</ele>
        <time>2018-01-21T11:46:24Z</time>
      </trkpt>
      <trkpt lat="62.640564833089" lon="17.896108943163">
        <ele>60</ele>
        <time>2018-01-21T11:46:25Z</time>
      </trkpt>
      <trkpt lat="62.640558798121" lon="17.896068542405">
        <ele>60.2</ele>
        <time>2018-01-21T11:46:26Z</time>
      </trkpt>
      <trkpt lat="62.640552260239" lon="17.896037697013">
        <ele>60.4</ele>
        <time>2018-01-21T11:46:27Z</time>
      </trkpt>
      <trkpt lat="62.640547231099" lon="17.895998050626">
        <ele>60.6</ele>
        <time>2018-01-21T11:46:28Z</time>
      </trkpt>
      <trkpt lat="62.640546057633" lon="17.895950860529">
        <ele>60.8</ele>
        <time>2018-01-21T11:46:29Z</time>
      </trkpt>
      <trkpt lat="62.640546141452" lon="17.895888163917">
        <ele>61</ele>
        <time>2018-01-21T11:46:30Z</time>
      </trkpt>
      <trkpt lat="62.640543626882" lon="17.895847763159">
        <ele>61.2</ele>
        <time>2018-01-21T11:46:31Z</time>
      </trkpt>
      <trkpt lat="62.640538430104" lon="17.895817923595">
        <ele>61.4</ele>
        <time>2018-01-21T11:46:32Z</time>
      </trkpt>
      <trkpt lat="62.640538597742" lon="17.895765201444">
        <ele>61.6</ele>
        <time>2018-01-21T11:46:33Z</time>
      </trkpt>
      <trkpt lat="62.640533987697" lon="17.89571440713">
        <ele>61.6</ele>
        <time>2018-01-21T11:46:34Z</time>
      </trkpt>
      <trkpt lat="62.640531305489" lon="17.895684902842">
        <ele>61.6</ele>
        <time>2018-01-21T11:46:35Z</time>
      </trkpt>
      <trkpt lat="62.640521666304" lon="17.895617763823">
        <ele>61.8</ele>
        <time>2018-01-21T11:46:36Z</time>
      </trkpt>
      <trkpt lat="62.640519822286" lon="17.895575099952">
        <ele>62</ele>
        <time>2018-01-21T11:46:37Z</time>
      </trkpt>
      <trkpt lat="62.640516553345" lon="17.89554844551">
        <ele>62</ele>
        <time>2018-01-21T11:46:38Z</time>
      </trkpt>
      <trkpt lat="62.640511524205" lon="17.89548390488">
        <ele>62</ele>
        <time>2018-01-21T11:46:39Z</time>
      </trkpt>
      <trkpt lat="62.640507333255" lon="17.895451383108">
        <ele>62</ele>
        <time>2018-01-21T11:46:40Z</time>
      </trkpt>
      <trkpt lat="62.640501717382" lon="17.895389943781">
        <ele>62.2</ele>
        <time>2018-01-21T11:46:41Z</time>
      </trkpt>
      <trkpt lat="62.640496604423" lon="17.89534560353">
        <ele>62.2</ele>
        <time>2018-01-21T11:46:42Z</time>
      </trkpt>
      <trkpt lat="62.640493670758" lon="17.895256420114">
        <ele>62.4</ele>
        <time>2018-01-21T11:46:43Z</time>
      </trkpt>
      <trkpt lat="62.64048428303" lon="17.895205374343">
        <ele>62.4</ele>
        <time>2018-01-21T11:46:44Z</time>
      </trkpt>
      <trkpt lat="62.64048093027" lon="17.895137061858">
        <ele>62.4</ele>
        <time>2018-01-21T11:46:45Z</time>
      </trkpt>
      <trkpt lat="62.640471961637" lon="17.895079310567">
        <ele>62.4</ele>
        <time>2018-01-21T11:46:46Z</time>
      </trkpt>
      <trkpt lat="62.640470117619" lon="17.89503966418">
        <ele>62.2</ele>
        <time>2018-01-21T11:46:47Z</time>
      </trkpt>
      <trkpt lat="62.640461148986" lon="17.894969591496">
        <ele>62.2</ele>
        <time>2018-01-21T11:46:48Z</time>
      </trkpt>
      <trkpt lat="62.640460394615" lon="17.894928520186">
        <ele>62.2</ele>
        <time>2018-01-21T11:46:49Z</time>
      </trkpt>
      <trkpt lat="62.640458382959" lon="17.894876720044">
        <ele>62</ele>
        <time>2018-01-21T11:46:50Z</time>
      </trkpt>
      <trkpt lat="62.640454443466" lon="17.894813855794">
        <ele>62</ele>
        <time>2018-01-21T11:46:51Z</time>
      </trkpt>
      <trkpt lat="62.640452767086" lon="17.894771778656">
        <ele>62</ele>
        <time>2018-01-21T11:46:52Z</time>
      </trkpt>
      <trkpt lat="62.64045243181" lon="17.894718805048">
        <ele>62</ele>
        <time>2018-01-21T11:46:53Z</time>
      </trkpt>
      <trkpt lat="62.640451509801" lon="17.894652755676">
        <ele>62</ele>
        <time>2018-01-21T11:46:54Z</time>
      </trkpt>
      <trkpt lat="62.640451928896" lon="17.894608331606">
        <ele>62</ele>
        <time>2018-01-21T11:46:55Z</time>
      </trkpt>
      <trkpt lat="62.640449162869" lon="17.894560135681">
        <ele>62</ele>
        <time>2018-01-21T11:46:56Z</time>
      </trkpt>
      <trkpt lat="62.640448157041" lon="17.894490314454">
        <ele>62.2</ele>
        <time>2018-01-21T11:46:57Z</time>
      </trkpt>
      <trkpt lat="62.640444804281" lon="17.894435748285">
        <ele>62.4</ele>
        <time>2018-01-21T11:46:58Z</time>
      </trkpt>
      <trkpt lat="62.64044153534" lon="17.894405908721">
        <ele>62.4</ele>
        <time>2018-01-21T11:46:59Z</time>
      </trkpt>
      <trkpt lat="62.640434746001" lon="17.894347235421">
        <ele>62.4</ele>
        <time>2018-01-21T11:47:00Z</time>
      </trkpt>
      <trkpt lat="62.640429465404" lon="17.894290154682">
        <ele>62.4</ele>
        <time>2018-01-21T11:47:01Z</time>
      </trkpt>
      <trkpt lat="62.640419155667" lon="17.894261320946">
        <ele>62.6</ele>
        <time>2018-01-21T11:47:02Z</time>
      </trkpt>
      <trkpt lat="62.640407421007" lon="17.894208263519">
        <ele>62.8</ele>
        <time>2018-01-21T11:47:03Z</time>
      </trkpt>
      <trkpt lat="62.640396524537" lon="17.894155122273">
        <ele>62.8</ele>
        <time>2018-01-21T11:47:04Z</time>
      </trkpt>
      <trkpt lat="62.64039292032" lon="17.894120421207">
        <ele>63</ele>
        <time>2018-01-21T11:47:05Z</time>
      </trkpt>
      <trkpt lat="62.640380850384" lon="17.894063675744">
        <ele>63</ele>
        <time>2018-01-21T11:47:06Z</time>
      </trkpt>
      <trkpt lat="62.640362410204" lon="17.894013887258">
        <ele>63.2</ele>
        <time>2018-01-21T11:47:07Z</time>
      </trkpt>
      <trkpt lat="62.640355872322" lon="17.893988490101">
        <ele>63</ele>
        <time>2018-01-21T11:47:08Z</time>
      </trkpt>
      <trkpt lat="62.640343215653" lon="17.893936689959">
        <ele>63.2</ele>
        <time>2018-01-21T11:47:09Z</time>
      </trkpt>
      <trkpt lat="62.640329804613" lon="17.893896121563">
        <ele>63.2</ele>
        <time>2018-01-21T11:47:10Z</time>
      </trkpt>
      <trkpt lat="62.640320333066" lon="17.893869215664">
        <ele>63.2</ele>
        <time>2018-01-21T11:47:11Z</time>
      </trkpt>
      <trkpt lat="62.640307005845" lon="17.893824875413">
        <ele>63.4</ele>
        <time>2018-01-21T11:47:12Z</time>
      </trkpt>
      <trkpt lat="62.6402940139" lon="17.893776679488">
        <ele>63.4</ele>
        <time>2018-01-21T11:47:13Z</time>
      </trkpt>
      <trkpt lat="62.640281776326" lon="17.893730998133">
        <ele>63.6</ele>
        <time>2018-01-21T11:47:14Z</time>
      </trkpt>
      <trkpt lat="62.640274064978" lon="17.893693363402">
        <ele>63.6</ele>
        <time>2018-01-21T11:47:15Z</time>
      </trkpt>
      <trkpt lat="62.640266940363" lon="17.893649274608">
        <ele>63.8</ele>
        <time>2018-01-21T11:47:16Z</time>
      </trkpt>
      <trkpt lat="62.640260570119" lon="17.893610298773">
        <ele>64</ele>
        <time>2018-01-21T11:47:17Z</time>
      </trkpt>
      <trkpt lat="62.640252691133" lon="17.893575932983">
        <ele>64</ele>
        <time>2018-01-21T11:47:18Z</time>
      </trkpt>
      <trkpt lat="62.640248081088" lon="17.893544500858">
        <ele>64.2</ele>
        <time>2018-01-21T11:47:19Z</time>
      </trkpt>
      <trkpt lat="62.640243973957" lon="17.893507704317">
        <ele>64.6</ele>
        <time>2018-01-21T11:47:20Z</time>
      </trkpt>
      <trkpt lat="62.640251685305" lon="17.893463531704">
        <ele>64.6</ele>
        <time>2018-01-21T11:47:21Z</time>
      </trkpt>
      <trkpt lat="62.640253864599" lon="17.893424639688">
        <ele>65</ele>
        <time>2018-01-21T11:47:22Z</time>
      </trkpt>
      <trkpt lat="62.640255540979" lon="17.893384490387">
        <ele>65.2</ele>
        <time>2018-01-21T11:47:23Z</time>
      </trkpt>
      <trkpt lat="62.640255876255" lon="17.893339647222">
        <ele>65.6</ele>
        <time>2018-01-21T11:47:24Z</time>
      </trkpt>
      <trkpt lat="62.640257804092" lon="17.893296396618">
        <ele>65.8</ele>
        <time>2018-01-21T11:47:25Z</time>
      </trkpt>
      <trkpt lat="62.640265683078" lon="17.893245769942">
        <ele>66.2</ele>
        <time>2018-01-21T11:47:26Z</time>
      </trkpt>
      <trkpt lat="62.640272388598" lon="17.893203525166">
        <ele>66.4</ele>
        <time>2018-01-21T11:47:27Z</time>
      </trkpt>
      <trkpt lat="62.640276328091" lon="17.893157676173">
        <ele>66.6</ele>
        <time>2018-01-21T11:47:28Z</time>
      </trkpt>
      <trkpt lat="62.640277836833" lon="17.893125322039">
        <ele>66.8</ele>
        <time>2018-01-21T11:47:29Z</time>
      </trkpt>
      <trkpt lat="62.640284709991" lon="17.893087184394">
        <ele>66.8</ele>
        <time>2018-01-21T11:47:30Z</time>
      </trkpt>
      <trkpt lat="62.640287140742" lon="17.893055249355">
        <ele>67</ele>
        <time>2018-01-21T11:47:31Z</time>
      </trkpt>
      <trkpt lat="62.64028730838" lon="17.893015351511">
        <ele>67.2</ele>
        <time>2018-01-21T11:47:32Z</time>
      </trkpt>
      <trkpt lat="62.640293594805" lon="17.892968161414">
        <ele>67.6</ele>
        <time>2018-01-21T11:47:33Z</time>
      </trkpt>
      <trkpt lat="62.640288062751" lon="17.892938992402">
        <ele>67.8</ele>
        <time>2018-01-21T11:47:34Z</time>
      </trkpt>
      <trkpt lat="62.640285045267" lon="17.892898675463">
        <ele>68.2</ele>
        <time>2018-01-21T11:47:35Z</time>
      </trkpt>
      <trkpt lat="62.640282530697" lon="17.892861878922">
        <ele>68.4</ele>
        <time>2018-01-21T11:47:36Z</time>
      </trkpt>
      <trkpt lat="62.640280686679" lon="17.892823154544">
        <ele>68.6</ele>
        <time>2018-01-21T11:47:37Z</time>
      </trkpt>
      <trkpt lat="62.640277333919" lon="17.89277906575">
        <ele>69</ele>
        <time>2018-01-21T11:47:38Z</time>
      </trkpt>
      <trkpt lat="62.640271801865" lon="17.892731456558">
        <ele>69.2</ele>
        <time>2018-01-21T11:47:39Z</time>
      </trkpt>
      <trkpt lat="62.640268113829" lon="17.892699102424">
        <ele>69.2</ele>
        <time>2018-01-21T11:47:40Z</time>
      </trkpt>
      <trkpt lat="62.640260402481" lon="17.892649900671">
        <ele>69.4</ele>
        <time>2018-01-21T11:47:41Z</time>
      </trkpt>
      <trkpt lat="62.6402521044" lon="17.892604386954">
        <ele>69.6</ele>
        <time>2018-01-21T11:47:42Z</time>
      </trkpt>
      <trkpt lat="62.640246153251" lon="17.892552502993">
        <ele>69.6</ele>
        <time>2018-01-21T11:47:43Z</time>
      </trkpt>
      <trkpt lat="62.640242465215" lon="17.892515790271">
        <ele>69.8</ele>
        <time>2018-01-21T11:47:44Z</time>
      </trkpt>
      <trkpt lat="62.640236430247" lon="17.892477736445">
        <ele>69.8</ele>
        <time>2018-01-21T11:47:45Z</time>
      </trkpt>
      <trkpt lat="62.640233328944" lon="17.89243205509">
        <ele>70</ele>
        <time>2018-01-21T11:47:46Z</time>
      </trkpt>
      <trkpt lat="62.640228132166" lon="17.892380590224">
        <ele>70.2</ele>
        <time>2018-01-21T11:47:47Z</time>
      </trkpt>
      <trkpt lat="62.640223354483" lon="17.892323593304">
        <ele>70.2</ele>
        <time>2018-01-21T11:47:48Z</time>
      </trkpt>
      <trkpt lat="62.640219917904" lon="17.892288137867">
        <ele>70.6</ele>
        <time>2018-01-21T11:47:49Z</time>
      </trkpt>
      <trkpt lat="62.640217822429" lon="17.892215131518">
        <ele>70.8</ele>
        <time>2018-01-21T11:47:50Z</time>
      </trkpt>
      <trkpt lat="62.640216313687" lon="17.892172719104">
        <ele>71</ele>
        <time>2018-01-21T11:47:51Z</time>
      </trkpt>
      <trkpt lat="62.640216565144" lon="17.89211186651">
        <ele>71</ele>
        <time>2018-01-21T11:47:52Z</time>
      </trkpt>
      <trkpt lat="62.640224108854" lon="17.89204900226">
        <ele>71.2</ele>
        <time>2018-01-21T11:47:53Z</time>
      </trkpt>
      <trkpt lat="62.640236514066" lon="17.892001979801">
        <ele>71.2</ele>
        <time>2018-01-21T11:47:54Z</time>
      </trkpt>
      <trkpt lat="62.640258977558" lon="17.89194255213">
        <ele>71.2</ele>
        <time>2018-01-21T11:47:55Z</time>
      </trkpt>
      <trkpt lat="62.640268616743" lon="17.89187633512">
        <ele>71.2</ele>
        <time>2018-01-21T11:47:56Z</time>
      </trkpt>
      <trkpt lat="62.640310023329" lon="17.891823780607">
        <ele>71.2</ele>
        <time>2018-01-21T11:47:57Z</time>
      </trkpt>
      <trkpt lat="62.640345227309" lon="17.89179000155">
        <ele>71</ele>
        <time>2018-01-21T11:47:58Z</time>
      </trkpt>
      <trkpt lat="62.640367606982" lon="17.89177072318">
        <ele>71</ele>
        <time>2018-01-21T11:47:59Z</time>
      </trkpt>
      <trkpt lat="62.640403900609" lon="17.891752785914">
        <ele>70.8</ele>
        <time>2018-01-21T11:48:00Z</time>
      </trkpt>
      <trkpt lat="62.640432063793" lon="17.891742140901">
        <ele>70.8</ele>
        <time>2018-01-21T11:48:01Z</time>
      </trkpt>
      <trkpt lat="62.64047422475" lon="17.891739961607">
        <ele>70.6</ele>
        <time>2018-01-21T11:48:02Z</time>
      </trkpt>
      <trkpt lat="62.640530970213" lon="17.891734597191">
        <ele>70.4</ele>
        <time>2018-01-21T11:48:03Z</time>
      </trkpt>
      <trkpt lat="62.640597690137" lon="17.891739207236">
        <ele>70.4</ele>
        <time>2018-01-21T11:48:04Z</time>
      </trkpt>
      <trkpt lat="62.640664158604" lon="17.891752450638">
        <ele>70.2</ele>
        <time>2018-01-21T11:48:05Z</time>
      </trkpt>
      <trkpt lat="62.640725933207" lon="17.891778434528">
        <ele>70</ele>
        <time>2018-01-21T11:48:06Z</time>
      </trkpt>
      <trkpt lat="62.640779996462" lon="17.891822355684">
        <ele>69.4</ele>
        <time>2018-01-21T11:48:07Z</time>
      </trkpt>
      <trkpt lat="62.640829868767" lon="17.891888405056">
        <ele>68.6</ele>
        <time>2018-01-21T11:48:08Z</time>
      </trkpt>
      <trkpt lat="62.640870353344" lon="17.891969960943">
        <ele>67.8</ele>
        <time>2018-01-21T11:48:09Z</time>
      </trkpt>
      <trkpt lat="62.640909915912" lon="17.892018408325">
        <ele>66.8</ele>
        <time>2018-01-21T11:48:10Z</time>
      </trkpt>
      <trkpt lat="62.640951909231" lon="17.892087894276">
        <ele>66</ele>
        <time>2018-01-21T11:48:11Z</time>
      </trkpt>
      <trkpt lat="62.640995495111" lon="17.892134330002">
        <ele>65.4</ele>
        <time>2018-01-21T11:48:12Z</time>
      </trkpt>
      <trkpt lat="62.641036147326" lon="17.892173305837">
        <ele>65.2</ele>
        <time>2018-01-21T11:48:13Z</time>
      </trkpt>
      <trkpt lat="62.641075877532" lon="17.892202642487">
        <ele>65</ele>
        <time>2018-01-21T11:48:14Z</time>
      </trkpt>
      <trkpt lat="62.641117451756" lon="17.892222675228">
        <ele>65</ele>
        <time>2018-01-21T11:48:15Z</time>
      </trkpt>
      <trkpt lat="62.641147375139" lon="17.892216724079">
        <ele>64.8</ele>
        <time>2018-01-21T11:48:16Z</time>
      </trkpt>
      <trkpt lat="62.64117662797" lon="17.892221166486">
        <ele>64.8</ele>
        <time>2018-01-21T11:48:17Z</time>
      </trkpt>
      <trkpt lat="62.641206383715" lon="17.892199541184">
        <ele>64.8</ele>
        <time>2018-01-21T11:48:18Z</time>
      </trkpt>
      <trkpt lat="62.64123194851" lon="17.892195350234">
        <ele>65</ele>
        <time>2018-01-21T11:48:19Z</time>
      </trkpt>
      <trkpt lat="62.641269080327" lon="17.892176071864">
        <ele>64.8</ele>
        <time>2018-01-21T11:48:20Z</time>
      </trkpt>
      <trkpt lat="62.641296572959" lon="17.892148243956">
        <ele>64.8</ele>
        <time>2018-01-21T11:48:21Z</time>
      </trkpt>
      <trkpt lat="62.641327418351" lon="17.892122260066">
        <ele>65</ele>
        <time>2018-01-21T11:48:22Z</time>
      </trkpt>
      <trkpt lat="62.641369327851" lon="17.892105580085">
        <ele>65</ele>
        <time>2018-01-21T11:48:23Z</time>
      </trkpt>
      <trkpt lat="62.641403190727" lon="17.892085631163">
        <ele>65</ele>
        <time>2018-01-21T11:48:24Z</time>
      </trkpt>
      <trkpt lat="62.641434874309" lon="17.892066268974">
        <ele>65</ele>
        <time>2018-01-21T11:48:25Z</time>
      </trkpt>
      <trkpt lat="62.64145574524" lon="17.892032573736">
        <ele>65</ele>
        <time>2018-01-21T11:48:26Z</time>
      </trkpt>
      <trkpt lat="62.641478963103" lon="17.892021090533">
        <ele>64.8</ele>
        <time>2018-01-21T11:48:27Z</time>
      </trkpt>
      <trkpt lat="62.641499666396" lon="17.89200960733">
        <ele>64.6</ele>
        <time>2018-01-21T11:48:28Z</time>
      </trkpt>
      <trkpt lat="62.641516765472" lon="17.892000135783">
        <ele>64.4</ele>
        <time>2018-01-21T11:48:29Z</time>
      </trkpt>
      <trkpt lat="62.641558758791" lon="17.891978426662">
        <ele>64.2</ele>
        <time>2018-01-21T11:48:30Z</time>
      </trkpt>
      <trkpt lat="62.641596477341" lon="17.891967781649">
        <ele>63.6</ele>
        <time>2018-01-21T11:48:31Z</time>
      </trkpt>
      <trkpt lat="62.641634614986" lon="17.891964931803">
        <ele>63.2</ele>
        <time>2018-01-21T11:48:32Z</time>
      </trkpt>
      <trkpt lat="62.641671076251" lon="17.891974068074">
        <ele>62.4</ele>
        <time>2018-01-21T11:48:33Z</time>
      </trkpt>
      <trkpt lat="62.641704939127" lon="17.891961495224">
        <ele>61.6</ele>
        <time>2018-01-21T11:48:34Z</time>
      </trkpt>
      <trkpt lat="62.641746932446" lon="17.891942803587">
        <ele>60.8</ele>
        <time>2018-01-21T11:48:35Z</time>
      </trkpt>
      <trkpt lat="62.641792278525" lon="17.891919501905">
        <ele>60.2</ele>
        <time>2018-01-21T11:48:36Z</time>
      </trkpt>
      <trkpt lat="62.641844330124" lon="17.891892093092">
        <ele>59.8</ele>
        <time>2018-01-21T11:48:37Z</time>
      </trkpt>
      <trkpt lat="62.641896046447" lon="17.891859487501">
        <ele>59.4</ele>
        <time>2018-01-21T11:48:38Z</time>
      </trkpt>
      <trkpt lat="62.641949858245" lon="17.891829564118">
        <ele>59</ele>
        <time>2018-01-21T11:48:39Z</time>
      </trkpt>
      <trkpt lat="62.642010710839" lon="17.891790755921">
        <ele>58.8</ele>
        <time>2018-01-21T11:48:40Z</time>
      </trkpt>
      <trkpt lat="62.64206594756" lon="17.891760245805">
        <ele>58.2</ele>
        <time>2018-01-21T11:48:41Z</time>
      </trkpt>
      <trkpt lat="62.642131829294" lon="17.891721437608">
        <ele>57.6</ele>
        <time>2018-01-21T11:48:42Z</time>
      </trkpt>
      <trkpt lat="62.64220089615" lon="17.891674750425">
        <ele>57</ele>
        <time>2018-01-21T11:48:43Z</time>
      </trkpt>
      <trkpt lat="62.642268621902" lon="17.891625213396">
        <ele>56.6</ele>
        <time>2018-01-21T11:48:44Z</time>
      </trkpt>
      <trkpt lat="62.642343304631" lon="17.891550698305">
        <ele>55.8</ele>
        <time>2018-01-21T11:48:45Z</time>
      </trkpt>
      <trkpt lat="62.642403989587" lon="17.891458413586">
        <ele>55.2</ele>
        <time>2018-01-21T11:48:46Z</time>
      </trkpt>
      <trkpt lat="62.64243056021" lon="17.891390268739">
        <ele>54.8</ele>
        <time>2018-01-21T11:48:47Z</time>
      </trkpt>
      <trkpt lat="62.642465428914" lon="17.891271078121">
        <ele>54.4</ele>
        <time>2018-01-21T11:48:48Z</time>
      </trkpt>
      <trkpt lat="62.642479929601" lon="17.891184912189">
        <ele>54</ele>
        <time>2018-01-21T11:48:49Z</time>
      </trkpt>
      <trkpt lat="62.642498285962" lon="17.891098578619">
        <ele>53.6</ele>
        <time>2018-01-21T11:48:50Z</time>
      </trkpt>
      <trkpt lat="62.642488898234" lon="17.891013753791">
        <ele>52.8</ele>
        <time>2018-01-21T11:48:51Z</time>
      </trkpt>
      <trkpt lat="62.642477079755" lon="17.890956337776">
        <ele>52.2</ele>
        <time>2018-01-21T11:48:52Z</time>
      </trkpt>
      <trkpt lat="62.642461657059" lon="17.890903699444">
        <ele>51.8</ele>
        <time>2018-01-21T11:48:53Z</time>
      </trkpt>
      <trkpt lat="62.642429219106" lon="17.890846451067">
        <ele>51.4</ele>
        <time>2018-01-21T11:48:54Z</time>
      </trkpt>
      <trkpt lat="62.64240038537" lon="17.890821221548">
        <ele>51.4</ele>
        <time>2018-01-21T11:48:55Z</time>
      </trkpt>
      <trkpt lat="62.642348752866" lon="17.890782245713">
        <ele>51.4</ele>
        <time>2018-01-21T11:48:56Z</time>
      </trkpt>
      <trkpt lat="62.642307849194" lon="17.890785766111">
        <ele>51.4</ele>
        <time>2018-01-21T11:48:57Z</time>
      </trkpt>
      <trkpt lat="62.642264850047" lon="17.89076070423">
        <ele>51.2</ele>
        <time>2018-01-21T11:48:58Z</time>
      </trkpt>
      <trkpt lat="62.64222352728" lon="17.890741342041">
        <ele>51</ele>
        <time>2018-01-21T11:48:59Z</time>
      </trkpt>
      <trkpt lat="62.64218413235" lon="17.890721812214">
        <ele>50.8</ele>
        <time>2018-01-21T11:49:00Z</time>
      </trkpt>
      <trkpt lat="62.642163931971" lon="17.890708149717">
        <ele>50.6</ele>
        <time>2018-01-21T11:49:01Z</time>
      </trkpt>
      <trkpt lat="62.64213300276" lon="17.890687027329">
        <ele>50.2</ele>
        <time>2018-01-21T11:49:02Z</time>
      </trkpt>
      <trkpt lat="62.642111712734" lon="17.890672359004">
        <ele>50.2</ele>
        <time>2018-01-21T11:49:03Z</time>
      </trkpt>
      <trkpt lat="62.64209109326" lon="17.890654505557">
        <ele>50.2</ele>
        <time>2018-01-21T11:49:04Z</time>
      </trkpt>
      <trkpt lat="62.642069719415" lon="17.890638831404">
        <ele>50.2</ele>
        <time>2018-01-21T11:49:05Z</time>
      </trkpt>
      <trkpt lat="62.642053039434" lon="17.890622319061">
        <ele>50.4</ele>
        <time>2018-01-21T11:49:06Z</time>
      </trkpt>
      <trkpt lat="62.642036359453" lon="17.890607566917">
        <ele>50.6</ele>
        <time>2018-01-21T11:49:07Z</time>
      </trkpt>
      <trkpt lat="62.642019763291" lon="17.890597760094">
        <ele>50.8</ele>
        <time>2018-01-21T11:49:08Z</time>
      </trkpt>
      <trkpt lat="62.642002077482" lon="17.890585773977">
        <ele>51</ele>
        <time>2018-01-21T11:49:09Z</time>
      </trkpt>
      <trkpt lat="62.641984978406" lon="17.890571524747">
        <ele>51.2</ele>
        <time>2018-01-21T11:49:10Z</time>
      </trkpt>
      <trkpt lat="62.641968968977" lon="17.890558616621">
        <ele>51.6</ele>
        <time>2018-01-21T11:49:11Z</time>
      </trkpt>
      <trkpt lat="62.641948936236" lon="17.890540763174">
        <ele>51.8</ele>
        <time>2018-01-21T11:49:12Z</time>
      </trkpt>
      <trkpt lat="62.641929741685" lon="17.890542607192">
        <ele>52</ele>
        <time>2018-01-21T11:49:13Z</time>
      </trkpt>
      <trkpt lat="62.641916498283" lon="17.890525843392">
        <ele>52.4</ele>
        <time>2018-01-21T11:49:14Z</time>
      </trkpt>
      <trkpt lat="62.641899315388" lon="17.890516036569">
        <ele>52.8</ele>
        <time>2018-01-21T11:49:15Z</time>
      </trkpt>
      <trkpt lat="62.641882216312" lon="17.89050254171">
        <ele>53.2</ele>
        <time>2018-01-21T11:49:16Z</time>
      </trkpt>
      <trkpt lat="62.641867631806" lon="17.890489885041">
        <ele>53.4</ele>
        <time>2018-01-21T11:49:17Z</time>
      </trkpt>
      <trkpt lat="62.641851203282" lon="17.89047488144">
        <ele>54</ele>
        <time>2018-01-21T11:49:18Z</time>
      </trkpt>
      <trkpt lat="62.641838546613" lon="17.890454597242">
        <ele>54.4</ele>
        <time>2018-01-21T11:49:19Z</time>
      </trkpt>
      <trkpt lat="62.641820106433" lon="17.890430122094">
        <ele>54.6</ele>
        <time>2018-01-21T11:49:20Z</time>
      </trkpt>
      <trkpt lat="62.641803929366" lon="17.890412939199">
        <ele>54.8</ele>
        <time>2018-01-21T11:49:21Z</time>
      </trkpt>
      <trkpt lat="62.641782723159" lon="17.890388296413">
        <ele>55.2</ele>
        <time>2018-01-21T11:49:22Z</time>
      </trkpt>
      <trkpt lat="62.641770150309" lon="17.890367676939">
        <ele>55.4</ele>
        <time>2018-01-21T11:49:23Z</time>
      </trkpt>
      <trkpt lat="62.641754308518" lon="17.890342028325">
        <ele>55.6</ele>
        <time>2018-01-21T11:49:24Z</time>
      </trkpt>
      <trkpt lat="62.641737628537" lon="17.890312440218">
        <ele>56</ele>
        <time>2018-01-21T11:49:25Z</time>
      </trkpt>
      <trkpt lat="62.641721116194" lon="17.890287043061">
        <ele>56.2</ele>
        <time>2018-01-21T11:49:26Z</time>
      </trkpt>
      <trkpt lat="62.641705944955" lon="17.89025946661">
        <ele>56.4</ele>
        <time>2018-01-21T11:49:27Z</time>
      </trkpt>
      <trkpt lat="62.641692617734" lon="17.890234153272">
        <ele>56.8</ele>
        <time>2018-01-21T11:49:28Z</time>
      </trkpt>
      <trkpt lat="62.64168121835" lon="17.890217724748">
        <ele>57</ele>
        <time>2018-01-21T11:49:29Z</time>
      </trkpt>
      <trkpt lat="62.641669232233" lon="17.890186376442">
        <ele>57</ele>
        <time>2018-01-21T11:49:30Z</time>
      </trkpt>
      <trkpt lat="62.641660095962" lon="17.890160308733">
        <ele>57</ele>
        <time>2018-01-21T11:49:31Z</time>
      </trkpt>
      <trkpt lat="62.641649283311" lon="17.890127451685">
        <ele>57.2</ele>
        <time>2018-01-21T11:49:32Z</time>
      </trkpt>
      <trkpt lat="62.641639560307" lon="17.890100713424">
        <ele>57.4</ele>
        <time>2018-01-21T11:49:33Z</time>
      </trkpt>
      <trkpt lat="62.641627741828" lon="17.890054445336">
        <ele>57.6</ele>
        <time>2018-01-21T11:49:34Z</time>
      </trkpt>
      <trkpt lat="62.641616342444" lon="17.890010440361">
        <ele>57.6</ele>
        <time>2018-01-21T11:49:35Z</time>
      </trkpt>
      <trkpt lat="62.641609385467" lon="17.889988060688">
        <ele>57.8</ele>
        <time>2018-01-21T11:49:36Z</time>
      </trkpt>
      <trkpt lat="62.641598321359" lon="17.889933997433">
        <ele>58.2</ele>
        <time>2018-01-21T11:49:37Z</time>
      </trkpt>
      <trkpt lat="62.641593292219" lon="17.889903152041">
        <ele>58.4</ele>
        <time>2018-01-21T11:49:38Z</time>
      </trkpt>
      <trkpt lat="62.641586335242" lon="17.889866523138">
        <ele>58.4</ele>
        <time>2018-01-21T11:49:39Z</time>
      </trkpt>
      <trkpt lat="62.641579462084" lon="17.889823188715">
        <ele>58.6</ele>
        <time>2018-01-21T11:49:40Z</time>
      </trkpt>
      <trkpt lat="62.641575019677" lon="17.88978756564">
        <ele>58.6</ele>
        <time>2018-01-21T11:49:41Z</time>
      </trkpt>
      <trkpt lat="62.64157057727" lon="17.889752445479">
        <ele>58.4</ele>
        <time>2018-01-21T11:49:42Z</time>
      </trkpt>
      <trkpt lat="62.641567308329" lon="17.889711206531">
        <ele>58</ele>
        <time>2018-01-21T11:49:43Z</time>
      </trkpt>
      <trkpt lat="62.641564207026" lon="17.889666195728">
        <ele>57.8</ele>
        <time>2018-01-21T11:49:44Z</time>
      </trkpt>
      <trkpt lat="62.641560938085" lon="17.889607270971">
        <ele>57.4</ele>
        <time>2018-01-21T11:49:45Z</time>
      </trkpt>
      <trkpt lat="62.641559764619" lon="17.889539964314">
        <ele>56.8</ele>
        <time>2018-01-21T11:49:46Z</time>
      </trkpt>
      <trkpt lat="62.641559345524" lon="17.889480117548">
        <ele>56.4</ele>
        <time>2018-01-21T11:49:47Z</time>
      </trkpt>
      <trkpt lat="62.641561524818" lon="17.889403506982">
        <ele>56</ele>
        <time>2018-01-21T11:49:48Z</time>
      </trkpt>
      <trkpt lat="62.641565631949" lon="17.889326980235">
        <ele>55.6</ele>
        <time>2018-01-21T11:49:49Z</time>
      </trkpt>
      <trkpt lat="62.641575438772" lon="17.889209046902">
        <ele>55</ele>
        <time>2018-01-21T11:49:50Z</time>
      </trkpt>
      <trkpt lat="62.64158985564" lon="17.889099663107">
        <ele>54.2</ele>
        <time>2018-01-21T11:49:51Z</time>
      </trkpt>
      <trkpt lat="62.641610056019" lon="17.888938562989">
        <ele>53.4</ele>
        <time>2018-01-21T11:49:52Z</time>
      </trkpt>
      <trkpt lat="62.641636626642" lon="17.888778971613">
        <ele>52.8</ele>
        <time>2018-01-21T11:49:53Z</time>
      </trkpt>
      <trkpt lat="62.641673004088" lon="17.888598341668">
        <ele>53.4</ele>
        <time>2018-01-21T11:49:54Z</time>
      </trkpt>
      <trkpt lat="62.641717344339" lon="17.888417208809">
        <ele>52.8</ele>
        <time>2018-01-21T11:49:55Z</time>
      </trkpt>
      <trkpt lat="62.64176587554" lon="17.888279578011">
        <ele>51.2</ele>
        <time>2018-01-21T11:49:56Z</time>
      </trkpt>
      <trkpt lat="62.641808539411" lon="17.888170529492">
        <ele>48.8</ele>
        <time>2018-01-21T11:49:57Z</time>
      </trkpt>
      <trkpt lat="62.641848101979" lon="17.88807430528">
        <ele>48.4</ele>
        <time>2018-01-21T11:49:58Z</time>
      </trkpt>
      <trkpt lat="62.64187484024" lon="17.888010938116">
        <ele>48.4</ele>
        <time>2018-01-21T11:49:59Z</time>
      </trkpt>
      <trkpt lat="62.641891939316" lon="17.88792678384">
        <ele>48.6</ele>
        <time>2018-01-21T11:50:00Z</time>
      </trkpt>
      <trkpt lat="62.641917923206" lon="17.887857549346">
        <ele>49</ele>
        <time>2018-01-21T11:50:01Z</time>
      </trkpt>
      <trkpt lat="62.641933681178" lon="17.887807090308">
        <ele>49</ele>
        <time>2018-01-21T11:50:02Z</time>
      </trkpt>
      <trkpt lat="62.641953797738" lon="17.887755457804">
        <ele>49</ele>
        <time>2018-01-21T11:50:03Z</time>
      </trkpt>
      <trkpt lat="62.641983050569" lon="17.887705836956">
        <ele>48.4</ele>
        <time>2018-01-21T11:50:04Z</time>
      </trkpt>
      <trkpt lat="62.642006603708" lon="17.887668537501">
        <ele>48</ele>
        <time>2018-01-21T11:50:05Z</time>
      </trkpt>
      <trkpt lat="62.642024373336" lon="17.887639871403">
        <ele>48</ele>
        <time>2018-01-21T11:50:06Z</time>
      </trkpt>
      <trkpt lat="62.642061086058" lon="17.887585891967">
        <ele>48</ele>
        <time>2018-01-21T11:50:07Z</time>
      </trkpt>
      <trkpt lat="62.642083130455" lon="17.887536103481">
        <ele>47.8</ele>
        <time>2018-01-21T11:50:08Z</time>
      </trkpt>
      <trkpt lat="62.642106264499" lon="17.887488326651">
        <ele>47.8</ele>
        <time>2018-01-21T11:50:09Z</time>
      </trkpt>
      <trkpt lat="62.642129147086" lon="17.887441639468">
        <ele>47.8</ele>
        <time>2018-01-21T11:50:10Z</time>
      </trkpt>
      <trkpt lat="62.642148341637" lon="17.887429066618">
        <ele>47.6</ele>
        <time>2018-01-21T11:50:11Z</time>
      </trkpt>
      <trkpt lat="62.642165524532" lon="17.887409704429">
        <ele>47.6</ele>
        <time>2018-01-21T11:50:12Z</time>
      </trkpt>
      <trkpt lat="62.642190921689" lon="17.887378942856">
        <ele>47.6</ele>
        <time>2018-01-21T11:50:13Z</time>
      </trkpt>
      <trkpt lat="62.642199303589" lon="17.887345415256">
        <ele>47.6</ele>
        <time>2018-01-21T11:50:14Z</time>
      </trkpt>
      <trkpt lat="62.642218079045" lon="17.887308367258">
        <ele>47.6</ele>
        <time>2018-01-21T11:50:15Z</time>
      </trkpt>
      <trkpt lat="62.642227802049" lon="17.887281126083">
        <ele>48</ele>
        <time>2018-01-21T11:50:16Z</time>
      </trkpt>
      <trkpt lat="62.642228053506" lon="17.887254136365">
        <ele>48.2</ele>
        <time>2018-01-21T11:50:17Z</time>
      </trkpt>
      <trkpt lat="62.642237860329" lon="17.88719672035">
        <ele>49.4</ele>
        <time>2018-01-21T11:50:18Z</time>
      </trkpt>
      <trkpt lat="62.642244733487" lon="17.887161348732">
        <ele>49.6</ele>
        <time>2018-01-21T11:50:19Z</time>
      </trkpt>
      <trkpt lat="62.642248756799" lon="17.887114661549">
        <ele>49.6</ele>
        <time>2018-01-21T11:50:20Z</time>
      </trkpt>
      <trkpt lat="62.642251690464" lon="17.887073841696">
        <ele>49.4</ele>
        <time>2018-01-21T11:50:21Z</time>
      </trkpt>
      <trkpt lat="62.642248170066" lon="17.887027489789">
        <ele>49.2</ele>
        <time>2018-01-21T11:50:22Z</time>
      </trkpt>
      <trkpt lat="62.6422469966" lon="17.886975857285">
        <ele>49</ele>
        <time>2018-01-21T11:50:23Z</time>
      </trkpt>
      <trkpt lat="62.642244649668" lon="17.886923721867">
        <ele>49</ele>
        <time>2018-01-21T11:50:24Z</time>
      </trkpt>
      <trkpt lat="62.642239620528" lon="17.886875861218">
        <ele>49</ele>
        <time>2018-01-21T11:50:25Z</time>
      </trkpt>
      <trkpt lat="62.642237357415" lon="17.886841746885">
        <ele>49</ele>
        <time>2018-01-21T11:50:26Z</time>
      </trkpt>
      <trkpt lat="62.64223107099" lon="17.886800927032">
        <ele>49</ele>
        <time>2018-01-21T11:50:27Z</time>
      </trkpt>
      <trkpt lat="62.642223946375" lon="17.886749629804">
        <ele>49.2</ele>
        <time>2018-01-21T11:50:28Z</time>
      </trkpt>
      <trkpt lat="62.642214977742" lon="17.886708474675">
        <ele>49.2</ele>
        <time>2018-01-21T11:50:29Z</time>
      </trkpt>
      <trkpt lat="62.642205422376" lon="17.88666279332">
        <ele>49.4</ele>
        <time>2018-01-21T11:50:30Z</time>
      </trkpt>
      <trkpt lat="62.642198213942" lon="17.88662423658">
        <ele>49.6</ele>
        <time>2018-01-21T11:50:31Z</time>
      </trkpt>
      <trkpt lat="62.642190670232" lon="17.886584674012">
        <ele>49.8</ele>
        <time>2018-01-21T11:50:32Z</time>
      </trkpt>
      <trkpt lat="62.642185221997" lon="17.886545781996">
        <ele>50</ele>
        <time>2018-01-21T11:50:33Z</time>
      </trkpt>
      <trkpt lat="62.642175163717" lon="17.886520217201">
        <ele>50</ele>
        <time>2018-01-21T11:50:34Z</time>
      </trkpt>
      <trkpt lat="62.642165943627" lon="17.886484594126">
        <ele>50</ele>
        <time>2018-01-21T11:50:35Z</time>
      </trkpt>
      <trkpt lat="62.642157980822" lon="17.886446288843">
        <ele>50.2</ele>
        <time>2018-01-21T11:50:36Z</time>
      </trkpt>
      <trkpt lat="62.642147838723" lon="17.886410414311">
        <ele>50</ele>
        <time>2018-01-21T11:50:37Z</time>
      </trkpt>
      <trkpt lat="62.642132583665" lon="17.886393315235">
        <ele>50</ele>
        <time>2018-01-21T11:50:38Z</time>
      </trkpt>
      <trkpt lat="62.642124369403" lon="17.886374539779">
        <ele>50.2</ele>
        <time>2018-01-21T11:50:39Z</time>
      </trkpt>
      <trkpt lat="62.642116490417" lon="17.886348639708">
        <ele>50.4</ele>
        <time>2018-01-21T11:50:40Z</time>
      </trkpt>
      <trkpt lat="62.642106599775" lon="17.886324751293">
        <ele>50.8</ele>
        <time>2018-01-21T11:50:41Z</time>
      </trkpt>
      <trkpt lat="62.642093188735" lon="17.88630153343">
        <ele>51.2</ele>
        <time>2018-01-21T11:50:42Z</time>
      </trkpt>
      <trkpt lat="62.64208354955" lon="17.886277728834">
        <ele>51.6</ele>
        <time>2018-01-21T11:50:43Z</time>
      </trkpt>
      <trkpt lat="62.642069970872" lon="17.886251325849">
        <ele>52</ele>
        <time>2018-01-21T11:50:44Z</time>
      </trkpt>
      <trkpt lat="62.642057314203" lon="17.886220983371">
        <ele>52.2</ele>
        <time>2018-01-21T11:50:45Z</time>
      </trkpt>
      <trkpt lat="62.642042729697" lon="17.886198687517">
        <ele>52.6</ele>
        <time>2018-01-21T11:50:46Z</time>
      </trkpt>
      <trkpt lat="62.642035269806" lon="17.886179073871">
        <ele>52.6</ele>
        <time>2018-01-21T11:50:47Z</time>
      </trkpt>
      <trkpt lat="62.642019930929" lon="17.886142444968">
        <ele>53</ele>
        <time>2018-01-21T11:50:48Z</time>
      </trkpt>
      <trkpt lat="62.64201314159" lon="17.886115036155">
        <ele>53</ele>
        <time>2018-01-21T11:50:49Z</time>
      </trkpt>
      <trkpt lat="62.641997718894" lon="17.886086034781">
        <ele>53.2</ele>
        <time>2018-01-21T11:50:50Z</time>
      </trkpt>
      <trkpt lat="62.641976093592" lon="17.886045298747">
        <ele>53.4</ele>
        <time>2018-01-21T11:50:51Z</time>
      </trkpt>
      <trkpt lat="62.641961844362" lon="17.88601738702">
        <ele>53.6</ele>
        <time>2018-01-21T11:50:52Z</time>
      </trkpt>
      <trkpt lat="62.641952624272" lon="17.886000036487">
        <ele>53.8</ele>
        <time>2018-01-21T11:50:53Z</time>
      </trkpt>
      <trkpt lat="62.641934100273" lon="17.885957707892">
        <ele>53.8</ele>
        <time>2018-01-21T11:50:54Z</time>
      </trkpt>
      <trkpt lat="62.641914989541" lon="17.88591764241">
        <ele>53.8</ele>
        <time>2018-01-21T11:50:55Z</time>
      </trkpt>
      <trkpt lat="62.641905434175" lon="17.885907081216">
        <ele>53.8</ele>
        <time>2018-01-21T11:50:56Z</time>
      </trkpt>
      <trkpt lat="62.641882300131" lon="17.885852682685">
        <ele>54</ele>
        <time>2018-01-21T11:50:57Z</time>
      </trkpt>
      <trkpt lat="62.641867715625" lon="17.885821753474">
        <ele>54</ele>
        <time>2018-01-21T11:50:58Z</time>
      </trkpt>
      <trkpt lat="62.641856316241" lon="17.885805660226">
        <ele>54.2</ele>
        <time>2018-01-21T11:50:59Z</time>
      </trkpt>
      <trkpt lat="62.641832344007" lon="17.885757045206">
        <ele>54.4</ele>
        <time>2018-01-21T11:51:00Z</time>
      </trkpt>
      <trkpt lat="62.64182287246" lon="17.885735419904">
        <ele>54.4</ele>
        <time>2018-01-21T11:51:01Z</time>
      </trkpt>
      <trkpt lat="62.641794457819" lon="17.885680350821">
        <ele>54.6</ele>
        <time>2018-01-21T11:51:02Z</time>
      </trkpt>
      <trkpt lat="62.641778951304" lon="17.885645649755">
        <ele>54.6</ele>
        <time>2018-01-21T11:51:03Z</time>
      </trkpt>
      <trkpt lat="62.641765540264" lon="17.885621342245">
        <ele>54.6</ele>
        <time>2018-01-21T11:51:04Z</time>
      </trkpt>
      <trkpt lat="62.641741819487" lon="17.885574487424">
        <ele>54.6</ele>
        <time>2018-01-21T11:51:05Z</time>
      </trkpt>
      <trkpt lat="62.641730168646" lon="17.885557388348">
        <ele>54.4</ele>
        <time>2018-01-21T11:51:06Z</time>
      </trkpt>
      <trkpt lat="62.641712147561" lon="17.885526626775">
        <ele>54.4</ele>
        <time>2018-01-21T11:51:07Z</time>
      </trkpt>
      <trkpt lat="62.641693120648" lon="17.885489830234">
        <ele>54.4</ele>
        <time>2018-01-21T11:51:08Z</time>
      </trkpt>
      <trkpt lat="62.641678200866" lon="17.885463930163">
        <ele>54.4</ele>
        <time>2018-01-21T11:51:09Z</time>
      </trkpt>
      <trkpt lat="62.641662359075" lon="17.88543568316">
        <ele>54.6</ele>
        <time>2018-01-21T11:51:10Z</time>
      </trkpt>
      <trkpt lat="62.641652552252" lon="17.885420260464">
        <ele>54.6</ele>
        <time>2018-01-21T11:51:11Z</time>
      </trkpt>
      <trkpt lat="62.64163344152" lon="17.885382709552">
        <ele>54.8</ele>
        <time>2018-01-21T11:51:12Z</time>
      </trkpt>
      <trkpt lat="62.641619611385" lon="17.885359072594">
        <ele>54.8</ele>
        <time>2018-01-21T11:51:13Z</time>
      </trkpt>
      <trkpt lat="62.641605865069" lon="17.885337363473">
        <ele>55.2</ele>
        <time>2018-01-21T11:51:14Z</time>
      </trkpt>
      <trkpt lat="62.641595471513" lon="17.885304757882">
        <ele>55.4</ele>
        <time>2018-01-21T11:51:15Z</time>
      </trkpt>
      <trkpt lat="62.641576863695" lon="17.885288413177">
        <ele>55.6</ele>
        <time>2018-01-21T11:51:16Z</time>
      </trkpt>
      <trkpt lat="62.641564793759" lon="17.885266787875">
        <ele>55.8</ele>
        <time>2018-01-21T11:51:17Z</time>
      </trkpt>
      <trkpt lat="62.641547275588" lon="17.885240133433">
        <ele>56</ele>
        <time>2018-01-21T11:51:18Z</time>
      </trkpt>
      <trkpt lat="62.641536714394" lon="17.885219849235">
        <ele>56.2</ele>
        <time>2018-01-21T11:51:19Z</time>
      </trkpt>
      <trkpt lat="62.641521794612" lon="17.885194703535">
        <ele>56.4</ele>
        <time>2018-01-21T11:51:20Z</time>
      </trkpt>
      <trkpt lat="62.641506288097" lon="17.88516327141">
        <ele>56.4</ele>
        <time>2018-01-21T11:51:21Z</time>
      </trkpt>
      <trkpt lat="62.641496732731" lon="17.885127396878">
        <ele>56.8</ele>
        <time>2018-01-21T11:51:22Z</time>
      </trkpt>
      <trkpt lat="62.641488853745" lon="17.885099485151">
        <ele>57</ele>
        <time>2018-01-21T11:51:23Z</time>
      </trkpt>
      <trkpt lat="62.64147167085" lon="17.885072914528">
        <ele>57.2</ele>
        <time>2018-01-21T11:51:24Z</time>
      </trkpt>
      <trkpt lat="62.641453314489" lon="17.885048020285">
        <ele>57.4</ele>
        <time>2018-01-21T11:51:25Z</time>
      </trkpt>
      <trkpt lat="62.641436299232" lon="17.885022371671">
        <ele>57.6</ele>
        <time>2018-01-21T11:51:26Z</time>
      </trkpt>
      <trkpt lat="62.64142305583" lon="17.88499730979">
        <ele>57.6</ele>
        <time>2018-01-21T11:51:27Z</time>
      </trkpt>
      <trkpt lat="62.641406711125" lon="17.884974930117">
        <ele>57.8</ele>
        <time>2018-01-21T11:51:28Z</time>
      </trkpt>
      <trkpt lat="62.641391372248" lon="17.884942911259">
        <ele>58</ele>
        <time>2018-01-21T11:51:29Z</time>
      </trkpt>
      <trkpt lat="62.641372177697" lon="17.884909970392">
        <ele>58.2</ele>
        <time>2018-01-21T11:51:30Z</time>
      </trkpt>
      <trkpt lat="62.641357341734" lon="17.88488080138">
        <ele>58.4</ele>
        <time>2018-01-21T11:51:31Z</time>
      </trkpt>
      <trkpt lat="62.641342338133" lon="17.884859930449">
        <ele>58.6</ele>
        <time>2018-01-21T11:51:32Z</time>
      </trkpt>
      <trkpt lat="62.64132414941" lon="17.884828498324">
        <ele>58.8</ele>
        <time>2018-01-21T11:51:33Z</time>
      </trkpt>
      <trkpt lat="62.641303027022" lon="17.884798239665">
        <ele>58.8</ele>
        <time>2018-01-21T11:51:34Z</time>
      </trkpt>
      <trkpt lat="62.641290873267" lon="17.884770411757">
        <ele>59</ele>
        <time>2018-01-21T11:51:35Z</time>
      </trkpt>
      <trkpt lat="62.641271511078" lon="17.884750379016">
        <ele>59</ele>
        <time>2018-01-21T11:51:36Z</time>
      </trkpt>
      <trkpt lat="62.641256339839" lon="17.884721796737">
        <ele>59</ele>
        <time>2018-01-21T11:51:37Z</time>
      </trkpt>
      <trkpt lat="62.641238486392" lon="17.884677037391">
        <ele>59.2</ele>
        <time>2018-01-21T11:51:38Z</time>
      </trkpt>
      <trkpt lat="62.641219459479" lon="17.884656334098">
        <ele>59.4</ele>
        <time>2018-01-21T11:51:39Z</time>
      </trkpt>
      <trkpt lat="62.64120261186" lon="17.884626326896">
        <ele>59.4</ele>
        <time>2018-01-21T11:51:40Z</time>
      </trkpt>
      <trkpt lat="62.641189619915" lon="17.884611323295">
        <ele>59.6</ele>
        <time>2018-01-21T11:51:41Z</time>
      </trkpt>
      <trkpt lat="62.641172353201" lon="17.884587937794">
        <ele>59.8</ele>
        <time>2018-01-21T11:51:42Z</time>
      </trkpt>
      <trkpt lat="62.641151398451" lon="17.884553823461">
        <ele>60</ele>
        <time>2018-01-21T11:51:43Z</time>
      </trkpt>
      <trkpt lat="62.641134215556" lon="17.884521972241">
        <ele>60.2</ele>
        <time>2018-01-21T11:51:44Z</time>
      </trkpt>
      <trkpt lat="62.641119463412" lon="17.884489115193">
        <ele>60.4</ele>
        <time>2018-01-21T11:51:45Z</time>
      </trkpt>
      <trkpt lat="62.64110622001" lon="17.884463634217">
        <ele>60.6</ele>
        <time>2018-01-21T11:51:46Z</time>
      </trkpt>
      <trkpt lat="62.641091048771" lon="17.884443936752">
        <ele>60.8</ele>
        <time>2018-01-21T11:51:47Z</time>
      </trkpt>
      <trkpt lat="62.641078392102" lon="17.884414013369">
        <ele>60.8</ele>
        <time>2018-01-21T11:51:48Z</time>
      </trkpt>
      <trkpt lat="62.641061544483" lon="17.884376713914">
        <ele>61</ele>
        <time>2018-01-21T11:51:49Z</time>
      </trkpt>
      <trkpt lat="62.641051402384" lon="17.884338995364">
        <ele>61.2</ele>
        <time>2018-01-21T11:51:50Z</time>
      </trkpt>
      <trkpt lat="62.641043607217" lon="17.884318794985">
        <ele>61.4</ele>
        <time>2018-01-21T11:51:51Z</time>
      </trkpt>
      <trkpt lat="62.641022736286" lon="17.884258696762">
        <ele>61.4</ele>
        <time>2018-01-21T11:51:52Z</time>
      </trkpt>
      <trkpt lat="62.641013013282" lon="17.884237239098">
        <ele>61.6</ele>
        <time>2018-01-21T11:51:53Z</time>
      </trkpt>
      <trkpt lat="62.640999602242" lon="17.884200945471">
        <ele>61.8</ele>
        <time>2018-01-21T11:51:54Z</time>
      </trkpt>
      <trkpt lat="62.640974037447" lon="17.88414654694">
        <ele>61.8</ele>
        <time>2018-01-21T11:51:55Z</time>
      </trkpt>
      <trkpt lat="62.640969259764" lon="17.884110672408">
        <ele>62</ele>
        <time>2018-01-21T11:51:56Z</time>
      </trkpt>
      <trkpt lat="62.640958950027" lon="17.884084856156">
        <ele>62</ele>
        <time>2018-01-21T11:51:57Z</time>
      </trkpt>
      <trkpt lat="62.640947885919" lon="17.884023081553">
        <ele>62</ele>
        <time>2018-01-21T11:51:58Z</time>
      </trkpt>
      <trkpt lat="62.64093858201" lon="17.883986620288">
        <ele>62.2</ele>
        <time>2018-01-21T11:51:59Z</time>
      </trkpt>
      <trkpt lat="62.640926763531" lon="17.883964911167">
        <ele>62.2</ele>
        <time>2018-01-21T11:52:00Z</time>
      </trkpt>
      <trkpt lat="62.640910502645" lon="17.883910261179">
        <ele>62.4</ele>
        <time>2018-01-21T11:52:01Z</time>
      </trkpt>
      <trkpt lat="62.640898432709" lon="17.883861310883">
        <ele>62.4</ele>
        <time>2018-01-21T11:52:02Z</time>
      </trkpt>
      <trkpt lat="62.640888793524" lon="17.883825184894">
        <ele>62.4</ele>
        <time>2018-01-21T11:52:03Z</time>
      </trkpt>
      <trkpt lat="62.640883345289" lon="17.883789561819">
        <ele>62.6</ele>
        <time>2018-01-21T11:52:04Z</time>
      </trkpt>
      <trkpt lat="62.640878483787" lon="17.883742371722">
        <ele>62.6</ele>
        <time>2018-01-21T11:52:05Z</time>
      </trkpt>
      <trkpt lat="62.640877561778" lon="17.883701970964">
        <ele>62.8</ele>
        <time>2018-01-21T11:52:06Z</time>
      </trkpt>
      <trkpt lat="62.640875131027" lon="17.883664922966">
        <ele>63</ele>
        <time>2018-01-21T11:52:07Z</time>
      </trkpt>
      <trkpt lat="62.640869682792" lon="17.883630138081">
        <ele>63</ele>
        <time>2018-01-21T11:52:08Z</time>
      </trkpt>
      <trkpt lat="62.640863815462" lon="17.883599125051">
        <ele>63.4</ele>
        <time>2018-01-21T11:52:09Z</time>
      </trkpt>
      <trkpt lat="62.640867168222" lon="17.883558640474">
        <ele>63.6</ele>
        <time>2018-01-21T11:52:10Z</time>
      </trkpt>
      <trkpt lat="62.640867754955" lon="17.883529806738">
        <ele>63.8</ele>
        <time>2018-01-21T11:52:11Z</time>
      </trkpt>
      <trkpt lat="62.640865827118" lon="17.883490747084">
        <ele>64</ele>
        <time>2018-01-21T11:52:12Z</time>
      </trkpt>
      <trkpt lat="62.640869263697" lon="17.883459985511">
        <ele>64.2</ele>
        <time>2018-01-21T11:52:13Z</time>
      </trkpt>
      <trkpt lat="62.640863312548" lon="17.883436180915">
        <ele>64.2</ele>
        <time>2018-01-21T11:52:14Z</time>
      </trkpt>
      <trkpt lat="62.640861049435" lon="17.883402904772">
        <ele>64.4</ele>
        <time>2018-01-21T11:52:15Z</time>
      </trkpt>
      <trkpt lat="62.640856774666" lon="17.883359905625">
        <ele>64.6</ele>
        <time>2018-01-21T11:52:16Z</time>
      </trkpt>
      <trkpt lat="62.640854930648" lon="17.883327970586">
        <ele>64.6</ele>
        <time>2018-01-21T11:52:17Z</time>
      </trkpt>
      <trkpt lat="62.640850823517" lon="17.883283378878">
        <ele>64.8</ele>
        <time>2018-01-21T11:52:18Z</time>
      </trkpt>
      <trkpt lat="62.640847386938" lon="17.883245241233">
        <ele>65</ele>
        <time>2018-01-21T11:52:19Z</time>
      </trkpt>
      <trkpt lat="62.640841016694" lon="17.883202661181">
        <ele>65.2</ele>
        <time>2018-01-21T11:52:20Z</time>
      </trkpt>
      <trkpt lat="62.640832718613" lon="17.883169804133">
        <ele>65.4</ele>
        <time>2018-01-21T11:52:21Z</time>
      </trkpt>
      <trkpt lat="62.640829030577" lon="17.88312646971">
        <ele>65.8</ele>
        <time>2018-01-21T11:52:22Z</time>
      </trkpt>
      <trkpt lat="62.640827354197" lon="17.883097887431">
        <ele>66</ele>
        <time>2018-01-21T11:52:23Z</time>
      </trkpt>
      <trkpt lat="62.640820816315" lon="17.883060336519">
        <ele>66.2</ele>
        <time>2018-01-21T11:52:24Z</time>
      </trkpt>
      <trkpt lat="62.640820983953" lon="17.883016163906">
        <ele>66.4</ele>
        <time>2018-01-21T11:52:25Z</time>
      </trkpt>
      <trkpt lat="62.64082374998" lon="17.88296721361">
        <ele>66.4</ele>
        <time>2018-01-21T11:52:26Z</time>
      </trkpt>
      <trkpt lat="62.640822827971" lon="17.882932344906">
        <ele>66.6</ele>
        <time>2018-01-21T11:52:27Z</time>
      </trkpt>
      <trkpt lat="62.640829114396" lon="17.882890267768">
        <ele>66.8</ele>
        <time>2018-01-21T11:52:28Z</time>
      </trkpt>
      <trkpt lat="62.640836825744" lon="17.882846849526">
        <ele>67</ele>
        <time>2018-01-21T11:52:29Z</time>
      </trkpt>
      <trkpt lat="62.640849901508" lon="17.882801754904">
        <ele>67.2</ele>
        <time>2018-01-21T11:52:30Z</time>
      </trkpt>
      <trkpt lat="62.640856690847" lon="17.882749954762">
        <ele>67.4</ele>
        <time>2018-01-21T11:52:31Z</time>
      </trkpt>
      <trkpt lat="62.6408639831" lon="17.882713912592">
        <ele>67.8</ele>
        <time>2018-01-21T11:52:32Z</time>
      </trkpt>
      <trkpt lat="62.640881082176" lon="17.882643756089">
        <ele>67.8</ele>
        <time>2018-01-21T11:52:33Z</time>
      </trkpt>
      <trkpt lat="62.640890134628" lon="17.882590782481">
        <ele>68</ele>
        <time>2018-01-21T11:52:34Z</time>
      </trkpt>
      <trkpt lat="62.640904719134" lon="17.882518362865">
        <ele>68</ele>
        <time>2018-01-21T11:52:35Z</time>
      </trkpt>
      <trkpt lat="62.64090170165" lon="17.882451391484">
        <ele>67.8</ele>
        <time>2018-01-21T11:52:36Z</time>
      </trkpt>
      <trkpt lat="62.640906982247" lon="17.882414343486">
        <ele>67.8</ele>
        <time>2018-01-21T11:52:37Z</time>
      </trkpt>
      <trkpt lat="62.640902958935" lon="17.882340750404">
        <ele>67.6</ele>
        <time>2018-01-21T11:52:38Z</time>
      </trkpt>
      <trkpt lat="62.640898516528" lon="17.88231091084">
        <ele>67.6</ele>
        <time>2018-01-21T11:52:39Z</time>
      </trkpt>
      <trkpt lat="62.640894828492" lon="17.882261960544">
        <ele>67.4</ele>
        <time>2018-01-21T11:52:40Z</time>
      </trkpt>
      <trkpt lat="62.640893906483" lon="17.882230193143">
        <ele>67.6</ele>
        <time>2018-01-21T11:52:41Z</time>
      </trkpt>
      <trkpt lat="62.640883093832" lon="17.882189038014">
        <ele>67.8</ele>
        <time>2018-01-21T11:52:42Z</time>
      </trkpt>
      <trkpt lat="62.640878735244" lon="17.882149475446">
        <ele>68</ele>
        <time>2018-01-21T11:52:43Z</time>
      </trkpt>
      <trkpt lat="62.640870185706" lon="17.882119300606">
        <ele>68</ele>
        <time>2018-01-21T11:52:44Z</time>
      </trkpt>
      <trkpt lat="62.640859959788" lon="17.882076888192">
        <ele>68.2</ele>
        <time>2018-01-21T11:52:45Z</time>
      </trkpt>
      <trkpt lat="62.640855182105" lon="17.882037074167">
        <ele>68.4</ele>
        <time>2018-01-21T11:52:46Z</time>
      </trkpt>
      <trkpt lat="62.640847470757" lon="17.882009916811">
        <ele>68.6</ele>
        <time>2018-01-21T11:52:47Z</time>
      </trkpt>
      <trkpt lat="62.640836155192" lon="17.881966163293">
        <ele>68.8</ele>
        <time>2018-01-21T11:52:48Z</time>
      </trkpt>
      <trkpt lat="62.640834562631" lon="17.881943448344">
        <ele>68.8</ele>
        <time>2018-01-21T11:52:49Z</time>
      </trkpt>
      <trkpt lat="62.640829449672" lon="17.881897431713">
        <ele>69</ele>
        <time>2018-01-21T11:52:50Z</time>
      </trkpt>
      <trkpt lat="62.640814110795" lon="17.881870106719">
        <ele>69.2</ele>
        <time>2018-01-21T11:52:51Z</time>
      </trkpt>
      <trkpt lat="62.640800783574" lon="17.881837836404">
        <ele>69.6</ele>
        <time>2018-01-21T11:52:52Z</time>
      </trkpt>
      <trkpt lat="62.640789635647" lon="17.881801878053">
        <ele>69.8</ele>
        <time>2018-01-21T11:52:53Z</time>
      </trkpt>
      <trkpt lat="62.640777398073" lon="17.881760303829">
        <ele>70</ele>
        <time>2018-01-21T11:52:54Z</time>
      </trkpt>
      <trkpt lat="62.640770776372" lon="17.88173423612">
        <ele>70.2</ele>
        <time>2018-01-21T11:52:55Z</time>
      </trkpt>
      <trkpt lat="62.640761556282" lon="17.881695511742">
        <ele>70.4</ele>
        <time>2018-01-21T11:52:56Z</time>
      </trkpt>
      <trkpt lat="62.640745882129" lon="17.881653266966">
        <ele>70.4</ele>
        <time>2018-01-21T11:52:57Z</time>
      </trkpt>
      <trkpt lat="62.640737835505" lon="17.881616973339">
        <ele>70.8</ele>
        <time>2018-01-21T11:52:58Z</time>
      </trkpt>
      <trkpt lat="62.640731213804" lon="17.881590737992">
        <ele>70.8</ele>
        <time>2018-01-21T11:52:59Z</time>
      </trkpt>
      <trkpt lat="62.640718808592" lon="17.881547571207">
        <ele>71</ele>
        <time>2018-01-21T11:53:00Z</time>
      </trkpt>
      <trkpt lat="62.640693495254" lon="17.881522006412">
        <ele>71</ele>
        <time>2018-01-21T11:53:01Z</time>
      </trkpt>
      <trkpt lat="62.640689471942" lon="17.881479342541">
        <ele>71.2</ele>
        <time>2018-01-21T11:53:02Z</time>
      </trkpt>
      <trkpt lat="62.6406795813" lon="17.881441037258">
        <ele>71.4</ele>
        <time>2018-01-21T11:53:03Z</time>
      </trkpt>
      <trkpt lat="62.640658878007" lon="17.881400887957">
        <ele>71.4</ele>
        <time>2018-01-21T11:53:04Z</time>
      </trkpt>
      <trkpt lat="62.640647143347" lon="17.881366689805">
        <ele>71.4</ele>
        <time>2018-01-21T11:53:05Z</time>
      </trkpt>
      <trkpt lat="62.640638593809" lon="17.881334335671">
        <ele>71.6</ele>
        <time>2018-01-21T11:53:06Z</time>
      </trkpt>
      <trkpt lat="62.640622500561" lon="17.881273483077">
        <ele>71.6</ele>
        <time>2018-01-21T11:53:07Z</time>
      </trkpt>
      <trkpt lat="62.6406125261" lon="17.881226209161">
        <ele>71.6</ele>
        <time>2018-01-21T11:53:08Z</time>
      </trkpt>
      <trkpt lat="62.640609089521" lon="17.881201314918">
        <ele>71.8</ele>
        <time>2018-01-21T11:53:09Z</time>
      </trkpt>
      <trkpt lat="62.640604060381" lon="17.881148928043">
        <ele>72</ele>
        <time>2018-01-21T11:53:10Z</time>
      </trkpt>
      <trkpt lat="62.640600875259" lon="17.881096289711">
        <ele>72</ele>
        <time>2018-01-21T11:53:11Z</time>
      </trkpt>
      <trkpt lat="62.640596851947" lon="17.881041807361">
        <ele>72.2</ele>
        <time>2018-01-21T11:53:12Z</time>
      </trkpt>
      <trkpt lat="62.640594002101" lon="17.881009537046">
        <ele>72.4</ele>
        <time>2018-01-21T11:53:13Z</time>
      </trkpt>
      <trkpt lat="62.640597773956" lon="17.880959329465">
        <ele>72.4</ele>
        <time>2018-01-21T11:53:14Z</time>
      </trkpt>
      <trkpt lat="62.640607832236" lon="17.880897303405">
        <ele>72.6</ele>
        <time>2018-01-21T11:53:15Z</time>
      </trkpt>
      <trkpt lat="62.640614621575" lon="17.880847347281">
        <ele>72.8</ele>
        <time>2018-01-21T11:53:16Z</time>
      </trkpt>
      <trkpt lat="62.64062426076" lon="17.880794708949">
        <ele>73</ele>
        <time>2018-01-21T11:53:17Z</time>
      </trkpt>
      <trkpt lat="62.640629625176" lon="17.880754727286">
        <ele>73.4</ele>
        <time>2018-01-21T11:53:18Z</time>
      </trkpt>
      <trkpt lat="62.640640270189" lon="17.880704519705">
        <ele>73.4</ele>
        <time>2018-01-21T11:53:19Z</time>
      </trkpt>
      <trkpt lat="62.640655944342" lon="17.880652551925">
        <ele>73.6</ele>
        <time>2018-01-21T11:53:20Z</time>
      </trkpt>
      <trkpt lat="62.640671283219" lon="17.880613492271">
        <ele>73.6</ele>
        <time>2018-01-21T11:53:21Z</time>
      </trkpt>
      <trkpt lat="62.640686538277" lon="17.88057166659">
        <ele>73.6</ele>
        <time>2018-01-21T11:53:22Z</time>
      </trkpt>
      <trkpt lat="62.640699111127" lon="17.880538390447">
        <ele>73.6</ele>
        <time>2018-01-21T11:53:23Z</time>
      </trkpt>
      <trkpt lat="62.640713025081" lon="17.880508131788">
        <ele>73.6</ele>
        <time>2018-01-21T11:53:24Z</time>
      </trkpt>
      <trkpt lat="62.640734147469" lon="17.880460690234">
        <ele>73.8</ele>
        <time>2018-01-21T11:53:25Z</time>
      </trkpt>
      <trkpt lat="62.640748061423" lon="17.880425234797">
        <ele>74</ele>
        <time>2018-01-21T11:53:26Z</time>
      </trkpt>
      <trkpt lat="62.640760634273" lon="17.880388689713">
        <ele>74</ele>
        <time>2018-01-21T11:53:27Z</time>
      </trkpt>
      <trkpt lat="62.64078435505" lon="17.880332195707">
        <ele>74.2</ele>
        <time>2018-01-21T11:53:28Z</time>
      </trkpt>
      <trkpt lat="62.640789803285" lon="17.880311073319">
        <ele>74.6</ele>
        <time>2018-01-21T11:53:29Z</time>
      </trkpt>
      <trkpt lat="62.640812266777" lon="17.88026237448">
        <ele>74.8</ele>
        <time>2018-01-21T11:53:30Z</time>
      </trkpt>
      <trkpt lat="62.640829030577" lon="17.880210658157">
        <ele>74.8</ele>
        <time>2018-01-21T11:53:31Z</time>
      </trkpt>
      <trkpt lat="62.640837663934" lon="17.880182914068">
        <ele>75.2</ele>
        <time>2018-01-21T11:53:32Z</time>
      </trkpt>
      <trkpt lat="62.640860295064" lon="17.880107896063">
        <ele>75.2</ele>
        <time>2018-01-21T11:53:33Z</time>
      </trkpt>
      <trkpt lat="62.64086985043" lon="17.880075793386">
        <ele>75</ele>
        <time>2018-01-21T11:53:34Z</time>
      </trkpt>
      <trkpt lat="62.640885021669" lon="17.880027932737">
        <ele>75</ele>
        <time>2018-01-21T11:53:35Z</time>
      </trkpt>
      <trkpt lat="62.640903880944" lon="17.879962386279">
        <ele>75.2</ele>
        <time>2018-01-21T11:53:36Z</time>
      </trkpt>
      <trkpt lat="62.640914609776" lon="17.87992793667">
        <ele>75.2</ele>
        <time>2018-01-21T11:53:37Z</time>
      </trkpt>
      <trkpt lat="62.640931122119" lon="17.879874879243">
        <ele>75.2</ele>
        <time>2018-01-21T11:53:38Z</time>
      </trkpt>
      <trkpt lat="62.640944365521" lon="17.879819726341">
        <ele>75.2</ele>
        <time>2018-01-21T11:53:39Z</time>
      </trkpt>
      <trkpt lat="62.640951406317" lon="17.879782259248">
        <ele>75.2</ele>
        <time>2018-01-21T11:53:40Z</time>
      </trkpt>
      <trkpt lat="62.640961464597" lon="17.879753509331">
        <ele>75.2</ele>
        <time>2018-01-21T11:53:41Z</time>
      </trkpt>
      <trkpt lat="62.640982084071" lon="17.879683604285">
        <ele>75.4</ele>
        <time>2018-01-21T11:53:42Z</time>
      </trkpt>
      <trkpt lat="62.640990130695" lon="17.879657452757">
        <ele>75.4</ele>
        <time>2018-01-21T11:53:43Z</time>
      </trkpt>
      <trkpt lat="62.641001027165" lon="17.879614788886">
        <ele>75.4</ele>
        <time>2018-01-21T11:53:44Z</time>
      </trkpt>
      <trkpt lat="62.641020892268" lon="17.87955494212">
        <ele>75.6</ele>
        <time>2018-01-21T11:53:45Z</time>
      </trkpt>
      <trkpt lat="62.641031537281" lon="17.879512529706">
        <ele>75.8</ele>
        <time>2018-01-21T11:53:46Z</time>
      </trkpt>
      <trkpt lat="62.641039332448" lon="17.879480175572">
        <ele>75.8</ele>
        <time>2018-01-21T11:53:47Z</time>
      </trkpt>
      <trkpt lat="62.641054755144" lon="17.879425525584">
        <ele>75.8</ele>
        <time>2018-01-21T11:53:48Z</time>
      </trkpt>
      <trkpt lat="62.641067998546" lon="17.879374479813">
        <ele>76</ele>
        <time>2018-01-21T11:53:49Z</time>
      </trkpt>
      <trkpt lat="62.641079146473" lon="17.879335168702">
        <ele>76</ele>
        <time>2018-01-21T11:53:50Z</time>
      </trkpt>
      <trkpt lat="62.641086606364" lon="17.879301976378">
        <ele>76.2</ele>
        <time>2018-01-21T11:53:51Z</time>
      </trkpt>
      <trkpt lat="62.641101442327" lon="17.879247661666">
        <ele>76.4</ele>
        <time>2018-01-21T11:53:52Z</time>
      </trkpt>
      <trkpt lat="62.641110997693" lon="17.87920541689">
        <ele>76.4</ele>
        <time>2018-01-21T11:53:53Z</time>
      </trkpt>
      <trkpt lat="62.641121391249" lon="17.879168704168">
        <ele>76.8</ele>
        <time>2018-01-21T11:53:54Z</time>
      </trkpt>
      <trkpt lat="62.641134802289" lon="17.879120089148">
        <ele>77</ele>
        <time>2018-01-21T11:53:55Z</time>
      </trkpt>
      <trkpt lat="62.641142681275" lon="17.879089327575">
        <ele>77.2</ele>
        <time>2018-01-21T11:53:56Z</time>
      </trkpt>
      <trkpt lat="62.641157684876" lon="17.87904448441">
        <ele>77.6</ele>
        <time>2018-01-21T11:53:57Z</time>
      </trkpt>
      <trkpt lat="62.641170509183" lon="17.879003161643">
        <ele>77.6</ele>
        <time>2018-01-21T11:53:58Z</time>
      </trkpt>
      <trkpt lat="62.641175370685" lon="17.878978770314">
        <ele>77.6</ele>
        <time>2018-01-21T11:53:59Z</time>
      </trkpt>
      <trkpt lat="62.641192637399" lon="17.878916576616">
        <ele>77.8</ele>
        <time>2018-01-21T11:54:00Z</time>
      </trkpt>
      <trkpt lat="62.641201689851" lon="17.878887575242">
        <ele>77.8</ele>
        <time>2018-01-21T11:54:01Z</time>
      </trkpt>
      <trkpt lat="62.641210407027" lon="17.878855724022">
        <ele>78</ele>
        <time>2018-01-21T11:54:02Z</time>
      </trkpt>
      <trkpt lat="62.64122943394" lon="17.878805516441">
        <ele>78</ele>
        <time>2018-01-21T11:54:03Z</time>
      </trkpt>
      <trkpt lat="62.6412411686" lon="17.87877123447">
        <ele>78</ele>
        <time>2018-01-21T11:54:04Z</time>
      </trkpt>
      <trkpt lat="62.641249466681" lon="17.878738209784">
        <ele>78.2</ele>
        <time>2018-01-21T11:54:05Z</time>
      </trkpt>
      <trkpt lat="62.641264889377" lon="17.878697892845">
        <ele>78.2</ele>
        <time>2018-01-21T11:54:06Z</time>
      </trkpt>
      <trkpt lat="62.641282491367" lon="17.878659671381">
        <ele>78.4</ele>
        <time>2018-01-21T11:54:07Z</time>
      </trkpt>
      <trkpt lat="62.641289951258" lon="17.878626143781">
        <ele>78.4</ele>
        <time>2018-01-21T11:54:08Z</time>
      </trkpt>
      <trkpt lat="62.641294980398" lon="17.878596471855">
        <ele>78.6</ele>
        <time>2018-01-21T11:54:09Z</time>
      </trkpt>
      <trkpt lat="62.641315180777" lon="17.878550958138">
        <ele>78.6</ele>
        <time>2018-01-21T11:54:10Z</time>
      </trkpt>
      <trkpt lat="62.641324652324" lon="17.878516257072">
        <ele>78.8</ele>
        <time>2018-01-21T11:54:11Z</time>
      </trkpt>
      <trkpt lat="62.641330687292" lon="17.878499493272">
        <ele>78.8</ele>
        <time>2018-01-21T11:54:12Z</time>
      </trkpt>
      <trkpt lat="62.641349881843" lon="17.878447944587">
        <ele>78.8</ele>
        <time>2018-01-21T11:54:13Z</time>
      </trkpt>
      <trkpt lat="62.64135683882" lon="17.878427660389">
        <ele>79</ele>
        <time>2018-01-21T11:54:14Z</time>
      </trkpt>
      <trkpt lat="62.641372596792" lon="17.878386002346">
        <ele>79.2</ele>
        <time>2018-01-21T11:54:15Z</time>
      </trkpt>
      <trkpt lat="62.641388438583" lon="17.87833118472">
        <ele>79.2</ele>
        <time>2018-01-21T11:54:16Z</time>
      </trkpt>
      <trkpt lat="62.641395479379" lon="17.878318108956">
        <ele>79.4</ele>
        <time>2018-01-21T11:54:17Z</time>
      </trkpt>
      <trkpt lat="62.641418361966" lon="17.878265135348">
        <ele>79.4</ele>
        <time>2018-01-21T11:54:18Z</time>
      </trkpt>
      <trkpt lat="62.641427414418" lon="17.878225237504">
        <ele>79.6</ele>
        <time>2018-01-21T11:54:19Z</time>
      </trkpt>
      <trkpt lat="62.641448285349" lon="17.878177963588">
        <ele>79.8</ele>
        <time>2018-01-21T11:54:20Z</time>
      </trkpt>
      <trkpt lat="62.641465887339" lon="17.878130354396">
        <ele>80</ele>
        <time>2018-01-21T11:54:21Z</time>
      </trkpt>
      <trkpt lat="62.641474017782" lon="17.878106633619">
        <ele>80</ele>
        <time>2018-01-21T11:54:22Z</time>
      </trkpt>
      <trkpt lat="62.641495223989" lon="17.878049133785">
        <ele>80</ele>
        <time>2018-01-21T11:54:23Z</time>
      </trkpt>
      <trkpt lat="62.641505701364" lon="17.878027173207">
        <ele>80</ele>
        <time>2018-01-21T11:54:24Z</time>
      </trkpt>
      <trkpt lat="62.641520453508" lon="17.877980737481">
        <ele>80.2</ele>
        <time>2018-01-21T11:54:25Z</time>
      </trkpt>
      <trkpt lat="62.641539648059" lon="17.877937151601">
        <ele>80.2</ele>
        <time>2018-01-21T11:54:26Z</time>
      </trkpt>
      <trkpt lat="62.641554986936" lon="17.877907144399">
        <ele>80.2</ele>
        <time>2018-01-21T11:54:27Z</time>
      </trkpt>
      <trkpt lat="62.64156554813" lon="17.877865653994">
        <ele>80.2</ele>
        <time>2018-01-21T11:54:28Z</time>
      </trkpt>
      <trkpt lat="62.64157560641" lon="17.877845285977">
        <ele>80.4</ele>
        <time>2018-01-21T11:54:29Z</time>
      </trkpt>
      <trkpt lat="62.641598069902" lon="17.877789965437">
        <ele>80.6</ele>
        <time>2018-01-21T11:54:30Z</time>
      </trkpt>
      <trkpt lat="62.641610056019" lon="17.877756354018">
        <ele>80.8</ele>
        <time>2018-01-21T11:54:31Z</time>
      </trkpt>
      <trkpt lat="62.641618018824" lon="17.87772265878">
        <ele>81</ele>
        <time>2018-01-21T11:54:32Z</time>
      </trkpt>
      <trkpt lat="62.641631094588" lon="17.877686700429">
        <ele>81</ele>
        <time>2018-01-21T11:54:33Z</time>
      </trkpt>
      <trkpt lat="62.641647439293" lon="17.877646718766">
        <ele>81.2</ele>
        <time>2018-01-21T11:54:34Z</time>
      </trkpt>
      <trkpt lat="62.641660682695" lon="17.877612436795">
        <ele>81.4</ele>
        <time>2018-01-21T11:54:35Z</time>
      </trkpt>
      <trkpt lat="62.64167199826" lon="17.877569186191">
        <ele>81.6</ele>
        <time>2018-01-21T11:54:36Z</time>
      </trkpt>
      <trkpt lat="62.641683565282" lon="17.877536329143">
        <ele>81.8</ele>
        <time>2018-01-21T11:54:37Z</time>
      </trkpt>
      <trkpt lat="62.641699490892" lon="17.877504477923">
        <ele>81.8</ele>
        <time>2018-01-21T11:54:38Z</time>
      </trkpt>
      <trkpt lat="62.641710219724" lon="17.877474638359">
        <ele>82</ele>
        <time>2018-01-21T11:54:39Z</time>
      </trkpt>
      <trkpt lat="62.641732264121" lon="17.877422251484">
        <ele>82.2</ele>
        <time>2018-01-21T11:54:40Z</time>
      </trkpt>
      <trkpt lat="62.641745088428" lon="17.877398027793">
        <ele>82.4</ele>
        <time>2018-01-21T11:54:41Z</time>
      </trkpt>
      <trkpt lat="62.641760678762" lon="17.877354777189">
        <ele>82.6</ele>
        <time>2018-01-21T11:54:42Z</time>
      </trkpt>
      <trkpt lat="62.641771910508" lon="17.87732032758">
        <ele>83</ele>
        <time>2018-01-21T11:54:43Z</time>
      </trkpt>
      <trkpt lat="62.641780795322" lon="17.87729769645">
        <ele>83</ele>
        <time>2018-01-21T11:54:44Z</time>
      </trkpt>
      <trkpt lat="62.641793200534" lon="17.877265509954">
        <ele>83.2</ele>
        <time>2018-01-21T11:54:45Z</time>
      </trkpt>
      <trkpt lat="62.64180778504" lon="17.877213709812">
        <ele>83.4</ele>
        <time>2018-01-21T11:54:46Z</time>
      </trkpt>
      <trkpt lat="62.641813233275" lon="17.877186803913">
        <ele>83.6</ele>
        <time>2018-01-21T11:54:47Z</time>
      </trkpt>
      <trkpt lat="62.641818597691" lon="17.877157048168">
        <ele>83.6</ele>
        <time>2018-01-21T11:54:48Z</time>
      </trkpt>
      <trkpt lat="62.641831338179" lon="17.87711245646">
        <ele>83.8</ele>
        <time>2018-01-21T11:54:49Z</time>
      </trkpt>
      <trkpt lat="62.641854304585" lon="17.877069624951">
        <ele>83.8</ele>
        <time>2018-01-21T11:54:50Z</time>
      </trkpt>
      <trkpt lat="62.641864865779" lon="17.877043557242">
        <ele>83.8</ele>
        <time>2018-01-21T11:54:51Z</time>
      </trkpt>
      <trkpt lat="62.641873415317" lon="17.877005503416">
        <ele>84</ele>
        <time>2018-01-21T11:54:52Z</time>
      </trkpt>
      <trkpt lat="62.64189160404" lon="17.876960241156">
        <ele>84.2</ele>
        <time>2018-01-21T11:54:53Z</time>
      </trkpt>
      <trkpt lat="62.641909960401" lon="17.87692302552">
        <ele>84.4</ele>
        <time>2018-01-21T11:54:54Z</time>
      </trkpt>
      <trkpt lat="62.64192429345" lon="17.876894694698">
        <ele>84.6</ele>
        <time>2018-01-21T11:54:55Z</time>
      </trkpt>
      <trkpt lat="62.641941727802" lon="17.876858065795">
        <ele>85</ele>
        <time>2018-01-21T11:54:56Z</time>
      </trkpt>
      <trkpt lat="62.641953713919" lon="17.87682663367">
        <ele>85</ele>
        <time>2018-01-21T11:54:57Z</time>
      </trkpt>
      <trkpt lat="62.641978859619" lon="17.876773492424">
        <ele>85.2</ele>
        <time>2018-01-21T11:54:58Z</time>
      </trkpt>
      <trkpt lat="62.641993527944" lon="17.876746670344">
        <ele>85.2</ele>
        <time>2018-01-21T11:54:59Z</time>
      </trkpt>
      <trkpt lat="62.642009202097" lon="17.876707107776">
        <ele>85.4</ele>
        <time>2018-01-21T11:55:00Z</time>
      </trkpt>
      <trkpt lat="62.64203493453" lon="17.876653379797">
        <ele>85.6</ele>
        <time>2018-01-21T11:55:01Z</time>
      </trkpt>
      <trkpt lat="62.642053542348" lon="17.876626641536">
        <ele>85.8</ele>
        <time>2018-01-21T11:55:02Z</time>
      </trkpt>
      <trkpt lat="62.642057817117" lon="17.876592694841">
        <ele>85.8</ele>
        <time>2018-01-21T11:55:03Z</time>
      </trkpt>
      <trkpt lat="62.642078017496" lon="17.87653242898">
        <ele>86</ele>
        <time>2018-01-21T11:55:04Z</time>
      </trkpt>
      <trkpt lat="62.642091177079" lon="17.876509211117">
        <ele>86</ele>
        <time>2018-01-21T11:55:05Z</time>
      </trkpt>
      <trkpt lat="62.642113305295" lon="17.876434193112">
        <ele>86</ele>
        <time>2018-01-21T11:55:06Z</time>
      </trkpt>
      <trkpt lat="62.642127219249" lon="17.876408879774">
        <ele>86.2</ele>
        <time>2018-01-21T11:55:07Z</time>
      </trkpt>
      <trkpt lat="62.642142390488" lon="17.876364707161">
        <ele>86.2</ele>
        <time>2018-01-21T11:55:08Z</time>
      </trkpt>
      <trkpt lat="62.642156891175" lon="17.876311565915">
        <ele>86.4</ele>
        <time>2018-01-21T11:55:09Z</time>
      </trkpt>
      <trkpt lat="62.64217742683" lon="17.876270326967">
        <ele>86.4</ele>
        <time>2018-01-21T11:55:10Z</time>
      </trkpt>
      <trkpt lat="62.642188826214" lon="17.876233027512">
        <ele>86.6</ele>
        <time>2018-01-21T11:55:11Z</time>
      </trkpt>
      <trkpt lat="62.642210283878" lon="17.876183406664">
        <ele>86.8</ele>
        <time>2018-01-21T11:55:12Z</time>
      </trkpt>
      <trkpt lat="62.642217073217" lon="17.876166223769">
        <ele>86.8</ele>
        <time>2018-01-21T11:55:13Z</time>
      </trkpt>
      <trkpt lat="62.642237273596" lon="17.876132025617">
        <ele>87</ele>
        <time>2018-01-21T11:55:14Z</time>
      </trkpt>
      <trkpt lat="62.642251019912" lon="17.876109394487">
        <ele>87.2</ele>
        <time>2018-01-21T11:55:15Z</time>
      </trkpt>
      <trkpt lat="62.642278512544" lon="17.876069999557">
        <ele>87.2</ele>
        <time>2018-01-21T11:55:16Z</time>
      </trkpt>
      <trkpt lat="62.64229896438" lon="17.876022055089">
        <ele>87.4</ele>
        <time>2018-01-21T11:55:17Z</time>
      </trkpt>
      <trkpt lat="62.64231321361" lon="17.875994311">
        <ele>87.6</ele>
        <time>2018-01-21T11:55:18Z</time>
      </trkpt>
      <trkpt lat="62.642334755093" lon="17.875957011545">
        <ele>87.6</ele>
        <time>2018-01-21T11:55:19Z</time>
      </trkpt>
      <trkpt lat="62.642367779779" lon="17.875933709863">
        <ele>87.6</ele>
        <time>2018-01-21T11:55:20Z</time>
      </trkpt>
      <trkpt lat="62.64237523967" lon="17.875899511711">
        <ele>87.8</ele>
        <time>2018-01-21T11:55:21Z</time>
      </trkpt>
      <trkpt lat="62.642403905768" lon="17.87586271517">
        <ele>87.8</ele>
        <time>2018-01-21T11:55:22Z</time>
      </trkpt>
      <trkpt lat="62.64242553107" lon="17.875830947769">
        <ele>88</ele>
        <time>2018-01-21T11:55:23Z</time>
      </trkpt>
      <trkpt lat="62.642436846635" lon="17.875803790413">
        <ele>88</ele>
        <time>2018-01-21T11:55:24Z</time>
      </trkpt>
      <trkpt lat="62.642467356751" lon="17.875767077691">
        <ele>88.2</ele>
        <time>2018-01-21T11:55:25Z</time>
      </trkpt>
      <trkpt lat="62.642484455827" lon="17.875726257838">
        <ele>88.2</ele>
        <time>2018-01-21T11:55:26Z</time>
      </trkpt>
      <trkpt lat="62.642505410577" lon="17.875696250636">
        <ele>88.2</ele>
        <time>2018-01-21T11:55:27Z</time>
      </trkpt>
      <trkpt lat="62.642528544621" lon="17.875661801027">
        <ele>88.2</ele>
        <time>2018-01-21T11:55:28Z</time>
      </trkpt>
      <trkpt lat="62.64256131785" lon="17.875610084704">
        <ele>88.2</ele>
        <time>2018-01-21T11:55:29Z</time>
      </trkpt>
      <trkpt lat="62.642590151586" lon="17.875548896834">
        <ele>88.4</ele>
        <time>2018-01-21T11:55:30Z</time>
      </trkpt>
      <trkpt lat="62.642629714154" lon="17.875512603207">
        <ele>88.4</ele>
        <time>2018-01-21T11:55:31Z</time>
      </trkpt>
      <trkpt lat="62.642665504867" lon="17.87546038397">
        <ele>88.2</ele>
        <time>2018-01-21T11:55:32Z</time>
      </trkpt>
      <trkpt lat="62.642698278096" lon="17.875408667647">
        <ele>88</ele>
        <time>2018-01-21T11:55:33Z</time>
      </trkpt>
      <trkpt lat="62.642725100176" lon="17.875369691812">
        <ele>87.6</ele>
        <time>2018-01-21T11:55:34Z</time>
      </trkpt>
      <trkpt lat="62.642754185369" lon="17.875335242203">
        <ele>87.2</ele>
        <time>2018-01-21T11:55:35Z</time>
      </trkpt>
      <trkpt lat="62.642792155376" lon="17.875269444288">
        <ele>87</ele>
        <time>2018-01-21T11:55:36Z</time>
      </trkpt>
      <trkpt lat="62.64281277485" lon="17.875226445141">
        <ele>86.8</ele>
        <time>2018-01-21T11:55:37Z</time>
      </trkpt>
      <trkpt lat="62.642845128984" lon="17.87517875213">
        <ele>86.8</ele>
        <time>2018-01-21T11:55:38Z</time>
      </trkpt>
      <trkpt lat="62.642860635499" lon="17.875148744928">
        <ele>87</ele>
        <time>2018-01-21T11:55:39Z</time>
      </trkpt>
      <trkpt lat="62.642885613561" lon="17.87511002055">
        <ele>86.8</ele>
        <time>2018-01-21T11:55:40Z</time>
      </trkpt>
      <trkpt lat="62.642925595224" lon="17.875049419413">
        <ele>86.8</ele>
        <time>2018-01-21T11:55:41Z</time>
      </trkpt>
      <trkpt lat="62.642954848055" lon="17.874986136068">
        <ele>86.6</ele>
        <time>2018-01-21T11:55:42Z</time>
      </trkpt>
      <trkpt lat="62.642995248813" lon="17.874936347582">
        <ele>86.4</ele>
        <time>2018-01-21T11:55:43Z</time>
      </trkpt>
      <trkpt lat="62.64303238063" lon="17.874879183024">
        <ele>86</ele>
        <time>2018-01-21T11:55:44Z</time>
      </trkpt>
      <trkpt lat="62.643075547415" lon="17.874812546919">
        <ele>85.4</ele>
        <time>2018-01-21T11:55:45Z</time>
      </trkpt>
      <trkpt lat="62.643120474399" lon="17.874746497547">
        <ele>84.6</ele>
        <time>2018-01-21T11:55:46Z</time>
      </trkpt>
      <trkpt lat="62.64316313827" lon="17.874682795107">
        <ele>84.2</ele>
        <time>2018-01-21T11:55:47Z</time>
      </trkpt>
      <trkpt lat="62.643210496005" lon="17.874609537301">
        <ele>83.4</ele>
        <time>2018-01-21T11:55:48Z</time>
      </trkpt>
      <trkpt lat="62.643248046917" lon="17.874547092146">
        <ele>83</ele>
        <time>2018-01-21T11:55:49Z</time>
      </trkpt>
      <trkpt lat="62.643285346372" lon="17.87447970167">
        <ele>82.4</ele>
        <time>2018-01-21T11:55:50Z</time>
      </trkpt>
      <trkpt lat="62.643328680795" lon="17.874408539339">
        <ele>82.2</ele>
        <time>2018-01-21T11:55:51Z</time>
      </trkpt>
      <trkpt lat="62.643360029101" lon="17.874355733369">
        <ele>82.2</ele>
        <time>2018-01-21T11:55:52Z</time>
      </trkpt>
      <trkpt lat="62.643385342439" lon="17.874315081154">
        <ele>82</ele>
        <time>2018-01-21T11:55:53Z</time>
      </trkpt>
      <trkpt lat="62.643421719885" lon="17.874253138913">
        <ele>82</ele>
        <time>2018-01-21T11:55:54Z</time>
      </trkpt>
      <trkpt lat="62.643454912209" lon="17.87420728992">
        <ele>82.2</ele>
        <time>2018-01-21T11:55:55Z</time>
      </trkpt>
      <trkpt lat="62.643477291882" lon="17.874173929958">
        <ele>82.6</ele>
        <time>2018-01-21T11:55:56Z</time>
      </trkpt>
      <trkpt lat="62.643509981292" lon="17.874116681581">
        <ele>82.6</ele>
        <time>2018-01-21T11:55:57Z</time>
      </trkpt>
      <trkpt lat="62.643531271318" lon="17.874080555592">
        <ele>82.6</ele>
        <time>2018-01-21T11:55:58Z</time>
      </trkpt>
      <trkpt lat="62.643555914104" lon="17.874049794019">
        <ele>82.6</ele>
        <time>2018-01-21T11:55:59Z</time>
      </trkpt>
      <trkpt lat="62.643582736184" lon="17.874001346637">
        <ele>82.6</ele>
        <time>2018-01-21T11:56:00Z</time>
      </trkpt>
      <trkpt lat="62.643597991242" lon="17.873969830693">
        <ele>82.6</ele>
        <time>2018-01-21T11:56:01Z</time>
      </trkpt>
      <trkpt lat="62.643631015928" lon="17.87392314351">
        <ele>82.6</ele>
        <time>2018-01-21T11:56:02Z</time>
      </trkpt>
      <trkpt lat="62.643653647058" lon="17.873885927874">
        <ele>82.6</ele>
        <time>2018-01-21T11:56:03Z</time>
      </trkpt>
      <trkpt lat="62.643666471365" lon="17.873860027803">
        <ele>82.6</ele>
        <time>2018-01-21T11:56:04Z</time>
      </trkpt>
      <trkpt lat="62.643690527418" lon="17.873822393072">
        <ele>82.6</ele>
        <time>2018-01-21T11:56:05Z</time>
      </trkpt>
      <trkpt lat="62.643714332014" lon="17.873774951518">
        <ele>82.8</ele>
        <time>2018-01-21T11:56:06Z</time>
      </trkpt>
      <trkpt lat="62.643731011995" lon="17.873744525221">
        <ele>82.8</ele>
        <time>2018-01-21T11:56:07Z</time>
      </trkpt>
      <trkpt lat="62.643753894582" lon="17.873697586581">
        <ele>82.8</ele>
        <time>2018-01-21T11:56:08Z</time>
      </trkpt>
      <trkpt lat="62.643779543196" lon="17.873641763127">
        <ele>83</ele>
        <time>2018-01-21T11:56:09Z</time>
      </trkpt>
      <trkpt lat="62.643801252317" lon="17.873592980469">
        <ele>83.2</ele>
        <time>2018-01-21T11:56:10Z</time>
      </trkpt>
      <trkpt lat="62.643812651701" lon="17.873563979095">
        <ele>83.2</ele>
        <time>2018-01-21T11:56:11Z</time>
      </trkpt>
      <trkpt lat="62.643845508749" lon="17.873493235859">
        <ele>83.4</ele>
        <time>2018-01-21T11:56:12Z</time>
      </trkpt>
      <trkpt lat="62.643860428531" lon="17.873442357726">
        <ele>83.4</ele>
        <time>2018-01-21T11:56:13Z</time>
      </trkpt>
      <trkpt lat="62.643869564802" lon="17.87341436218">
        <ele>83.6</ele>
        <time>2018-01-21T11:56:14Z</time>
      </trkpt>
      <trkpt lat="62.643889262267" lon="17.873363484047">
        <ele>83.6</ele>
        <time>2018-01-21T11:56:15Z</time>
      </trkpt>
      <trkpt lat="62.643905187877" lon="17.873302463815">
        <ele>83.6</ele>
        <time>2018-01-21T11:56:16Z</time>
      </trkpt>
      <trkpt lat="62.643911558121" lon="17.8732785754">
        <ele>83.8</ele>
        <time>2018-01-21T11:56:17Z</time>
      </trkpt>
      <trkpt lat="62.643936033269" lon="17.873218644815">
        <ele>83.8</ele>
        <time>2018-01-21T11:56:18Z</time>
      </trkpt>
      <trkpt lat="62.643951791241" lon="17.87316709613">
        <ele>83.8</ele>
        <time>2018-01-21T11:56:19Z</time>
      </trkpt>
      <trkpt lat="62.643955646915" lon="17.873132143607">
        <ele>84</ele>
        <time>2018-01-21T11:56:20Z</time>
      </trkpt>
      <trkpt lat="62.643968471222" lon="17.873091323754">
        <ele>84</ele>
        <time>2018-01-21T11:56:21Z</time>
      </trkpt>
      <trkpt lat="62.643984313013" lon="17.873043798381">
        <ele>84.2</ele>
        <time>2018-01-21T11:56:22Z</time>
      </trkpt>
      <trkpt lat="62.643995712397" lon="17.872998536121">
        <ele>84.2</ele>
        <time>2018-01-21T11:56:23Z</time>
      </trkpt>
      <trkpt lat="62.64400384284" lon="17.872959979381">
        <ele>84.4</ele>
        <time>2018-01-21T11:56:24Z</time>
      </trkpt>
      <trkpt lat="62.64401306293" lon="17.872919913899">
        <ele>84.6</ele>
        <time>2018-01-21T11:56:25Z</time>
      </trkpt>
      <trkpt lat="62.644026222513" lon="17.872870628327">
        <ele>84.8</ele>
        <time>2018-01-21T11:56:26Z</time>
      </trkpt>
      <trkpt lat="62.644036783707" lon="17.872815475425">
        <ele>85</ele>
        <time>2018-01-21T11:56:27Z</time>
      </trkpt>
      <trkpt lat="62.644037118983" lon="17.872770045527">
        <ele>85.2</ele>
        <time>2018-01-21T11:56:28Z</time>
      </trkpt>
      <trkpt lat="62.644046506711" lon="17.872731321149">
        <ele>85.2</ele>
        <time>2018-01-21T11:56:29Z</time>
      </trkpt>
      <trkpt lat="62.644053798964" lon="17.872690836572">
        <ele>85.4</ele>
        <time>2018-01-21T11:56:30Z</time>
      </trkpt>
      <trkpt lat="62.644060253027" lon="17.872642473009">
        <ele>85.4</ele>
        <time>2018-01-21T11:56:31Z</time>
      </trkpt>
      <trkpt lat="62.644064360158" lon="17.872592684523">
        <ele>85.6</ele>
        <time>2018-01-21T11:56:32Z</time>
      </trkpt>
      <trkpt lat="62.644066874728" lon="17.872534933232">
        <ele>85.6</ele>
        <time>2018-01-21T11:56:33Z</time>
      </trkpt>
      <trkpt lat="62.644071233316" lon="17.872496795587">
        <ele>85.8</ele>
        <time>2018-01-21T11:56:34Z</time>
      </trkpt>
      <trkpt lat="62.644078860845" lon="17.872453628802">
        <ele>86</ele>
        <time>2018-01-21T11:56:35Z</time>
      </trkpt>
      <trkpt lat="62.644080537225" lon="17.872393027665">
        <ele>86.2</ele>
        <time>2018-01-21T11:56:36Z</time>
      </trkpt>
      <trkpt lat="62.644083722347" lon="17.872333180899">
        <ele>86.6</ele>
        <time>2018-01-21T11:56:37Z</time>
      </trkpt>
      <trkpt lat="62.644077855017" lon="17.872295043254">
        <ele>86.6</ele>
        <time>2018-01-21T11:56:38Z</time>
      </trkpt>
      <trkpt lat="62.644081459234" lon="17.872220109068">
        <ele>86.8</ele>
        <time>2018-01-21T11:56:39Z</time>
      </trkpt>
      <trkpt lat="62.644079866673" lon="17.872149701108">
        <ele>87</ele>
        <time>2018-01-21T11:56:40Z</time>
      </trkpt>
      <trkpt lat="62.64407592718" lon="17.872121286467">
        <ele>87</ele>
        <time>2018-01-21T11:56:41Z</time>
      </trkpt>
      <trkpt lat="62.6440742508" lon="17.872059092769">
        <ele>87</ele>
        <time>2018-01-21T11:56:42Z</time>
      </trkpt>
      <trkpt lat="62.644062683778" lon="17.871990780284">
        <ele>87</ele>
        <time>2018-01-21T11:56:43Z</time>
      </trkpt>
      <trkpt lat="62.644059582475" lon="17.871949289879">
        <ele>87</ele>
        <time>2018-01-21T11:56:44Z</time>
      </trkpt>
      <trkpt lat="62.644052625498" lon="17.871862704852">
        <ele>87</ele>
        <time>2018-01-21T11:56:45Z</time>
      </trkpt>
      <trkpt lat="62.644045668521" lon="17.871797242213">
        <ele>87</ele>
        <time>2018-01-21T11:56:46Z</time>
      </trkpt>
      <trkpt lat="62.644038040992" lon="17.871745442071">
        <ele>87</ele>
        <time>2018-01-21T11:56:47Z</time>
      </trkpt>
      <trkpt lat="62.644019349355" lon="17.871688109875">
        <ele>87</ele>
        <time>2018-01-21T11:56:48Z</time>
      </trkpt>
      <trkpt lat="62.644016331871" lon="17.871650475144">
        <ele>87</ele>
        <time>2018-01-21T11:56:49Z</time>
      </trkpt>
      <trkpt lat="62.644002585555" lon="17.871561794642">
        <ele>87</ele>
        <time>2018-01-21T11:56:50Z</time>
      </trkpt>
      <trkpt lat="62.643988671601" lon="17.871510581233">
        <ele>87</ele>
        <time>2018-01-21T11:56:51Z</time>
      </trkpt>
      <trkpt lat="62.64397785895" lon="17.871458194358">
        <ele>87</ele>
        <time>2018-01-21T11:56:52Z</time>
      </trkpt>
      <trkpt lat="62.643963274444" lon="17.871408992605">
        <ele>87</ele>
        <time>2018-01-21T11:56:53Z</time>
      </trkpt>
      <trkpt lat="62.643955144001" lon="17.871359874671">
        <ele>86.8</ele>
        <time>2018-01-21T11:56:54Z</time>
      </trkpt>
      <trkpt lat="62.643933099604" lon="17.871287119779">
        <ele>87</ele>
        <time>2018-01-21T11:56:55Z</time>
      </trkpt>
      <trkpt lat="62.643922622229" lon="17.871244372089">
        <ele>86.8</ele>
        <time>2018-01-21T11:56:56Z</time>
      </trkpt>
      <trkpt lat="62.643908624456" lon="17.87118226221">
        <ele>86.8</ele>
        <time>2018-01-21T11:56:57Z</time>
      </trkpt>
      <trkpt lat="62.643891022466" lon="17.871122331625">
        <ele>86.8</ele>
        <time>2018-01-21T11:56:58Z</time>
      </trkpt>
      <trkpt lat="62.643886663878" lon="17.871081176496">
        <ele>86.8</ele>
        <time>2018-01-21T11:56:59Z</time>
      </trkpt>
      <trkpt lat="62.643861518178" lon="17.871015630038">
        <ele>86.8</ele>
        <time>2018-01-21T11:57:00Z</time>
      </trkpt>
      <trkpt lat="62.643855818486" lon="17.870970870692">
        <ele>86.8</ele>
        <time>2018-01-21T11:57:01Z</time>
      </trkpt>
      <trkpt lat="62.643844922016" lon="17.87090398313">
        <ele>86.8</ele>
        <time>2018-01-21T11:57:02Z</time>
      </trkpt>
      <trkpt lat="62.643822709981" lon="17.870856793033">
        <ele>86.8</ele>
        <time>2018-01-21T11:57:03Z</time>
      </trkpt>
      <trkpt lat="62.643817848479" lon="17.870813793886">
        <ele>86.8</ele>
        <time>2018-01-21T11:57:04Z</time>
      </trkpt>
      <trkpt lat="62.64379513353" lon="17.870745481401">
        <ele>86.8</ele>
        <time>2018-01-21T11:57:05Z</time>
      </trkpt>
      <trkpt lat="62.643793121874" lon="17.870710109783">
        <ele>86.8</ele>
        <time>2018-01-21T11:57:06Z</time>
      </trkpt>
      <trkpt lat="62.643779878472" lon="17.870640204737">
        <ele>86.8</ele>
        <time>2018-01-21T11:57:07Z</time>
      </trkpt>
      <trkpt lat="62.643758923722" lon="17.870592847002">
        <ele>86.8</ele>
        <time>2018-01-21T11:57:08Z</time>
      </trkpt>
      <trkpt lat="62.64375657679" lon="17.870535095711">
        <ele>87</ele>
        <time>2018-01-21T11:57:09Z</time>
      </trkpt>
      <trkpt lat="62.643743501026" lon="17.870479523714">
        <ele>87</ele>
        <time>2018-01-21T11:57:10Z</time>
      </trkpt>
      <trkpt lat="62.643736292592" lon="17.870429819047">
        <ele>87</ele>
        <time>2018-01-21T11:57:11Z</time>
      </trkpt>
      <trkpt lat="62.643732101642" lon="17.870341390002">
        <ele>86.8</ele>
        <time>2018-01-21T11:57:12Z</time>
      </trkpt>
      <trkpt lat="62.643719612611" lon="17.870288164937">
        <ele>86.8</ele>
        <time>2018-01-21T11:57:13Z</time>
      </trkpt>
      <trkpt lat="62.643719864068" lon="17.870215242407">
        <ele>86.6</ele>
        <time>2018-01-21T11:57:14Z</time>
      </trkpt>
      <trkpt lat="62.643712823272" lon="17.870130752855">
        <ele>86.6</ele>
        <time>2018-01-21T11:57:15Z</time>
      </trkpt>
      <trkpt lat="62.643718271507" lon="17.870073253021">
        <ele>86.6</ele>
        <time>2018-01-21T11:57:16Z</time>
      </trkpt>
      <trkpt lat="62.64371969643" lon="17.870016675196">
        <ele>86.6</ele>
        <time>2018-01-21T11:57:17Z</time>
      </trkpt>
      <trkpt lat="62.643723803561" lon="17.869966635253">
        <ele>86.6</ele>
        <time>2018-01-21T11:57:18Z</time>
      </trkpt>
      <trkpt lat="62.643730425262" lon="17.869890862877">
        <ele>86.6</ele>
        <time>2018-01-21T11:57:19Z</time>
      </trkpt>
      <trkpt lat="62.643733442746" lon="17.869825903152">
        <ele>86.6</ele>
        <time>2018-01-21T11:57:20Z</time>
      </trkpt>
      <trkpt lat="62.643736795506" lon="17.869773935372">
        <ele>86.6</ele>
        <time>2018-01-21T11:57:21Z</time>
      </trkpt>
      <trkpt lat="62.643745009768" lon="17.869700761385">
        <ele>86.6</ele>
        <time>2018-01-21T11:57:22Z</time>
      </trkpt>
      <trkpt lat="62.643745177406" lon="17.869648793605">
        <ele>86.6</ele>
        <time>2018-01-21T11:57:23Z</time>
      </trkpt>
      <trkpt lat="62.643752888754" lon="17.869566148071">
        <ele>86.8</ele>
        <time>2018-01-21T11:57:24Z</time>
      </trkpt>
      <trkpt lat="62.643754565134" lon="17.869499763423">
        <ele>86.8</ele>
        <time>2018-01-21T11:57:25Z</time>
      </trkpt>
      <trkpt lat="62.643762695577" lon="17.869457351009">
        <ele>87</ele>
        <time>2018-01-21T11:57:26Z</time>
      </trkpt>
      <trkpt lat="62.643770323106" lon="17.86938434466">
        <ele>86.8</ele>
        <time>2018-01-21T11:57:27Z</time>
      </trkpt>
      <trkpt lat="62.643772418581" lon="17.869336819287">
        <ele>86.8</ele>
        <time>2018-01-21T11:57:28Z</time>
      </trkpt>
      <trkpt lat="62.643774597875" lon="17.869279990005">
        <ele>86.8</ele>
        <time>2018-01-21T11:57:29Z</time>
      </trkpt>
      <trkpt lat="62.643780968119" lon="17.869194662263">
        <ele>86.6</ele>
        <time>2018-01-21T11:57:30Z</time>
      </trkpt>
      <trkpt lat="62.643783734146" lon="17.86913959318">
        <ele>86.6</ele>
        <time>2018-01-21T11:57:31Z</time>
      </trkpt>
      <trkpt lat="62.643784572336" lon="17.869089050323">
        <ele>86.6</ele>
        <time>2018-01-21T11:57:32Z</time>
      </trkpt>
      <trkpt lat="62.64378675163" lon="17.869012020662">
        <ele>86.6</ele>
        <time>2018-01-21T11:57:33Z</time>
      </trkpt>
      <trkpt lat="62.643789601476" lon="17.86896273509">
        <ele>86.6</ele>
        <time>2018-01-21T11:57:34Z</time>
      </trkpt>
      <trkpt lat="62.643785159069" lon="17.868918730115">
        <ele>86.8</ele>
        <time>2018-01-21T11:57:35Z</time>
      </trkpt>
      <trkpt lat="62.643779124101" lon="17.86883952116">
        <ele>86.8</ele>
        <time>2018-01-21T11:57:36Z</time>
      </trkpt>
      <trkpt lat="62.64376914964" lon="17.868767939734">
        <ele>87</ele>
        <time>2018-01-21T11:57:37Z</time>
      </trkpt>
      <trkpt lat="62.643762108844" lon="17.868696274489">
        <ele>87</ele>
        <time>2018-01-21T11:57:38Z</time>
      </trkpt>
      <trkpt lat="62.643753726944" lon="17.868625195977">
        <ele>87.2</ele>
        <time>2018-01-21T11:57:39Z</time>
      </trkpt>
      <trkpt lat="62.643745931777" lon="17.868554704198">
        <ele>87.4</ele>
        <time>2018-01-21T11:57:40Z</time>
      </trkpt>
      <trkpt lat="62.643736041135" lon="17.86846568842">
        <ele>87.4</ele>
        <time>2018-01-21T11:57:41Z</time>
      </trkpt>
      <trkpt lat="62.643720702258" lon="17.868371056769">
        <ele>87.4</ele>
        <time>2018-01-21T11:57:42Z</time>
      </trkpt>
      <trkpt lat="62.643713745281" lon="17.868297044592">
        <ele>87.2</ele>
        <time>2018-01-21T11:57:43Z</time>
      </trkpt>
      <trkpt lat="62.643703519363" lon="17.86821674599">
        <ele>87</ele>
        <time>2018-01-21T11:57:44Z</time>
      </trkpt>
      <trkpt lat="62.643702513535" lon="17.868159916708">
        <ele>86.8</ele>
        <time>2018-01-21T11:57:45Z</time>
      </trkpt>
      <trkpt lat="62.643697652033" lon="17.86807173912">
        <ele>86.6</ele>
        <time>2018-01-21T11:57:46Z</time>
      </trkpt>
      <trkpt lat="62.643677619292" lon="17.868007952861">
        <ele>86.4</ele>
        <time>2018-01-21T11:57:47Z</time>
      </trkpt>
      <trkpt lat="62.643673093066" lon="17.867953889606">
        <ele>86.4</ele>
        <time>2018-01-21T11:57:48Z</time>
      </trkpt>
      <trkpt lat="62.643664292071" lon="17.867898652885">
        <ele>86.2</ele>
        <time>2018-01-21T11:57:49Z</time>
      </trkpt>
      <trkpt lat="62.643659095293" lon="17.867849870227">
        <ele>86.2</ele>
        <time>2018-01-21T11:57:50Z</time>
      </trkpt>
      <trkpt lat="62.643643756416" lon="17.867768398159">
        <ele>86.2</ele>
        <time>2018-01-21T11:57:51Z</time>
      </trkpt>
      <trkpt lat="62.643634703964" lon="17.867710395411">
        <ele>86</ele>
        <time>2018-01-21T11:57:52Z</time>
      </trkpt>
      <trkpt lat="62.6436216282" lon="17.867650045731">
        <ele>85.8</ele>
        <time>2018-01-21T11:57:53Z</time>
      </trkpt>
      <trkpt lat="62.643606624599" lon="17.867568406025">
        <ele>85.8</ele>
        <time>2018-01-21T11:57:54Z</time>
      </trkpt>
      <trkpt lat="62.64358726241" lon="17.867504619766">
        <ele>85.8</ele>
        <time>2018-01-21T11:57:55Z</time>
      </trkpt>
      <trkpt lat="62.643569576601" lon="17.867457848764">
        <ele>85.6</ele>
        <time>2018-01-21T11:57:56Z</time>
      </trkpt>
      <trkpt lat="62.64356546947" lon="17.86739867255">
        <ele>85.6</ele>
        <time>2018-01-21T11:57:57Z</time>
      </trkpt>
      <trkpt lat="62.64356714585" lon="17.867310830238">
        <ele>85.6</ele>
        <time>2018-01-21T11:57:58Z</time>
      </trkpt>
      <trkpt lat="62.643578293777" lon="17.867243775038">
        <ele>85.6</ele>
        <time>2018-01-21T11:57:59Z</time>
      </trkpt>
      <trkpt lat="62.643594387025" lon="17.867151993233">
        <ele>85.6</ele>
        <time>2018-01-21T11:58:00Z</time>
      </trkpt>
      <trkpt lat="62.64362414277" lon="17.867063228912">
        <ele>85.6</ele>
        <time>2018-01-21T11:58:01Z</time>
      </trkpt>
      <trkpt lat="62.643659849664" lon="17.866983936138">
        <ele>85.4</ele>
        <time>2018-01-21T11:58:02Z</time>
      </trkpt>
      <trkpt lat="62.643697149119" lon="17.866906319744">
        <ele>85.4</ele>
        <time>2018-01-21T11:58:03Z</time>
      </trkpt>
      <trkpt lat="62.643728162149" lon="17.866842365847">
        <ele>85</ele>
        <time>2018-01-21T11:58:04Z</time>
      </trkpt>
      <trkpt lat="62.643762025025" lon="17.866784111642">
        <ele>84.4</ele>
        <time>2018-01-21T11:58:05Z</time>
      </trkpt>
      <trkpt lat="62.643785997259" lon="17.866729964568">
        <ele>84</ele>
        <time>2018-01-21T11:58:06Z</time>
      </trkpt>
      <trkpt lat="62.643811981149" lon="17.86667699096">
        <ele>83.6</ele>
        <time>2018-01-21T11:58:07Z</time>
      </trkpt>
      <trkpt lat="62.643832432985" lon="17.866637260754">
        <ele>83</ele>
        <time>2018-01-21T11:58:08Z</time>
      </trkpt>
      <trkpt lat="62.643844419102" lon="17.866602978783">
        <ele>82.8</ele>
        <time>2018-01-21T11:58:09Z</time>
      </trkpt>
      <trkpt lat="62.643862691644" lon="17.866593088141">
        <ele>82.8</ele>
        <time>2018-01-21T11:58:10Z</time>
      </trkpt>
      <trkpt lat="62.643872582286" lon="17.866582359309">
        <ele>83</ele>
        <time>2018-01-21T11:58:11Z</time>
      </trkpt>
      <trkpt lat="62.643887166792" lon="17.866555034315">
        <ele>83.2</ele>
        <time>2018-01-21T11:58:12Z</time>
      </trkpt>
      <trkpt lat="62.643894291407" lon="17.866535504488">
        <ele>83.6</ele>
        <time>2018-01-21T11:58:13Z</time>
      </trkpt>
      <trkpt lat="62.643908540637" lon="17.866512118987">
        <ele>83.8</ele>
        <time>2018-01-21T11:58:14Z</time>
      </trkpt>
      <trkpt lat="62.643917676908" lon="17.86649258916">
        <ele>84.2</ele>
        <time>2018-01-21T11:58:15Z</time>
      </trkpt>
      <trkpt lat="62.643933267242" lon="17.86646576708">
        <ele>84.6</ele>
        <time>2018-01-21T11:58:16Z</time>
      </trkpt>
      <trkpt lat="62.643949695766" lon="17.866438861181">
        <ele>84.6</ele>
        <time>2018-01-21T11:58:17Z</time>
      </trkpt>
      <trkpt lat="62.64396277153" lon="17.866404243934">
        <ele>84.8</ele>
        <time>2018-01-21T11:58:18Z</time>
      </trkpt>
      <trkpt lat="62.643973500362" lon="17.866387061039">
        <ele>85</ele>
        <time>2018-01-21T11:58:19Z</time>
      </trkpt>
      <trkpt lat="62.64398121171" lon="17.866367028298">
        <ele>85.2</ele>
        <time>2018-01-21T11:58:20Z</time>
      </trkpt>
      <trkpt lat="62.6439988137" lon="17.866329812662">
        <ele>85.4</ele>
        <time>2018-01-21T11:58:21Z</time>
      </trkpt>
      <trkpt lat="62.644011051274" lon="17.866292764664">
        <ele>85.6</ele>
        <time>2018-01-21T11:58:22Z</time>
      </trkpt>
      <trkpt lat="62.644025300504" lon="17.866255549028">
        <ele>86</ele>
        <time>2018-01-21T11:58:23Z</time>
      </trkpt>
      <trkpt lat="62.644039717372" lon="17.866213136614">
        <ele>86.4</ele>
        <time>2018-01-21T11:58:24Z</time>
      </trkpt>
      <trkpt lat="62.644047009625" lon="17.866180195747">
        <ele>86.8</ele>
        <time>2018-01-21T11:58:25Z</time>
      </trkpt>
      <trkpt lat="62.644058409009" lon="17.866132838012">
        <ele>87.2</ele>
        <time>2018-01-21T11:58:26Z</time>
      </trkpt>
      <trkpt lat="62.644069054022" lon="17.866096628204">
        <ele>87.6</ele>
        <time>2018-01-21T11:58:27Z</time>
      </trkpt>
      <trkpt lat="62.644073831705" lon="17.86604918665">
        <ele>87.8</ele>
        <time>2018-01-21T11:58:28Z</time>
      </trkpt>
      <trkpt lat="62.644077184465" lon="17.866011049005">
        <ele>88.2</ele>
        <time>2018-01-21T11:58:29Z</time>
      </trkpt>
      <trkpt lat="62.6440826327" lon="17.865974839197">
        <ele>88.4</ele>
        <time>2018-01-21T11:58:30Z</time>
      </trkpt>
      <trkpt lat="62.644093780627" lon="17.865933181154">
        <ele>88.6</ele>
        <time>2018-01-21T11:58:31Z</time>
      </trkpt>
      <trkpt lat="62.644105766744" lon="17.865893367129">
        <ele>88.8</ele>
        <time>2018-01-21T11:58:32Z</time>
      </trkpt>
      <trkpt lat="62.644120518888" lon="17.865852547276">
        <ele>88.8</ele>
        <time>2018-01-21T11:58:33Z</time>
      </trkpt>
      <trkpt lat="62.64412873315" lon="17.865813990536">
        <ele>89</ele>
        <time>2018-01-21T11:58:34Z</time>
      </trkpt>
      <trkpt lat="62.644145748407" lon="17.865760933109">
        <ele>89.2</ele>
        <time>2018-01-21T11:58:35Z</time>
      </trkpt>
      <trkpt lat="62.644165445872" lon="17.865712318089">
        <ele>89.4</ele>
        <time>2018-01-21T11:58:36Z</time>
      </trkpt>
      <trkpt lat="62.644177096713" lon="17.865690357511">
        <ele>89.4</ele>
        <time>2018-01-21T11:58:37Z</time>
      </trkpt>
      <trkpt lat="62.644199727843" lon="17.865648783287">
        <ele>89.6</ele>
        <time>2018-01-21T11:58:38Z</time>
      </trkpt>
      <trkpt lat="62.644204505526" lon="17.865608717805">
        <ele>89.4</ele>
        <time>2018-01-21T11:58:39Z</time>
      </trkpt>
      <trkpt lat="62.644226969018" lon="17.865555576559">
        <ele>89.6</ele>
        <time>2018-01-21T11:58:40Z</time>
      </trkpt>
      <trkpt lat="62.6442502707" lon="17.865515008163">
        <ele>89.8</ele>
        <time>2018-01-21T11:58:41Z</time>
      </trkpt>
      <trkpt lat="62.644263597921" lon="17.865488102264">
        <ele>89.8</ele>
        <time>2018-01-21T11:58:42Z</time>
      </trkpt>
      <trkpt lat="62.644284217395" lon="17.865446695678">
        <ele>90</ele>
        <time>2018-01-21T11:58:43Z</time>
      </trkpt>
      <trkpt lat="62.644301567928" lon="17.865407049291">
        <ele>90</ele>
        <time>2018-01-21T11:58:44Z</time>
      </trkpt>
      <trkpt lat="62.644311542389" lon="17.865375700985">
        <ele>90.2</ele>
        <time>2018-01-21T11:58:45Z</time>
      </trkpt>
      <trkpt lat="62.644340879039" lon="17.865321050997">
        <ele>90.2</ele>
        <time>2018-01-21T11:58:46Z</time>
      </trkpt>
      <trkpt lat="62.644350685862" lon="17.865285511741">
        <ele>90.2</ele>
        <time>2018-01-21T11:58:47Z</time>
      </trkpt>
      <trkpt lat="62.644368706947" lon="17.86524703882">
        <ele>90.4</ele>
        <time>2018-01-21T11:58:48Z</time>
      </trkpt>
      <trkpt lat="62.644390918982" lon="17.86519507104">
        <ele>90.4</ele>
        <time>2018-01-21T11:58:49Z</time>
      </trkpt>
      <trkpt lat="62.644404916755" lon="17.865160789069">
        <ele>90.6</ele>
        <time>2018-01-21T11:58:50Z</time>
      </trkpt>
      <trkpt lat="62.64440533585" lon="17.86511376661">
        <ele>90.8</ele>
        <time>2018-01-21T11:58:51Z</time>
      </trkpt>
      <trkpt lat="62.644408772429" lon="17.865070013092">
        <ele>91</ele>
        <time>2018-01-21T11:58:52Z</time>
      </trkpt>
      <trkpt lat="62.64441287956" lon="17.865007400299">
        <ele>90.8</ele>
        <time>2018-01-21T11:58:53Z</time>
      </trkpt>
      <trkpt lat="62.64441539413" lon="17.864963646781">
        <ele>91</ele>
        <time>2018-01-21T11:58:54Z</time>
      </trkpt>
      <trkpt lat="62.644408772429" lon="17.864911343725">
        <ele>91</ele>
        <time>2018-01-21T11:58:55Z</time>
      </trkpt>
      <trkpt lat="62.644399719977" lon="17.864855436452">
        <ele>90.8</ele>
        <time>2018-01-21T11:58:56Z</time>
      </trkpt>
      <trkpt lat="62.644394020285" lon="17.864799780636">
        <ele>91</ele>
        <time>2018-01-21T11:58:57Z</time>
      </trkpt>
      <trkpt lat="62.644379184322" lon="17.864744795372">
        <ele>91</ele>
        <time>2018-01-21T11:58:58Z</time>
      </trkpt>
      <trkpt lat="62.644371472974" lon="17.864714536713">
        <ele>91</ele>
        <time>2018-01-21T11:58:59Z</time>
      </trkpt>
      <trkpt lat="62.644360325047" lon="17.864646140409">
        <ele>91</ele>
        <time>2018-01-21T11:59:00Z</time>
      </trkpt>
      <trkpt lat="62.644347668378" lon="17.864596519561">
        <ele>91</ele>
        <time>2018-01-21T11:59:01Z</time>
      </trkpt>
      <trkpt lat="62.644337358641" lon="17.864559806839">
        <ele>91</ele>
        <time>2018-01-21T11:59:02Z</time>
      </trkpt>
      <trkpt lat="62.64433325151" lon="17.864513035837">
        <ele>91</ele>
        <time>2018-01-21T11:59:03Z</time>
      </trkpt>
      <trkpt lat="62.644335682261" lon="17.864449417216">
        <ele>91.2</ele>
        <time>2018-01-21T11:59:04Z</time>
      </trkpt>
      <trkpt lat="62.644339705573" lon="17.864415135245">
        <ele>91.2</ele>
        <time>2018-01-21T11:59:05Z</time>
      </trkpt>
      <trkpt lat="62.644352362242" lon="17.864371465546">
        <ele>91.2</ele>
        <time>2018-01-21T11:59:06Z</time>
      </trkpt>
      <trkpt lat="62.64436510273" lon="17.864338273222">
        <ele>91.2</ele>
        <time>2018-01-21T11:59:07Z</time>
      </trkpt>
      <trkpt lat="62.644378010856" lon="17.864305080898">
        <ele>91.2</ele>
        <time>2018-01-21T11:59:08Z</time>
      </trkpt>
      <trkpt lat="62.644390583706" lon="17.864277504447">
        <ele>91</ele>
        <time>2018-01-21T11:59:09Z</time>
      </trkpt>
      <trkpt lat="62.644405922583" lon="17.864249005987">
        <ele>91.2</ele>
        <time>2018-01-21T11:59:10Z</time>
      </trkpt>
      <trkpt lat="62.644420087994" lon="17.864230481988">
        <ele>91.4</ele>
        <time>2018-01-21T11:59:11Z</time>
      </trkpt>
      <trkpt lat="62.644436013604" lon="17.86421019779">
        <ele>91.4</ele>
        <time>2018-01-21T11:59:12Z</time>
      </trkpt>
      <trkpt lat="62.644449424644" lon="17.864189578316">
        <ele>91.4</ele>
        <time>2018-01-21T11:59:13Z</time>
      </trkpt>
      <trkpt lat="62.644463338598" lon="17.864179939131">
        <ele>91.6</ele>
        <time>2018-01-21T11:59:14Z</time>
      </trkpt>
      <trkpt lat="62.644476749638" lon="17.864180106769">
        <ele>91.8</ele>
        <time>2018-01-21T11:59:15Z</time>
      </trkpt>
      <trkpt lat="62.644484712443" lon="17.864165606082">
        <ele>92</ele>
        <time>2018-01-21T11:59:16Z</time>
      </trkpt>
      <trkpt lat="62.644503906994" lon="17.864153619965">
        <ele>92.2</ele>
        <time>2018-01-21T11:59:17Z</time>
      </trkpt>
      <trkpt lat="62.644511199247" lon="17.864142220581">
        <ele>92.4</ele>
        <time>2018-01-21T11:59:18Z</time>
      </trkpt>
      <trkpt lat="62.644513713817" lon="17.864140963296">
        <ele>92.6</ele>
        <time>2018-01-21T11:59:19Z</time>
      </trkpt>
      <trkpt lat="62.644521676622" lon="17.864137945812">
        <ele>93</ele>
        <time>2018-01-21T11:59:20Z</time>
      </trkpt>
      <trkpt lat="62.644542044639" lon="17.864127719894">
        <ele>93.2</ele>
        <time>2018-01-21T11:59:21Z</time>
      </trkpt>
      <trkpt lat="62.644551097091" lon="17.86410961499">
        <ele>93.2</ele>
        <time>2018-01-21T11:59:22Z</time>
      </trkpt>
      <trkpt lat="62.644563586122" lon="17.864098215606">
        <ele>93.4</ele>
        <time>2018-01-21T11:59:23Z</time>
      </trkpt>
      <trkpt lat="62.644569704909" lon="17.864090420439">
        <ele>93.4</ele>
        <time>2018-01-21T11:59:24Z</time>
      </trkpt>
      <trkpt lat="62.644581858664" lon="17.86407944015">
        <ele>93.6</ele>
        <time>2018-01-21T11:59:25Z</time>
      </trkpt>
      <trkpt lat="62.644592336039" lon="17.864068040766">
        <ele>93.8</ele>
        <time>2018-01-21T11:59:26Z</time>
      </trkpt>
      <trkpt lat="62.644604322156" lon="17.864061502884">
        <ele>94.2</ele>
        <time>2018-01-21T11:59:27Z</time>
      </trkpt>
      <trkpt lat="62.644616727368" lon="17.864058401581">
        <ele>94.8</ele>
        <time>2018-01-21T11:59:28Z</time>
      </trkpt>
      <trkpt lat="62.644626534191" lon="17.864049432948">
        <ele>95.4</ele>
        <time>2018-01-21T11:59:29Z</time>
      </trkpt>
      <trkpt lat="62.644638520308" lon="17.864043314161">
        <ele>95.8</ele>
        <time>2018-01-21T11:59:30Z</time>
      </trkpt>
      <trkpt lat="62.64464673457" lon="17.864034680804">
        <ele>96.2</ele>
        <time>2018-01-21T11:59:31Z</time>
      </trkpt>
      <trkpt lat="62.644657044307" lon="17.864019341927">
        <ele>96.4</ele>
        <time>2018-01-21T11:59:32Z</time>
      </trkpt>
      <trkpt lat="62.644665510026" lon="17.86401070857">
        <ele>96.6</ele>
        <time>2018-01-21T11:59:33Z</time>
      </trkpt>
      <trkpt lat="62.644675903582" lon="17.864001823756">
        <ele>96.8</ele>
        <time>2018-01-21T11:59:34Z</time>
      </trkpt>
      <trkpt lat="62.644692332106" lon="17.864000985566">
        <ele>97</ele>
        <time>2018-01-21T11:59:35Z</time>
      </trkpt>
      <trkpt lat="62.644705240232" lon="17.864001823756">
        <ele>97.2</ele>
        <time>2018-01-21T11:59:36Z</time>
      </trkpt>
      <trkpt lat="62.644719238005" lon="17.863993441856">
        <ele>97.4</ele>
        <time>2018-01-21T11:59:37Z</time>
      </trkpt>
      <trkpt lat="62.644729463923" lon="17.863991178743">
        <ele>97.6</ele>
        <time>2018-01-21T11:59:38Z</time>
      </trkpt>
      <trkpt lat="62.644741366221" lon="17.863969385803">
        <ele>97.8</ele>
        <time>2018-01-21T11:59:39Z</time>
      </trkpt>
      <trkpt lat="62.644758046202" lon="17.863965697767">
        <ele>98</ele>
        <time>2018-01-21T11:59:40Z</time>
      </trkpt>
      <trkpt lat="62.644771708699" lon="17.863964356663">
        <ele>98</ele>
        <time>2018-01-21T11:59:41Z</time>
      </trkpt>
      <trkpt lat="62.644789813603" lon="17.86395538803">
        <ele>98.2</ele>
        <time>2018-01-21T11:59:42Z</time>
      </trkpt>
      <trkpt lat="62.644797273494" lon="17.863949939795">
        <ele>98.4</ele>
        <time>2018-01-21T11:59:43Z</time>
      </trkpt>
      <trkpt lat="62.644820156081" lon="17.863945078293">
        <ele>98.6</ele>
        <time>2018-01-21T11:59:44Z</time>
      </trkpt>
      <trkpt lat="62.644834405311" lon="17.863929655597">
        <ele>98.8</ele>
        <time>2018-01-21T11:59:45Z</time>
      </trkpt>
      <trkpt lat="62.644853348405" lon="17.86392521319">
        <ele>98.8</ele>
        <time>2018-01-21T11:59:46Z</time>
      </trkpt>
      <trkpt lat="62.644865585979" lon="17.863920351688">
        <ele>99.2</ele>
        <time>2018-01-21T11:59:47Z</time>
      </trkpt>
      <trkpt lat="62.644882517417" lon="17.863913897625">
        <ele>99.2</ele>
        <time>2018-01-21T11:59:48Z</time>
      </trkpt>
      <trkpt lat="62.644903388348" lon="17.863904677535">
        <ele>99.6</ele>
        <time>2018-01-21T11:59:49Z</time>
      </trkpt>
      <trkpt lat="62.644920403605" lon="17.863901324775">
        <ele>99.8</ele>
        <time>2018-01-21T11:59:50Z</time>
      </trkpt>
      <trkpt lat="62.644931132437" lon="17.863889757753">
        <ele>100.2</ele>
        <time>2018-01-21T11:59:51Z</time>
      </trkpt>
      <trkpt lat="62.644947728599" lon="17.86387659817">
        <ele>100.4</ele>
        <time>2018-01-21T11:59:52Z</time>
      </trkpt>
      <trkpt lat="62.64496357039" lon="17.86385312885">
        <ele>100.6</ele>
        <time>2018-01-21T11:59:53Z</time>
      </trkpt>
      <trkpt lat="62.644980250371" lon="17.863854134678">
        <ele>100.8</ele>
        <time>2018-01-21T11:59:54Z</time>
      </trkpt>
      <trkpt lat="62.644989219004" lon="17.863841058914">
        <ele>101</ele>
        <time>2018-01-21T11:59:55Z</time>
      </trkpt>
      <trkpt lat="62.644999864017" lon="17.863831503548">
        <ele>101.2</ele>
        <time>2018-01-21T11:59:56Z</time>
      </trkpt>
      <trkpt lat="62.645013526514" lon="17.863814069196">
        <ele>101.4</ele>
        <time>2018-01-21T11:59:57Z</time>
      </trkpt>
      <trkpt lat="62.645028613934" lon="17.863808285685">
        <ele>101.6</ele>
        <time>2018-01-21T11:59:58Z</time>
      </trkpt>
      <trkpt lat="62.645043030802" lon="17.863798478862">
        <ele>101.8</ele>
        <time>2018-01-21T11:59:59Z</time>
      </trkpt>
      <trkpt lat="62.645053843453" lon="17.863782217976">
        <ele>102.2</ele>
        <time>2018-01-21T12:00:00Z</time>
      </trkpt>
      <trkpt lat="62.64506750595" lon="17.863768304022">
        <ele>102.4</ele>
        <time>2018-01-21T12:00:01Z</time>
      </trkpt>
      <trkpt lat="62.645082844827" lon="17.863749025652">
        <ele>102.8</ele>
        <time>2018-01-21T12:00:02Z</time>
      </trkpt>
      <trkpt lat="62.645093992754" lon="17.863749528566">
        <ele>102.8</ele>
        <time>2018-01-21T12:00:03Z</time>
      </trkpt>
      <trkpt lat="62.645107487613" lon="17.86374081139">
        <ele>103</ele>
        <time>2018-01-21T12:00:04Z</time>
      </trkpt>
      <trkpt lat="62.645124754327" lon="17.863731256024">
        <ele>103.4</ele>
        <time>2018-01-21T12:00:05Z</time>
      </trkpt>
      <trkpt lat="62.64513539934" lon="17.863723796133">
        <ele>103.6</ele>
        <time>2018-01-21T12:00:06Z</time>
      </trkpt>
      <trkpt lat="62.645152498416" lon="17.863711390921">
        <ele>104</ele>
        <time>2018-01-21T12:00:07Z</time>
      </trkpt>
      <trkpt lat="62.645171776786" lon="17.863700326813">
        <ele>104.2</ele>
        <time>2018-01-21T12:00:08Z</time>
      </trkpt>
      <trkpt lat="62.645184936369" lon="17.86368549085">
        <ele>104.6</ele>
        <time>2018-01-21T12:00:09Z</time>
      </trkpt>
      <trkpt lat="62.645205220567" lon="17.86368046171">
        <ele>105</ele>
        <time>2018-01-21T12:00:10Z</time>
      </trkpt>
      <trkpt lat="62.64521921834" lon="17.863663530272">
        <ele>105.2</ele>
        <time>2018-01-21T12:00:11Z</time>
      </trkpt>
      <trkpt lat="62.645239670176" lon="17.863649532499">
        <ele>105.4</ele>
        <time>2018-01-21T12:00:12Z</time>
      </trkpt>
      <trkpt lat="62.645257272166" lon="17.863647688481">
        <ele>105.6</ele>
        <time>2018-01-21T12:00:13Z</time>
      </trkpt>
      <trkpt lat="62.645272191948" lon="17.863629499758">
        <ele>105.8</ele>
        <time>2018-01-21T12:00:14Z</time>
      </trkpt>
      <trkpt lat="62.645287447006" lon="17.863621620772">
        <ele>106</ele>
        <time>2018-01-21T12:00:15Z</time>
      </trkpt>
      <trkpt lat="62.645303288797" lon="17.863610975759">
        <ele>106</ele>
        <time>2018-01-21T12:00:16Z</time>
      </trkpt>
      <trkpt lat="62.645318543855" lon="17.863596223615">
        <ele>106.4</ele>
        <time>2018-01-21T12:00:17Z</time>
      </trkpt>
      <trkpt lat="62.64533488856" lon="17.863582477299">
        <ele>106.6</ele>
        <time>2018-01-21T12:00:18Z</time>
      </trkpt>
      <trkpt lat="62.645352742007" lon="17.863568311888">
        <ele>106.8</ele>
        <time>2018-01-21T12:00:19Z</time>
      </trkpt>
      <trkpt lat="62.645372523291" lon="17.863553224468">
        <ele>107</ele>
        <time>2018-01-21T12:00:20Z</time>
      </trkpt>
      <trkpt lat="62.64538350358" lon="17.863536209211">
        <ele>107.2</ele>
        <time>2018-01-21T12:00:21Z</time>
      </trkpt>
      <trkpt lat="62.645397333715" lon="17.863509554769">
        <ele>107.2</ele>
        <time>2018-01-21T12:00:22Z</time>
      </trkpt>
      <trkpt lat="62.645404290692" lon="17.863497149557">
        <ele>107.4</ele>
        <time>2018-01-21T12:00:23Z</time>
      </trkpt>
      <trkpt lat="62.645416947361" lon="17.863453228401">
        <ele>107.4</ele>
        <time>2018-01-21T12:00:24Z</time>
      </trkpt>
      <trkpt lat="62.645420719216" lon="17.863420371353">
        <ele>107.8</ele>
        <time>2018-01-21T12:00:25Z</time>
      </trkpt>
      <trkpt lat="62.645434130256" lon="17.863372091609">
        <ele>107.8</ele>
        <time>2018-01-21T12:00:26Z</time>
      </trkpt>
      <trkpt lat="62.645442093061" lon="17.863323057494">
        <ele>108.2</ele>
        <time>2018-01-21T12:00:27Z</time>
      </trkpt>
      <trkpt lat="62.645451229332" lon="17.863275113026">
        <ele>108.2</ele>
        <time>2018-01-21T12:00:28Z</time>
      </trkpt>
      <trkpt lat="62.645457599576" lon="17.863224402531">
        <ele>108.2</ele>
        <time>2018-01-21T12:00:29Z</time>
      </trkpt>
      <trkpt lat="62.6454572643" lon="17.863154665123">
        <ele>108.2</ele>
        <time>2018-01-21T12:00:30Z</time>
      </trkpt>
      <trkpt lat="62.645466232933" lon="17.863101020963">
        <ele>108.4</ele>
        <time>2018-01-21T12:00:31Z</time>
      </trkpt>
      <trkpt lat="62.645475033928" lon="17.863039078722">
        <ele>108.4</ele>
        <time>2018-01-21T12:00:32Z</time>
      </trkpt>
      <trkpt lat="62.645477045584" lon="17.862987530037">
        <ele>108.4</ele>
        <time>2018-01-21T12:00:33Z</time>
      </trkpt>
      <trkpt lat="62.64549498285" lon="17.862934556429">
        <ele>108.6</ele>
        <time>2018-01-21T12:00:34Z</time>
      </trkpt>
      <trkpt lat="62.645511579012" lon="17.862883510658">
        <ele>108.6</ele>
        <time>2018-01-21T12:00:35Z</time>
      </trkpt>
      <trkpt lat="62.645522391663" lon="17.862830034136">
        <ele>108.6</ele>
        <time>2018-01-21T12:00:36Z</time>
      </trkpt>
      <trkpt lat="62.645535551246" lon="17.862800865124">
        <ele>108.8</ele>
        <time>2018-01-21T12:00:37Z</time>
      </trkpt>
      <trkpt lat="62.645552398865" lon="17.862774462139">
        <ele>108.8</ele>
        <time>2018-01-21T12:00:38Z</time>
      </trkpt>
      <trkpt lat="62.64556119986" lon="17.862734731933">
        <ele>108.8</ele>
        <time>2018-01-21T12:00:39Z</time>
      </trkpt>
      <trkpt lat="62.645579053307" lon="17.862706065835">
        <ele>109</ele>
        <time>2018-01-21T12:00:40Z</time>
      </trkpt>
      <trkpt lat="62.645597912582" lon="17.862670945674">
        <ele>109.2</ele>
        <time>2018-01-21T12:00:41Z</time>
      </trkpt>
      <trkpt lat="62.645604953378" lon="17.862623336482">
        <ele>109.2</ele>
        <time>2018-01-21T12:00:42Z</time>
      </trkpt>
      <trkpt lat="62.645621214264" lon="17.862588886873">
        <ele>109.4</ele>
        <time>2018-01-21T12:00:43Z</time>
      </trkpt>
      <trkpt lat="62.645634373847" lon="17.862548737572">
        <ele>109.4</ele>
        <time>2018-01-21T12:00:44Z</time>
      </trkpt>
      <trkpt lat="62.64563076963" lon="17.862491573014">
        <ele>109.6</ele>
        <time>2018-01-21T12:00:45Z</time>
      </trkpt>
      <trkpt lat="62.645643174842" lon="17.862453100093">
        <ele>109.8</ele>
        <time>2018-01-21T12:00:46Z</time>
      </trkpt>
      <trkpt lat="62.645650467095" lon="17.862403479245">
        <ele>109.8</ele>
        <time>2018-01-21T12:00:47Z</time>
      </trkpt>
      <trkpt lat="62.645649964181" lon="17.862365844514">
        <ele>110</ele>
        <time>2018-01-21T12:00:48Z</time>
      </trkpt>
      <trkpt lat="62.645655496235" lon="17.862317313313">
        <ele>110.2</ele>
        <time>2018-01-21T12:00:49Z</time>
      </trkpt>
      <trkpt lat="62.645658681357" lon="17.862251012484">
        <ele>110.2</ele>
        <time>2018-01-21T12:00:50Z</time>
      </trkpt>
      <trkpt lat="62.645658932814" lon="17.86220357093">
        <ele>110.4</ele>
        <time>2018-01-21T12:00:51Z</time>
      </trkpt>
      <trkpt lat="62.645669242551" lon="17.862162583439">
        <ele>110.6</ele>
        <time>2018-01-21T12:00:52Z</time>
      </trkpt>
      <trkpt lat="62.6456835756" lon="17.862122517957">
        <ele>110.6</ele>
        <time>2018-01-21T12:00:53Z</time>
      </trkpt>
      <trkpt lat="62.645697238097" lon="17.86208203338">
        <ele>110.8</ele>
        <time>2018-01-21T12:00:54Z</time>
      </trkpt>
      <trkpt lat="62.64572045596" lon="17.862050349798">
        <ele>111</ele>
        <time>2018-01-21T12:00:55Z</time>
      </trkpt>
      <trkpt lat="62.645747948592" lon="17.862045320658">
        <ele>111.2</ele>
        <time>2018-01-21T12:00:56Z</time>
      </trkpt>
      <trkpt lat="62.645771417912" lon="17.862046745581">
        <ele>111.4</ele>
        <time>2018-01-21T12:00:57Z</time>
      </trkpt>
      <trkpt lat="62.645791115377" lon="17.862053870196">
        <ele>111.6</ele>
        <time>2018-01-21T12:00:58Z</time>
      </trkpt>
      <trkpt lat="62.645810561385" lon="17.862074908765">
        <ele>111.6</ele>
        <time>2018-01-21T12:00:59Z</time>
      </trkpt>
      <trkpt lat="62.645836042361" lon="17.862083039208">
        <ele>111.6</ele>
        <time>2018-01-21T12:01:00Z</time>
      </trkpt>
      <trkpt lat="62.645856075102" lon="17.862062000639">
        <ele>111.8</ele>
        <time>2018-01-21T12:01:01Z</time>
      </trkpt>
      <trkpt lat="62.645881556078" lon="17.862065437218">
        <ele>112</ele>
        <time>2018-01-21T12:01:02Z</time>
      </trkpt>
      <trkpt lat="62.645904187208" lon="17.862026209926">
        <ele>112</ele>
        <time>2018-01-21T12:01:03Z</time>
      </trkpt>
      <trkpt lat="62.645923214121" lon="17.861987401729">
        <ele>112.2</ele>
        <time>2018-01-21T12:01:04Z</time>
      </trkpt>
      <trkpt lat="62.645936625161" lon="17.861969632101">
        <ele>112.2</ele>
        <time>2018-01-21T12:01:05Z</time>
      </trkpt>
      <trkpt lat="62.645962776689" lon="17.861938451433">
        <ele>112.2</ele>
        <time>2018-01-21T12:01:06Z</time>
      </trkpt>
      <trkpt lat="62.645980965412" lon="17.861894781734">
        <ele>112.4</ele>
        <time>2018-01-21T12:01:07Z</time>
      </trkpt>
      <trkpt lat="62.645995717556" lon="17.861855219166">
        <ele>112.4</ele>
        <time>2018-01-21T12:01:08Z</time>
      </trkpt>
      <trkpt lat="62.64600376418" lon="17.861825714878">
        <ele>112.4</ele>
        <time>2018-01-21T12:01:09Z</time>
      </trkpt>
      <trkpt lat="62.646027317319" lon="17.861772405994">
        <ele>112.4</ele>
        <time>2018-01-21T12:01:10Z</time>
      </trkpt>
      <trkpt lat="62.646044164938" lon="17.861733094883">
        <ele>112.4</ele>
        <time>2018-01-21T12:01:11Z</time>
      </trkpt>
      <trkpt lat="62.64605321739" lon="17.861689341365">
        <ele>112.4</ele>
        <time>2018-01-21T12:01:12Z</time>
      </trkpt>
      <trkpt lat="62.646073166312" lon="17.861623208174">
        <ele>112.6</ele>
        <time>2018-01-21T12:01:13Z</time>
      </trkpt>
      <trkpt lat="62.646092528501" lon="17.861572749136">
        <ele>112.6</ele>
        <time>2018-01-21T12:01:14Z</time>
      </trkpt>
      <trkpt lat="62.646100575125" lon="17.86153804807">
        <ele>112.6</ele>
        <time>2018-01-21T12:01:15Z</time>
      </trkpt>
      <trkpt lat="62.646119350581" lon="17.861504855746">
        <ele>112.6</ele>
        <time>2018-01-21T12:01:16Z</time>
      </trkpt>
      <trkpt lat="62.646133013078" lon="17.861450541034">
        <ele>112.8</ele>
        <time>2018-01-21T12:01:17Z</time>
      </trkpt>
      <trkpt lat="62.646148435774" lon="17.861399076168">
        <ele>112.8</ele>
        <time>2018-01-21T12:01:18Z</time>
      </trkpt>
      <trkpt lat="62.646163774651" lon="17.861369823337">
        <ele>112.8</ele>
        <time>2018-01-21T12:01:19Z</time>
      </trkpt>
      <trkpt lat="62.646178442976" lon="17.861326908009">
        <ele>113</ele>
        <time>2018-01-21T12:01:20Z</time>
      </trkpt>
      <trkpt lat="62.646200655011" lon="17.861290698201">
        <ele>113.2</ele>
        <time>2018-01-21T12:01:21Z</time>
      </trkpt>
      <trkpt lat="62.646212222033" lon="17.861253314927">
        <ele>113.4</ele>
        <time>2018-01-21T12:01:22Z</time>
      </trkpt>
      <trkpt lat="62.646248012746" lon="17.861204951364">
        <ele>113.6</ele>
        <time>2018-01-21T12:01:23Z</time>
      </trkpt>
      <trkpt lat="62.646270224781" lon="17.861162622769">
        <ele>113.8</ele>
        <time>2018-01-21T12:01:24Z</time>
      </trkpt>
      <trkpt lat="62.646318253068" lon="17.861119958898">
        <ele>113.8</ele>
        <time>2018-01-21T12:01:25Z</time>
      </trkpt>
      <trkpt lat="62.646357647998" lon="17.861072684982">
        <ele>113.4</ele>
        <time>2018-01-21T12:01:26Z</time>
      </trkpt>
      <trkpt lat="62.646395450367" lon="17.861028260912">
        <ele>113</ele>
        <time>2018-01-21T12:01:27Z</time>
      </trkpt>
      <trkpt lat="62.646436521677" lon="17.86098987181">
        <ele>112.4</ele>
        <time>2018-01-21T12:01:28Z</time>
      </trkpt>
      <trkpt lat="62.646465690689" lon="17.860900772213">
        <ele>112.2</ele>
        <time>2018-01-21T12:01:29Z</time>
      </trkpt>
      <trkpt lat="62.646496787538" lon="17.860861880197">
        <ele>111.8</ele>
        <time>2018-01-21T12:01:30Z</time>
      </trkpt>
      <trkpt lat="62.646525872731" lon="17.860804045087">
        <ele>111.2</ele>
        <time>2018-01-21T12:01:31Z</time>
      </trkpt>
      <trkpt lat="62.646562166358" lon="17.860772696781">
        <ele>111.4</ele>
        <time>2018-01-21T12:01:32Z</time>
      </trkpt>
      <trkpt lat="62.646592676474" lon="17.860734056222">
        <ele>111.4</ele>
        <time>2018-01-21T12:01:33Z</time>
      </trkpt>
      <trkpt lat="62.646617067803" lon="17.860711508911">
        <ele>111.8</ele>
        <time>2018-01-21T12:01:34Z</time>
      </trkpt>
      <trkpt lat="62.646658139113" lon="17.860686614668">
        <ele>111.8</ele>
        <time>2018-01-21T12:01:35Z</time>
      </trkpt>
      <trkpt lat="62.646676244017" lon="17.860644118435">
        <ele>111.8</ele>
        <time>2018-01-21T12:01:36Z</time>
      </trkpt>
      <trkpt lat="62.64671035835" lon="17.860614278871">
        <ele>111.8</ele>
        <time>2018-01-21T12:01:37Z</time>
      </trkpt>
      <trkpt lat="62.646738437715" lon="17.860572117914">
        <ele>111.6</ele>
        <time>2018-01-21T12:01:38Z</time>
      </trkpt>
      <trkpt lat="62.646755452972" lon="17.86055066025">
        <ele>111.4</ele>
        <time>2018-01-21T12:01:39Z</time>
      </trkpt>
      <trkpt lat="62.646793255341" lon="17.860532303889">
        <ele>111.2</ele>
        <time>2018-01-21T12:01:40Z</time>
      </trkpt>
      <trkpt lat="62.646810689693" lon="17.860491316398">
        <ele>111.2</ele>
        <time>2018-01-21T12:01:41Z</time>
      </trkpt>
      <trkpt lat="62.646835081022" lon="17.860470780743">
        <ele>111.2</ele>
        <time>2018-01-21T12:01:42Z</time>
      </trkpt>
      <trkpt lat="62.646864669129" lon="17.860446473233">
        <ele>111.4</ele>
        <time>2018-01-21T12:01:43Z</time>
      </trkpt>
      <trkpt lat="62.646878750721" lon="17.860422249542">
        <ele>111.4</ele>
        <time>2018-01-21T12:01:44Z</time>
      </trkpt>
      <trkpt lat="62.646909428475" lon="17.860401043335">
        <ele>111.6</ele>
        <time>2018-01-21T12:01:45Z</time>
      </trkpt>
      <trkpt lat="62.646931556691" lon="17.860375646178">
        <ele>111.6</ele>
        <time>2018-01-21T12:01:46Z</time>
      </trkpt>
      <trkpt lat="62.646947482301" lon="17.860355026704">
        <ele>111.6</ele>
        <time>2018-01-21T12:01:47Z</time>
      </trkpt>
      <trkpt lat="62.646978327693" lon="17.860335329239">
        <ele>112</ele>
        <time>2018-01-21T12:01:48Z</time>
      </trkpt>
      <trkpt lat="62.646995091493" lon="17.860286546581">
        <ele>112</ele>
        <time>2018-01-21T12:01:49Z</time>
      </trkpt>
      <trkpt lat="62.647019818098" lon="17.860263663994">
        <ele>112</ele>
        <time>2018-01-21T12:01:50Z</time>
      </trkpt>
      <trkpt lat="62.647064745082" lon="17.860210774205">
        <ele>112.2</ele>
        <time>2018-01-21T12:01:51Z</time>
      </trkpt>
      <trkpt lat="62.647097350673" lon="17.860159476977">
        <ele>112</ele>
        <time>2018-01-21T12:01:52Z</time>
      </trkpt>
      <trkpt lat="62.647125681495" lon="17.860117483658">
        <ele>111.8</ele>
        <time>2018-01-21T12:01:53Z</time>
      </trkpt>
      <trkpt lat="62.647147139159" lon="17.860072389036">
        <ele>111.8</ele>
        <time>2018-01-21T12:01:54Z</time>
      </trkpt>
      <trkpt lat="62.647155772516" lon="17.860017487591">
        <ele>111.6</ele>
        <time>2018-01-21T12:01:55Z</time>
      </trkpt>
      <trkpt lat="62.64717974475" lon="17.859978092661">
        <ele>111.6</ele>
        <time>2018-01-21T12:01:56Z</time>
      </trkpt>
      <trkpt lat="62.647189132478" lon="17.859938362455">
        <ele>111.4</ele>
        <time>2018-01-21T12:01:57Z</time>
      </trkpt>
      <trkpt lat="62.647199442215" lon="17.85989100472">
        <ele>111.6</ele>
        <time>2018-01-21T12:01:58Z</time>
      </trkpt>
      <trkpt lat="62.647218050033" lon="17.859850268686">
        <ele>111.8</ele>
        <time>2018-01-21T12:01:59Z</time>
      </trkpt>
      <trkpt lat="62.647231963987" lon="17.85980131839">
        <ele>111.8</ele>
        <time>2018-01-21T12:02:00Z</time>
      </trkpt>
      <trkpt lat="62.647248308692" lon="17.859758319243">
        <ele>111.8</ele>
        <time>2018-01-21T12:02:01Z</time>
      </trkpt>
      <trkpt lat="62.647271610374" lon="17.859710290956">
        <ele>111.8</ele>
        <time>2018-01-21T12:02:02Z</time>
      </trkpt>
      <trkpt lat="62.647287535984" lon="17.859648600172">
        <ele>111.8</ele>
        <time>2018-01-21T12:02:03Z</time>
      </trkpt>
      <trkpt lat="62.647311172942" lon="17.859594201641">
        <ele>111.8</ele>
        <time>2018-01-21T12:02:04Z</time>
      </trkpt>
      <trkpt lat="62.647325170715" lon="17.859538545825">
        <ele>111.8</ele>
        <time>2018-01-21T12:02:05Z</time>
      </trkpt>
      <trkpt lat="62.647339336126" lon="17.859493367384">
        <ele>111.8</ele>
        <time>2018-01-21T12:02:06Z</time>
      </trkpt>
      <trkpt lat="62.647358530677" lon="17.859415667171">
        <ele>111.8</ele>
        <time>2018-01-21T12:02:07Z</time>
      </trkpt>
      <trkpt lat="62.647371354984" lon="17.85934869579">
        <ele>111.8</ele>
        <time>2018-01-21T12:02:08Z</time>
      </trkpt>
      <trkpt lat="62.647368002224" lon="17.859278371649">
        <ele>111.6</ele>
        <time>2018-01-21T12:02:09Z</time>
      </trkpt>
      <trkpt lat="62.647385771852" lon="17.859199917065">
        <ele>111.6</ele>
        <time>2018-01-21T12:02:10Z</time>
      </trkpt>
      <trkpt lat="62.647387364413" lon="17.859124144689">
        <ele>111.4</ele>
        <time>2018-01-21T12:02:11Z</time>
      </trkpt>
      <trkpt lat="62.647389627526" lon="17.859063878828">
        <ele>111.2</ele>
        <time>2018-01-21T12:02:12Z</time>
      </trkpt>
      <trkpt lat="62.647401278367" lon="17.858975282145">
        <ele>111.2</ele>
        <time>2018-01-21T12:02:13Z</time>
      </trkpt>
      <trkpt lat="62.647400859272" lon="17.858935719577">
        <ele>111</ele>
        <time>2018-01-21T12:02:14Z</time>
      </trkpt>
      <trkpt lat="62.647407564792" lon="17.858865563074">
        <ele>110.8</ele>
        <time>2018-01-21T12:02:15Z</time>
      </trkpt>
      <trkpt lat="62.647409660267" lon="17.858811751276">
        <ele>110.6</ele>
        <time>2018-01-21T12:02:16Z</time>
      </trkpt>
      <trkpt lat="62.647411001371" lon="17.858756514555">
        <ele>110.6</ele>
        <time>2018-01-21T12:02:17Z</time>
      </trkpt>
      <trkpt lat="62.647417455434" lon="17.858668839881">
        <ele>110.4</ele>
        <time>2018-01-21T12:02:18Z</time>
      </trkpt>
      <trkpt lat="62.647412426294" lon="17.858603880156">
        <ele>110.4</ele>
        <time>2018-01-21T12:02:19Z</time>
      </trkpt>
      <trkpt lat="62.647415359959" lon="17.858538333698">
        <ele>110.4</ele>
        <time>2018-01-21T12:02:20Z</time>
      </trkpt>
      <trkpt lat="62.647417287796" lon="17.858461974589">
        <ele>110.4</ele>
        <time>2018-01-21T12:02:21Z</time>
      </trkpt>
      <trkpt lat="62.647412091018" lon="17.858410509723">
        <ele>110.4</ele>
        <time>2018-01-21T12:02:22Z</time>
      </trkpt>
      <trkpt lat="62.647422652212" lon="17.858337251917">
        <ele>110.4</ele>
        <time>2018-01-21T12:02:23Z</time>
      </trkpt>
      <trkpt lat="62.647428100447" lon="17.858262066274">
        <ele>110.4</ele>
        <time>2018-01-21T12:02:24Z</time>
      </trkpt>
      <trkpt lat="62.64743371632" lon="17.858224599181">
        <ele>110.4</ele>
        <time>2018-01-21T12:02:25Z</time>
      </trkpt>
      <trkpt lat="62.64744293641" lon="17.858142121285">
        <ele>110.4</ele>
        <time>2018-01-21T12:02:26Z</time>
      </trkpt>
      <trkpt lat="62.647440924754" lon="17.858097781034">
        <ele>110.4</ele>
        <time>2018-01-21T12:02:27Z</time>
      </trkpt>
      <trkpt lat="62.647455425441" lon="17.858013375301">
        <ele>110.4</ele>
        <time>2018-01-21T12:02:28Z</time>
      </trkpt>
      <trkpt lat="62.647457688554" lon="17.85794724211">
        <ele>110.4</ele>
        <time>2018-01-21T12:02:29Z</time>
      </trkpt>
      <trkpt lat="62.647461963323" lon="17.857879097263">
        <ele>110.4</ele>
        <time>2018-01-21T12:02:30Z</time>
      </trkpt>
      <trkpt lat="62.647463472065" lon="17.857804498353">
        <ele>110.4</ele>
        <time>2018-01-21T12:02:31Z</time>
      </trkpt>
      <trkpt lat="62.647459867848" lon="17.85775613479">
        <ele>110.2</ele>
        <time>2018-01-21T12:02:32Z</time>
      </trkpt>
      <trkpt lat="62.647474871449" lon="17.857681787337">
        <ele>110.2</ele>
        <time>2018-01-21T12:02:33Z</time>
      </trkpt>
      <trkpt lat="62.64748233134" lon="17.857612552843">
        <ele>110.2</ele>
        <time>2018-01-21T12:02:34Z</time>
      </trkpt>
      <trkpt lat="62.647494485095" lon="17.857557316122">
        <ele>110.2</ele>
        <time>2018-01-21T12:02:35Z</time>
      </trkpt>
      <trkpt lat="62.647499681873" lon="17.857483639221">
        <ele>110.2</ele>
        <time>2018-01-21T12:02:36Z</time>
      </trkpt>
      <trkpt lat="62.64750580066" lon="17.857409459406">
        <ele>110.2</ele>
        <time>2018-01-21T12:02:37Z</time>
      </trkpt>
      <trkpt lat="62.647517367682" lon="17.85735631816">
        <ele>110.2</ele>
        <time>2018-01-21T12:02:38Z</time>
      </trkpt>
      <trkpt lat="62.647532958016" lon="17.857297980136">
        <ele>110.4</ele>
        <time>2018-01-21T12:02:39Z</time>
      </trkpt>
      <trkpt lat="62.64753932826" lon="17.857253556066">
        <ele>110.4</ele>
        <time>2018-01-21T12:02:40Z</time>
      </trkpt>
      <trkpt lat="62.647552487843" lon="17.857204773408">
        <ele>110.4</ele>
        <time>2018-01-21T12:02:41Z</time>
      </trkpt>
      <trkpt lat="62.647569586919" lon="17.857126151186">
        <ele>110.4</ele>
        <time>2018-01-21T12:02:42Z</time>
      </trkpt>
      <trkpt lat="62.647583165597" lon="17.857081727116">
        <ele>110.4</ele>
        <time>2018-01-21T12:02:43Z</time>
      </trkpt>
      <trkpt lat="62.647596073723" lon="17.857025987481">
        <ele>110.4</ele>
        <time>2018-01-21T12:02:44Z</time>
      </trkpt>
      <trkpt lat="62.647607556926" lon="17.856961446851">
        <ele>110.4</ele>
        <time>2018-01-21T12:02:45Z</time>
      </trkpt>
      <trkpt lat="62.647618704853" lon="17.856888691959">
        <ele>110.4</ele>
        <time>2018-01-21T12:02:46Z</time>
      </trkpt>
      <trkpt lat="62.647629182228" lon="17.85685675692">
        <ele>110.6</ele>
        <time>2018-01-21T12:02:47Z</time>
      </trkpt>
      <trkpt lat="62.647626080925" lon="17.856812081393">
        <ele>110.8</ele>
        <time>2018-01-21T12:02:48Z</time>
      </trkpt>
      <trkpt lat="62.647630020418" lon="17.856741841071">
        <ele>110.8</ele>
        <time>2018-01-21T12:02:49Z</time>
      </trkpt>
      <trkpt lat="62.647631110065" lon="17.856675372604">
        <ele>111</ele>
        <time>2018-01-21T12:02:50Z</time>
      </trkpt>
      <trkpt lat="62.64763488192" lon="17.856598510581">
        <ele>111.2</ele>
        <time>2018-01-21T12:02:51Z</time>
      </trkpt>
      <trkpt lat="62.647633456997" lon="17.856524498404">
        <ele>111.2</ele>
        <time>2018-01-21T12:02:52Z</time>
      </trkpt>
      <trkpt lat="62.647638318499" lon="17.856474793737">
        <ele>111.2</ele>
        <time>2018-01-21T12:02:53Z</time>
      </trkpt>
      <trkpt lat="62.647644772562" lon="17.856394159859">
        <ele>111.2</ele>
        <time>2018-01-21T12:02:54Z</time>
      </trkpt>
      <trkpt lat="62.647659524706" lon="17.856326685564">
        <ele>111.4</ele>
        <time>2018-01-21T12:02:55Z</time>
      </trkpt>
      <trkpt lat="62.647678970714" lon="17.856213194638">
        <ele>111.2</ele>
        <time>2018-01-21T12:02:56Z</time>
      </trkpt>
      <trkpt lat="62.647700596016" lon="17.856134069502">
        <ele>111.2</ele>
        <time>2018-01-21T12:02:57Z</time>
      </trkpt>
      <trkpt lat="62.6477203773" lon="17.856059470592">
        <ele>111</ele>
        <time>2018-01-21T12:02:58Z</time>
      </trkpt>
      <trkpt lat="62.647744181896" lon="17.855984871682">
        <ele>110.8</ele>
        <time>2018-01-21T12:02:59Z</time>
      </trkpt>
      <trkpt lat="62.647773015632" lon="17.855908428754">
        <ele>110.6</ele>
        <time>2018-01-21T12:03:00Z</time>
      </trkpt>
      <trkpt lat="62.647802687558" lon="17.855834668034">
        <ele>110.6</ele>
        <time>2018-01-21T12:03:01Z</time>
      </trkpt>
      <trkpt lat="62.647836550434" lon="17.855756381088">
        <ele>110.4</ele>
        <time>2018-01-21T12:03:02Z</time>
      </trkpt>
      <trkpt lat="62.647871000043" lon="17.85568329092">
        <ele>110</ele>
        <time>2018-01-21T12:03:03Z</time>
      </trkpt>
      <trkpt lat="62.647908048041" lon="17.855615900444">
        <ele>109.8</ele>
        <time>2018-01-21T12:03:04Z</time>
      </trkpt>
      <trkpt lat="62.647958255622" lon="17.855544570475">
        <ele>109.2</ele>
        <time>2018-01-21T12:03:05Z</time>
      </trkpt>
      <trkpt lat="62.648011815963" lon="17.855483047329">
        <ele>108.4</ele>
        <time>2018-01-21T12:03:06Z</time>
      </trkpt>
      <trkpt lat="62.648065460123" lon="17.855458488362">
        <ele>107.6</ele>
        <time>2018-01-21T12:03:07Z</time>
      </trkpt>
      <trkpt lat="62.648121954129" lon="17.85546871428">
        <ele>106.6</ele>
        <time>2018-01-21T12:03:08Z</time>
      </trkpt>
      <trkpt lat="62.648156739014" lon="17.855445915512">
        <ele>105.8</ele>
        <time>2018-01-21T12:03:09Z</time>
      </trkpt>
      <trkpt lat="62.64819898379" lon="17.855463601321">
        <ele>105.4</ele>
        <time>2018-01-21T12:03:10Z</time>
      </trkpt>
      <trkpt lat="62.648244665145" lon="17.855457147258">
        <ele>105.2</ele>
        <time>2018-01-21T12:03:11Z</time>
      </trkpt>
      <trkpt lat="62.648286490826" lon="17.855416578862">
        <ele>105.2</ele>
        <time>2018-01-21T12:03:12Z</time>
      </trkpt>
      <trkpt lat="62.648319934607" lon="17.85540585003">
        <ele>105.2</ele>
        <time>2018-01-21T12:03:13Z</time>
      </trkpt>
      <trkpt lat="62.648362514659" lon="17.855392774266">
        <ele>105.4</ele>
        <time>2018-01-21T12:03:14Z</time>
      </trkpt>
      <trkpt lat="62.648385816341" lon="17.855340974124">
        <ele>105.4</ele>
        <time>2018-01-21T12:03:15Z</time>
      </trkpt>
      <trkpt lat="62.648419930674" lon="17.855318426813">
        <ele>105.2</ele>
        <time>2018-01-21T12:03:16Z</time>
      </trkpt>
      <trkpt lat="62.648456056663" lon="17.855279702435">
        <ele>105.2</ele>
        <time>2018-01-21T12:03:17Z</time>
      </trkpt>
      <trkpt lat="62.648472569006" lon="17.855238379668">
        <ele>105.2</ele>
        <time>2018-01-21T12:03:18Z</time>
      </trkpt>
      <trkpt lat="62.648520932569" lon="17.855213233968">
        <ele>105.2</ele>
        <time>2018-01-21T12:03:19Z</time>
      </trkpt>
      <trkpt lat="62.6485501854" lon="17.855183142947">
        <ele>105.2</ele>
        <time>2018-01-21T12:03:20Z</time>
      </trkpt>
      <trkpt lat="62.648568793218" lon="17.855162020559">
        <ele>105</ele>
        <time>2018-01-21T12:03:21Z</time>
      </trkpt>
      <trkpt lat="62.64860382956" lon="17.855145843492">
        <ele>105.2</ele>
        <time>2018-01-21T12:03:22Z</time>
      </trkpt>
      <trkpt lat="62.648624868129" lon="17.855124553466">
        <ele>105.2</ele>
        <time>2018-01-21T12:03:23Z</time>
      </trkpt>
      <trkpt lat="62.648643811223" lon="17.855086248183">
        <ele>105.2</ele>
        <time>2018-01-21T12:03:24Z</time>
      </trkpt>
      <trkpt lat="62.64867675209" lon="17.855058504094">
        <ele>105.2</ele>
        <time>2018-01-21T12:03:25Z</time>
      </trkpt>
      <trkpt lat="62.648705082912" lon="17.855026317598">
        <ele>105.4</ele>
        <time>2018-01-21T12:03:26Z</time>
      </trkpt>
      <trkpt lat="62.648725031834" lon="17.854980468605">
        <ele>105.4</ele>
        <time>2018-01-21T12:03:27Z</time>
      </trkpt>
      <trkpt lat="62.648733246096" lon="17.854944426435">
        <ele>105.4</ele>
        <time>2018-01-21T12:03:28Z</time>
      </trkpt>
      <trkpt lat="62.648744142566" lon="17.85489371594">
        <ele>105.6</ele>
        <time>2018-01-21T12:03:29Z</time>
      </trkpt>
      <trkpt lat="62.648758559434" lon="17.854818111202">
        <ele>105.6</ele>
        <time>2018-01-21T12:03:30Z</time>
      </trkpt>
      <trkpt lat="62.648768450076" lon="17.854728341053">
        <ele>105.6</ele>
        <time>2018-01-21T12:03:31Z</time>
      </trkpt>
      <trkpt lat="62.648772976302" lon="17.854621639466">
        <ele>105.6</ele>
        <time>2018-01-21T12:03:32Z</time>
      </trkpt>
      <trkpt lat="62.648770797008" lon="17.854497754984">
        <ele>105.4</ele>
        <time>2018-01-21T12:03:33Z</time>
      </trkpt>
      <trkpt lat="62.648774065949" lon="17.854391472492">
        <ele>105.2</ele>
        <time>2018-01-21T12:03:34Z</time>
      </trkpt>
      <trkpt lat="62.648788063722" lon="17.854290805873">
        <ele>105</ele>
        <time>2018-01-21T12:03:35Z</time>
      </trkpt>
      <trkpt lat="62.648816394544" lon="17.854207908882">
        <ele>104.4</ele>
        <time>2018-01-21T12:03:36Z</time>
      </trkpt>
      <trkpt lat="62.648849083954" lon="17.85416532883">
        <ele>103.6</ele>
        <time>2018-01-21T12:03:37Z</time>
      </trkpt>
      <trkpt lat="62.64888713778" lon="17.854149989953">
        <ele>103</ele>
        <time>2018-01-21T12:03:38Z</time>
      </trkpt>
      <trkpt lat="62.648923012312" lon="17.854179997155">
        <ele>102.4</ele>
        <time>2018-01-21T12:03:39Z</time>
      </trkpt>
      <trkpt lat="62.648950756401" lon="17.854218637714">
        <ele>102</ele>
        <time>2018-01-21T12:03:40Z</time>
      </trkpt>
      <trkpt lat="62.648969196581" lon="17.854268593838">
        <ele>102</ele>
        <time>2018-01-21T12:03:41Z</time>
      </trkpt>
      <trkpt lat="62.648999539059" lon="17.854349646811">
        <ele>102</ele>
        <time>2018-01-21T12:03:42Z</time>
      </trkpt>
      <trkpt lat="62.649024433302" lon="17.85442265316">
        <ele>102</ele>
        <time>2018-01-21T12:03:43Z</time>
      </trkpt>
      <trkpt lat="62.649047315889" lon="17.85448048827">
        <ele>102</ele>
        <time>2018-01-21T12:03:44Z</time>
      </trkpt>
      <trkpt lat="62.649076149625" lon="17.854551566782">
        <ele>102</ele>
        <time>2018-01-21T12:03:45Z</time>
      </trkpt>
      <trkpt lat="62.649104145171" lon="17.854608396064">
        <ele>101.8</ele>
        <time>2018-01-21T12:03:46Z</time>
      </trkpt>
      <trkpt lat="62.6491285365" lon="17.854655502342">
        <ele>101.4</ele>
        <time>2018-01-21T12:03:47Z</time>
      </trkpt>
      <trkpt lat="62.649159130435" lon="17.854738231695">
        <ele>101.2</ele>
        <time>2018-01-21T12:03:48Z</time>
      </trkpt>
      <trkpt lat="62.649176229511" lon="17.854761617196">
        <ele>101</ele>
        <time>2018-01-21T12:03:49Z</time>
      </trkpt>
      <trkpt lat="62.649203219229" lon="17.85483085169">
        <ele>100.8</ele>
        <time>2018-01-21T12:03:50Z</time>
      </trkpt>
      <trkpt lat="62.649237752657" lon="17.854893380664">
        <ele>100.6</ele>
        <time>2018-01-21T12:03:51Z</time>
      </trkpt>
      <trkpt lat="62.649267089307" lon="17.854924058418">
        <ele>100.6</ele>
        <time>2018-01-21T12:03:52Z</time>
      </trkpt>
      <trkpt lat="62.649300784545" lon="17.854963620986">
        <ele>100.4</ele>
        <time>2018-01-21T12:03:53Z</time>
      </trkpt>
      <trkpt lat="62.649344621882" lon="17.854980300967">
        <ele>100.2</ele>
        <time>2018-01-21T12:03:54Z</time>
      </trkpt>
      <trkpt lat="62.649374377627" lon="17.85497082942">
        <ele>100.2</ele>
        <time>2018-01-21T12:03:55Z</time>
      </trkpt>
      <trkpt lat="62.649429781986" lon="17.854953897982">
        <ele>100</ele>
        <time>2018-01-21T12:03:56Z</time>
      </trkpt>
      <trkpt lat="62.649470685658" lon="17.854920370382">
        <ele>100</ele>
        <time>2018-01-21T12:03:57Z</time>
      </trkpt>
      <trkpt lat="62.649510248226" lon="17.85489036318">
        <ele>99.8</ele>
        <time>2018-01-21T12:03:58Z</time>
      </trkpt>
      <trkpt lat="62.649545368387" lon="17.854861445625">
        <ele>99.6</ele>
        <time>2018-01-21T12:03:59Z</time>
      </trkpt>
      <trkpt lat="62.649594402502" lon="17.854824649084">
        <ele>99.2</ele>
        <time>2018-01-21T12:04:00Z</time>
      </trkpt>
      <trkpt lat="62.649640754409" lon="17.854791708217">
        <ele>98.8</ele>
        <time>2018-01-21T12:04:01Z</time>
      </trkpt>
      <trkpt lat="62.649691297266" lon="17.85476547287">
        <ele>98</ele>
        <time>2018-01-21T12:04:02Z</time>
      </trkpt>
      <trkpt lat="62.649745528159" lon="17.854750469269">
        <ele>97.4</ele>
        <time>2018-01-21T12:04:03Z</time>
      </trkpt>
      <trkpt lat="62.649800681061" lon="17.854744434301">
        <ele>97</ele>
        <time>2018-01-21T12:04:04Z</time>
      </trkpt>
      <trkpt lat="62.649855331049" lon="17.854740662446">
        <ele>96.6</ele>
        <time>2018-01-21T12:04:05Z</time>
      </trkpt>
      <trkpt lat="62.649909226666" lon="17.854738986066">
        <ele>95.8</ele>
        <time>2018-01-21T12:04:06Z</time>
      </trkpt>
      <trkpt lat="62.649958176962" lon="17.854737309686">
        <ele>95</ele>
        <time>2018-01-21T12:04:07Z</time>
      </trkpt>
      <trkpt lat="62.650005953792" lon="17.854729849795">
        <ele>94.2</ele>
        <time>2018-01-21T12:04:08Z</time>
      </trkpt>
      <trkpt lat="62.650055826097" lon="17.854704787914">
        <ele>93.4</ele>
        <time>2018-01-21T12:04:09Z</time>
      </trkpt>
      <trkpt lat="62.650107626239" lon="17.854661704948">
        <ele>92.8</ele>
        <time>2018-01-21T12:04:10Z</time>
      </trkpt>
      <trkpt lat="62.650139058364" lon="17.854591213169">
        <ele>92.4</ele>
        <time>2018-01-21T12:04:11Z</time>
      </trkpt>
      <trkpt lat="62.650165880444" lon="17.854504963418">
        <ele>92</ele>
        <time>2018-01-21T12:04:12Z</time>
      </trkpt>
      <trkpt lat="62.650177447466" lon="17.85440924212">
        <ele>91.8</ele>
        <time>2018-01-21T12:04:13Z</time>
      </trkpt>
      <trkpt lat="62.650199156587" lon="17.854310754795">
        <ele>91.8</ele>
        <time>2018-01-21T12:04:14Z</time>
      </trkpt>
      <trkpt lat="62.650207538487" lon="17.854217212791">
        <ele>91.4</ele>
        <time>2018-01-21T12:04:15Z</time>
      </trkpt>
      <trkpt lat="62.650215166016" lon="17.854140350768">
        <ele>91</ele>
        <time>2018-01-21T12:04:16Z</time>
      </trkpt>
      <trkpt lat="62.650228409418" lon="17.854099028001">
        <ele>91</ele>
        <time>2018-01-21T12:04:17Z</time>
      </trkpt>
      <trkpt lat="62.650238383879" lon="17.85404798223">
        <ele>91</ele>
        <time>2018-01-21T12:04:18Z</time>
      </trkpt>
      <trkpt lat="62.650242071915" lon="17.854010766594">
        <ele>90.8</ele>
        <time>2018-01-21T12:04:19Z</time>
      </trkpt>
      <trkpt lat="62.65025422567" lon="17.853974892062">
        <ele>91</ele>
        <time>2018-01-21T12:04:20Z</time>
      </trkpt>
      <trkpt lat="62.650262859027" lon="17.853940610091">
        <ele>91.4</ele>
        <time>2018-01-21T12:04:21Z</time>
      </trkpt>
      <trkpt lat="62.650278784637" lon="17.853911273441">
        <ele>91.4</ele>
        <time>2018-01-21T12:04:22Z</time>
      </trkpt>
      <trkpt lat="62.650288675279" lon="17.853888893768">
        <ele>91.6</ele>
        <time>2018-01-21T12:04:23Z</time>
      </trkpt>
      <trkpt lat="62.650301834862" lon="17.853852851598">
        <ele>91.8</ele>
        <time>2018-01-21T12:04:24Z</time>
      </trkpt>
      <trkpt lat="62.650315748816" lon="17.853815049229">
        <ele>92</ele>
        <time>2018-01-21T12:04:25Z</time>
      </trkpt>
      <trkpt lat="62.65033469191" lon="17.853760315422">
        <ele>92.2</ele>
        <time>2018-01-21T12:04:26Z</time>
      </trkpt>
      <trkpt lat="62.650359418515" lon="17.853704408149">
        <ele>92.4</ele>
        <time>2018-01-21T12:04:27Z</time>
      </trkpt>
      <trkpt lat="62.650363609465" lon="17.853675322956">
        <ele>92.4</ele>
        <time>2018-01-21T12:04:28Z</time>
      </trkpt>
      <trkpt lat="62.650398310531" lon="17.853617906941">
        <ele>92.6</ele>
        <time>2018-01-21T12:04:29Z</time>
      </trkpt>
      <trkpt lat="62.650411637752" lon="17.853567447903">
        <ele>92.6</ele>
        <time>2018-01-21T12:04:30Z</time>
      </trkpt>
      <trkpt lat="62.650423372412" lon="17.85354171547">
        <ele>92.8</ele>
        <time>2018-01-21T12:04:31Z</time>
      </trkpt>
      <trkpt lat="62.650443824248" lon="17.853510450983">
        <ele>92.8</ele>
        <time>2018-01-21T12:04:32Z</time>
      </trkpt>
      <trkpt lat="62.650473579993" lon="17.853460830135">
        <ele>92.8</ele>
        <time>2018-01-21T12:04:33Z</time>
      </trkpt>
      <trkpt lat="62.650486488119" lon="17.853438869557">
        <ele>93</ele>
        <time>2018-01-21T12:04:34Z</time>
      </trkpt>
      <trkpt lat="62.650502246091" lon="17.853413304762">
        <ele>93</ele>
        <time>2018-01-21T12:04:35Z</time>
      </trkpt>
      <trkpt lat="62.650537114795" lon="17.853376759678">
        <ele>93</ele>
        <time>2018-01-21T12:04:36Z</time>
      </trkpt>
      <trkpt lat="62.650551531663" lon="17.853354296186">
        <ele>93.2</ele>
        <time>2018-01-21T12:04:37Z</time>
      </trkpt>
      <trkpt lat="62.650566116169" lon="17.853333676712">
        <ele>93.4</ele>
        <time>2018-01-21T12:04:38Z</time>
      </trkpt>
      <trkpt lat="62.65058531072" lon="17.853310542668">
        <ele>93.4</ele>
        <time>2018-01-21T12:04:39Z</time>
      </trkpt>
      <trkpt lat="62.650605511099" lon="17.853284810235">
        <ele>93.4</ele>
        <time>2018-01-21T12:04:40Z</time>
      </trkpt>
      <trkpt lat="62.650619425053" lon="17.853254551576">
        <ele>93.6</ele>
        <time>2018-01-21T12:04:41Z</time>
      </trkpt>
      <trkpt lat="62.650640044527" lon="17.853230411704">
        <ele>93.6</ele>
        <time>2018-01-21T12:04:42Z</time>
      </trkpt>
      <trkpt lat="62.650652449739" lon="17.85321146861">
        <ele>93.8</ele>
        <time>2018-01-21T12:04:43Z</time>
      </trkpt>
      <trkpt lat="62.650660999277" lon="17.853186658186">
        <ele>94</ele>
        <time>2018-01-21T12:04:44Z</time>
      </trkpt>
      <trkpt lat="62.65067751162" lon="17.853156650984">
        <ele>94.2</ele>
        <time>2018-01-21T12:04:45Z</time>
      </trkpt>
      <trkpt lat="62.650701651492" lon="17.853129158352">
        <ele>94.4</ele>
        <time>2018-01-21T12:04:46Z</time>
      </trkpt>
      <trkpt lat="62.650716822731" lon="17.853088338499">
        <ele>94.6</ele>
        <time>2018-01-21T12:04:47Z</time>
      </trkpt>
      <trkpt lat="62.650729227943" lon="17.853055481451">
        <ele>94.8</ele>
        <time>2018-01-21T12:04:48Z</time>
      </trkpt>
      <trkpt lat="62.650741549336" lon="17.853028491733">
        <ele>95</ele>
        <time>2018-01-21T12:04:49Z</time>
      </trkpt>
      <trkpt lat="62.650769963977" lon="17.852970153709">
        <ele>95</ele>
        <time>2018-01-21T12:04:50Z</time>
      </trkpt>
      <trkpt lat="62.650784380845" lon="17.852946852027">
        <ele>95.2</ele>
        <time>2018-01-21T12:04:51Z</time>
      </trkpt>
      <trkpt lat="62.650797540428" lon="17.852910893676">
        <ele>95.2</ele>
        <time>2018-01-21T12:04:52Z</time>
      </trkpt>
      <trkpt lat="62.650819668644" lon="17.852861608104">
        <ele>95.2</ele>
        <time>2018-01-21T12:04:53Z</time>
      </trkpt>
      <trkpt lat="62.650831822399" lon="17.852843084105">
        <ele>95.4</ele>
        <time>2018-01-21T12:04:54Z</time>
      </trkpt>
      <trkpt lat="62.650847831828" lon="17.852813076903">
        <ele>95.4</ele>
        <time>2018-01-21T12:04:55Z</time>
      </trkpt>
      <trkpt lat="62.650870798234" lon="17.85277058067">
        <ele>95.6</ele>
        <time>2018-01-21T12:04:56Z</time>
      </trkpt>
      <trkpt lat="62.65088705912" lon="17.852732526844">
        <ele>95.8</ele>
        <time>2018-01-21T12:04:57Z</time>
      </trkpt>
      <trkpt lat="62.650927962792" lon="17.852692964276">
        <ele>96</ele>
        <time>2018-01-21T12:04:58Z</time>
      </trkpt>
      <trkpt lat="62.650943301669" lon="17.852654239898">
        <ele>96.2</ele>
        <time>2018-01-21T12:04:59Z</time>
      </trkpt>
      <trkpt lat="62.65099015649" lon="17.852626495809">
        <ele>96.4</ele>
        <time>2018-01-21T12:05:00Z</time>
      </trkpt>
      <trkpt lat="62.65101781676" lon="17.852611492208">
        <ele>96.2</ele>
        <time>2018-01-21T12:05:01Z</time>
      </trkpt>
      <trkpt lat="62.651043465374" lon="17.852599673729">
        <ele>96</ele>
        <time>2018-01-21T12:05:02Z</time>
      </trkpt>
      <trkpt lat="62.65107732825" lon="17.852589028716">
        <ele>95.8</ele>
        <time>2018-01-21T12:05:03Z</time>
      </trkpt>
      <trkpt lat="62.651102138674" lon="17.852593806399">
        <ele>95.6</ele>
        <time>2018-01-21T12:05:04Z</time>
      </trkpt>
      <trkpt lat="62.651125356537" lon="17.852596823883">
        <ele>95.6</ele>
        <time>2018-01-21T12:05:05Z</time>
      </trkpt>
      <trkpt lat="62.651161063431" lon="17.852612414217">
        <ele>95.6</ele>
        <time>2018-01-21T12:05:06Z</time>
      </trkpt>
      <trkpt lat="62.651189561891" lon="17.85261300095">
        <ele>95.6</ele>
        <time>2018-01-21T12:05:07Z</time>
      </trkpt>
      <trkpt lat="62.651212695935" lon="17.852615096425">
        <ele>95.6</ele>
        <time>2018-01-21T12:05:08Z</time>
      </trkpt>
      <trkpt lat="62.651242116404" lon="17.852620377022">
        <ele>95.8</ele>
        <time>2018-01-21T12:05:09Z</time>
      </trkpt>
      <trkpt lat="62.651270614864" lon="17.852608307086">
        <ele>95.8</ele>
        <time>2018-01-21T12:05:10Z</time>
      </trkpt>
      <trkpt lat="62.651285031732" lon="17.852593303485">
        <ele>95.8</ele>
        <time>2018-01-21T12:05:11Z</time>
      </trkpt>
      <trkpt lat="62.651315960943" lon="17.852586681784">
        <ele>95.8</ele>
        <time>2018-01-21T12:05:12Z</time>
      </trkpt>
      <trkpt lat="62.651349572362" lon="17.852573103106">
        <ele>95.8</ele>
        <time>2018-01-21T12:05:13Z</time>
      </trkpt>
      <trkpt lat="62.651363318678" lon="17.852557764229">
        <ele>95.8</ele>
        <time>2018-01-21T12:05:14Z</time>
      </trkpt>
      <trkpt lat="62.651386117446" lon="17.852539994601">
        <ele>96</ele>
        <time>2018-01-21T12:05:15Z</time>
      </trkpt>
      <trkpt lat="62.651421321426" lon="17.852520632412">
        <ele>96</ele>
        <time>2018-01-21T12:05:16Z</time>
      </trkpt>
      <trkpt lat="62.651436660303" lon="17.85250068349">
        <ele>96.2</ele>
        <time>2018-01-21T12:05:17Z</time>
      </trkpt>
      <trkpt lat="62.651466080772" lon="17.852469083727">
        <ele>96.2</ele>
        <time>2018-01-21T12:05:18Z</time>
      </trkpt>
      <trkpt lat="62.651492064662" lon="17.852446452597">
        <ele>96.4</ele>
        <time>2018-01-21T12:05:19Z</time>
      </trkpt>
      <trkpt lat="62.651503799322" lon="17.852429521159">
        <ele>96.4</ele>
        <time>2018-01-21T12:05:20Z</time>
      </trkpt>
      <trkpt lat="62.651535315266" lon="17.852397921396">
        <ele>96.4</ele>
        <time>2018-01-21T12:05:21Z</time>
      </trkpt>
      <trkpt lat="62.651553168713" lon="17.852377385741">
        <ele>96.4</ele>
        <time>2018-01-21T12:05:22Z</time>
      </trkpt>
      <trkpt lat="62.651570267789" lon="17.8523657349">
        <ele>96.4</ele>
        <time>2018-01-21T12:05:23Z</time>
      </trkpt>
      <trkpt lat="62.651596503136" lon="17.852345450702">
        <ele>96.4</ele>
        <time>2018-01-21T12:05:24Z</time>
      </trkpt>
      <trkpt lat="62.651616452058" lon="17.85232047264">
        <ele>96.6</ele>
        <time>2018-01-21T12:05:25Z</time>
      </trkpt>
      <trkpt lat="62.651632293849" lon="17.85230203246">
        <ele>96.8</ele>
        <time>2018-01-21T12:05:26Z</time>
      </trkpt>
      <trkpt lat="62.65164981202" lon="17.852282334995">
        <ele>96.8</ele>
        <time>2018-01-21T12:05:27Z</time>
      </trkpt>
      <trkpt lat="62.651678897213" lon="17.852263894815">
        <ele>97</ele>
        <time>2018-01-21T12:05:28Z</time>
      </trkpt>
      <trkpt lat="62.651695996289" lon="17.852259033313">
        <ele>97.2</ele>
        <time>2018-01-21T12:05:29Z</time>
      </trkpt>
      <trkpt lat="62.651711167528" lon="17.852239587305">
        <ele>97.2</ele>
        <time>2018-01-21T12:05:30Z</time>
      </trkpt>
      <trkpt lat="62.651749891906" lon="17.852229193749">
        <ele>97.4</ele>
        <time>2018-01-21T12:05:31Z</time>
      </trkpt>
      <trkpt lat="62.651767829172" lon="17.852216872356">
        <ele>97.4</ele>
        <time>2018-01-21T12:05:32Z</time>
      </trkpt>
      <trkpt lat="62.651796243813" lon="17.852212262311">
        <ele>97.6</ele>
        <time>2018-01-21T12:05:33Z</time>
      </trkpt>
      <trkpt lat="62.651829017042" lon="17.852200024737">
        <ele>97.6</ele>
        <time>2018-01-21T12:05:34Z</time>
      </trkpt>
      <trkpt lat="62.65184594848" lon="17.852211424121">
        <ele>97.8</ele>
        <time>2018-01-21T12:05:35Z</time>
      </trkpt>
      <trkpt lat="62.65186438866" lon="17.85220144966">
        <ele>97.8</ele>
        <time>2018-01-21T12:05:36Z</time>
      </trkpt>
      <trkpt lat="62.651884086125" lon="17.852195498511">
        <ele>97.8</ele>
        <time>2018-01-21T12:05:37Z</time>
      </trkpt>
      <trkpt lat="62.651915350612" lon="17.852199857099">
        <ele>97.8</ele>
        <time>2018-01-21T12:05:38Z</time>
      </trkpt>
      <trkpt lat="62.651931862955" lon="17.852199605642">
        <ele>98.2</ele>
        <time>2018-01-21T12:05:39Z</time>
      </trkpt>
      <trkpt lat="62.651950806049" lon="17.852174459942">
        <ele>98.4</ele>
        <time>2018-01-21T12:05:40Z</time>
      </trkpt>
      <trkpt lat="62.651970671152" lon="17.852162976739">
        <ele>98.6</ele>
        <time>2018-01-21T12:05:41Z</time>
      </trkpt>
      <trkpt lat="62.651991709721" lon="17.85214445274">
        <ele>98.8</ele>
        <time>2018-01-21T12:05:42Z</time>
      </trkpt>
      <trkpt lat="62.652015011403" lon="17.852123749447">
        <ele>98.8</ele>
        <time>2018-01-21T12:05:43Z</time>
      </trkpt>
      <trkpt lat="62.652034122135" lon="17.852119642316">
        <ele>99</ele>
        <time>2018-01-21T12:05:44Z</time>
      </trkpt>
      <trkpt lat="62.65205046684" lon="17.852101872688">
        <ele>99</ele>
        <time>2018-01-21T12:05:45Z</time>
      </trkpt>
      <trkpt lat="62.652063710242" lon="17.852077732816">
        <ele>99</ele>
        <time>2018-01-21T12:05:46Z</time>
      </trkpt>
      <trkpt lat="62.652087933933" lon="17.852059711731">
        <ele>99.4</ele>
        <time>2018-01-21T12:05:47Z</time>
      </trkpt>
      <trkpt lat="62.652108218131" lon="17.852037751153">
        <ele>99.4</ele>
        <time>2018-01-21T12:05:48Z</time>
      </trkpt>
      <trkpt lat="62.652127328863" lon="17.852015036204">
        <ele>99.6</ele>
        <time>2018-01-21T12:05:49Z</time>
      </trkpt>
      <trkpt lat="62.652151468735" lon="17.851989555228">
        <ele>99.8</ele>
        <time>2018-01-21T12:05:50Z</time>
      </trkpt>
      <trkpt lat="62.652169992734" lon="17.851962649329">
        <ele>99.8</ele>
        <time>2018-01-21T12:05:51Z</time>
      </trkpt>
      <trkpt lat="62.652188600552" lon="17.851932306851">
        <ele>99.8</ele>
        <time>2018-01-21T12:05:52Z</time>
      </trkpt>
      <trkpt lat="62.652197066271" lon="17.851913699033">
        <ele>100</ele>
        <time>2018-01-21T12:05:53Z</time>
      </trkpt>
      <trkpt lat="62.652226151464" lon="17.851880339071">
        <ele>100</ele>
        <time>2018-01-21T12:05:54Z</time>
      </trkpt>
      <trkpt lat="62.65223654502" lon="17.851853852267">
        <ele>100.2</ele>
        <time>2018-01-21T12:05:55Z</time>
      </trkpt>
      <trkpt lat="62.652254063191" lon="17.85182594054">
        <ele>100.2</ele>
        <time>2018-01-21T12:05:56Z</time>
      </trkpt>
      <trkpt lat="62.652269318249" lon="17.851801800668">
        <ele>100.4</ele>
        <time>2018-01-21T12:05:57Z</time>
      </trkpt>
      <trkpt lat="62.6522801309" lon="17.851776152054">
        <ele>100.4</ele>
        <time>2018-01-21T12:05:58Z</time>
      </trkpt>
      <trkpt lat="62.652297900528" lon="17.851752515096">
        <ele>100.6</ele>
        <time>2018-01-21T12:05:59Z</time>
      </trkpt>
      <trkpt lat="62.652315167242" lon="17.851732649993">
        <ele>100.8</ele>
        <time>2018-01-21T12:06:00Z</time>
      </trkpt>
      <trkpt lat="62.652332517775" lon="17.851716808202">
        <ele>101.2</ele>
        <time>2018-01-21T12:06:01Z</time>
      </trkpt>
      <trkpt lat="62.652347437557" lon="17.851699541488">
        <ele>101.4</ele>
        <time>2018-01-21T12:06:02Z</time>
      </trkpt>
      <trkpt lat="62.652362022063" lon="17.851678922014">
        <ele>101.6</ele>
        <time>2018-01-21T12:06:03Z</time>
      </trkpt>
      <trkpt lat="62.652374343456" lon="17.851657883445">
        <ele>102</ele>
        <time>2018-01-21T12:06:04Z</time>
      </trkpt>
      <trkpt lat="62.652388425048" lon="17.85163567141">
        <ele>102.4</ele>
        <time>2018-01-21T12:06:05Z</time>
      </trkpt>
      <trkpt lat="62.652402255183" lon="17.851615471031">
        <ele>102.6</ele>
        <time>2018-01-21T12:06:06Z</time>
      </trkpt>
      <trkpt lat="62.652417510241" lon="17.851594181005">
        <ele>102.8</ele>
        <time>2018-01-21T12:06:07Z</time>
      </trkpt>
      <trkpt lat="62.652433854946" lon="17.851570627866">
        <ele>103</ele>
        <time>2018-01-21T12:06:08Z</time>
      </trkpt>
      <trkpt lat="62.65244860709" lon="17.851551265677">
        <ele>103.2</ele>
        <time>2018-01-21T12:06:09Z</time>
      </trkpt>
      <trkpt lat="62.652466125261" lon="17.851529808013">
        <ele>103.4</ele>
        <time>2018-01-21T12:06:10Z</time>
      </trkpt>
      <trkpt lat="62.652481212681" lon="17.85150659015">
        <ele>103.6</ele>
        <time>2018-01-21T12:06:11Z</time>
      </trkpt>
      <trkpt lat="62.652495461911" lon="17.851480522441">
        <ele>103.8</ele>
        <time>2018-01-21T12:06:12Z</time>
      </trkpt>
      <trkpt lat="62.652511303702" lon="17.851449928506">
        <ele>103.8</ele>
        <time>2018-01-21T12:06:13Z</time>
      </trkpt>
      <trkpt lat="62.652528989511" lon="17.851420172761">
        <ele>104</ele>
        <time>2018-01-21T12:06:14Z</time>
      </trkpt>
      <trkpt lat="62.652548184062" lon="17.851386645161">
        <ele>104.2</ele>
        <time>2018-01-21T12:06:15Z</time>
      </trkpt>
      <trkpt lat="62.652567713889" lon="17.851355045398">
        <ele>104.4</ele>
        <time>2018-01-21T12:06:16Z</time>
      </trkpt>
      <trkpt lat="62.652581711662" lon="17.851335850847">
        <ele>104.8</ele>
        <time>2018-01-21T12:06:17Z</time>
      </trkpt>
      <trkpt lat="62.652599984204" lon="17.851311040423">
        <ele>104.8</ele>
        <time>2018-01-21T12:06:18Z</time>
      </trkpt>
      <trkpt lat="62.652615993633" lon="17.85127524971">
        <ele>105</ele>
        <time>2018-01-21T12:06:19Z</time>
      </trkpt>
      <trkpt lat="62.652636277831" lon="17.85124675125">
        <ele>105.2</ele>
        <time>2018-01-21T12:06:20Z</time>
      </trkpt>
      <trkpt lat="62.65265144907" lon="17.851218504247">
        <ele>105.2</ele>
        <time>2018-01-21T12:06:21Z</time>
      </trkpt>
      <trkpt lat="62.652666201214" lon="17.851190843977">
        <ele>105.4</ele>
        <time>2018-01-21T12:06:22Z</time>
      </trkpt>
      <trkpt lat="62.652692268923" lon="17.851160752956">
        <ele>105.6</ele>
        <time>2018-01-21T12:06:23Z</time>
      </trkpt>
      <trkpt lat="62.652713056035" lon="17.851126554804">
        <ele>105.8</ele>
        <time>2018-01-21T12:06:24Z</time>
      </trkpt>
      <trkpt lat="62.65272940074" lon="17.851103336941">
        <ele>105.8</ele>
        <time>2018-01-21T12:06:25Z</time>
      </trkpt>
      <trkpt lat="62.652752702422" lon="17.851071234264">
        <ele>106</ele>
        <time>2018-01-21T12:06:26Z</time>
      </trkpt>
      <trkpt lat="62.652771980792" lon="17.851047429668">
        <ele>106</ele>
        <time>2018-01-21T12:06:27Z</time>
      </trkpt>
      <trkpt lat="62.652790840067" lon="17.851022451606">
        <ele>105.8</ele>
        <time>2018-01-21T12:06:28Z</time>
      </trkpt>
      <trkpt lat="62.652801317442" lon="17.851000742485">
        <ele>105.8</ele>
        <time>2018-01-21T12:06:29Z</time>
      </trkpt>
      <trkpt lat="62.652817243052" lon="17.850988756368">
        <ele>106</ele>
        <time>2018-01-21T12:06:30Z</time>
      </trkpt>
      <trkpt lat="62.652836605241" lon="17.850967214885">
        <ele>106.2</ele>
        <time>2018-01-21T12:06:31Z</time>
      </trkpt>
      <trkpt lat="62.652850686833" lon="17.850955396406">
        <ele>106.6</ele>
        <time>2018-01-21T12:06:32Z</time>
      </trkpt>
      <trkpt lat="62.652868121185" lon="17.850937291502">
        <ele>106.8</ele>
        <time>2018-01-21T12:06:33Z</time>
      </trkpt>
      <trkpt lat="62.652886058451" lon="17.85091063706">
        <ele>107</ele>
        <time>2018-01-21T12:06:34Z</time>
      </trkpt>
      <trkpt lat="62.652895781455" lon="17.85086956575">
        <ele>106.8</ele>
        <time>2018-01-21T12:06:35Z</time>
      </trkpt>
      <trkpt lat="62.652914808368" lon="17.850811143907">
        <ele>107</ele>
        <time>2018-01-21T12:06:36Z</time>
      </trkpt>
      <trkpt lat="62.652920927155" lon="17.850757415928">
        <ele>107</ele>
        <time>2018-01-21T12:06:37Z</time>
      </trkpt>
      <trkpt lat="62.652930733978" lon="17.850726821993">
        <ele>107</ele>
        <time>2018-01-21T12:06:38Z</time>
      </trkpt>
      <trkpt lat="62.652944983208" lon="17.850665634123">
        <ele>107</ele>
        <time>2018-01-21T12:06:39Z</time>
      </trkpt>
      <trkpt lat="62.652948419787" lon="17.850617689655">
        <ele>107</ele>
        <time>2018-01-21T12:06:40Z</time>
      </trkpt>
      <trkpt lat="62.652953113651" lon="17.850553819577">
        <ele>107.2</ele>
        <time>2018-01-21T12:06:41Z</time>
      </trkpt>
      <trkpt lat="62.652966021777" lon="17.850482405789">
        <ele>107</ele>
        <time>2018-01-21T12:06:42Z</time>
      </trkpt>
      <trkpt lat="62.652968620166" lon="17.850428091077">
        <ele>107</ele>
        <time>2018-01-21T12:06:43Z</time>
      </trkpt>
      <trkpt lat="62.652974738953" lon="17.850345026448">
        <ele>107.2</ele>
        <time>2018-01-21T12:06:44Z</time>
      </trkpt>
      <trkpt lat="62.652974655134" lon="17.850263386742">
        <ele>107.2</ele>
        <time>2018-01-21T12:06:45Z</time>
      </trkpt>
      <trkpt lat="62.652981779749" lon="17.8502032047">
        <ele>107.2</ele>
        <time>2018-01-21T12:06:46Z</time>
      </trkpt>
      <trkpt lat="62.652987144165" lon="17.850140508088">
        <ele>107.2</ele>
        <time>2018-01-21T12:06:47Z</time>
      </trkpt>
      <trkpt lat="62.653005416707" lon="17.850061047676">
        <ele>107</ele>
        <time>2018-01-21T12:06:48Z</time>
      </trkpt>
      <trkpt lat="62.653014301521" lon="17.849994663028">
        <ele>106.8</ele>
        <time>2018-01-21T12:06:49Z</time>
      </trkpt>
      <trkpt lat="62.653022096688" lon="17.849925093258">
        <ele>106.8</ele>
        <time>2018-01-21T12:06:50Z</time>
      </trkpt>
      <trkpt lat="62.653031232959" lon="17.84988217793">
        <ele>106.6</ele>
        <time>2018-01-21T12:06:51Z</time>
      </trkpt>
      <trkpt lat="62.653042380886" lon="17.849810261228">
        <ele>106.6</ele>
        <time>2018-01-21T12:06:52Z</time>
      </trkpt>
      <trkpt lat="62.653046990931" lon="17.849754186317">
        <ele>106.6</ele>
        <time>2018-01-21T12:06:53Z</time>
      </trkpt>
      <trkpt lat="62.653052439166" lon="17.849701212709">
        <ele>106.6</ele>
        <time>2018-01-21T12:06:54Z</time>
      </trkpt>
      <trkpt lat="62.653057719763" lon="17.849635247156">
        <ele>106.6</ele>
        <time>2018-01-21T12:06:55Z</time>
      </trkpt>
      <trkpt lat="62.653064509102" lon="17.849588643792">
        <ele>106.6</ele>
        <time>2018-01-21T12:06:56Z</time>
      </trkpt>
      <trkpt lat="62.653075070296" lon="17.849514631615">
        <ele>106.6</ele>
        <time>2018-01-21T12:06:57Z</time>
      </trkpt>
      <trkpt lat="62.653076662857" lon="17.849465513681">
        <ele>106.4</ele>
        <time>2018-01-21T12:06:58Z</time>
      </trkpt>
      <trkpt lat="62.653084709481" lon="17.849413042987">
        <ele>106.4</ele>
        <time>2018-01-21T12:06:59Z</time>
      </trkpt>
      <trkpt lat="62.653092169372" lon="17.849349005271">
        <ele>106.6</ele>
        <time>2018-01-21T12:07:00Z</time>
      </trkpt>
      <trkpt lat="62.65309485158" lon="17.849306928133">
        <ele>106.6</ele>
        <time>2018-01-21T12:07:01Z</time>
      </trkpt>
      <trkpt lat="62.653101473281" lon="17.849237777458">
        <ele>106.8</ele>
        <time>2018-01-21T12:07:02Z</time>
      </trkpt>
      <trkpt lat="62.653100048358" lon="17.849181031995">
        <ele>106.8</ele>
        <time>2018-01-21T12:07:03Z</time>
      </trkpt>
      <trkpt lat="62.653105161317" lon="17.849132249337">
        <ele>107</ele>
        <time>2018-01-21T12:07:04Z</time>
      </trkpt>
      <trkpt lat="62.653103149661" lon="17.849074498046">
        <ele>107</ele>
        <time>2018-01-21T12:07:05Z</time>
      </trkpt>
      <trkpt lat="62.653107005335" lon="17.849019009868">
        <ele>107</ele>
        <time>2018-01-21T12:07:06Z</time>
      </trkpt>
      <trkpt lat="62.653111028647" lon="17.848941561112">
        <ele>107</ele>
        <time>2018-01-21T12:07:07Z</time>
      </trkpt>
      <trkpt lat="62.653107592068" lon="17.848889090418">
        <ele>107</ele>
        <time>2018-01-21T12:07:08Z</time>
      </trkpt>
      <trkpt lat="62.653095857408" lon="17.848826309987">
        <ele>107</ele>
        <time>2018-01-21T12:07:09Z</time>
      </trkpt>
      <trkpt lat="62.653097869064" lon="17.848765541212">
        <ele>107.2</ele>
        <time>2018-01-21T12:07:10Z</time>
      </trkpt>
      <trkpt lat="62.653087391689" lon="17.848701922591">
        <ele>107</ele>
        <time>2018-01-21T12:07:11Z</time>
      </trkpt>
      <trkpt lat="62.653086888775" lon="17.848636376133">
        <ele>107</ele>
        <time>2018-01-21T12:07:12Z</time>
      </trkpt>
      <trkpt lat="62.653086804956" lon="17.848562280137">
        <ele>107</ele>
        <time>2018-01-21T12:07:13Z</time>
      </trkpt>
      <trkpt lat="62.653078003961" lon="17.848507211054">
        <ele>107</ele>
        <time>2018-01-21T12:07:14Z</time>
      </trkpt>
      <trkpt lat="62.653083703653" lon="17.848419368742">
        <ele>106.8</ele>
        <time>2018-01-21T12:07:15Z</time>
      </trkpt>
      <trkpt lat="62.653082614006" lon="17.848331358792">
        <ele>106.6</ele>
        <time>2018-01-21T12:07:16Z</time>
      </trkpt>
      <trkpt lat="62.653082697825" lon="17.848270422379">
        <ele>106.6</ele>
        <time>2018-01-21T12:07:17Z</time>
      </trkpt>
      <trkpt lat="62.653083703653" lon="17.848214012192">
        <ele>106.4</ele>
        <time>2018-01-21T12:07:18Z</time>
      </trkpt>
      <trkpt lat="62.653083368377" lon="17.848122733301">
        <ele>106.2</ele>
        <time>2018-01-21T12:07:19Z</time>
      </trkpt>
      <trkpt lat="62.653067023672" lon="17.848057857395">
        <ele>106.2</ele>
        <time>2018-01-21T12:07:20Z</time>
      </trkpt>
      <trkpt lat="62.653055708107" lon="17.847956101129">
        <ele>106.2</ele>
        <time>2018-01-21T12:07:21Z</time>
      </trkpt>
      <trkpt lat="62.653033160796" lon="17.847859960736">
        <ele>105.8</ele>
        <time>2018-01-21T12:07:22Z</time>
      </trkpt>
      <trkpt lat="62.65304036923" lon="17.847790474785">
        <ele>105.4</ele>
        <time>2018-01-21T12:07:23Z</time>
      </trkpt>
      <trkpt lat="62.653031819692" lon="17.847682851189">
        <ele>105.2</ele>
        <time>2018-01-21T12:07:24Z</time>
      </trkpt>
      <trkpt lat="62.653015558806" lon="17.847553937567">
        <ele>104.8</ele>
        <time>2018-01-21T12:07:25Z</time>
      </trkpt>
      <trkpt lat="62.653039028126" lon="17.847449582912">
        <ele>104.2</ele>
        <time>2018-01-21T12:07:26Z</time>
      </trkpt>
      <trkpt lat="62.653034669538" lon="17.847345647352">
        <ele>103.8</ele>
        <time>2018-01-21T12:07:27Z</time>
      </trkpt>
      <trkpt lat="62.653026203819" lon="17.847278173057">
        <ele>103.6</ele>
        <time>2018-01-21T12:07:28Z</time>
      </trkpt>
      <trkpt lat="62.653027293466" lon="17.847192593858">
        <ele>103.4</ele>
        <time>2018-01-21T12:07:29Z</time>
      </trkpt>
      <trkpt lat="62.653025030353" lon="17.847098213664">
        <ele>102.8</ele>
        <time>2018-01-21T12:07:30Z</time>
      </trkpt>
      <trkpt lat="62.653033747529" lon="17.847038031622">
        <ele>102.8</ele>
        <time>2018-01-21T12:07:31Z</time>
      </trkpt>
      <trkpt lat="62.653048667311" lon="17.846948596749">
        <ele>102.8</ele>
        <time>2018-01-21T12:07:32Z</time>
      </trkpt>
      <trkpt lat="62.653057552125" lon="17.846868717242">
        <ele>102.8</ele>
        <time>2018-01-21T12:07:33Z</time>
      </trkpt>
      <trkpt lat="62.653054450822" lon="17.846810882132">
        <ele>102.6</ele>
        <time>2018-01-21T12:07:34Z</time>
      </trkpt>
      <trkpt lat="62.653082865463" lon="17.846719519422">
        <ele>102.6</ele>
        <time>2018-01-21T12:07:35Z</time>
      </trkpt>
      <trkpt lat="62.653082865463" lon="17.846652715679">
        <ele>102.8</ele>
        <time>2018-01-21T12:07:36Z</time>
      </trkpt>
      <trkpt lat="62.653092588467" lon="17.846592030723">
        <ele>102.8</ele>
        <time>2018-01-21T12:07:37Z</time>
      </trkpt>
      <trkpt lat="62.653107089154" lon="17.846529920844">
        <ele>103</ele>
        <time>2018-01-21T12:07:38Z</time>
      </trkpt>
      <trkpt lat="62.653122679488" lon="17.846453477916">
        <ele>103</ele>
        <time>2018-01-21T12:07:39Z</time>
      </trkpt>
      <trkpt lat="62.653134833243" lon="17.846384662517">
        <ele>103</ele>
        <time>2018-01-21T12:07:40Z</time>
      </trkpt>
      <trkpt lat="62.653162409694" lon="17.846310063607">
        <ele>103.2</ele>
        <time>2018-01-21T12:07:41Z</time>
      </trkpt>
      <trkpt lat="62.653179844046" lon="17.84624946247">
        <ele>103.2</ele>
        <time>2018-01-21T12:07:42Z</time>
      </trkpt>
      <trkpt lat="62.653198368045" lon="17.846205792771">
        <ele>103</ele>
        <time>2018-01-21T12:07:43Z</time>
      </trkpt>
      <trkpt lat="62.653229548713" lon="17.846156591018">
        <ele>103</ele>
        <time>2018-01-21T12:07:44Z</time>
      </trkpt>
      <trkpt lat="62.653248575626" lon="17.846105712885">
        <ele>102.8</ele>
        <time>2018-01-21T12:07:45Z</time>
      </trkpt>
      <trkpt lat="62.653257963354" lon="17.846058858064">
        <ele>102.8</ele>
        <time>2018-01-21T12:07:46Z</time>
      </trkpt>
      <trkpt lat="62.653283695787" lon="17.845991719045">
        <ele>102.8</ele>
        <time>2018-01-21T12:07:47Z</time>
      </trkpt>
      <trkpt lat="62.653307248926" lon="17.845919969981">
        <ele>102.8</ele>
        <time>2018-01-21T12:07:48Z</time>
      </trkpt>
      <trkpt lat="62.653334238644" lon="17.8458697624">
        <ele>102.8</ele>
        <time>2018-01-21T12:07:49Z</time>
      </trkpt>
      <trkpt lat="62.653350834806" lon="17.845805054132">
        <ele>102.8</ele>
        <time>2018-01-21T12:07:50Z</time>
      </trkpt>
      <trkpt lat="62.653367347149" lon="17.845745794099">
        <ele>102.8</ele>
        <time>2018-01-21T12:07:51Z</time>
      </trkpt>
      <trkpt lat="62.653408167002" lon="17.845700950934">
        <ele>102.6</ele>
        <time>2018-01-21T12:07:52Z</time>
      </trkpt>
      <trkpt lat="62.65341923111" lon="17.845658957615">
        <ele>102.4</ele>
        <time>2018-01-21T12:07:53Z</time>
      </trkpt>
      <trkpt lat="62.653462565533" lon="17.845619478866">
        <ele>102.4</ele>
        <time>2018-01-21T12:07:54Z</time>
      </trkpt>
      <trkpt lat="62.653496512228" lon="17.84557388133">
        <ele>102.2</ele>
        <time>2018-01-21T12:07:55Z</time>
      </trkpt>
      <trkpt lat="62.653548563827" lon="17.845543538852">
        <ele>101.6</ele>
        <time>2018-01-21T12:07:56Z</time>
      </trkpt>
      <trkpt lat="62.653584941273" lon="17.845503221913">
        <ele>101</ele>
        <time>2018-01-21T12:07:57Z</time>
      </trkpt>
      <trkpt lat="62.653630119714" lon="17.84543641817">
        <ele>100.2</ele>
        <time>2018-01-21T12:07:58Z</time>
      </trkpt>
      <trkpt lat="62.653666916255" lon="17.845342205614">
        <ele>99.6</ele>
        <time>2018-01-21T12:07:59Z</time>
      </trkpt>
      <trkpt lat="62.65370170114" lon="17.845232821819">
        <ele>98.6</ele>
        <time>2018-01-21T12:08:00Z</time>
      </trkpt>
      <trkpt lat="62.653726930659" lon="17.8451237733">
        <ele>98</ele>
        <time>2018-01-21T12:08:01Z</time>
      </trkpt>
      <trkpt lat="62.65374947797" lon="17.845013802772">
        <ele>97.6</ele>
        <time>2018-01-21T12:08:02Z</time>
      </trkpt>
      <trkpt lat="62.653779149896" lon="17.844924451718">
        <ele>97</ele>
        <time>2018-01-21T12:08:03Z</time>
      </trkpt>
      <trkpt lat="62.653809911469" lon="17.844847757333">
        <ele>96.4</ele>
        <time>2018-01-21T12:08:04Z</time>
      </trkpt>
      <trkpt lat="62.653835140988" lon="17.844774415708">
        <ele>96</ele>
        <time>2018-01-21T12:08:05Z</time>
      </trkpt>
      <trkpt lat="62.653865567285" lon="17.844704426843">
        <ele>96</ele>
        <time>2018-01-21T12:08:06Z</time>
      </trkpt>
      <trkpt lat="62.653883169275" lon="17.844652039968">
        <ele>96.2</ele>
        <time>2018-01-21T12:08:07Z</time>
      </trkpt>
      <trkpt lat="62.653912589744" lon="17.844578698343">
        <ele>96.4</ele>
        <time>2018-01-21T12:08:08Z</time>
      </trkpt>
      <trkpt lat="62.653938992729" lon="17.84451943831">
        <ele>96.6</ele>
        <time>2018-01-21T12:08:09Z</time>
      </trkpt>
      <trkpt lat="62.653969335207" lon="17.844446180504">
        <ele>96.8</ele>
        <time>2018-01-21T12:08:10Z</time>
      </trkpt>
      <trkpt lat="62.654002192255" lon="17.844383316254">
        <ele>96.8</ele>
        <time>2018-01-21T12:08:11Z</time>
      </trkpt>
      <trkpt lat="62.654039072615" lon="17.844314417036">
        <ele>96.6</ele>
        <time>2018-01-21T12:08:12Z</time>
      </trkpt>
      <trkpt lat="62.65407553388" lon="17.84426798131">
        <ele>96.4</ele>
        <time>2018-01-21T12:08:13Z</time>
      </trkpt>
      <trkpt lat="62.654108810023" lon="17.844231352407">
        <ele>96.2</ele>
        <time>2018-01-21T12:08:14Z</time>
      </trkpt>
      <trkpt lat="62.654147702039" lon="17.844193298581">
        <ele>95.8</ele>
        <time>2018-01-21T12:08:15Z</time>
      </trkpt>
      <trkpt lat="62.654187767521" lon="17.844162034094">
        <ele>95.2</ele>
        <time>2018-01-21T12:08:16Z</time>
      </trkpt>
      <trkpt lat="62.654227078632" lon="17.844133787091">
        <ele>94.6</ele>
        <time>2018-01-21T12:08:17Z</time>
      </trkpt>
      <trkpt lat="62.654271251245" lon="17.8441095634">
        <ele>93.8</ele>
        <time>2018-01-21T12:08:18Z</time>
      </trkpt>
      <trkpt lat="62.654313160745" lon="17.844091290858">
        <ele>92.8</ele>
        <time>2018-01-21T12:08:19Z</time>
      </trkpt>
      <trkpt lat="62.654367391638" lon="17.844070839022">
        <ele>92</ele>
        <time>2018-01-21T12:08:20Z</time>
      </trkpt>
      <trkpt lat="62.654415168468" lon="17.844059188181">
        <ele>91</ele>
        <time>2018-01-21T12:08:21Z</time>
      </trkpt>
      <trkpt lat="62.654465040773" lon="17.844046866788">
        <ele>90.2</ele>
        <time>2018-01-21T12:08:22Z</time>
      </trkpt>
      <trkpt lat="62.654525893367" lon="17.844032198463">
        <ele>89.4</ele>
        <time>2018-01-21T12:08:23Z</time>
      </trkpt>
      <trkpt lat="62.654598229164" lon="17.844010405523">
        <ele>88.6</ele>
        <time>2018-01-21T12:08:24Z</time>
      </trkpt>
      <trkpt lat="62.654672744255" lon="17.843998754682">
        <ele>87.8</ele>
        <time>2018-01-21T12:08:25Z</time>
      </trkpt>
      <trkpt lat="62.654742314025" lon="17.843973860439">
        <ele>86.8</ele>
        <time>2018-01-21T12:08:26Z</time>
      </trkpt>
      <trkpt lat="62.654803166619" lon="17.843950055843">
        <ele>86</ele>
        <time>2018-01-21T12:08:27Z</time>
      </trkpt>
      <trkpt lat="62.654861001729" lon="17.843936980079">
        <ele>85</ele>
        <time>2018-01-21T12:08:28Z</time>
      </trkpt>
      <trkpt lat="62.654902240677" lon="17.843909822723">
        <ele>84.2</ele>
        <time>2018-01-21T12:08:29Z</time>
      </trkpt>
      <trkpt lat="62.654958902321" lon="17.843879480245">
        <ele>83.4</ele>
        <time>2018-01-21T12:08:30Z</time>
      </trkpt>
      <trkpt lat="62.655015061051" lon="17.843856094744">
        <ele>82.8</ele>
        <time>2018-01-21T12:08:31Z</time>
      </trkpt>
      <trkpt lat="62.655072812342" lon="17.843831787234">
        <ele>82.2</ele>
        <time>2018-01-21T12:08:32Z</time>
      </trkpt>
      <trkpt lat="62.655131820918" lon="17.843804713697">
        <ele>81.4</ele>
        <time>2018-01-21T12:08:33Z</time>
      </trkpt>
      <trkpt lat="62.655188314924" lon="17.843776718151">
        <ele>81</ele>
        <time>2018-01-21T12:08:34Z</time>
      </trkpt>
      <trkpt lat="62.655244976568" lon="17.843758948523">
        <ele>80.4</ele>
        <time>2018-01-21T12:08:35Z</time>
      </trkpt>
      <trkpt lat="62.655304571877" lon="17.843759116161">
        <ele>79.8</ele>
        <time>2018-01-21T12:08:36Z</time>
      </trkpt>
      <trkpt lat="62.655354863277" lon="17.843777221065">
        <ele>78.8</ele>
        <time>2018-01-21T12:08:37Z</time>
      </trkpt>
      <trkpt lat="62.655406495781" lon="17.843812425045">
        <ele>78.2</ele>
        <time>2018-01-21T12:08:38Z</time>
      </trkpt>
      <trkpt lat="62.655450416937" lon="17.843851568518">
        <ele>77.4</ele>
        <time>2018-01-21T12:08:39Z</time>
      </trkpt>
      <trkpt lat="62.655507832952" lon="17.843888365059">
        <ele>76.8</ele>
        <time>2018-01-21T12:08:40Z</time>
      </trkpt>
      <trkpt lat="62.655553514307" lon="17.843907224334">
        <ele>76.4</ele>
        <time>2018-01-21T12:08:41Z</time>
      </trkpt>
      <trkpt lat="62.655611265598" lon="17.843965813815">
        <ele>76</ele>
        <time>2018-01-21T12:08:42Z</time>
      </trkpt>
      <trkpt lat="62.655670357993" lon="17.844020966717">
        <ele>75.6</ele>
        <time>2018-01-21T12:08:43Z</time>
      </trkpt>
      <trkpt lat="62.655725594714" lon="17.844098080197">
        <ele>75.2</ele>
        <time>2018-01-21T12:08:44Z</time>
      </trkpt>
      <trkpt lat="62.6557670013" lon="17.844164297207">
        <ele>74.6</ele>
        <time>2018-01-21T12:08:45Z</time>
      </trkpt>
      <trkpt lat="62.655832296301" lon="17.844267226939">
        <ele>73.6</ele>
        <time>2018-01-21T12:08:46Z</time>
      </trkpt>
      <trkpt lat="62.655873619068" lon="17.844337299623">
        <ele>72.8</ele>
        <time>2018-01-21T12:08:47Z</time>
      </trkpt>
      <trkpt lat="62.655925754486" lon="17.844425141935">
        <ele>71.6</ele>
        <time>2018-01-21T12:08:48Z</time>
      </trkpt>
      <trkpt lat="62.65596565233" lon="17.844488844375">
        <ele>70.6</ele>
        <time>2018-01-21T12:08:49Z</time>
      </trkpt>
      <trkpt lat="62.656007478011" lon="17.844560174344">
        <ele>69.6</ele>
        <time>2018-01-21T12:08:50Z</time>
      </trkpt>
      <trkpt lat="62.656048130226" lon="17.84462002111">
        <ele>69.2</ele>
        <time>2018-01-21T12:08:51Z</time>
      </trkpt>
      <trkpt lat="62.656096912884" lon="17.84468959088">
        <ele>69.2</ele>
        <time>2018-01-21T12:08:52Z</time>
      </trkpt>
      <trkpt lat="62.656136140176" lon="17.844735188416">
        <ele>69.2</ele>
        <time>2018-01-21T12:08:53Z</time>
      </trkpt>
      <trkpt lat="62.656173942545" lon="17.844787072377">
        <ele>69.2</ele>
        <time>2018-01-21T12:08:54Z</time>
      </trkpt>
      <trkpt lat="62.656228424895" lon="17.844854881948">
        <ele>69.6</ele>
        <time>2018-01-21T12:08:55Z</time>
      </trkpt>
      <trkpt lat="62.656260946667" lon="17.844886146435">
        <ele>69.8</ele>
        <time>2018-01-21T12:08:56Z</time>
      </trkpt>
      <trkpt lat="62.656303275262" lon="17.844952698721">
        <ele>69.8</ele>
        <time>2018-01-21T12:08:57Z</time>
      </trkpt>
      <trkpt lat="62.656337221957" lon="17.844998463895">
        <ele>70</ele>
        <time>2018-01-21T12:08:58Z</time>
      </trkpt>
      <trkpt lat="62.656363373485" lon="17.845027297631">
        <ele>69.8</ele>
        <time>2018-01-21T12:08:59Z</time>
      </trkpt>
      <trkpt lat="62.656410815039" lon="17.845098124686">
        <ele>69.6</ele>
        <time>2018-01-21T12:09:00Z</time>
      </trkpt>
      <trkpt lat="62.656446102838" lon="17.84513299339">
        <ele>69.2</ele>
        <time>2018-01-21T12:09:01Z</time>
      </trkpt>
      <trkpt lat="62.656467392864" lon="17.845166856266">
        <ele>69</ele>
        <time>2018-01-21T12:09:02Z</time>
      </trkpt>
      <trkpt lat="62.656503854129" lon="17.845204155721">
        <ele>69</ele>
        <time>2018-01-21T12:09:03Z</time>
      </trkpt>
      <trkpt lat="62.656531598218" lon="17.845247238687">
        <ele>68.8</ele>
        <time>2018-01-21T12:09:04Z</time>
      </trkpt>
      <trkpt lat="62.656564622904" lon="17.8452997932">
        <ele>68.6</ele>
        <time>2018-01-21T12:09:05Z</time>
      </trkpt>
      <trkpt lat="62.656604856024" lon="17.845352431532">
        <ele>68.6</ele>
        <time>2018-01-21T12:09:06Z</time>
      </trkpt>
      <trkpt lat="62.656629582629" lon="17.845373302463">
        <ele>68.4</ele>
        <time>2018-01-21T12:09:07Z</time>
      </trkpt>
      <trkpt lat="62.656663277867" lon="17.845425354062">
        <ele>68.4</ele>
        <time>2018-01-21T12:09:08Z</time>
      </trkpt>
      <trkpt lat="62.656699571494" lon="17.845461396232">
        <ele>68.4</ele>
        <time>2018-01-21T12:09:09Z</time>
      </trkpt>
      <trkpt lat="62.656719352778" lon="17.845505485026">
        <ele>68.2</ele>
        <time>2018-01-21T12:09:10Z</time>
      </trkpt>
      <trkpt lat="62.656748102695" lon="17.84554873563">
        <ele>68.2</ele>
        <time>2018-01-21T12:09:11Z</time>
      </trkpt>
      <trkpt lat="62.656779953915" lon="17.845603301799">
        <ele>68</ele>
        <time>2018-01-21T12:09:12Z</time>
      </trkpt>
      <trkpt lat="62.656810966945" lon="17.845662394194">
        <ele>68</ele>
        <time>2018-01-21T12:09:13Z</time>
      </trkpt>
      <trkpt lat="62.656839465405" lon="17.845702543495">
        <ele>67.8</ele>
        <time>2018-01-21T12:09:14Z</time>
      </trkpt>
      <trkpt lat="62.656868047684" lon="17.845724420254">
        <ele>67.6</ele>
        <time>2018-01-21T12:09:15Z</time>
      </trkpt>
      <trkpt lat="62.65690526332" lon="17.845762054985">
        <ele>67.6</ele>
        <time>2018-01-21T12:09:16Z</time>
      </trkpt>
      <trkpt lat="62.656932420676" lon="17.845775298387">
        <ele>67.6</ele>
        <time>2018-01-21T12:09:17Z</time>
      </trkpt>
      <trkpt lat="62.656966786466" lon="17.845803377752">
        <ele>67.4</ele>
        <time>2018-01-21T12:09:18Z</time>
      </trkpt>
      <trkpt lat="62.657002996274" lon="17.845808490711">
        <ele>67.4</ele>
        <time>2018-01-21T12:09:19Z</time>
      </trkpt>
      <trkpt lat="62.657027387603" lon="17.845793906205">
        <ele>67.4</ele>
        <time>2018-01-21T12:09:20Z</time>
      </trkpt>
      <trkpt lat="62.657066698714" lon="17.845806479055">
        <ele>67.4</ele>
        <time>2018-01-21T12:09:21Z</time>
      </trkpt>
      <trkpt lat="62.657099052848" lon="17.845810670005">
        <ele>67.2</ele>
        <time>2018-01-21T12:09:22Z</time>
      </trkpt>
      <trkpt lat="62.65712319272" lon="17.845803713028">
        <ele>67.2</ele>
        <time>2018-01-21T12:09:23Z</time>
      </trkpt>
      <trkpt lat="62.657157139415" lon="17.845828439633">
        <ele>67.2</ele>
        <time>2018-01-21T12:09:24Z</time>
      </trkpt>
      <trkpt lat="62.657186727522" lon="17.845850316392">
        <ele>67.2</ele>
        <time>2018-01-21T12:09:25Z</time>
      </trkpt>
      <trkpt lat="62.657201731123" lon="17.84586389507">
        <ele>67.2</ele>
        <time>2018-01-21T12:09:26Z</time>
      </trkpt>
      <trkpt lat="62.657231570687" lon="17.845894824281">
        <ele>67.2</ele>
        <time>2018-01-21T12:09:27Z</time>
      </trkpt>
      <trkpt lat="62.65726819959" lon="17.845927178415">
        <ele>67.2</ele>
        <time>2018-01-21T12:09:28Z</time>
      </trkpt>
      <trkpt lat="62.657279515155" lon="17.845941343826">
        <ele>67.2</ele>
        <time>2018-01-21T12:09:29Z</time>
      </trkpt>
      <trkpt lat="62.657301559552" lon="17.845976547806">
        <ele>67.2</ele>
        <time>2018-01-21T12:09:30Z</time>
      </trkpt>
      <trkpt lat="62.657329890374" lon="17.846017870573">
        <ele>67.2</ele>
        <time>2018-01-21T12:09:31Z</time>
      </trkpt>
      <trkpt lat="62.657356125721" lon="17.84607344257">
        <ele>67.6</ele>
        <time>2018-01-21T12:09:32Z</time>
      </trkpt>
      <trkpt lat="62.657377331928" lon="17.846109736197">
        <ele>67.6</ele>
        <time>2018-01-21T12:09:33Z</time>
      </trkpt>
      <trkpt lat="62.657397951402" lon="17.846146281281">
        <ele>67.6</ele>
        <time>2018-01-21T12:09:34Z</time>
      </trkpt>
      <trkpt lat="62.657418654695" lon="17.846218030345">
        <ele>67.8</ele>
        <time>2018-01-21T12:09:35Z</time>
      </trkpt>
      <trkpt lat="62.657437262513" lon="17.846300675879">
        <ele>67.8</ele>
        <time>2018-01-21T12:09:36Z</time>
      </trkpt>
      <trkpt lat="62.657457714349" lon="17.846369407459">
        <ele>68</ele>
        <time>2018-01-21T12:09:37Z</time>
      </trkpt>
      <trkpt lat="62.657472969407" lon="17.846432439347">
        <ele>68</ele>
        <time>2018-01-21T12:09:38Z</time>
      </trkpt>
      <trkpt lat="62.657479088194" lon="17.846497399072">
        <ele>68</ele>
        <time>2018-01-21T12:09:39Z</time>
      </trkpt>
      <trkpt lat="62.657500964953" lon="17.846580715158">
        <ele>68</ele>
        <time>2018-01-21T12:09:40Z</time>
      </trkpt>
      <trkpt lat="62.657516471468" lon="17.846654978792">
        <ele>67.8</ele>
        <time>2018-01-21T12:09:41Z</time>
      </trkpt>
      <trkpt lat="62.65752971487" lon="17.846717004852">
        <ele>67.8</ele>
        <time>2018-01-21T12:09:42Z</time>
      </trkpt>
      <trkpt lat="62.657545975756" lon="17.846790514115">
        <ele>67.6</ele>
        <time>2018-01-21T12:09:43Z</time>
      </trkpt>
      <trkpt lat="62.657556704588" lon="17.846858575143">
        <ele>67.4</ele>
        <time>2018-01-21T12:09:44Z</time>
      </trkpt>
      <trkpt lat="62.657575982958" lon="17.846945663084">
        <ele>67.4</ele>
        <time>2018-01-21T12:09:45Z</time>
      </trkpt>
      <trkpt lat="62.65759341731" lon="17.847016322501">
        <ele>67.2</ele>
        <time>2018-01-21T12:09:46Z</time>
      </trkpt>
      <trkpt lat="62.657608756187" lon="17.847101650243">
        <ele>67</ele>
        <time>2018-01-21T12:09:47Z</time>
      </trkpt>
      <trkpt lat="62.657626777272" lon="17.847182116483">
        <ele>66.8</ele>
        <time>2018-01-21T12:09:48Z</time>
      </trkpt>
      <trkpt lat="62.657643792529" lon="17.847253446452">
        <ele>66.8</ele>
        <time>2018-01-21T12:09:49Z</time>
      </trkpt>
      <trkpt lat="62.657669189686" lon="17.847333158321">
        <ele>66.6</ele>
        <time>2018-01-21T12:09:50Z</time>
      </trkpt>
      <trkpt lat="62.657683774192" lon="17.847409768887">
        <ele>66.6</ele>
        <time>2018-01-21T12:09:51Z</time>
      </trkpt>
      <trkpt lat="62.65769735287" lon="17.847452768034">
        <ele>66.4</ele>
        <time>2018-01-21T12:09:52Z</time>
      </trkpt>
      <trkpt lat="62.657713110842" lon="17.847530300609">
        <ele>66.4</ele>
        <time>2018-01-21T12:09:53Z</time>
      </trkpt>
      <trkpt lat="62.657727024796" lon="17.847601211483">
        <ele>66.4</ele>
        <time>2018-01-21T12:09:54Z</time>
      </trkpt>
      <trkpt lat="62.657745800252" lon="17.847657537851">
        <ele>66.2</ele>
        <time>2018-01-21T12:09:55Z</time>
      </trkpt>
      <trkpt lat="62.657761306767" lon="17.847727359078">
        <ele>66.2</ele>
        <time>2018-01-21T12:09:56Z</time>
      </trkpt>
      <trkpt lat="62.657774969264" lon="17.847783182532">
        <ele>66.2</ele>
        <time>2018-01-21T12:09:57Z</time>
      </trkpt>
      <trkpt lat="62.657789134675" lon="17.847836575235">
        <ele>66</ele>
        <time>2018-01-21T12:09:58Z</time>
      </trkpt>
      <trkpt lat="62.65780715576" lon="17.847903295159">
        <ele>66</ele>
        <time>2018-01-21T12:09:59Z</time>
      </trkpt>
      <trkpt lat="62.657831547089" lon="17.847935565474">
        <ele>65.8</ele>
        <time>2018-01-21T12:10:00Z</time>
      </trkpt>
      <trkpt lat="62.657855016409" lon="17.848004716149">
        <ele>65.8</ele>
        <time>2018-01-21T12:10:01Z</time>
      </trkpt>
      <trkpt lat="62.65787253458" lon="17.848063054173">
        <ele>65.6</ele>
        <time>2018-01-21T12:10:02Z</time>
      </trkpt>
      <trkpt lat="62.657890807122" lon="17.848115776324">
        <ele>65.8</ele>
        <time>2018-01-21T12:10:03Z</time>
      </trkpt>
      <trkpt lat="62.657912432424" lon="17.848178305298">
        <ele>65.6</ele>
        <time>2018-01-21T12:10:04Z</time>
      </trkpt>
      <trkpt lat="62.65794210435" lon="17.848213593097">
        <ele>65.6</ele>
        <time>2018-01-21T12:10:05Z</time>
      </trkpt>
      <trkpt lat="62.657965992765" lon="17.848274948605">
        <ele>65.4</ele>
        <time>2018-01-21T12:10:06Z</time>
      </trkpt>
      <trkpt lat="62.6579882048" lon="17.848334124819">
        <ele>65.4</ele>
        <time>2018-01-21T12:10:07Z</time>
      </trkpt>
      <trkpt lat="62.658006142066" lon="17.848371591912">
        <ele>65.4</ele>
        <time>2018-01-21T12:10:08Z</time>
      </trkpt>
      <trkpt lat="62.658027264454" lon="17.848415093973">
        <ele>65.2</ele>
        <time>2018-01-21T12:10:09Z</time>
      </trkpt>
      <trkpt lat="62.658056265828" lon="17.848460523871">
        <ele>65.2</ele>
        <time>2018-01-21T12:10:10Z</time>
      </trkpt>
      <trkpt lat="62.658076801483" lon="17.848523891035">
        <ele>65.2</ele>
        <time>2018-01-21T12:10:11Z</time>
      </trkpt>
      <trkpt lat="62.658108568884" lon="17.848583570163">
        <ele>65.2</ele>
        <time>2018-01-21T12:10:12Z</time>
      </trkpt>
      <trkpt lat="62.658134385136" lon="17.848620366704">
        <ele>65</ele>
        <time>2018-01-21T12:10:13Z</time>
      </trkpt>
      <trkpt lat="62.65816757746" lon="17.848693540691">
        <ele>65</ele>
        <time>2018-01-21T12:10:14Z</time>
      </trkpt>
      <trkpt lat="62.65819691411" lon="17.84873469582">
        <ele>64.8</ele>
        <time>2018-01-21T12:10:15Z</time>
      </trkpt>
      <trkpt lat="62.658224406742" lon="17.848795967509">
        <ele>64.6</ele>
        <time>2018-01-21T12:10:16Z</time>
      </trkpt>
      <trkpt lat="62.658255168315" lon="17.848851790963">
        <ele>64.4</ele>
        <time>2018-01-21T12:10:17Z</time>
      </trkpt>
      <trkpt lat="62.65828827682" lon="17.848871236971">
        <ele>64.4</ele>
        <time>2018-01-21T12:10:18Z</time>
      </trkpt>
      <trkpt lat="62.658306046448" lon="17.848928401529">
        <ele>64</ele>
        <time>2018-01-21T12:10:19Z</time>
      </trkpt>
      <trkpt lat="62.658324486628" lon="17.848987661562">
        <ele>63.8</ele>
        <time>2018-01-21T12:10:20Z</time>
      </trkpt>
      <trkpt lat="62.658337981487" lon="17.849033678193">
        <ele>63.8</ele>
        <time>2018-01-21T12:10:21Z</time>
      </trkpt>
      <trkpt lat="62.658355751115" lon="17.84907500096">
        <ele>63.6</ele>
        <time>2018-01-21T12:10:22Z</time>
      </trkpt>
      <trkpt lat="62.65837880134" lon="17.849111126949">
        <ele>63.6</ele>
        <time>2018-01-21T12:10:23Z</time>
      </trkpt>
      <trkpt lat="62.658388189068" lon="17.849152533535">
        <ele>63.8</ele>
        <time>2018-01-21T12:10:24Z</time>
      </trkpt>
      <trkpt lat="62.65841149075" lon="17.849202489659">
        <ele>63.8</ele>
        <time>2018-01-21T12:10:25Z</time>
      </trkpt>
      <trkpt lat="62.658428506007" lon="17.84924263896">
        <ele>63.8</ele>
        <time>2018-01-21T12:10:26Z</time>
      </trkpt>
      <trkpt lat="62.658443677246" lon="17.849303743011">
        <ele>63.8</ele>
        <time>2018-01-21T12:10:27Z</time>
      </trkpt>
      <trkpt lat="62.658458932304" lon="17.849369457107">
        <ele>63.8</ele>
        <time>2018-01-21T12:10:28Z</time>
      </trkpt>
      <trkpt lat="62.65847100224" lon="17.84941782067">
        <ele>63.6</ele>
        <time>2018-01-21T12:10:29Z</time>
      </trkpt>
      <trkpt lat="62.65848525147" lon="17.849515805081">
        <ele>63.8</ele>
        <time>2018-01-21T12:10:30Z</time>
      </trkpt>
      <trkpt lat="62.658487346945" lon="17.849600629909">
        <ele>63.8</ele>
        <time>2018-01-21T12:10:31Z</time>
      </trkpt>
      <trkpt lat="62.658482150167" lon="17.849685538556">
        <ele>63.6</ele>
        <time>2018-01-21T12:10:32Z</time>
      </trkpt>
      <trkpt lat="62.658475109371" lon="17.849789557935">
        <ele>63.4</ele>
        <time>2018-01-21T12:10:33Z</time>
      </trkpt>
      <trkpt lat="62.658443509608" lon="17.849802801337">
        <ele>63.2</ele>
        <time>2018-01-21T12:10:34Z</time>
      </trkpt>
      <trkpt lat="62.658429344197" lon="17.849819732775">
        <ele>63</ele>
        <time>2018-01-21T12:10:35Z</time>
      </trkpt>
      <trkpt lat="62.658411993664" lon="17.849835574566">
        <ele>62.8</ele>
        <time>2018-01-21T12:10:36Z</time>
      </trkpt>
      <trkpt lat="62.658393385846" lon="17.849841190439">
        <ele>62.8</ele>
        <time>2018-01-21T12:10:37Z</time>
      </trkpt>
      <trkpt lat="62.658373269286" lon="17.849843705009">
        <ele>62.8</ele>
        <time>2018-01-21T12:10:38Z</time>
      </trkpt>
      <trkpt lat="62.658353488002" lon="17.849847895959">
        <ele>63</ele>
        <time>2018-01-21T12:10:39Z</time>
      </trkpt>
      <trkpt lat="62.658328258483" lon="17.849852338366">
        <ele>63</ele>
        <time>2018-01-21T12:10:40Z</time>
      </trkpt>
      <trkpt lat="62.658307219914" lon="17.849843285914">
        <ele>63.2</ele>
        <time>2018-01-21T12:10:41Z</time>
      </trkpt>
      <trkpt lat="62.658275368694" lon="17.849839765516">
        <ele>63.6</ele>
        <time>2018-01-21T12:10:42Z</time>
      </trkpt>
      <trkpt lat="62.658251564098" lon="17.849835742204">
        <ele>63.8</ele>
        <time>2018-01-21T12:10:43Z</time>
      </trkpt>
      <trkpt lat="62.658236895773" lon="17.849843872647">
        <ele>63.8</ele>
        <time>2018-01-21T12:10:44Z</time>
      </trkpt>
      <trkpt lat="62.658214767557" lon="17.849850494348">
        <ele>64</ele>
        <time>2018-01-21T12:10:45Z</time>
      </trkpt>
      <trkpt lat="62.658189035124" lon="17.849849739977">
        <ele>64.2</ele>
        <time>2018-01-21T12:10:46Z</time>
      </trkpt>
      <trkpt lat="62.658171433134" lon="17.84985870861">
        <ele>64.2</ele>
        <time>2018-01-21T12:10:47Z</time>
      </trkpt>
      <trkpt lat="62.658143521407" lon="17.849860804085">
        <ele>64.4</ele>
        <time>2018-01-21T12:10:48Z</time>
      </trkpt>
      <trkpt lat="62.658114268576" lon="17.849863570112">
        <ele>64.4</ele>
        <time>2018-01-21T12:10:49Z</time>
      </trkpt>
      <trkpt lat="62.658096834224" lon="17.849873879849">
        <ele>64.6</ele>
        <time>2018-01-21T12:10:50Z</time>
      </trkpt>
      <trkpt lat="62.65807034742" lon="17.849883267577">
        <ele>64.6</ele>
        <time>2018-01-21T12:10:51Z</time>
      </trkpt>
      <trkpt lat="62.658042268055" lon="17.849884105767">
        <ele>64.6</ele>
        <time>2018-01-21T12:10:52Z</time>
      </trkpt>
      <trkpt lat="62.658028521739" lon="17.849896343341">
        <ele>64.8</ele>
        <time>2018-01-21T12:10:53Z</time>
      </trkpt>
      <trkpt lat="62.658002537849" lon="17.849901372481">
        <ele>64.6</ele>
        <time>2018-01-21T12:10:54Z</time>
      </trkpt>
      <trkpt lat="62.657960460711" lon="17.849907742725">
        <ele>64.8</ele>
        <time>2018-01-21T12:10:55Z</time>
      </trkpt>
      <trkpt lat="62.657941014703" lon="17.849919728842">
        <ele>64.8</ele>
        <time>2018-01-21T12:10:56Z</time>
      </trkpt>
      <trkpt lat="62.657913689709" lon="17.84991570553">
        <ele>64.8</ele>
        <time>2018-01-21T12:10:57Z</time>
      </trkpt>
      <trkpt lat="62.657889717475" lon="17.849910844028">
        <ele>64.8</ele>
        <time>2018-01-21T12:10:58Z</time>
      </trkpt>
      <trkpt lat="62.657866751069" lon="17.849912017494">
        <ele>64.8</ele>
        <time>2018-01-21T12:10:59Z</time>
      </trkpt>
      <trkpt lat="62.657848897622" lon="17.849907994182">
        <ele>64.8</ele>
        <time>2018-01-21T12:11:00Z</time>
      </trkpt>
      <trkpt lat="62.657831547089" lon="17.849903551775">
        <ele>65</ele>
        <time>2018-01-21T12:11:01Z</time>
      </trkpt>
      <trkpt lat="62.657814364194" lon="17.849898271178">
        <ele>65.2</ele>
        <time>2018-01-21T12:11:02Z</time>
      </trkpt>
      <trkpt lat="62.657796762204" lon="17.84989642716">
        <ele>65.4</ele>
        <time>2018-01-21T12:11:03Z</time>
      </trkpt>
      <trkpt lat="62.657781590965" lon="17.849891062744">
        <ele>65.8</ele>
        <time>2018-01-21T12:11:04Z</time>
      </trkpt>
      <trkpt lat="62.657764072794" lon="17.849884943957">
        <ele>66.2</ele>
        <time>2018-01-21T12:11:05Z</time>
      </trkpt>
      <trkpt lat="62.65774680608" lon="17.849880333912">
        <ele>66.4</ele>
        <time>2018-01-21T12:11:06Z</time>
      </trkpt>
      <trkpt lat="62.657724258769" lon="17.849872371107">
        <ele>66.6</ele>
        <time>2018-01-21T12:11:07Z</time>
      </trkpt>
      <trkpt lat="62.657695173576" lon="17.849861306999">
        <ele>66.8</ele>
        <time>2018-01-21T12:11:08Z</time>
      </trkpt>
      <trkpt lat="62.657679331785" lon="17.849862229008">
        <ele>67</ele>
        <time>2018-01-21T12:11:09Z</time>
      </trkpt>
      <trkpt lat="62.657646307099" lon="17.849871449098">
        <ele>67.2</ele>
        <time>2018-01-21T12:11:10Z</time>
      </trkpt>
      <trkpt lat="62.657623340693" lon="17.84987211965">
        <ele>67.2</ele>
        <time>2018-01-21T12:11:11Z</time>
      </trkpt>
      <trkpt lat="62.657604732875" lon="17.84987379603">
        <ele>67.2</ele>
        <time>2018-01-21T12:11:12Z</time>
      </trkpt>
      <trkpt lat="62.657586125057" lon="17.849879411903">
        <ele>67.2</ele>
        <time>2018-01-21T12:11:13Z</time>
      </trkpt>
      <trkpt lat="62.657566846687" lon="17.849886285061">
        <ele>67.2</ele>
        <time>2018-01-21T12:11:14Z</time>
      </trkpt>
      <trkpt lat="62.657546730127" lon="17.849890140735">
        <ele>67.4</ele>
        <time>2018-01-21T12:11:15Z</time>
      </trkpt>
      <trkpt lat="62.657527954671" lon="17.84989558897">
        <ele>67.6</ele>
        <time>2018-01-21T12:11:16Z</time>
      </trkpt>
      <trkpt lat="62.65750792193" lon="17.849901791576">
        <ele>67.6</ele>
        <time>2018-01-21T12:11:17Z</time>
      </trkpt>
      <trkpt lat="62.657489146474" lon="17.849904473784">
        <ele>67.8</ele>
        <time>2018-01-21T12:11:18Z</time>
      </trkpt>
      <trkpt lat="62.657476741262" lon="17.84991067639">
        <ele>68</ele>
        <time>2018-01-21T12:11:19Z</time>
      </trkpt>
      <trkpt lat="62.657459223091" lon="17.849914448245">
        <ele>68.2</ele>
        <time>2018-01-21T12:11:20Z</time>
      </trkpt>
      <trkpt lat="62.657442794567" lon="17.849918723014">
        <ele>68.4</ele>
        <time>2018-01-21T12:11:21Z</time>
      </trkpt>
      <trkpt lat="62.65743164664" lon="17.849917214272">
        <ele>68.6</ele>
        <time>2018-01-21T12:11:22Z</time>
      </trkpt>
      <trkpt lat="62.657424270568" lon="17.849945125999">
        <ele>69</ele>
        <time>2018-01-21T12:11:23Z</time>
      </trkpt>
      <trkpt lat="62.657410021338" lon="17.849962057437">
        <ele>69.2</ele>
        <time>2018-01-21T12:11:24Z</time>
      </trkpt>
      <trkpt lat="62.65739811904" lon="17.849976558124">
        <ele>69.6</ele>
        <time>2018-01-21T12:11:25Z</time>
      </trkpt>
      <trkpt lat="62.657392586986" lon="17.849979575608">
        <ele>69.8</ele>
        <time>2018-01-21T12:11:26Z</time>
      </trkpt>
      <trkpt lat="62.65738303162" lon="17.849989214793">
        <ele>70.2</ele>
        <time>2018-01-21T12:11:27Z</time>
      </trkpt>
      <trkpt lat="62.657372721883" lon="17.84999700996">
        <ele>70.4</ele>
        <time>2018-01-21T12:11:28Z</time>
      </trkpt>
      <trkpt lat="62.65736040049" lon="17.850003044928">
        <ele>70.8</ele>
        <time>2018-01-21T12:11:29Z</time>
      </trkpt>
      <trkpt lat="62.657346486536" lon="17.850010169543">
        <ele>71</ele>
        <time>2018-01-21T12:11:30Z</time>
      </trkpt>
      <trkpt lat="62.657332656401" lon="17.850019221995">
        <ele>71.2</ele>
        <time>2018-01-21T12:11:31Z</time>
      </trkpt>
      <trkpt lat="62.657317736619" lon="17.850025089325">
        <ele>71.4</ele>
        <time>2018-01-21T12:11:32Z</time>
      </trkpt>
      <trkpt lat="62.657302900656" lon="17.85002886118">
        <ele>71.6</ele>
        <time>2018-01-21T12:11:33Z</time>
      </trkpt>
      <trkpt lat="62.657290495444" lon="17.850033471225">
        <ele>71.8</ele>
        <time>2018-01-21T12:11:34Z</time>
      </trkpt>
      <trkpt lat="62.657279682793" lon="17.850037913632">
        <ele>71.8</ele>
        <time>2018-01-21T12:11:35Z</time>
      </trkpt>
      <trkpt lat="62.657269373056" lon="17.850045708799">
        <ele>72</ele>
        <time>2018-01-21T12:11:36Z</time>
      </trkpt>
      <trkpt lat="62.657257889853" lon="17.850052414319">
        <ele>72.2</ele>
        <time>2018-01-21T12:11:37Z</time>
      </trkpt>
      <trkpt lat="62.657247831573" lon="17.850061466771">
        <ele>72.4</ele>
        <time>2018-01-21T12:11:38Z</time>
      </trkpt>
      <trkpt lat="62.65723467199" lon="17.850072363241">
        <ele>72.6</ele>
        <time>2018-01-21T12:11:39Z</time>
      </trkpt>
      <trkpt lat="62.65722209914" lon="17.850082589159">
        <ele>72.8</ele>
        <time>2018-01-21T12:11:40Z</time>
      </trkpt>
      <trkpt lat="62.657210699756" lon="17.850090132869">
        <ele>73</ele>
        <time>2018-01-21T12:11:41Z</time>
      </trkpt>
      <trkpt lat="62.657197037259" lon="17.85009926914">
        <ele>73.2</ele>
        <time>2018-01-21T12:11:42Z</time>
      </trkpt>
      <trkpt lat="62.657186140789" lon="17.850105220289">
        <ele>73.6</ele>
        <time>2018-01-21T12:11:43Z</time>
      </trkpt>
      <trkpt lat="62.657174406129" lon="17.850117122587">
        <ele>73.6</ele>
        <time>2018-01-21T12:11:44Z</time>
      </trkpt>
      <trkpt lat="62.657162839107" lon="17.850128186695">
        <ele>73.8</ele>
        <time>2018-01-21T12:11:45Z</time>
      </trkpt>
      <trkpt lat="62.657154373388" lon="17.850137322966">
        <ele>74</ele>
        <time>2018-01-21T12:11:46Z</time>
      </trkpt>
      <trkpt lat="62.657140040339" lon="17.850153416214">
        <ele>74.2</ele>
        <time>2018-01-21T12:11:47Z</time>
      </trkpt>
      <trkpt lat="62.657128557136" lon="17.850165150874">
        <ele>74.4</ele>
        <time>2018-01-21T12:11:48Z</time>
      </trkpt>
      <trkpt lat="62.657120845788" lon="17.850173951869">
        <ele>74.8</ele>
        <time>2018-01-21T12:11:49Z</time>
      </trkpt>
      <trkpt lat="62.657111625698" lon="17.850189961298">
        <ele>75</ele>
        <time>2018-01-21T12:11:50Z</time>
      </trkpt>
      <trkpt lat="62.657100142495" lon="17.850206808917">
        <ele>75.4</ele>
        <time>2018-01-21T12:11:51Z</time>
      </trkpt>
      <trkpt lat="62.65708715055" lon="17.850217956844">
        <ele>75.6</ele>
        <time>2018-01-21T12:11:52Z</time>
      </trkpt>
      <trkpt lat="62.65707709227" lon="17.850224578545">
        <ele>75.8</ele>
        <time>2018-01-21T12:11:53Z</time>
      </trkpt>
      <trkpt lat="62.657068291275" lon="17.85022918859">
        <ele>76</ele>
        <time>2018-01-21T12:11:54Z</time>
      </trkpt>
      <trkpt lat="62.657051695113" lon="17.850235558834">
        <ele>76.2</ele>
        <time>2018-01-21T12:11:55Z</time>
      </trkpt>
      <trkpt lat="62.657038954625" lon="17.850242012897">
        <ele>76.4</ele>
        <time>2018-01-21T12:11:56Z</time>
      </trkpt>
      <trkpt lat="62.657023196653" lon="17.85024259963">
        <ele>76.8</ele>
        <time>2018-01-21T12:11:57Z</time>
      </trkpt>
      <trkpt lat="62.657008779785" lon="17.850243354001">
        <ele>77</ele>
        <time>2018-01-21T12:11:58Z</time>
      </trkpt>
      <trkpt lat="62.656993860003" lon="17.850240839431">
        <ele>77</ele>
        <time>2018-01-21T12:11:59Z</time>
      </trkpt>
      <trkpt lat="62.656983466447" lon="17.850245617114">
        <ele>77.2</ele>
        <time>2018-01-21T12:12:00Z</time>
      </trkpt>
      <trkpt lat="62.656965780638" lon="17.850245784752">
        <ele>77.6</ele>
        <time>2018-01-21T12:12:01Z</time>
      </trkpt>
      <trkpt lat="62.656949184476" lon="17.850248383141">
        <ele>77.6</ele>
        <time>2018-01-21T12:12:02Z</time>
      </trkpt>
      <trkpt lat="62.656930576658" lon="17.850246958218">
        <ele>78</ele>
        <time>2018-01-21T12:12:03Z</time>
      </trkpt>
      <trkpt lat="62.65691448341" lon="17.850241426164">
        <ele>78.2</ele>
        <time>2018-01-21T12:12:04Z</time>
      </trkpt>
      <trkpt lat="62.656896127049" lon="17.850235307377">
        <ele>78.2</ele>
        <time>2018-01-21T12:12:05Z</time>
      </trkpt>
      <trkpt lat="62.656874585566" lon="17.850224830002">
        <ele>78.4</ele>
        <time>2018-01-21T12:12:06Z</time>
      </trkpt>
      <trkpt lat="62.656861258345" lon="17.850221309604">
        <ele>78.4</ele>
        <time>2018-01-21T12:12:07Z</time>
      </trkpt>
      <trkpt lat="62.656842818165" lon="17.850212089514">
        <ele>78.6</ele>
        <time>2018-01-21T12:12:08Z</time>
      </trkpt>
      <trkpt lat="62.656826389641" lon="17.85020907203">
        <ele>78.6</ele>
        <time>2018-01-21T12:12:09Z</time>
      </trkpt>
      <trkpt lat="62.656806273081" lon="17.850198678474">
        <ele>78.8</ele>
        <time>2018-01-21T12:12:10Z</time>
      </trkpt>
      <trkpt lat="62.656787581444" lon="17.850190883307">
        <ele>79</ele>
        <time>2018-01-21T12:12:11Z</time>
      </trkpt>
      <trkpt lat="62.65676780016" lon="17.850180322113">
        <ele>79.2</ele>
        <time>2018-01-21T12:12:12Z</time>
      </trkpt>
      <trkpt lat="62.656755059672" lon="17.850183842511">
        <ele>79.4</ele>
        <time>2018-01-21T12:12:13Z</time>
      </trkpt>
      <trkpt lat="62.656736284216" lon="17.85017973538">
        <ele>79.6</ele>
        <time>2018-01-21T12:12:14Z</time>
      </trkpt>
      <trkpt lat="62.656708372489" lon="17.850178645733">
        <ele>79.6</ele>
        <time>2018-01-21T12:12:15Z</time>
      </trkpt>
      <trkpt lat="62.656696386372" lon="17.850182920502">
        <ele>79.6</ele>
        <time>2018-01-21T12:12:16Z</time>
      </trkpt>
      <trkpt lat="62.656676185993" lon="17.850178813371">
        <ele>79.8</ele>
        <time>2018-01-21T12:12:17Z</time>
      </trkpt>
      <trkpt lat="62.656652213759" lon="17.850175125335">
        <ele>79.8</ele>
        <time>2018-01-21T12:12:18Z</time>
      </trkpt>
      <trkpt lat="62.656630420819" lon="17.850175712068">
        <ele>80</ele>
        <time>2018-01-21T12:12:19Z</time>
      </trkpt>
      <trkpt lat="62.656608963155" lon="17.850172610765">
        <ele>80</ele>
        <time>2018-01-21T12:12:20Z</time>
      </trkpt>
      <trkpt lat="62.656592450812" lon="17.850178981009">
        <ele>80.2</ele>
        <time>2018-01-21T12:12:21Z</time>
      </trkpt>
      <trkpt lat="62.656580632333" lon="17.850183842511">
        <ele>80.4</ele>
        <time>2018-01-21T12:12:22Z</time>
      </trkpt>
      <trkpt lat="62.656559845221" lon="17.85019063185">
        <ele>80.6</ele>
        <time>2018-01-21T12:12:23Z</time>
      </trkpt>
      <trkpt lat="62.656534364245" lon="17.850191972954">
        <ele>80.6</ele>
        <time>2018-01-21T12:12:24Z</time>
      </trkpt>
      <trkpt lat="62.656516510798" lon="17.850197421189">
        <ele>80.8</ele>
        <time>2018-01-21T12:12:25Z</time>
      </trkpt>
      <trkpt lat="62.656487425605" lon="17.850207647107">
        <ele>81</ele>
        <time>2018-01-21T12:12:26Z</time>
      </trkpt>
      <trkpt lat="62.656456244937" lon="17.850224578545">
        <ele>81</ele>
        <time>2018-01-21T12:12:27Z</time>
      </trkpt>
      <trkpt lat="62.656441241336" lon="17.850242515811">
        <ele>81</ele>
        <time>2018-01-21T12:12:28Z</time>
      </trkpt>
      <trkpt lat="62.656418610206" lon="17.850257938507">
        <ele>81</ele>
        <time>2018-01-21T12:12:29Z</time>
      </trkpt>
      <trkpt lat="62.656393464506" lon="17.850273445022">
        <ele>81</ele>
        <time>2018-01-21T12:12:30Z</time>
      </trkpt>
      <trkpt lat="62.656376533068" lon="17.850287610433">
        <ele>81</ele>
        <time>2018-01-21T12:12:31Z</time>
      </trkpt>
      <trkpt lat="62.656359098716" lon="17.850301440568">
        <ele>81.2</ele>
        <time>2018-01-21T12:12:32Z</time>
      </trkpt>
      <trkpt lat="62.656339904165" lon="17.850322479137">
        <ele>81.2</ele>
        <time>2018-01-21T12:12:33Z</time>
      </trkpt>
      <trkpt lat="62.656324649107" lon="17.850341338412">
        <ele>81.4</ele>
        <time>2018-01-21T12:12:34Z</time>
      </trkpt>
      <trkpt lat="62.656312914447" lon="17.850365478284">
        <ele>81.6</ele>
        <time>2018-01-21T12:12:35Z</time>
      </trkpt>
      <trkpt lat="62.656301179787" lon="17.850388360871">
        <ele>82</ele>
        <time>2018-01-21T12:12:36Z</time>
      </trkpt>
      <trkpt lat="62.656289612765" lon="17.850410405268">
        <ele>82.2</ele>
        <time>2018-01-21T12:12:37Z</time>
      </trkpt>
      <trkpt lat="62.656283242521" lon="17.850417278426">
        <ele>82.4</ele>
        <time>2018-01-21T12:12:38Z</time>
      </trkpt>
      <trkpt lat="62.656271926956" lon="17.85043538333">
        <ele>82.6</ele>
        <time>2018-01-21T12:12:39Z</time>
      </trkpt>
      <trkpt lat="62.656263545056" lon="17.850451979492">
        <ele>82.8</ele>
        <time>2018-01-21T12:12:40Z</time>
      </trkpt>
      <trkpt lat="62.656250888387" lon="17.850472012233">
        <ele>83</ele>
        <time>2018-01-21T12:12:41Z</time>
      </trkpt>
      <trkpt lat="62.6562363877" lon="17.850484668902">
        <ele>83.2</ele>
        <time>2018-01-21T12:12:42Z</time>
      </trkpt>
      <trkpt lat="62.656222054651" lon="17.850498666675">
        <ele>83.6</ele>
        <time>2018-01-21T12:12:43Z</time>
      </trkpt>
      <trkpt lat="62.656207973059" lon="17.850513083543">
        <ele>83.8</ele>
        <time>2018-01-21T12:12:44Z</time>
      </trkpt>
      <trkpt lat="62.656197663322" lon="17.850519034692">
        <ele>84</ele>
        <time>2018-01-21T12:12:45Z</time>
      </trkpt>
      <trkpt lat="62.656181486255" lon="17.850531523723">
        <ele>84.2</ele>
        <time>2018-01-21T12:12:46Z</time>
      </trkpt>
      <trkpt lat="62.656167488482" lon="17.850541582003">
        <ele>84.4</ele>
        <time>2018-01-21T12:12:47Z</time>
      </trkpt>
      <trkpt lat="62.656152987795" lon="17.850556501785">
        <ele>84.6</ele>
        <time>2018-01-21T12:12:48Z</time>
      </trkpt>
      <trkpt lat="62.656140666402" lon="17.850564045495">
        <ele>84.8</ele>
        <time>2018-01-21T12:12:49Z</time>
      </trkpt>
      <trkpt lat="62.65612658481" lon="17.850577121259">
        <ele>85</ele>
        <time>2018-01-21T12:12:50Z</time>
      </trkpt>
      <trkpt lat="62.656113592865" lon="17.850594471792">
        <ele>85.2</ele>
        <time>2018-01-21T12:12:51Z</time>
      </trkpt>
      <trkpt lat="62.656097583436" lon="17.850609223936">
        <ele>85.4</ele>
        <time>2018-01-21T12:12:52Z</time>
      </trkpt>
      <trkpt lat="62.656086854604" lon="17.850619533673">
        <ele>85.6</ele>
        <time>2018-01-21T12:12:53Z</time>
      </trkpt>
      <trkpt lat="62.656069504071" lon="17.850639566414">
        <ele>85.8</ele>
        <time>2018-01-21T12:12:54Z</time>
      </trkpt>
      <trkpt lat="62.656056763583" lon="17.850659431517">
        <ele>86.2</ele>
        <time>2018-01-21T12:12:55Z</time>
      </trkpt>
      <trkpt lat="62.656042179077" lon="17.850675440946">
        <ele>86.4</ele>
        <time>2018-01-21T12:12:56Z</time>
      </trkpt>
      <trkpt lat="62.656028181304" lon="17.850697820619">
        <ele>86.6</ele>
        <time>2018-01-21T12:12:57Z</time>
      </trkpt>
      <trkpt lat="62.656014351169" lon="17.850710393469">
        <ele>86.8</ele>
        <time>2018-01-21T12:12:58Z</time>
      </trkpt>
      <trkpt lat="62.656003789975" lon="17.850726319079">
        <ele>87</ele>
        <time>2018-01-21T12:12:59Z</time>
      </trkpt>
      <trkpt lat="62.655989708383" lon="17.850748531114">
        <ele>87.2</ele>
        <time>2018-01-21T12:13:00Z</time>
      </trkpt>
      <trkpt lat="62.655974118049" lon="17.850768480036">
        <ele>87.4</ele>
        <time>2018-01-21T12:13:01Z</time>
      </trkpt>
      <trkpt lat="62.655959533543" lon="17.850790692071">
        <ele>87.6</ele>
        <time>2018-01-21T12:13:02Z</time>
      </trkpt>
      <trkpt lat="62.655945871046" lon="17.85080753969">
        <ele>87.8</ele>
        <time>2018-01-21T12:13:03Z</time>
      </trkpt>
      <trkpt lat="62.655931957092" lon="17.850823716757">
        <ele>88</ele>
        <time>2018-01-21T12:13:04Z</time>
      </trkpt>
      <trkpt lat="62.655913936007" lon="17.85084106729">
        <ele>88.2</ele>
        <time>2018-01-21T12:13:05Z</time>
      </trkpt>
      <trkpt lat="62.655898261854" lon="17.850858920737">
        <ele>88.6</ele>
        <time>2018-01-21T12:13:06Z</time>
      </trkpt>
      <trkpt lat="62.655884264081" lon="17.850880546039">
        <ele>88.8</ele>
        <time>2018-01-21T12:13:07Z</time>
      </trkpt>
      <trkpt lat="62.655871355955" lon="17.850902338979">
        <ele>88.8</ele>
        <time>2018-01-21T12:13:08Z</time>
      </trkpt>
      <trkpt lat="62.655857609639" lon="17.850928155231">
        <ele>89.2</ele>
        <time>2018-01-21T12:13:09Z</time>
      </trkpt>
      <trkpt lat="62.655844366237" lon="17.850952798017">
        <ele>89.4</ele>
        <time>2018-01-21T12:13:10Z</time>
      </trkpt>
      <trkpt lat="62.655831290473" lon="17.850968220713">
        <ele>89.6</ele>
        <time>2018-01-21T12:13:11Z</time>
      </trkpt>
      <trkpt lat="62.655816538329" lon="17.850986744712">
        <ele>90</ele>
        <time>2018-01-21T12:13:12Z</time>
      </trkpt>
      <trkpt lat="62.655801450909" lon="17.851006106901">
        <ele>90.2</ele>
        <time>2018-01-21T12:13:13Z</time>
      </trkpt>
      <trkpt lat="62.65578544148" lon="17.851025301452">
        <ele>90.6</ele>
        <time>2018-01-21T12:13:14Z</time>
      </trkpt>
      <trkpt lat="62.655769683508" lon="17.851044412184">
        <ele>90.8</ele>
        <time>2018-01-21T12:13:15Z</time>
      </trkpt>
      <trkpt lat="62.655756188649" lon="17.851054302826">
        <ele>91</ele>
        <time>2018-01-21T12:13:16Z</time>
      </trkpt>
      <trkpt lat="62.655743699618" lon="17.851077939784">
        <ele>91.4</ele>
        <time>2018-01-21T12:13:17Z</time>
      </trkpt>
      <trkpt lat="62.65572425361" lon="17.851098140163">
        <ele>91.8</ele>
        <time>2018-01-21T12:13:18Z</time>
      </trkpt>
      <trkpt lat="62.655708160362" lon="17.851122531492">
        <ele>92.2</ele>
        <time>2018-01-21T12:13:19Z</time>
      </trkpt>
      <trkpt lat="62.655691648019" lon="17.85114700664">
        <ele>92.4</ele>
        <time>2018-01-21T12:13:20Z</time>
      </trkpt>
      <trkpt lat="62.655670860907" lon="17.851180953335">
        <ele>92.6</ele>
        <time>2018-01-21T12:13:21Z</time>
      </trkpt>
      <trkpt lat="62.655645799026" lon="17.851221940826">
        <ele>92.6</ele>
        <time>2018-01-21T12:13:22Z</time>
      </trkpt>
      <trkpt lat="62.655626101561" lon="17.851239542816">
        <ele>92.6</ele>
        <time>2018-01-21T12:13:23Z</time>
      </trkpt>
      <trkpt lat="62.655607493743" lon="17.851284553619">
        <ele>92.8</ele>
        <time>2018-01-21T12:13:24Z</time>
      </trkpt>
      <trkpt lat="62.655584611156" lon="17.851314309364">
        <ele>92.8</ele>
        <time>2018-01-21T12:13:25Z</time>
      </trkpt>
      <trkpt lat="62.655566841528" lon="17.851337611046">
        <ele>92.6</ele>
        <time>2018-01-21T12:13:26Z</time>
      </trkpt>
      <trkpt lat="62.655553095212" lon="17.851360828909">
        <ele>92.6</ele>
        <time>2018-01-21T12:13:27Z</time>
      </trkpt>
      <trkpt lat="62.655538929801" lon="17.851380945469">
        <ele>92.6</ele>
        <time>2018-01-21T12:13:28Z</time>
      </trkpt>
      <trkpt lat="62.65552224982" lon="17.851412964327">
        <ele>92.6</ele>
        <time>2018-01-21T12:13:29Z</time>
      </trkpt>
      <trkpt lat="62.655506743305" lon="17.851433332344">
        <ele>92.6</ele>
        <time>2018-01-21T12:13:30Z</time>
      </trkpt>
      <trkpt lat="62.655488386944" lon="17.851454119456">
        <ele>92.6</ele>
        <time>2018-01-21T12:13:31Z</time>
      </trkpt>
      <trkpt lat="62.655472712791" lon="17.851470883256">
        <ele>92.8</ele>
        <time>2018-01-21T12:13:32Z</time>
      </trkpt>
      <trkpt lat="62.655458715018" lon="17.851490161626">
        <ele>93</ele>
        <time>2018-01-21T12:13:33Z</time>
      </trkpt>
      <trkpt lat="62.655446645082" lon="17.851522012846">
        <ele>93</ele>
        <time>2018-01-21T12:13:34Z</time>
      </trkpt>
      <trkpt lat="62.655428456359" lon="17.851549589297">
        <ele>93.4</ele>
        <time>2018-01-21T12:13:35Z</time>
      </trkpt>
      <trkpt lat="62.655407836885" lon="17.851569622038">
        <ele>93.6</ele>
        <time>2018-01-21T12:13:36Z</time>
      </trkpt>
      <trkpt lat="62.655388223239" lon="17.85159711467">
        <ele>94</ele>
        <time>2018-01-21T12:13:37Z</time>
      </trkpt>
      <trkpt lat="62.655368944869" lon="17.851626535139">
        <ele>94.2</ele>
        <time>2018-01-21T12:13:38Z</time>
      </trkpt>
      <trkpt lat="62.655362909901" lon="17.851650088278">
        <ele>94.6</ele>
        <time>2018-01-21T12:13:39Z</time>
      </trkpt>
      <trkpt lat="62.655336255459" lon="17.851690321398">
        <ele>94.8</ele>
        <time>2018-01-21T12:13:40Z</time>
      </trkpt>
      <trkpt lat="62.655311109759" lon="17.851728291405">
        <ele>95</ele>
        <time>2018-01-21T12:13:41Z</time>
      </trkpt>
      <trkpt lat="62.655290741742" lon="17.851774224217">
        <ele>95.2</ele>
        <time>2018-01-21T12:13:42Z</time>
      </trkpt>
      <trkpt lat="62.655266853327" lon="17.85182426416">
        <ele>95.2</ele>
        <time>2018-01-21T12:13:43Z</time>
      </trkpt>
      <trkpt lat="62.655247910233" lon="17.851854271362">
        <ele>95.2</ele>
        <time>2018-01-21T12:13:44Z</time>
      </trkpt>
      <trkpt lat="62.65522050142" lon="17.85189970126">
        <ele>95.4</ele>
        <time>2018-01-21T12:13:45Z</time>
      </trkpt>
      <trkpt lat="62.655213712081" lon="17.851925098417">
        <ele>95.4</ele>
        <time>2018-01-21T12:13:46Z</time>
      </trkpt>
      <trkpt lat="62.655192170598" lon="17.851968097564">
        <ele>95.2</ele>
        <time>2018-01-21T12:13:48Z</time>
      </trkpt>
      <trkpt lat="62.655174987703" lon="17.852007911589">
        <ele>95.2</ele>
        <time>2018-01-21T12:13:49Z</time>
      </trkpt>
      <trkpt lat="62.655171383486" lon="17.852014868566">
        <ele>95.4</ele>
        <time>2018-01-21T12:13:50Z</time>
      </trkpt>
      <trkpt lat="62.655144561406" lon="17.852081420852">
        <ele>95.2</ele>
        <time>2018-01-21T12:13:51Z</time>
      </trkpt>
      <trkpt lat="62.655125534493" lon="17.852124168542">
        <ele>95.2</ele>
        <time>2018-01-21T12:13:52Z</time>
      </trkpt>
      <trkpt lat="62.655107010494" lon="17.852169430802">
        <ele>95.2</ele>
        <time>2018-01-21T12:13:53Z</time>
      </trkpt>
      <trkpt lat="62.6551048312" lon="17.852200946746">
        <ele>95.2</ele>
        <time>2018-01-21T12:13:54Z</time>
      </trkpt>
      <trkpt lat="62.65508471464" lon="17.852256015829">
        <ele>95.4</ele>
        <time>2018-01-21T12:13:55Z</time>
      </trkpt>
      <trkpt lat="62.655076668016" lon="17.852298595881">
        <ele>95.4</ele>
        <time>2018-01-21T12:13:56Z</time>
      </trkpt>
      <trkpt lat="62.655068369935" lon="17.852350479842">
        <ele>95.6</ele>
        <time>2018-01-21T12:13:57Z</time>
      </trkpt>
      <trkpt lat="62.655063592252" lon="17.852406135658">
        <ele>95.6</ele>
        <time>2018-01-21T12:13:58Z</time>
      </trkpt>
      <trkpt lat="62.655065100994" lon="17.85245877399">
        <ele>95.6</ele>
        <time>2018-01-21T12:13:59Z</time>
      </trkpt>
      <trkpt lat="62.655057138189" lon="17.852540413696">
        <ele>95.8</ele>
        <time>2018-01-21T12:14:00Z</time>
      </trkpt>
      <trkpt lat="62.655057222008" lon="17.852606630706">
        <ele>95.6</ele>
        <time>2018-01-21T12:14:01Z</time>
      </trkpt>
      <trkpt lat="62.655050684126" lon="17.852687348403">
        <ele>95.6</ele>
        <time>2018-01-21T12:14:02Z</time>
      </trkpt>
      <trkpt lat="62.655048085737" lon="17.852763372236">
        <ele>95.6</ele>
        <time>2018-01-21T12:14:03Z</time>
      </trkpt>
      <trkpt lat="62.655052109049" lon="17.85282506302">
        <ele>95.4</ele>
        <time>2018-01-21T12:14:04Z</time>
      </trkpt>
      <trkpt lat="62.655042972778" lon="17.85290050012">
        <ele>95.2</ele>
        <time>2018-01-21T12:14:05Z</time>
      </trkpt>
      <trkpt lat="62.655038278914" lon="17.852965124569">
        <ele>95</ele>
        <time>2018-01-21T12:14:06Z</time>
      </trkpt>
      <trkpt lat="62.655035596706" lon="17.853016840892">
        <ele>95</ele>
        <time>2018-01-21T12:14:07Z</time>
      </trkpt>
      <trkpt lat="62.655017324164" lon="17.853097977684">
        <ele>94.8</ele>
        <time>2018-01-21T12:14:08Z</time>
      </trkpt>
      <trkpt lat="62.655007768798" lon="17.853170648757">
        <ele>94.8</ele>
        <time>2018-01-21T12:14:09Z</time>
      </trkpt>
      <trkpt lat="62.654984718573" lon="17.853209121678">
        <ele>94.8</ele>
        <time>2018-01-21T12:14:10Z</time>
      </trkpt>
      <trkpt lat="62.654973151551" lon="17.85326008363">
        <ele>94.8</ele>
        <time>2018-01-21T12:14:11Z</time>
      </trkpt>
      <trkpt lat="62.654959237597" lon="17.8532961258">
        <ele>94.8</ele>
        <time>2018-01-21T12:14:12Z</time>
      </trkpt>
      <trkpt lat="62.654945826557" lon="17.853335017816">
        <ele>95</ele>
        <time>2018-01-21T12:14:13Z</time>
      </trkpt>
      <trkpt lat="62.654934175716" lon="17.853371311443">
        <ele>95</ele>
        <time>2018-01-21T12:14:14Z</time>
      </trkpt>
      <trkpt lat="62.654923446884" lon="17.853412382753">
        <ele>95.2</ele>
        <time>2018-01-21T12:14:15Z</time>
      </trkpt>
      <trkpt lat="62.654903749419" lon="17.853465021085">
        <ele>95.6</ele>
        <time>2018-01-21T12:14:16Z</time>
      </trkpt>
      <trkpt lat="62.654895618976" lon="17.853502404359">
        <ele>95.8</ele>
        <time>2018-01-21T12:14:17Z</time>
      </trkpt>
      <trkpt lat="62.6548785199" lon="17.853556467614">
        <ele>96.2</ele>
        <time>2018-01-21T12:14:18Z</time>
      </trkpt>
      <trkpt lat="62.654859744444" lon="17.853617068751">
        <ele>96.4</ele>
        <time>2018-01-21T12:14:19Z</time>
      </trkpt>
      <trkpt lat="62.654847339232" lon="17.853652691826">
        <ele>96.6</ele>
        <time>2018-01-21T12:14:20Z</time>
      </trkpt>
      <trkpt lat="62.654836861857" lon="17.853689320729">
        <ele>96.6</ele>
        <time>2018-01-21T12:14:21Z</time>
      </trkpt>
      <trkpt lat="62.654817164392" lon="17.853744808907">
        <ele>96.6</ele>
        <time>2018-01-21T12:14:22Z</time>
      </trkpt>
      <trkpt lat="62.654805094456" lon="17.853786383131">
        <ele>96.8</ele>
        <time>2018-01-21T12:14:23Z</time>
      </trkpt>
      <trkpt lat="62.654794197986" lon="17.853828460269">
        <ele>96.8</ele>
        <time>2018-01-21T12:14:24Z</time>
      </trkpt>
      <trkpt lat="62.654772405046" lon="17.85390129898">
        <ele>96.8</ele>
        <time>2018-01-21T12:14:25Z</time>
      </trkpt>
      <trkpt lat="62.654762598223" lon="17.853949578724">
        <ele>96.8</ele>
        <time>2018-01-21T12:14:26Z</time>
      </trkpt>
      <trkpt lat="62.654753210495" lon="17.853997607011">
        <ele>96.8</ele>
        <time>2018-01-21T12:14:27Z</time>
      </trkpt>
      <trkpt lat="62.654741643473" lon="17.854047479316">
        <ele>96.8</ele>
        <time>2018-01-21T12:14:28Z</time>
      </trkpt>
      <trkpt lat="62.654734183582" lon="17.854091232834">
        <ele>96.8</ele>
        <time>2018-01-21T12:14:29Z</time>
      </trkpt>
      <trkpt lat="62.654717503601" lon="17.854139428759">
        <ele>96.8</ele>
        <time>2018-01-21T12:14:30Z</time>
      </trkpt>
      <trkpt lat="62.654697387041" lon="17.854196844774">
        <ele>97</ele>
        <time>2018-01-21T12:14:31Z</time>
      </trkpt>
      <trkpt lat="62.654677857214" lon="17.854240598292">
        <ele>97</ele>
        <time>2018-01-21T12:14:32Z</time>
      </trkpt>
      <trkpt lat="62.654660087586" lon="17.854280412317">
        <ele>97</ele>
        <time>2018-01-21T12:14:33Z</time>
      </trkpt>
      <trkpt lat="62.65464466489" lon="17.85431704122">
        <ele>97</ele>
        <time>2018-01-21T12:14:34Z</time>
      </trkpt>
      <trkpt lat="62.654621279389" lon="17.854347886612">
        <ele>97</ele>
        <time>2018-01-21T12:14:35Z</time>
      </trkpt>
      <trkpt lat="62.654599318811" lon="17.854388538827">
        <ele>97.2</ele>
        <time>2018-01-21T12:14:36Z</time>
      </trkpt>
      <trkpt lat="62.654577944966" lon="17.854419887133">
        <ele>97.2</ele>
        <time>2018-01-21T12:14:37Z</time>
      </trkpt>
      <trkpt lat="62.654551541981" lon="17.854455845484">
        <ele>97.4</ele>
        <time>2018-01-21T12:14:38Z</time>
      </trkpt>
      <trkpt lat="62.654529329946" lon="17.854493983129">
        <ele>97.6</ele>
        <time>2018-01-21T12:14:39Z</time>
      </trkpt>
      <trkpt lat="62.654504519522" lon="17.854524996159">
        <ele>97.8</ele>
        <time>2018-01-21T12:14:40Z</time>
      </trkpt>
      <trkpt lat="62.654481972211" lon="17.854562882347">
        <ele>97.8</ele>
        <time>2018-01-21T12:14:41Z</time>
      </trkpt>
      <trkpt lat="62.654469902275" lon="17.85458190926">
        <ele>98</ele>
        <time>2018-01-21T12:14:42Z</time>
      </trkpt>
      <trkpt lat="62.654440481806" lon="17.85461962781">
        <ele>98</ele>
        <time>2018-01-21T12:14:43Z</time>
      </trkpt>
      <trkpt lat="62.65441919178" lon="17.85465902274">
        <ele>97.8</ele>
        <time>2018-01-21T12:14:44Z</time>
      </trkpt>
      <trkpt lat="62.654401254514" lon="17.854688275571">
        <ele>97.8</ele>
        <time>2018-01-21T12:14:45Z</time>
      </trkpt>
      <trkpt lat="62.654376611728" lon="17.854746948871">
        <ele>97.6</ele>
        <time>2018-01-21T12:14:46Z</time>
      </trkpt>
      <trkpt lat="62.654370995855" lon="17.854769244725">
        <ele>97.6</ele>
        <time>2018-01-21T12:14:47Z</time>
      </trkpt>
      <trkpt lat="62.654337552074" lon="17.854813668795">
        <ele>97.6</ele>
        <time>2018-01-21T12:14:48Z</time>
      </trkpt>
      <trkpt lat="62.654317603152" lon="17.85484342454">
        <ele>97.6</ele>
        <time>2018-01-21T12:14:49Z</time>
      </trkpt>
      <trkpt lat="62.654314920944" lon="17.854852141716">
        <ele>97.8</ele>
        <time>2018-01-21T12:14:50Z</time>
      </trkpt>
      <trkpt lat="62.654275358376" lon="17.854913497224">
        <ele>97.6</ele>
        <time>2018-01-21T12:14:51Z</time>
      </trkpt>
      <trkpt lat="62.654254571264" lon="17.854949623213">
        <ele>97.6</ele>
        <time>2018-01-21T12:14:52Z</time>
      </trkpt>
      <trkpt lat="62.654231856315" lon="17.854983821365">
        <ele>97.6</ele>
        <time>2018-01-21T12:14:53Z</time>
      </trkpt>
      <trkpt lat="62.654205285692" lon="17.855029670358">
        <ele>97.6</ele>
        <time>2018-01-21T12:14:54Z</time>
      </trkpt>
      <trkpt lat="62.654181062001" lon="17.855063784691">
        <ele>97.6</ele>
        <time>2018-01-21T12:14:55Z</time>
      </trkpt>
      <trkpt lat="62.654154239921" lon="17.855108544037">
        <ele>97.4</ele>
        <time>2018-01-21T12:14:56Z</time>
      </trkpt>
      <trkpt lat="62.654133536628" lon="17.85514517294">
        <ele>97.4</ele>
        <time>2018-01-21T12:14:57Z</time>
      </trkpt>
      <trkpt lat="62.654113587706" lon="17.855172162658">
        <ele>97.4</ele>
        <time>2018-01-21T12:14:58Z</time>
      </trkpt>
      <trkpt lat="62.654094979888" lon="17.855196553987">
        <ele>97.4</ele>
        <time>2018-01-21T12:14:59Z</time>
      </trkpt>
      <trkpt lat="62.654060027365" lon="17.855228740483">
        <ele>97.4</ele>
        <time>2018-01-21T12:15:00Z</time>
      </trkpt>
      <trkpt lat="62.654041084271" lon="17.855259418237">
        <ele>97.6</ele>
        <time>2018-01-21T12:15:01Z</time>
      </trkpt>
      <trkpt lat="62.654012082897" lon="17.855286994688">
        <ele>97.6</ele>
        <time>2018-01-21T12:15:02Z</time>
      </trkpt>
      <trkpt lat="62.653980566953" lon="17.855313900587">
        <ele>97.8</ele>
        <time>2018-01-21T12:15:03Z</time>
      </trkpt>
      <trkpt lat="62.653950475932" lon="17.85534047121">
        <ele>98</ele>
        <time>2018-01-21T12:15:04Z</time>
      </trkpt>
      <trkpt lat="62.653934969417" lon="17.855354636621">
        <ele>98</ele>
        <time>2018-01-21T12:15:05Z</time>
      </trkpt>
      <trkpt lat="62.653906135681" lon="17.855387493669">
        <ele>98</ele>
        <time>2018-01-21T12:15:06Z</time>
      </trkpt>
      <trkpt lat="62.653886354397" lon="17.855410627713">
        <ele>98</ele>
        <time>2018-01-21T12:15:07Z</time>
      </trkpt>
      <trkpt lat="62.653869255321" lon="17.855427978246">
        <ele>98</ele>
        <time>2018-01-21T12:15:08Z</time>
      </trkpt>
      <trkpt lat="62.65385508991" lon="17.855445999331">
        <ele>98.2</ele>
        <time>2018-01-21T12:15:09Z</time>
      </trkpt>
      <trkpt lat="62.65384503163" lon="17.855464355692">
        <ele>98.4</ele>
        <time>2018-01-21T12:15:10Z</time>
      </trkpt>
      <trkpt lat="62.653838996662" lon="17.855477431456">
        <ele>98.6</ele>
        <time>2018-01-21T12:15:11Z</time>
      </trkpt>
      <trkpt lat="62.653821729948" lon="17.855504504993">
        <ele>98.8</ele>
        <time>2018-01-21T12:15:12Z</time>
      </trkpt>
      <trkpt lat="62.653806223433" lon="17.855531997625">
        <ele>99.2</ele>
        <time>2018-01-21T12:15:13Z</time>
      </trkpt>
      <trkpt lat="62.653782837932" lon="17.855572482202">
        <ele>99.4</ele>
        <time>2018-01-21T12:15:14Z</time>
      </trkpt>
      <trkpt lat="62.653761296449" lon="17.855602573223">
        <ele>99.6</ele>
        <time>2018-01-21T12:15:15Z</time>
      </trkpt>
      <trkpt lat="62.653747717771" lon="17.85561958848">
        <ele>99.8</ele>
        <time>2018-01-21T12:15:16Z</time>
      </trkpt>
      <trkpt lat="62.653734474369" lon="17.855660995066">
        <ele>99.8</ele>
        <time>2018-01-21T12:15:17Z</time>
      </trkpt>
      <trkpt lat="62.653706395004" lon="17.855696785779">
        <ele>99.8</ele>
        <time>2018-01-21T12:15:18Z</time>
      </trkpt>
      <trkpt lat="62.653691475222" lon="17.855720003642">
        <ele>100</ele>
        <time>2018-01-21T12:15:19Z</time>
      </trkpt>
      <trkpt lat="62.653673537956" lon="17.85574866974">
        <ele>100</ele>
        <time>2018-01-21T12:15:20Z</time>
      </trkpt>
      <trkpt lat="62.653658366717" lon="17.855771217051">
        <ele>100.2</ele>
        <time>2018-01-21T12:15:21Z</time>
      </trkpt>
      <trkpt lat="62.653639088347" lon="17.855779012218">
        <ele>100.4</ele>
        <time>2018-01-21T12:15:22Z</time>
      </trkpt>
      <trkpt lat="62.653622408366" lon="17.855779934227">
        <ele>100.6</ele>
        <time>2018-01-21T12:15:23Z</time>
      </trkpt>
      <trkpt lat="62.653602124168" lon="17.855799296416">
        <ele>100.8</ele>
        <time>2018-01-21T12:15:24Z</time>
      </trkpt>
      <trkpt lat="62.653585863282" lon="17.855806588669">
        <ele>101</ele>
        <time>2018-01-21T12:15:25Z</time>
      </trkpt>
      <trkpt lat="62.653567255464" lon="17.855813797103">
        <ele>101.2</ele>
        <time>2018-01-21T12:15:26Z</time>
      </trkpt>
      <trkpt lat="62.653551748949" lon="17.855821173175">
        <ele>101.4</ele>
        <time>2018-01-21T12:15:27Z</time>
      </trkpt>
      <trkpt lat="62.653538589366" lon="17.855824693573">
        <ele>101.6</ele>
        <time>2018-01-21T12:15:28Z</time>
      </trkpt>
      <trkpt lat="62.65351897572" lon="17.855841038278">
        <ele>101.8</ele>
        <time>2018-01-21T12:15:29Z</time>
      </trkpt>
      <trkpt lat="62.653493746201" lon="17.85584506159">
        <ele>102</ele>
        <time>2018-01-21T12:15:30Z</time>
      </trkpt>
      <trkpt lat="62.653474886926" lon="17.855849839273">
        <ele>102.2</ele>
        <time>2018-01-21T12:15:31Z</time>
      </trkpt>
      <trkpt lat="62.653453010167" lon="17.855839445717">
        <ele>102.4</ele>
        <time>2018-01-21T12:15:32Z</time>
      </trkpt>
      <trkpt lat="62.653431468684" lon="17.855837014966">
        <ele>102.6</ele>
        <time>2018-01-21T12:15:33Z</time>
      </trkpt>
      <trkpt lat="62.653410346296" lon="17.855837853156">
        <ele>102.8</ele>
        <time>2018-01-21T12:15:34Z</time>
      </trkpt>
      <trkpt lat="62.653389391546" lon="17.855826705229">
        <ele>102.8</ele>
        <time>2018-01-21T12:15:35Z</time>
      </trkpt>
      <trkpt lat="62.65336474876" lon="17.855813797103">
        <ele>103</ele>
        <time>2018-01-21T12:15:36Z</time>
      </trkpt>
      <trkpt lat="62.653344129286" lon="17.855800050787">
        <ele>103.2</ele>
        <time>2018-01-21T12:15:37Z</time>
      </trkpt>
      <trkpt lat="62.653321246699" lon="17.855775910915">
        <ele>103.6</ele>
        <time>2018-01-21T12:15:38Z</time>
      </trkpt>
      <trkpt lat="62.65329936994" lon="17.855746741903">
        <ele>103.6</ele>
        <time>2018-01-21T12:15:39Z</time>
      </trkpt>
      <trkpt lat="62.653283360511" lon="17.855740036383">
        <ele>104</ele>
        <time>2018-01-21T12:15:40Z</time>
      </trkpt>
      <trkpt lat="62.653266429073" lon="17.855728972275">
        <ele>104</ele>
        <time>2018-01-21T12:15:41Z</time>
      </trkpt>
      <trkpt lat="62.653243630305" lon="17.855706424964">
        <ele>104.4</ele>
        <time>2018-01-21T12:15:42Z</time>
      </trkpt>
      <trkpt lat="62.653222507917" lon="17.855685973128">
        <ele>104.4</ele>
        <time>2018-01-21T12:15:43Z</time>
      </trkpt>
      <trkpt lat="62.653202642814" lon="17.855662671446">
        <ele>104.6</ele>
        <time>2018-01-21T12:15:44Z</time>
      </trkpt>
      <trkpt lat="62.653189734688" lon="17.855647332569">
        <ele>104.8</ele>
        <time>2018-01-21T12:15:45Z</time>
      </trkpt>
      <trkpt lat="62.653169953404" lon="17.855620175213">
        <ele>105</ele>
        <time>2018-01-21T12:15:46Z</time>
      </trkpt>
      <trkpt lat="62.653153189604" lon="17.85560533925">
        <ele>105.4</ele>
        <time>2018-01-21T12:15:47Z</time>
      </trkpt>
      <trkpt lat="62.653141874039" lon="17.855598130816">
        <ele>105.6</ele>
        <time>2018-01-21T12:15:48Z</time>
      </trkpt>
      <trkpt lat="62.653128965913" lon="17.85559695735">
        <ele>105.8</ele>
        <time>2018-01-21T12:15:49Z</time>
      </trkpt>
      <trkpt lat="62.653117566529" lon="17.855583630129">
        <ele>106</ele>
        <time>2018-01-21T12:15:50Z</time>
      </trkpt>
      <trkpt lat="62.653105412774" lon="17.855574829134">
        <ele>106.4</ele>
        <time>2018-01-21T12:15:51Z</time>
      </trkpt>
      <trkpt lat="62.653095773589" lon="17.855567033967">
        <ele>106.8</ele>
        <time>2018-01-21T12:15:52Z</time>
      </trkpt>
      <trkpt lat="62.653077836323" lon="17.855554293479">
        <ele>107</ele>
        <time>2018-01-21T12:15:53Z</time>
      </trkpt>
      <trkpt lat="62.653071968993" lon="17.855542642638">
        <ele>107.2</ele>
        <time>2018-01-21T12:15:54Z</time>
      </trkpt>
      <trkpt lat="62.653054031727" lon="17.855525459743">
        <ele>107.4</ele>
        <time>2018-01-21T12:15:55Z</time>
      </trkpt>
      <trkpt lat="62.653036681194" lon="17.855512048703">
        <ele>107.6</ele>
        <time>2018-01-21T12:15:56Z</time>
      </trkpt>
      <trkpt lat="62.653022096688" lon="17.855504253536">
        <ele>107.8</ele>
        <time>2018-01-21T12:15:57Z</time>
      </trkpt>
      <trkpt lat="62.653008937105" lon="17.855486735365">
        <ele>108</ele>
        <time>2018-01-21T12:15:58Z</time>
      </trkpt>
      <trkpt lat="62.652996028979" lon="17.855470474479">
        <ele>108.2</ele>
        <time>2018-01-21T12:15:59Z</time>
      </trkpt>
      <trkpt lat="62.652985383966" lon="17.855458404543">
        <ele>108.6</ele>
        <time>2018-01-21T12:16:00Z</time>
      </trkpt>
      <trkpt lat="62.652967949614" lon="17.855447340435">
        <ele>108.8</ele>
        <time>2018-01-21T12:16:01Z</time>
      </trkpt>
      <trkpt lat="62.652952526918" lon="17.855434935223">
        <ele>109.2</ele>
        <time>2018-01-21T12:16:02Z</time>
      </trkpt>
      <trkpt lat="62.652934170557" lon="17.855412220274">
        <ele>109.4</ele>
        <time>2018-01-21T12:16:03Z</time>
      </trkpt>
      <trkpt lat="62.652922100621" lon="17.855405347116">
        <ele>109.8</ele>
        <time>2018-01-21T12:16:04Z</time>
      </trkpt>
      <trkpt lat="62.652899804767" lon="17.855399395967">
        <ele>110</ele>
        <time>2018-01-21T12:16:05Z</time>
      </trkpt>
      <trkpt lat="62.652879688207" lon="17.855398641596">
        <ele>110.4</ele>
        <time>2018-01-21T12:16:06Z</time>
      </trkpt>
      <trkpt lat="62.652858901095" lon="17.855392690447">
        <ele>110.6</ele>
        <time>2018-01-21T12:16:07Z</time>
      </trkpt>
      <trkpt lat="62.652840712372" lon="17.85539076261">
        <ele>110.8</ele>
        <time>2018-01-21T12:16:08Z</time>
      </trkpt>
      <trkpt lat="62.652828139522" lon="17.855392774266">
        <ele>110.8</ele>
        <time>2018-01-21T12:16:09Z</time>
      </trkpt>
      <trkpt lat="62.652812465369" lon="17.855383889452">
        <ele>111</ele>
        <time>2018-01-21T12:16:10Z</time>
      </trkpt>
      <trkpt lat="62.652788996049" lon="17.855385230556">
        <ele>111</ele>
        <time>2018-01-21T12:16:11Z</time>
      </trkpt>
      <trkpt lat="62.652769382403" lon="17.855380033778">
        <ele>111.2</ele>
        <time>2018-01-21T12:16:12Z</time>
      </trkpt>
      <trkpt lat="62.652744152884" lon="17.85537232243">
        <ele>111.4</ele>
        <time>2018-01-21T12:16:13Z</time>
      </trkpt>
      <trkpt lat="62.65273107712" lon="17.855370310774">
        <ele>111.6</ele>
        <time>2018-01-21T12:16:14Z</time>
      </trkpt>
      <trkpt lat="62.652716324976" lon="17.855376764837">
        <ele>111.6</ele>
        <time>2018-01-21T12:16:15Z</time>
      </trkpt>
      <trkpt lat="62.65269000581" lon="17.855382296891">
        <ele>111.8</ele>
        <time>2018-01-21T12:16:16Z</time>
      </trkpt>
      <trkpt lat="62.652668883422" lon="17.855385146737">
        <ele>112</ele>
        <time>2018-01-21T12:16:17Z</time>
      </trkpt>
      <trkpt lat="62.652643821541" lon="17.855385230556">
        <ele>112.2</ele>
        <time>2018-01-21T12:16:18Z</time>
      </trkpt>
      <trkpt lat="62.652620687497" lon="17.85537818976">
        <ele>112.2</ele>
        <time>2018-01-21T12:16:19Z</time>
      </trkpt>
      <trkpt lat="62.652598475462" lon="17.855383805633">
        <ele>112.2</ele>
        <time>2018-01-21T12:16:20Z</time>
      </trkpt>
      <trkpt lat="62.652578610359" lon="17.855383637995">
        <ele>112.6</ele>
        <time>2018-01-21T12:16:21Z</time>
      </trkpt>
      <trkpt lat="62.652561008369" lon="17.855390678791">
        <ele>112.8</ele>
        <time>2018-01-21T12:16:22Z</time>
      </trkpt>
      <trkpt lat="62.652537119954" lon="17.855391852257">
        <ele>112.8</ele>
        <time>2018-01-21T12:16:23Z</time>
      </trkpt>
      <trkpt lat="62.652516332842" lon="17.85538657166">
        <ele>113</ele>
        <time>2018-01-21T12:16:24Z</time>
      </trkpt>
      <trkpt lat="62.652500071956" lon="17.855398893053">
        <ele>113.2</ele>
        <time>2018-01-21T12:16:25Z</time>
      </trkpt>
      <trkpt lat="62.652470064754" lon="17.855411130627">
        <ele>113</ele>
        <time>2018-01-21T12:16:26Z</time>
      </trkpt>
      <trkpt lat="62.652447182167" lon="17.855431750101">
        <ele>113</ele>
        <time>2018-01-21T12:16:27Z</time>
      </trkpt>
      <trkpt lat="62.652427987616" lon="17.855462176398">
        <ele>113.2</ele>
        <time>2018-01-21T12:16:28Z</time>
      </trkpt>
      <trkpt lat="62.652418348431" lon="17.855509115038">
        <ele>113</ele>
        <time>2018-01-21T12:16:29Z</time>
      </trkpt>
      <trkpt lat="62.652405356486" lon="17.855544821932">
        <ele>113.2</ele>
        <time>2018-01-21T12:16:30Z</time>
      </trkpt>
      <trkpt lat="62.652394879111" lon="17.855591341477">
        <ele>113.2</ele>
        <time>2018-01-21T12:16:31Z</time>
      </trkpt>
      <trkpt lat="62.652379372596" lon="17.855624366163">
        <ele>113.4</ele>
        <time>2018-01-21T12:16:32Z</time>
      </trkpt>
      <trkpt lat="62.65235389162" lon="17.855688068603">
        <ele>113.4</ele>
        <time>2018-01-21T12:16:33Z</time>
      </trkpt>
      <trkpt lat="62.652343749521" lon="17.855716650882">
        <ele>113.4</ele>
        <time>2018-01-21T12:16:34Z</time>
      </trkpt>
      <trkpt lat="62.652324303513" lon="17.855775910915">
        <ele>113.4</ele>
        <time>2018-01-21T12:16:35Z</time>
      </trkpt>
      <trkpt lat="62.652314580509" lon="17.855831482912">
        <ele>113.4</ele>
        <time>2018-01-21T12:16:36Z</time>
      </trkpt>
      <trkpt lat="62.65230443841" lon="17.855877667181">
        <ele>113.4</ele>
        <time>2018-01-21T12:16:37Z</time>
      </trkpt>
      <trkpt lat="62.65228432185" lon="17.855940279974">
        <ele>113.6</ele>
        <time>2018-01-21T12:16:38Z</time>
      </trkpt>
      <trkpt lat="62.652272335733" lon="17.855976741239">
        <ele>113.6</ele>
        <time>2018-01-21T12:16:39Z</time>
      </trkpt>
      <trkpt lat="62.652255069019" lon="17.856019237472">
        <ele>113.6</ele>
        <time>2018-01-21T12:16:40Z</time>
      </trkpt>
      <trkpt lat="62.65223403045" lon="17.856075647659">
        <ele>113.6</ele>
        <time>2018-01-21T12:16:41Z</time>
      </trkpt>
      <trkpt lat="62.652220787048" lon="17.856108839983">
        <ele>113.8</ele>
        <time>2018-01-21T12:16:42Z</time>
      </trkpt>
      <trkpt lat="62.652208214198" lon="17.856151420035">
        <ele>113.6</ele>
        <time>2018-01-21T12:16:43Z</time>
      </trkpt>
      <trkpt lat="62.652194467882" lon="17.85617866121">
        <ele>113.6</ele>
        <time>2018-01-21T12:16:44Z</time>
      </trkpt>
      <trkpt lat="62.652182565584" lon="17.856216128303">
        <ele>113.8</ele>
        <time>2018-01-21T12:16:45Z</time>
      </trkpt>
      <trkpt lat="62.652156497875" lon="17.856259462726">
        <ele>114</ele>
        <time>2018-01-21T12:16:46Z</time>
      </trkpt>
      <trkpt lat="62.652129424338" lon="17.85629097867">
        <ele>114.2</ele>
        <time>2018-01-21T12:16:47Z</time>
      </trkpt>
      <trkpt lat="62.652112157624" lon="17.856315537637">
        <ele>114.4</ele>
        <time>2018-01-21T12:16:48Z</time>
      </trkpt>
      <trkpt lat="62.652068152649" lon="17.856350071065">
        <ele>114.6</ele>
        <time>2018-01-21T12:16:49Z</time>
      </trkpt>
      <trkpt lat="62.652045270062" lon="17.856383933941">
        <ele>114.6</ele>
        <time>2018-01-21T12:16:50Z</time>
      </trkpt>
      <trkpt lat="62.651998163784" lon="17.856429615296">
        <ele>114.6</ele>
        <time>2018-01-21T12:16:51Z</time>
      </trkpt>
      <trkpt lat="62.651955248456" lon="17.856436991368">
        <ele>114.6</ele>
        <time>2018-01-21T12:16:52Z</time>
      </trkpt>
      <trkpt lat="62.651922726684" lon="17.856377396059">
        <ele>114</ele>
        <time>2018-01-21T12:16:53Z</time>
      </trkpt>
      <trkpt lat="62.651900849925" lon="17.856410085469">
        <ele>113.8</ele>
        <time>2018-01-21T12:16:54Z</time>
      </trkpt>
      <trkpt lat="62.651881236279" lon="17.856444032164">
        <ele>113.6</ele>
        <time>2018-01-21T12:16:55Z</time>
      </trkpt>
      <trkpt lat="62.651843769186" lon="17.856527180612">
        <ele>113.4</ele>
        <time>2018-01-21T12:16:56Z</time>
      </trkpt>
      <trkpt lat="62.651820970418" lon="17.85663463657">
        <ele>113</ele>
        <time>2018-01-21T12:16:57Z</time>
      </trkpt>
      <trkpt lat="62.651798758383" lon="17.856730357868">
        <ele>112.2</ele>
        <time>2018-01-21T12:16:58Z</time>
      </trkpt>
      <trkpt lat="62.651777803633" lon="17.856828845193">
        <ele>111.6</ele>
        <time>2018-01-21T12:16:59Z</time>
      </trkpt>
      <trkpt lat="62.65177302595" lon="17.856887518493">
        <ele>111.4</ele>
        <time>2018-01-21T12:17:00Z</time>
      </trkpt>
      <trkpt lat="62.651744946585" lon="17.856987179284">
        <ele>110.8</ele>
        <time>2018-01-21T12:17:01Z</time>
      </trkpt>
      <trkpt lat="62.651718962695" lon="17.857075440691">
        <ele>110.4</ele>
        <time>2018-01-21T12:17:02Z</time>
      </trkpt>
      <trkpt lat="62.651703539999" lon="17.857129587765">
        <ele>110.6</ele>
        <time>2018-01-21T12:17:03Z</time>
      </trkpt>
      <trkpt lat="62.651667581648" lon="17.857202510295">
        <ele>111</ele>
        <time>2018-01-21T12:17:04Z</time>
      </trkpt>
      <trkpt lat="62.651643022681" lon="17.85728171925">
        <ele>111.2</ele>
        <time>2018-01-21T12:17:05Z</time>
      </trkpt>
      <trkpt lat="62.651626594157" lon="17.85734039255">
        <ele>111.2</ele>
        <time>2018-01-21T12:17:06Z</time>
      </trkpt>
      <trkpt lat="62.65160035881" lon="17.857413482718">
        <ele>111.2</ele>
        <time>2018-01-21T12:17:07Z</time>
      </trkpt>
      <trkpt lat="62.651577308585" lon="17.857472072199">
        <ele>111.2</ele>
        <time>2018-01-21T12:17:08Z</time>
      </trkpt>
      <trkpt lat="62.651546379374" lon="17.857543653625">
        <ele>111</ele>
        <time>2018-01-21T12:17:09Z</time>
      </trkpt>
      <trkpt lat="62.651520814579" lon="17.85762034801">
        <ele>110.8</ele>
        <time>2018-01-21T12:17:10Z</time>
      </trkpt>
      <trkpt lat="62.651500195105" lon="17.857675417093">
        <ele>110.6</ele>
        <time>2018-01-21T12:17:11Z</time>
      </trkpt>
      <trkpt lat="62.651467673333" lon="17.857753452582">
        <ele>110.2</ele>
        <time>2018-01-21T12:17:12Z</time>
      </trkpt>
      <trkpt lat="62.651444539289" lon="17.857820256325">
        <ele>110.2</ele>
        <time>2018-01-21T12:17:13Z</time>
      </trkpt>
      <trkpt lat="62.651422913987" lon="17.857867027327">
        <ele>110</ele>
        <time>2018-01-21T12:17:14Z</time>
      </trkpt>
      <trkpt lat="62.651390224577" lon="17.857928215197">
        <ele>110</ele>
        <time>2018-01-21T12:17:15Z</time>
      </trkpt>
      <trkpt lat="62.651369353646" lon="17.857987726687">
        <ele>109.8</ele>
        <time>2018-01-21T12:17:16Z</time>
      </trkpt>
      <trkpt lat="62.651329036707" lon="17.858059391932">
        <ele>109.8</ele>
        <time>2018-01-21T12:17:17Z</time>
      </trkpt>
      <trkpt lat="62.651297604582" lon="17.858129632254">
        <ele>109.6</ele>
        <time>2018-01-21T12:17:18Z</time>
      </trkpt>
      <trkpt lat="62.651273799986" lon="17.858188389373">
        <ele>109.4</ele>
        <time>2018-01-21T12:17:19Z</time>
      </trkpt>
      <trkpt lat="62.651240691481" lon="17.858246224483">
        <ele>109.4</ele>
        <time>2018-01-21T12:17:20Z</time>
      </trkpt>
      <trkpt lat="62.651204314035" lon="17.858306322706">
        <ele>109.2</ele>
        <time>2018-01-21T12:17:21Z</time>
      </trkpt>
      <trkpt lat="62.651177659593" lon="17.858357452296">
        <ele>109</ele>
        <time>2018-01-21T12:17:22Z</time>
      </trkpt>
      <trkpt lat="62.651157123938" lon="17.858405145307">
        <ele>108.8</ele>
        <time>2018-01-21T12:17:23Z</time>
      </trkpt>
      <trkpt lat="62.65114270707" lon="17.858427357342">
        <ele>108.6</ele>
        <time>2018-01-21T12:17:24Z</time>
      </trkpt>
      <trkpt lat="62.651099037371" lon="17.858456777811">
        <ele>108.4</ele>
        <time>2018-01-21T12:17:25Z</time>
      </trkpt>
      <trkpt lat="62.651061989373" lon="17.858496172741">
        <ele>108.6</ele>
        <time>2018-01-21T12:17:26Z</time>
      </trkpt>
      <trkpt lat="62.65101865495" lon="17.858534394205">
        <ele>108.6</ele>
        <time>2018-01-21T12:17:27Z</time>
      </trkpt>
      <trkpt lat="62.650976410174" lon="17.85855828262">
        <ele>108.6</ele>
        <time>2018-01-21T12:17:28Z</time>
      </trkpt>
      <trkpt lat="62.650943972221" lon="17.858570604013">
        <ele>108.4</ele>
        <time>2018-01-21T12:17:29Z</time>
      </trkpt>
      <trkpt lat="62.650907343318" lon="17.858581835759">
        <ele>108</ele>
        <time>2018-01-21T12:17:30Z</time>
      </trkpt>
      <trkpt lat="62.650883035808" lon="17.858589798564">
        <ele>107.8</ele>
        <time>2018-01-21T12:17:31Z</time>
      </trkpt>
      <trkpt lat="62.650853112425" lon="17.858582757768">
        <ele>107.4</ele>
        <time>2018-01-21T12:17:32Z</time>
      </trkpt>
      <trkpt lat="62.650816567341" lon="17.858588960374">
        <ele>107.2</ele>
        <time>2018-01-21T12:17:33Z</time>
      </trkpt>
      <trkpt lat="62.650791840736" lon="17.858584098872">
        <ele>107.2</ele>
        <time>2018-01-21T12:17:34Z</time>
      </trkpt>
      <trkpt lat="62.650779267886" lon="17.858552080014">
        <ele>107</ele>
        <time>2018-01-21T12:17:35Z</time>
      </trkpt>
      <trkpt lat="62.650756217661" lon="17.858491897972">
        <ele>107</ele>
        <time>2018-01-21T12:17:36Z</time>
      </trkpt>
      <trkpt lat="62.65072696483" lon="17.858450491386">
        <ele>107</ele>
        <time>2018-01-21T12:17:37Z</time>
      </trkpt>
      <trkpt lat="62.65069846637" lon="17.858411934646">
        <ele>107</ele>
        <time>2018-01-21T12:17:38Z</time>
      </trkpt>
      <trkpt lat="62.650672314842" lon="17.858344627989">
        <ele>106.8</ele>
        <time>2018-01-21T12:17:39Z</time>
      </trkpt>
      <trkpt lat="62.650640547441" lon="17.858256450401">
        <ele>106.8</ele>
        <time>2018-01-21T12:17:40Z</time>
      </trkpt>
      <trkpt lat="62.650616156112" lon="17.858151592832">
        <ele>106.6</ele>
        <time>2018-01-21T12:17:41Z</time>
      </trkpt>
      <trkpt lat="62.650600146683" lon="17.858051680584">
        <ele>106.2</ele>
        <time>2018-01-21T12:17:42Z</time>
      </trkpt>
      <trkpt lat="62.650583047607" lon="17.857934333984">
        <ele>106.2</ele>
        <time>2018-01-21T12:17:43Z</time>
      </trkpt>
      <trkpt lat="62.650566535264" lon="17.857808773122">
        <ele>105.6</ele>
        <time>2018-01-21T12:17:44Z</time>
      </trkpt>
      <trkpt lat="62.650546167247" lon="17.857679356586">
        <ele>104.6</ele>
        <time>2018-01-21T12:17:45Z</time>
      </trkpt>
      <trkpt lat="62.65052915199" lon="17.85756167471">
        <ele>104</ele>
        <time>2018-01-21T12:17:46Z</time>
      </trkpt>
      <trkpt lat="62.65050400629" lon="17.857441226807">
        <ele>103.4</ele>
        <time>2018-01-21T12:17:47Z</time>
      </trkpt>
      <trkpt lat="62.650468467034" lon="17.857318934886">
        <ele>102.6</ele>
        <time>2018-01-21T12:17:48Z</time>
      </trkpt>
      <trkpt lat="62.650437873099" lon="17.857205527779">
        <ele>102</ele>
        <time>2018-01-21T12:17:49Z</time>
      </trkpt>
      <trkpt lat="62.650393532848" lon="17.857098742373">
        <ele>101</ele>
        <time>2018-01-21T12:17:50Z</time>
      </trkpt>
      <trkpt lat="62.650357993592" lon="17.856998913944">
        <ele>100.6</ele>
        <time>2018-01-21T12:17:51Z</time>
      </trkpt>
      <trkpt lat="62.650321699965" lon="17.856907467415">
        <ele>99.8</ele>
        <time>2018-01-21T12:17:52Z</time>
      </trkpt>
      <trkpt lat="62.650286998899" lon="17.856821636759">
        <ele>99.6</ele>
        <time>2018-01-21T12:17:53Z</time>
      </trkpt>
      <trkpt lat="62.650245508494" lon="17.85676371783">
        <ele>99</ele>
        <time>2018-01-21T12:17:54Z</time>
      </trkpt>
      <trkpt lat="62.650184488262" lon="17.856702110865">
        <ele>98.6</ele>
        <time>2018-01-21T12:17:55Z</time>
      </trkpt>
      <trkpt lat="62.650150709205" lon="17.856652490017">
        <ele>98.2</ele>
        <time>2018-01-21T12:17:56Z</time>
      </trkpt>
      <trkpt lat="62.650120702003" lon="17.856602869169">
        <ele>97.8</ele>
        <time>2018-01-21T12:17:57Z</time>
      </trkpt>
      <trkpt lat="62.650082815815" lon="17.856568922474">
        <ele>97.4</ele>
        <time>2018-01-21T12:17:58Z</time>
      </trkpt>
      <trkpt lat="62.650046773645" lon="17.856541681299">
        <ele>97.4</ele>
        <time>2018-01-21T12:17:59Z</time>
      </trkpt>
      <trkpt lat="62.650008971276" lon="17.856536065426">
        <ele>97</ele>
        <time>2018-01-21T12:18:00Z</time>
      </trkpt>
      <trkpt lat="62.649979802264" lon="17.856518044341">
        <ele>96.8</ele>
        <time>2018-01-21T12:18:01Z</time>
      </trkpt>
      <trkpt lat="62.649956332944" lon="17.856497424867">
        <ele>96.8</ele>
        <time>2018-01-21T12:18:02Z</time>
      </trkpt>
      <trkpt lat="62.649931271063" lon="17.85648627694">
        <ele>97.2</ele>
        <time>2018-01-21T12:18:03Z</time>
      </trkpt>
      <trkpt lat="62.649910316313" lon="17.856481415438">
        <ele>97.2</ele>
        <time>2018-01-21T12:18:04Z</time>
      </trkpt>
      <trkpt lat="62.649882404586" lon="17.856479487601">
        <ele>97.4</ele>
        <time>2018-01-21T12:18:05Z</time>
      </trkpt>
      <trkpt lat="62.649855917782" lon="17.856476134841">
        <ele>97.6</ele>
        <time>2018-01-21T12:18:06Z</time>
      </trkpt>
      <trkpt lat="62.649836974688" lon="17.856472279167">
        <ele>97.8</ele>
        <time>2018-01-21T12:18:07Z</time>
      </trkpt>
      <trkpt lat="62.649816606671" lon="17.856474961375">
        <ele>98</ele>
        <time>2018-01-21T12:18:08Z</time>
      </trkpt>
      <trkpt lat="62.64978735384" lon="17.856475212832">
        <ele>98.2</ele>
        <time>2018-01-21T12:18:09Z</time>
      </trkpt>
      <trkpt lat="62.649776373551" lon="17.856479906696">
        <ele>98.4</ele>
        <time>2018-01-21T12:18:10Z</time>
      </trkpt>
      <trkpt lat="62.649736056612" lon="17.856479068506">
        <ele>98.6</ele>
        <time>2018-01-21T12:18:11Z</time>
      </trkpt>
      <trkpt lat="62.649705881772" lon="17.856477643583">
        <ele>98.6</ele>
        <time>2018-01-21T12:18:12Z</time>
      </trkpt>
      <trkpt lat="62.649683837375" lon="17.856475799565">
        <ele>98.8</ele>
        <time>2018-01-21T12:18:13Z</time>
      </trkpt>
      <trkpt lat="62.649663888453" lon="17.856474374642">
        <ele>99.2</ele>
        <time>2018-01-21T12:18:14Z</time>
      </trkpt>
      <trkpt lat="62.649651315603" lon="17.856469932235">
        <ele>99.4</ele>
        <time>2018-01-21T12:18:15Z</time>
      </trkpt>
      <trkpt lat="62.649638491296" lon="17.856470267511">
        <ele>99.4</ele>
        <time>2018-01-21T12:18:16Z</time>
      </trkpt>
      <trkpt lat="62.649616949813" lon="17.856469764597">
        <ele>99.8</ele>
        <time>2018-01-21T12:18:17Z</time>
      </trkpt>
      <trkpt lat="62.649597755262" lon="17.856469177864">
        <ele>100.2</ele>
        <time>2018-01-21T12:18:18Z</time>
      </trkpt>
      <trkpt lat="62.649583170756" lon="17.856469010226">
        <ele>100.2</ele>
        <time>2018-01-21T12:18:19Z</time>
      </trkpt>
      <trkpt lat="62.649563808567" lon="17.856470602787">
        <ele>100.6</ele>
        <time>2018-01-21T12:18:20Z</time>
      </trkpt>
      <trkpt lat="62.649545787482" lon="17.856463561991">
        <ele>100.8</ele>
        <time>2018-01-21T12:18:21Z</time>
      </trkpt>
      <trkpt lat="62.649525922379" lon="17.856475296651">
        <ele>101</ele>
        <time>2018-01-21T12:18:22Z</time>
      </trkpt>
      <trkpt lat="62.649501447231" lon="17.856471776253">
        <ele>101.2</ele>
        <time>2018-01-21T12:18:23Z</time>
      </trkpt>
      <trkpt lat="62.649486192173" lon="17.856471692434">
        <ele>101.4</ele>
        <time>2018-01-21T12:18:24Z</time>
      </trkpt>
      <trkpt lat="62.649465656518" lon="17.856474374642">
        <ele>101.4</ele>
        <time>2018-01-21T12:18:25Z</time>
      </trkpt>
      <trkpt lat="62.649445037044" lon="17.856472195348">
        <ele>101.6</ele>
        <time>2018-01-21T12:18:26Z</time>
      </trkpt>
      <trkpt lat="62.649437744791" lon="17.856463813448">
        <ele>101.6</ele>
        <time>2018-01-21T12:18:27Z</time>
      </trkpt>
      <trkpt lat="62.649414610747" lon="17.856455012453">
        <ele>101.8</ele>
        <time>2018-01-21T12:18:28Z</time>
      </trkpt>
      <trkpt lat="62.649395583834" lon="17.856437410463">
        <ele>102</ele>
        <time>2018-01-21T12:18:29Z</time>
      </trkpt>
      <trkpt lat="62.64938166988" lon="17.856429028563">
        <ele>102.2</ele>
        <time>2018-01-21T12:18:30Z</time>
      </trkpt>
      <trkpt lat="62.649351997954" lon="17.856388460167">
        <ele>102.4</ele>
        <time>2018-01-21T12:18:31Z</time>
      </trkpt>
      <trkpt lat="62.649328780091" lon="17.856357111861">
        <ele>102.4</ele>
        <time>2018-01-21T12:18:32Z</time>
      </trkpt>
      <trkpt lat="62.649307741522" lon="17.856329116315">
        <ele>102.6</ele>
        <time>2018-01-21T12:18:33Z</time>
      </trkpt>
      <trkpt lat="62.649287038229" lon="17.856302629511">
        <ele>102.6</ele>
        <time>2018-01-21T12:18:34Z</time>
      </trkpt>
      <trkpt lat="62.649266251117" lon="17.856255523233">
        <ele>102.6</ele>
        <time>2018-01-21T12:18:35Z</time>
      </trkpt>
      <trkpt lat="62.649250576964" lon="17.856226940954">
        <ele>102.6</ele>
        <time>2018-01-21T12:18:36Z</time>
      </trkpt>
      <trkpt lat="62.649217971373" lon="17.856175392269">
        <ele>102.8</ele>
        <time>2018-01-21T12:18:37Z</time>
      </trkpt>
      <trkpt lat="62.649207242541" lon="17.856147899637">
        <ele>102.8</ele>
        <time>2018-01-21T12:18:38Z</time>
      </trkpt>
      <trkpt lat="62.649181677746" lon="17.856099536074">
        <ele>103</ele>
        <time>2018-01-21T12:18:39Z</time>
      </trkpt>
      <trkpt lat="62.649154101295" lon="17.856060811696">
        <ele>103</ele>
        <time>2018-01-21T12:18:40Z</time>
      </trkpt>
      <trkpt lat="62.649141612264" lon="17.856032983788">
        <ele>102.8</ele>
        <time>2018-01-21T12:18:41Z</time>
      </trkpt>
      <trkpt lat="62.649114538727" lon="17.855976908877">
        <ele>102.8</ele>
        <time>2018-01-21T12:18:42Z</time>
      </trkpt>
      <trkpt lat="62.649086710819" lon="17.855937430128">
        <ele>103</ele>
        <time>2018-01-21T12:18:43Z</time>
      </trkpt>
      <trkpt lat="62.649074976159" lon="17.855917900301">
        <ele>102.8</ele>
        <time>2018-01-21T12:18:44Z</time>
      </trkpt>
      <trkpt lat="62.649042789663" lon="17.855871799851">
        <ele>102.8</ele>
        <time>2018-01-21T12:18:45Z</time>
      </trkpt>
      <trkpt lat="62.649013201556" lon="17.855864256141">
        <ele>102.8</ele>
        <time>2018-01-21T12:18:46Z</time>
      </trkpt>
      <trkpt lat="62.648995851023" lon="17.855838942803">
        <ele>103</ele>
        <time>2018-01-21T12:18:47Z</time>
      </trkpt>
      <trkpt lat="62.648977243205" lon="17.855815976397">
        <ele>103</ele>
        <time>2018-01-21T12:18:48Z</time>
      </trkpt>
      <trkpt lat="62.648941871587" lon="17.855765517359">
        <ele>103.2</ele>
        <time>2018-01-21T12:18:49Z</time>
      </trkpt>
      <trkpt lat="62.648920413923" lon="17.855745987532">
        <ele>103.2</ele>
        <time>2018-01-21T12:18:50Z</time>
      </trkpt>
      <trkpt lat="62.648896274051" lon="17.855736013071">
        <ele>103.4</ele>
        <time>2018-01-21T12:18:51Z</time>
      </trkpt>
      <trkpt lat="62.648880348441" lon="17.855716399425">
        <ele>103.4</ele>
        <time>2018-01-21T12:18:52Z</time>
      </trkpt>
      <trkpt lat="62.648856208569" lon="17.85568412911">
        <ele>103.8</ele>
        <time>2018-01-21T12:18:53Z</time>
      </trkpt>
      <trkpt lat="62.648843048986" lon="17.855655379193">
        <ele>103.8</ele>
        <time>2018-01-21T12:18:54Z</time>
      </trkpt>
      <trkpt lat="62.648813628517" lon="17.855608859648">
        <ele>104.2</ele>
        <time>2018-01-21T12:18:55Z</time>
      </trkpt>
      <trkpt lat="62.648798373459" lon="17.855576421695">
        <ele>104.4</ele>
        <time>2018-01-21T12:18:56Z</time>
      </trkpt>
      <trkpt lat="62.648780939107" lon="17.85554750414">
        <ele>104.6</ele>
        <time>2018-01-21T12:18:57Z</time>
      </trkpt>
      <trkpt lat="62.64875721833" lon="17.85551816749">
        <ele>104.6</ele>
        <time>2018-01-21T12:18:58Z</time>
      </trkpt>
      <trkpt lat="62.648748920249" lon="17.855469636289">
        <ele>104.8</ele>
        <time>2018-01-21T12:18:59Z</time>
      </trkpt>
      <trkpt lat="62.648731318259" lon="17.855445747874">
        <ele>104.8</ele>
        <time>2018-01-21T12:19:00Z</time>
      </trkpt>
      <trkpt lat="62.648713548631" lon="17.855412052636">
        <ele>105</ele>
        <time>2018-01-21T12:19:01Z</time>
      </trkpt>
      <trkpt lat="62.648684044343" lon="17.855374920819">
        <ele>105.2</ele>
        <time>2018-01-21T12:19:02Z</time>
      </trkpt>
      <trkpt lat="62.648671052398" lon="17.855357486467">
        <ele>105.4</ele>
        <time>2018-01-21T12:19:03Z</time>
      </trkpt>
      <trkpt lat="62.648637524798" lon="17.855321611935">
        <ele>105.6</ele>
        <time>2018-01-21T12:19:04Z</time>
      </trkpt>
      <trkpt lat="62.648625538681" lon="17.855310799284">
        <ele>105.6</ele>
        <time>2018-01-21T12:19:05Z</time>
      </trkpt>
      <trkpt lat="62.648590167063" lon="17.855298058796">
        <ele>105.6</ele>
        <time>2018-01-21T12:19:06Z</time>
      </trkpt>
      <trkpt lat="62.648565356639" lon="17.855305015773">
        <ele>105.6</ele>
        <time>2018-01-21T12:19:07Z</time>
      </trkpt>
      <trkpt lat="62.648545072441" lon="17.855309206723">
        <ele>105.6</ele>
        <time>2018-01-21T12:19:08Z</time>
      </trkpt>
      <trkpt lat="62.648520178198" lon="17.855330748206">
        <ele>105.6</ele>
        <time>2018-01-21T12:19:09Z</time>
      </trkpt>
      <trkpt lat="62.64850324676" lon="17.85534214759">
        <ele>105.6</ele>
        <time>2018-01-21T12:19:10Z</time>
      </trkpt>
      <trkpt lat="62.64846385183" lon="17.855382129253">
        <ele>105.6</ele>
        <time>2018-01-21T12:19:11Z</time>
      </trkpt>
      <trkpt lat="62.648451614256" lon="17.855403754555">
        <ele>105.6</ele>
        <time>2018-01-21T12:19:12Z</time>
      </trkpt>
      <trkpt lat="62.648420349769" lon="17.855438287983">
        <ele>105.4</ele>
        <time>2018-01-21T12:19:13Z</time>
      </trkpt>
      <trkpt lat="62.648393946784" lon="17.855459913285">
        <ele>105.4</ele>
        <time>2018-01-21T12:19:14Z</time>
      </trkpt>
      <trkpt lat="62.648377853536" lon="17.855478940198">
        <ele>105.2</ele>
        <time>2018-01-21T12:19:15Z</time>
      </trkpt>
      <trkpt lat="62.648334351475" lon="17.855509953228">
        <ele>105.2</ele>
        <time>2018-01-21T12:19:16Z</time>
      </trkpt>
      <trkpt lat="62.648309541051" lon="17.855509198857">
        <ele>105</ele>
        <time>2018-01-21T12:19:17Z</time>
      </trkpt>
      <trkpt lat="62.64827777365" lon="17.855527303761">
        <ele>105</ele>
        <time>2018-01-21T12:19:18Z</time>
      </trkpt>
      <trkpt lat="62.648260590755" lon="17.855541469172">
        <ele>105</ele>
        <time>2018-01-21T12:19:19Z</time>
      </trkpt>
      <trkpt lat="62.648224883861" lon="17.855542642638">
        <ele>105.2</ele>
        <time>2018-01-21T12:19:20Z</time>
      </trkpt>
      <trkpt lat="62.648193535555" lon="17.855543816104">
        <ele>105</ele>
        <time>2018-01-21T12:19:21Z</time>
      </trkpt>
      <trkpt lat="62.648175933565" lon="17.85555001871">
        <ele>105.2</ele>
        <time>2018-01-21T12:19:22Z</time>
      </trkpt>
      <trkpt lat="62.648146261639" lon="17.855541050077">
        <ele>105</ele>
        <time>2018-01-21T12:19:23Z</time>
      </trkpt>
      <trkpt lat="62.648134610798" lon="17.855555383126">
        <ele>105</ele>
        <time>2018-01-21T12:19:24Z</time>
      </trkpt>
      <trkpt lat="62.648104603596" lon="17.85555504785">
        <ele>105</ele>
        <time>2018-01-21T12:19:25Z</time>
      </trkpt>
      <trkpt lat="62.648070908358" lon="17.855553455289">
        <ele>105.2</ele>
        <time>2018-01-21T12:19:26Z</time>
      </trkpt>
      <trkpt lat="62.648051797626" lon="17.855559322619">
        <ele>105.2</ele>
        <time>2018-01-21T12:19:27Z</time>
      </trkpt>
      <trkpt lat="62.648036123473" lon="17.855591592934">
        <ele>105.2</ele>
        <time>2018-01-21T12:19:28Z</time>
      </trkpt>
      <trkpt lat="62.648022712433" lon="17.855625288172">
        <ele>105.2</ele>
        <time>2018-01-21T12:19:29Z</time>
      </trkpt>
      <trkpt lat="62.648002512054" lon="17.85564054323">
        <ele>105.2</ele>
        <time>2018-01-21T12:19:30Z</time>
      </trkpt>
      <trkpt lat="62.647986586444" lon="17.855679267608">
        <ele>105.4</ele>
        <time>2018-01-21T12:19:31Z</time>
      </trkpt>
      <trkpt lat="62.647966888979" lon="17.855699384168">
        <ele>105.4</ele>
        <time>2018-01-21T12:19:32Z</time>
      </trkpt>
      <trkpt lat="62.647951633921" lon="17.855722602031">
        <ele>105.6</ele>
        <time>2018-01-21T12:19:33Z</time>
      </trkpt>
      <trkpt lat="62.647937217053" lon="17.855753112147">
        <ele>105.8</ele>
        <time>2018-01-21T12:19:34Z</time>
      </trkpt>
      <trkpt lat="62.647930260076" lon="17.855765182083">
        <ele>106</ele>
        <time>2018-01-21T12:19:35Z</time>
      </trkpt>
      <trkpt lat="62.647917435769" lon="17.855785466281">
        <ele>106.2</ele>
        <time>2018-01-21T12:19:36Z</time>
      </trkpt>
      <trkpt lat="62.647903689453" lon="17.85581656313">
        <ele>106.4</ele>
        <time>2018-01-21T12:19:37Z</time>
      </trkpt>
      <trkpt lat="62.647891200422" lon="17.855853024395">
        <ele>106.8</ele>
        <time>2018-01-21T12:19:38Z</time>
      </trkpt>
      <trkpt lat="62.647876783554" lon="17.85589367661">
        <ele>107.2</ele>
        <time>2018-01-21T12:19:39Z</time>
      </trkpt>
      <trkpt lat="62.64786370779" lon="17.855924773459">
        <ele>107.4</ele>
        <time>2018-01-21T12:19:40Z</time>
      </trkpt>
      <trkpt lat="62.647842333945" lon="17.855984284949">
        <ele>107.6</ele>
        <time>2018-01-21T12:19:41Z</time>
      </trkpt>
      <trkpt lat="62.647830850742" lon="17.85602359606">
        <ele>107.8</ele>
        <time>2018-01-21T12:19:42Z</time>
      </trkpt>
      <trkpt lat="62.647822804118" lon="17.856052597434">
        <ele>108</ele>
        <time>2018-01-21T12:19:43Z</time>
      </trkpt>
      <trkpt lat="62.647806878508" lon="17.85609735678">
        <ele>108.2</ele>
        <time>2018-01-21T12:19:44Z</time>
      </trkpt>
      <trkpt lat="62.647788438328" lon="17.856144127782">
        <ele>108.2</ele>
        <time>2018-01-21T12:19:45Z</time>
      </trkpt>
      <trkpt lat="62.647781062256" lon="17.856181762513">
        <ele>108.4</ele>
        <time>2018-01-21T12:19:46Z</time>
      </trkpt>
      <trkpt lat="62.647773434727" lon="17.856226018945">
        <ele>108.6</ele>
        <time>2018-01-21T12:19:47Z</time>
      </trkpt>
      <trkpt lat="62.647751474149" lon="17.856290727213">
        <ele>108.8</ele>
        <time>2018-01-21T12:19:48Z</time>
      </trkpt>
      <trkpt lat="62.647742421697" lon="17.856338252586">
        <ele>108.8</ele>
        <time>2018-01-21T12:19:49Z</time>
      </trkpt>
      <trkpt lat="62.647739320394" lon="17.856368008331">
        <ele>109</ele>
        <time>2018-01-21T12:19:50Z</time>
      </trkpt>
      <trkpt lat="62.647737811652" lon="17.856407654718">
        <ele>109.2</ele>
        <time>2018-01-21T12:19:51Z</time>
      </trkpt>
      <trkpt lat="62.647727418096" lon="17.856461550335">
        <ele>109.2</ele>
        <time>2018-01-21T12:19:52Z</time>
      </trkpt>
      <trkpt lat="62.647721131671" lon="17.856513769572">
        <ele>109.6</ele>
        <time>2018-01-21T12:19:53Z</time>
      </trkpt>
      <trkpt lat="62.647714929065" lon="17.856549895561">
        <ele>109.8</ele>
        <time>2018-01-21T12:19:54Z</time>
      </trkpt>
      <trkpt lat="62.647709397011" lon="17.856602114798">
        <ele>110</ele>
        <time>2018-01-21T12:19:55Z</time>
      </trkpt>
      <trkpt lat="62.647703110586" lon="17.856656178053">
        <ele>110.2</ele>
        <time>2018-01-21T12:19:56Z</time>
      </trkpt>
      <trkpt lat="62.647706798622" lon="17.856691717309">
        <ele>110.4</ele>
        <time>2018-01-21T12:19:57Z</time>
      </trkpt>
      <trkpt lat="62.647706630984" lon="17.856735554646">
        <ele>110.6</ele>
        <time>2018-01-21T12:19:58Z</time>
      </trkpt>
      <trkpt lat="62.647708055907" lon="17.856803028941">
        <ele>110.6</ele>
        <time>2018-01-21T12:19:59Z</time>
      </trkpt>
      <trkpt lat="62.647707972088" lon="17.856844100251">
        <ele>110.8</ele>
        <time>2018-01-21T12:20:00Z</time>
      </trkpt>
      <trkpt lat="62.647707301536" lon="17.856915597858">
        <ele>111</ele>
        <time>2018-01-21T12:20:01Z</time>
      </trkpt>
      <trkpt lat="62.647704367871" lon="17.856988017474">
        <ele>111</ele>
        <time>2018-01-21T12:20:02Z</time>
      </trkpt>
      <trkpt lat="62.647702356215" lon="17.857040655806">
        <ele>111</ele>
        <time>2018-01-21T12:20:03Z</time>
      </trkpt>
      <trkpt lat="62.647692214116" lon="17.857113662155">
        <ele>111</ele>
        <time>2018-01-21T12:20:04Z</time>
      </trkpt>
      <trkpt lat="62.647692633211" lon="17.857169653247">
        <ele>111.2</ele>
        <time>2018-01-21T12:20:05Z</time>
      </trkpt>
      <trkpt lat="62.647681233827" lon="17.857246431451">
        <ele>111.2</ele>
        <time>2018-01-21T12:20:06Z</time>
      </trkpt>
      <trkpt lat="62.647673941574" lon="17.857313654289">
        <ele>111.2</ele>
        <time>2018-01-21T12:20:07Z</time>
      </trkpt>
      <trkpt lat="62.647659776163" lon="17.857389091389">
        <ele>111</ele>
        <time>2018-01-21T12:20:08Z</time>
      </trkpt>
      <trkpt lat="62.647640413974" lon="17.857448435241">
        <ele>110.8</ele>
        <time>2018-01-21T12:20:09Z</time>
      </trkpt>
      <trkpt lat="62.647632702626" lon="17.857524123798">
        <ele>110.8</ele>
        <time>2018-01-21T12:20:10Z</time>
      </trkpt>
      <trkpt lat="62.647629266047" lon="17.857599309441">
        <ele>110.6</ele>
        <time>2018-01-21T12:20:11Z</time>
      </trkpt>
      <trkpt lat="62.647628344038" lon="17.857654043248">
        <ele>110.4</ele>
        <time>2018-01-21T12:20:12Z</time>
      </trkpt>
      <trkpt lat="62.647623817812" lon="17.857728223063">
        <ele>110.4</ele>
        <time>2018-01-21T12:20:13Z</time>
      </trkpt>
      <trkpt lat="62.647628260219" lon="17.857782789232">
        <ele>110.2</ele>
        <time>2018-01-21T12:20:14Z</time>
      </trkpt>
      <trkpt lat="62.647629685142" lon="17.857853448649">
        <ele>110</ele>
        <time>2018-01-21T12:20:15Z</time>
      </trkpt>
      <trkpt lat="62.647631193884" lon="17.857917402546">
        <ele>109.8</ele>
        <time>2018-01-21T12:20:16Z</time>
      </trkpt>
      <trkpt lat="62.647619878319" lon="17.85798244609">
        <ele>109.8</ele>
        <time>2018-01-21T12:20:17Z</time>
      </trkpt>
      <trkpt lat="62.647615435912" lon="17.858050088023">
        <ele>109.8</ele>
        <time>2018-01-21T12:20:18Z</time>
      </trkpt>
      <trkpt lat="62.647608730392" lon="17.858102391079">
        <ele>109.8</ele>
        <time>2018-01-21T12:20:19Z</time>
      </trkpt>
      <trkpt lat="62.64759716337" lon="17.858168272813">
        <ele>110</ele>
        <time>2018-01-21T12:20:20Z</time>
      </trkpt>
      <trkpt lat="62.647588110918" lon="17.858233735452">
        <ele>110</ele>
        <time>2018-01-21T12:20:21Z</time>
      </trkpt>
      <trkpt lat="62.647582159769" lon="17.858281931377">
        <ele>110</ele>
        <time>2018-01-21T12:20:22Z</time>
      </trkpt>
      <trkpt lat="62.647573777869" lon="17.858343873618">
        <ele>110.2</ele>
        <time>2018-01-21T12:20:23Z</time>
      </trkpt>
      <trkpt lat="62.647571263299" lon="17.858395338484">
        <ele>110.2</ele>
        <time>2018-01-21T12:20:24Z</time>
      </trkpt>
      <trkpt lat="62.647567659082" lon="17.858464992073">
        <ele>110.2</ele>
        <time>2018-01-21T12:20:25Z</time>
      </trkpt>
      <trkpt lat="62.647578052638" lon="17.858514780559">
        <ele>110.4</ele>
        <time>2018-01-21T12:20:26Z</time>
      </trkpt>
      <trkpt lat="62.647572101489" lon="17.858594240971">
        <ele>110.4</ele>
        <time>2018-01-21T12:20:27Z</time>
      </trkpt>
      <trkpt lat="62.647565731245" lon="17.858665906216">
        <ele>110.4</ele>
        <time>2018-01-21T12:20:28Z</time>
      </trkpt>
      <trkpt lat="62.647571514756" lon="17.85871250958">
        <ele>110.4</ele>
        <time>2018-01-21T12:20:29Z</time>
      </trkpt>
      <trkpt lat="62.647560785924" lon="17.858795406571">
        <ele>110.4</ele>
        <time>2018-01-21T12:20:30Z</time>
      </trkpt>
      <trkpt lat="62.647557181707" lon="17.858862377952">
        <ele>110.4</ele>
        <time>2018-01-21T12:20:31Z</time>
      </trkpt>
      <trkpt lat="62.647549470359" lon="17.858923901098">
        <ele>110.4</ele>
        <time>2018-01-21T12:20:32Z</time>
      </trkpt>
      <trkpt lat="62.64754268102" lon="17.858994225239">
        <ele>110.2</ele>
        <time>2018-01-21T12:20:33Z</time>
      </trkpt>
      <trkpt lat="62.647547123427" lon="17.859046444476">
        <ele>110.4</ele>
        <time>2018-01-21T12:20:34Z</time>
      </trkpt>
      <trkpt lat="62.647537819518" lon="17.859113751133">
        <ele>110.4</ele>
        <time>2018-01-21T12:20:35Z</time>
      </trkpt>
      <trkpt lat="62.647536981328" lon="17.859183907636">
        <ele>110.4</ele>
        <time>2018-01-21T12:20:36Z</time>
      </trkpt>
      <trkpt lat="62.647528767066" lon="17.859227828792">
        <ele>110.4</ele>
        <time>2018-01-21T12:20:37Z</time>
      </trkpt>
      <trkpt lat="62.647522396822" lon="17.859286334454">
        <ele>110.6</ele>
        <time>2018-01-21T12:20:38Z</time>
      </trkpt>
      <trkpt lat="62.647517032406" lon="17.859327489583">
        <ele>110.6</ele>
        <time>2018-01-21T12:20:39Z</time>
      </trkpt>
      <trkpt lat="62.647513428189" lon="17.859364202305">
        <ele>110.6</ele>
        <time>2018-01-21T12:20:40Z</time>
      </trkpt>
      <trkpt lat="62.647498173131" lon="17.859440142319">
        <ele>110.6</ele>
        <time>2018-01-21T12:20:41Z</time>
      </trkpt>
      <trkpt lat="62.6474856841" lon="17.859489846986">
        <ele>110.4</ele>
        <time>2018-01-21T12:20:42Z</time>
      </trkpt>
      <trkpt lat="62.647476799286" lon="17.859539635472">
        <ele>110.4</ele>
        <time>2018-01-21T12:20:43Z</time>
      </trkpt>
      <trkpt lat="62.647454754889" lon="17.859596716211">
        <ele>110.6</ele>
        <time>2018-01-21T12:20:44Z</time>
      </trkpt>
      <trkpt lat="62.647432459035" lon="17.859657484986">
        <ele>110.6</ele>
        <time>2018-01-21T12:20:45Z</time>
      </trkpt>
      <trkpt lat="62.647424999144" lon="17.859695454993">
        <ele>110.8</ele>
        <time>2018-01-21T12:20:46Z</time>
      </trkpt>
      <trkpt lat="62.647411252828" lon="17.859747087497">
        <ele>111</ele>
        <time>2018-01-21T12:20:47Z</time>
      </trkpt>
      <trkpt lat="62.647390633354" lon="17.859791427748">
        <ele>111</ele>
        <time>2018-01-21T12:20:48Z</time>
      </trkpt>
      <trkpt lat="62.647377976685" lon="17.859835600361">
        <ele>111.2</ele>
        <time>2018-01-21T12:20:49Z</time>
      </trkpt>
      <trkpt lat="62.647360542333" lon="17.859895363308">
        <ele>111.2</ele>
        <time>2018-01-21T12:20:50Z</time>
      </trkpt>
      <trkpt lat="62.647341263963" lon="17.859933081858">
        <ele>111.2</ele>
        <time>2018-01-21T12:20:51Z</time>
      </trkpt>
      <trkpt lat="62.647314274245" lon="17.859986726018">
        <ele>111.4</ele>
        <time>2018-01-21T12:20:52Z</time>
      </trkpt>
      <trkpt lat="62.647307904001" lon="17.860031653002">
        <ele>111.4</ele>
        <time>2018-01-21T12:20:53Z</time>
      </trkpt>
      <trkpt lat="62.647282087749" lon="17.860082782592">
        <ele>111.4</ele>
        <time>2018-01-21T12:20:54Z</time>
      </trkpt>
      <trkpt lat="62.647261132999" lon="17.860144557195">
        <ele>111.6</ele>
        <time>2018-01-21T12:20:55Z</time>
      </trkpt>
      <trkpt lat="62.647251242357" lon="17.860188394532">
        <ele>111.6</ele>
        <time>2018-01-21T12:20:56Z</time>
      </trkpt>
      <trkpt lat="62.647217547119" lon="17.860252683705">
        <ele>111.6</ele>
        <time>2018-01-21T12:20:57Z</time>
      </trkpt>
      <trkpt lat="62.647189886849" lon="17.860314542127">
        <ele>111.8</ele>
        <time>2018-01-21T12:20:58Z</time>
      </trkpt>
      <trkpt lat="62.64715543724" lon="17.860349578469">
        <ele>111.8</ele>
        <time>2018-01-21T12:20:59Z</time>
      </trkpt>
      <trkpt lat="62.647124927124" lon="17.860389057218">
        <ele>111.6</ele>
        <time>2018-01-21T12:21:00Z</time>
      </trkpt>
      <trkpt lat="62.647094417008" lon="17.860427278682">
        <ele>111.6</ele>
        <time>2018-01-21T12:21:01Z</time>
      </trkpt>
      <trkpt lat="62.647077569389" lon="17.860444042482">
        <ele>111.4</ele>
        <time>2018-01-21T12:21:02Z</time>
      </trkpt>
      <trkpt lat="62.647052256051" lon="17.860468098535">
        <ele>111.4</ele>
        <time>2018-01-21T12:21:03Z</time>
      </trkpt>
      <trkpt lat="62.647017554985" lon="17.860500620307">
        <ele>111.4</ele>
        <time>2018-01-21T12:21:04Z</time>
      </trkpt>
      <trkpt lat="62.646998528072" lon="17.860525095455">
        <ele>111.6</ele>
        <time>2018-01-21T12:21:05Z</time>
      </trkpt>
      <trkpt lat="62.64696265354" lon="17.860557449589">
        <ele>111.8</ele>
        <time>2018-01-21T12:21:06Z</time>
      </trkpt>
      <trkpt lat="62.646934490356" lon="17.860581254185">
        <ele>112</ele>
        <time>2018-01-21T12:21:07Z</time>
      </trkpt>
      <trkpt lat="62.646905237525" lon="17.860628444282">
        <ele>112</ele>
        <time>2018-01-21T12:21:08Z</time>
      </trkpt>
      <trkpt lat="62.646871374649" lon="17.860655098724">
        <ele>112</ele>
        <time>2018-01-21T12:21:09Z</time>
      </trkpt>
      <trkpt lat="62.646846648044" lon="17.860700025708">
        <ele>112</ele>
        <time>2018-01-21T12:21:10Z</time>
      </trkpt>
      <trkpt lat="62.646805492915" lon="17.860748305452">
        <ele>111.8</ele>
        <time>2018-01-21T12:21:11Z</time>
      </trkpt>
      <trkpt lat="62.646779341387" lon="17.860777390645">
        <ele>111.8</ele>
        <time>2018-01-21T12:21:12Z</time>
      </trkpt>
      <trkpt lat="62.646747154891" lon="17.860821982353">
        <ele>111.6</ele>
        <time>2018-01-21T12:21:13Z</time>
      </trkpt>
      <trkpt lat="62.646717566784" lon="17.860875291237">
        <ele>111.6</ele>
        <time>2018-01-21T12:21:14Z</time>
      </trkpt>
      <trkpt lat="62.646712118549" lon="17.860907645371">
        <ele>111.4</ele>
        <time>2018-01-21T12:21:15Z</time>
      </trkpt>
      <trkpt lat="62.646680099691" lon="17.860932791071">
        <ele>111.4</ele>
        <time>2018-01-21T12:21:16Z</time>
      </trkpt>
      <trkpt lat="62.646657636199" lon="17.860950225423">
        <ele>111.4</ele>
        <time>2018-01-21T12:21:17Z</time>
      </trkpt>
      <trkpt lat="62.646631149395" lon="17.860989787991">
        <ele>111.4</ele>
        <time>2018-01-21T12:21:18Z</time>
      </trkpt>
      <trkpt lat="62.646606255152" lon="17.861009653094">
        <ele>111.4</ele>
        <time>2018-01-21T12:21:19Z</time>
      </trkpt>
      <trkpt lat="62.646591670646" lon="17.861027757998">
        <ele>111.4</ele>
        <time>2018-01-21T12:21:20Z</time>
      </trkpt>
      <trkpt lat="62.646563758919" lon="17.861051730232">
        <ele>111.6</ele>
        <time>2018-01-21T12:21:21Z</time>
      </trkpt>
      <trkpt lat="62.646533332622" lon="17.861092047171">
        <ele>111.6</ele>
        <time>2018-01-21T12:21:22Z</time>
      </trkpt>
      <trkpt lat="62.646514724804" lon="17.861121886735">
        <ele>111.6</ele>
        <time>2018-01-21T12:21:23Z</time>
      </trkpt>
      <trkpt lat="62.646482873584" lon="17.861146948616">
        <ele>111.6</ele>
        <time>2018-01-21T12:21:24Z</time>
      </trkpt>
      <trkpt lat="62.646451944373" lon="17.861188606659">
        <ele>111.6</ele>
        <time>2018-01-21T12:21:25Z</time>
      </trkpt>
      <trkpt lat="62.646436437858" lon="17.861224732648">
        <ele>111.8</ele>
        <time>2018-01-21T12:21:26Z</time>
      </trkpt>
      <trkpt lat="62.646408358493" lon="17.861266390691">
        <ele>111.6</ele>
        <time>2018-01-21T12:21:27Z</time>
      </trkpt>
      <trkpt lat="62.646372232504" lon="17.861294889151">
        <ele>111.6</ele>
        <time>2018-01-21T12:21:28Z</time>
      </trkpt>
      <trkpt lat="62.646355133428" lon="17.86133101514">
        <ele>111.6</ele>
        <time>2018-01-21T12:21:29Z</time>
      </trkpt>
      <trkpt lat="62.646337447619" lon="17.861335457547">
        <ele>111.8</ele>
        <time>2018-01-21T12:21:30Z</time>
      </trkpt>
      <trkpt lat="62.646316157593" lon="17.861360184152">
        <ele>111.8</ele>
        <time>2018-01-21T12:21:31Z</time>
      </trkpt>
      <trkpt lat="62.646296460128" lon="17.861401926014">
        <ele>112</ele>
        <time>2018-01-21T12:21:32Z</time>
      </trkpt>
      <trkpt lat="62.646267626392" lon="17.861446852998">
        <ele>112.4</ele>
        <time>2018-01-21T12:21:33Z</time>
      </trkpt>
      <trkpt lat="62.646248348022" lon="17.861471160508">
        <ele>112.6</ele>
        <time>2018-01-21T12:21:34Z</time>
      </trkpt>
      <trkpt lat="62.646242564511" lon="17.861502592633">
        <ele>113</ele>
        <time>2018-01-21T12:21:35Z</time>
      </trkpt>
      <trkpt lat="62.64621498806" lon="17.861562020304">
        <ele>113.2</ele>
        <time>2018-01-21T12:21:36Z</time>
      </trkpt>
      <trkpt lat="62.646204343047" lon="17.861622369984">
        <ele>113.4</ele>
        <time>2018-01-21T12:21:37Z</time>
      </trkpt>
      <trkpt lat="62.646173162379" lon="17.861689341365">
        <ele>113.4</ele>
        <time>2018-01-21T12:21:38Z</time>
      </trkpt>
      <trkpt lat="62.646155811846" lon="17.861739632765">
        <ele>113.4</ele>
        <time>2018-01-21T12:21:39Z</time>
      </trkpt>
      <trkpt lat="62.646135779105" lon="17.861807526155">
        <ele>113.4</ele>
        <time>2018-01-21T12:21:40Z</time>
      </trkpt>
      <trkpt lat="62.646127229567" lon="17.86187332407">
        <ele>113.4</ele>
        <time>2018-01-21T12:21:41Z</time>
      </trkpt>
      <trkpt lat="62.646097557641" lon="17.861939205804">
        <ele>113.4</ele>
        <time>2018-01-21T12:21:42Z</time>
      </trkpt>
      <trkpt lat="62.646080123289" lon="17.862004416986">
        <ele>113</ele>
        <time>2018-01-21T12:21:43Z</time>
      </trkpt>
      <trkpt lat="62.646061683109" lon="17.862054624567">
        <ele>113</ele>
        <time>2018-01-21T12:21:44Z</time>
      </trkpt>
      <trkpt lat="62.646043494386" lon="17.862092175479">
        <ele>113</ele>
        <time>2018-01-21T12:21:45Z</time>
      </trkpt>
      <trkpt lat="62.646032765554" lon="17.862115812437">
        <ele>112.8</ele>
        <time>2018-01-21T12:21:46Z</time>
      </trkpt>
      <trkpt lat="62.645997561574" lon="17.862182280904">
        <ele>112.8</ele>
        <time>2018-01-21T12:21:47Z</time>
      </trkpt>
      <trkpt lat="62.645971158589" lon="17.862249000828">
        <ele>112.6</ele>
        <time>2018-01-21T12:21:48Z</time>
      </trkpt>
      <trkpt lat="62.645954059513" lon="17.862303231721">
        <ele>112.4</ele>
        <time>2018-01-21T12:21:49Z</time>
      </trkpt>
      <trkpt lat="62.645934278229" lon="17.86236617979">
        <ele>112.2</ele>
        <time>2018-01-21T12:21:50Z</time>
      </trkpt>
      <trkpt lat="62.645921202465" lon="17.862432648257">
        <ele>112</ele>
        <time>2018-01-21T12:21:51Z</time>
      </trkpt>
      <trkpt lat="62.645910389814" lon="17.862490818643">
        <ele>112</ele>
        <time>2018-01-21T12:21:52Z</time>
      </trkpt>
      <trkpt lat="62.645895889127" lon="17.862579247688">
        <ele>112.2</ele>
        <time>2018-01-21T12:21:53Z</time>
      </trkpt>
      <trkpt lat="62.645909970719" lon="17.862634652047">
        <ele>112.2</ele>
        <time>2018-01-21T12:21:54Z</time>
      </trkpt>
      <trkpt lat="62.645899996258" lon="17.862704473274">
        <ele>112.4</ele>
        <time>2018-01-21T12:21:55Z</time>
      </trkpt>
      <trkpt lat="62.645898319878" lon="17.862771277017">
        <ele>112.2</ele>
        <time>2018-01-21T12:21:56Z</time>
      </trkpt>
      <trkpt lat="62.645895218575" lon="17.862833722172">
        <ele>112.2</ele>
        <time>2018-01-21T12:21:57Z</time>
      </trkpt>
      <trkpt lat="62.645889937978" lon="17.862904046313">
        <ele>112</ele>
        <time>2018-01-21T12:21:58Z</time>
      </trkpt>
      <trkpt lat="62.645886836675" lon="17.86295961831">
        <ele>111.6</ele>
        <time>2018-01-21T12:21:59Z</time>
      </trkpt>
      <trkpt lat="62.645885411752" lon="17.863016782868">
        <ele>111.6</ele>
        <time>2018-01-21T12:22:00Z</time>
      </trkpt>
      <trkpt lat="62.645884405924" lon="17.86308702319">
        <ele>111.6</ele>
        <time>2018-01-21T12:22:01Z</time>
      </trkpt>
      <trkpt lat="62.645884154467" lon="17.863155670951">
        <ele>111.6</ele>
        <time>2018-01-21T12:22:02Z</time>
      </trkpt>
      <trkpt lat="62.645885830847" lon="17.863211662043">
        <ele>111.6</ele>
        <time>2018-01-21T12:22:03Z</time>
      </trkpt>
      <trkpt lat="62.64588893215" lon="17.863263965099">
        <ele>111.6</ele>
        <time>2018-01-21T12:22:04Z</time>
      </trkpt>
      <trkpt lat="62.645894883299" lon="17.863326577892">
        <ele>111.6</ele>
        <time>2018-01-21T12:22:05Z</time>
      </trkpt>
      <trkpt lat="62.645903851932" lon="17.86339212435">
        <ele>111.6</ele>
        <time>2018-01-21T12:22:06Z</time>
      </trkpt>
      <trkpt lat="62.645910557452" lon="17.863437470429">
        <ele>111.6</ele>
        <time>2018-01-21T12:22:07Z</time>
      </trkpt>
      <trkpt lat="62.645918352619" lon="17.863496479005">
        <ele>111.8</ele>
        <time>2018-01-21T12:22:08Z</time>
      </trkpt>
      <trkpt lat="62.645922292112" lon="17.863556661047">
        <ele>111.8</ele>
        <time>2018-01-21T12:22:09Z</time>
      </trkpt>
      <trkpt lat="62.645924555225" lon="17.863627404283">
        <ele>111.8</ele>
        <time>2018-01-21T12:22:10Z</time>
      </trkpt>
      <trkpt lat="62.645928829994" lon="17.86367878533">
        <ele>111.8</ele>
        <time>2018-01-21T12:22:11Z</time>
      </trkpt>
      <trkpt lat="62.64593167984" lon="17.863738129182">
        <ele>111.8</ele>
        <time>2018-01-21T12:22:12Z</time>
      </trkpt>
      <trkpt lat="62.645938720636" lon="17.863800825794">
        <ele>111.6</ele>
        <time>2018-01-21T12:22:13Z</time>
      </trkpt>
      <trkpt lat="62.645946431984" lon="17.863857152162">
        <ele>111.6</ele>
        <time>2018-01-21T12:22:14Z</time>
      </trkpt>
      <trkpt lat="62.645956154988" lon="17.863918088575">
        <ele>111.8</ele>
        <time>2018-01-21T12:22:15Z</time>
      </trkpt>
      <trkpt lat="62.645969985123" lon="17.863967206509">
        <ele>111.8</ele>
        <time>2018-01-21T12:22:16Z</time>
      </trkpt>
      <trkpt lat="62.645984401991" lon="17.864006014706">
        <ele>112</ele>
        <time>2018-01-21T12:22:17Z</time>
      </trkpt>
      <trkpt lat="62.646004267094" lon="17.864051696061">
        <ele>111.8</ele>
        <time>2018-01-21T12:22:18Z</time>
      </trkpt>
      <trkpt lat="62.646023629283" lon="17.864079272512">
        <ele>112</ele>
        <time>2018-01-21T12:22:19Z</time>
      </trkpt>
      <trkpt lat="62.646046763327" lon="17.864103999117">
        <ele>112.4</ele>
        <time>2018-01-21T12:22:20Z</time>
      </trkpt>
      <trkpt lat="62.646066376973" lon="17.864128977179">
        <ele>112.4</ele>
        <time>2018-01-21T12:22:21Z</time>
      </trkpt>
      <trkpt lat="62.646091438854" lon="17.864146327712">
        <ele>112.6</ele>
        <time>2018-01-21T12:22:22Z</time>
      </trkpt>
      <trkpt lat="62.646114991993" lon="17.864163342969">
        <ele>112.8</ele>
        <time>2018-01-21T12:22:23Z</time>
      </trkpt>
      <trkpt lat="62.646136533476" lon="17.864179436217">
        <ele>112.8</ele>
        <time>2018-01-21T12:22:24Z</time>
      </trkpt>
      <trkpt lat="62.646157404407" lon="17.864190667963">
        <ele>112.8</ele>
        <time>2018-01-21T12:22:25Z</time>
      </trkpt>
      <trkpt lat="62.646180286994" lon="17.864202067347">
        <ele>113</ele>
        <time>2018-01-21T12:22:26Z</time>
      </trkpt>
      <trkpt lat="62.646198894812" lon="17.864210365428">
        <ele>113.2</ele>
        <time>2018-01-21T12:22:27Z</time>
      </trkpt>
      <trkpt lat="62.646220771571" lon="17.864222519183">
        <ele>113.4</ele>
        <time>2018-01-21T12:22:28Z</time>
      </trkpt>
      <trkpt lat="62.646241642502" lon="17.864232912739">
        <ele>113.4</ele>
        <time>2018-01-21T12:22:29Z</time>
      </trkpt>
      <trkpt lat="62.646264608908" lon="17.864243641571">
        <ele>113.4</ele>
        <time>2018-01-21T12:22:30Z</time>
      </trkpt>
      <trkpt lat="62.646282378536" lon="17.864249257444">
        <ele>113.4</ele>
        <time>2018-01-21T12:22:31Z</time>
      </trkpt>
      <trkpt lat="62.646307272779" lon="17.864256214421">
        <ele>113.4</ele>
        <time>2018-01-21T12:22:32Z</time>
      </trkpt>
      <trkpt lat="62.646330909737" lon="17.864267865262">
        <ele>113.4</ele>
        <time>2018-01-21T12:22:33Z</time>
      </trkpt>
      <trkpt lat="62.646348679365" lon="17.864271804755">
        <ele>113.4</ele>
        <time>2018-01-21T12:22:34Z</time>
      </trkpt>
      <trkpt lat="62.646371561952" lon="17.864271134203">
        <ele>113.4</ele>
        <time>2018-01-21T12:22:35Z</time>
      </trkpt>
      <trkpt lat="62.646396456195" lon="17.864267865262">
        <ele>113.6</ele>
        <time>2018-01-21T12:22:36Z</time>
      </trkpt>
      <trkpt lat="62.646412549443" lon="17.864266105063">
        <ele>113.8</ele>
        <time>2018-01-21T12:22:37Z</time>
      </trkpt>
      <trkpt lat="62.646432163089" lon="17.864260573009">
        <ele>113.8</ele>
        <time>2018-01-21T12:22:38Z</time>
      </trkpt>
      <trkpt lat="62.646462002653" lon="17.864251772014">
        <ele>113.8</ele>
        <time>2018-01-21T12:22:39Z</time>
      </trkpt>
      <trkpt lat="62.646496536081" lon="17.864249508901">
        <ele>114</ele>
        <time>2018-01-21T12:22:40Z</time>
      </trkpt>
      <trkpt lat="62.646516652641" lon="17.864241797553">
        <ele>114</ele>
        <time>2018-01-21T12:22:41Z</time>
      </trkpt>
      <trkpt lat="62.646542552712" lon="17.864236516956">
        <ele>114</ele>
        <time>2018-01-21T12:22:42Z</time>
      </trkpt>
      <trkpt lat="62.646565183842" lon="17.864236097861">
        <ele>114.2</ele>
        <time>2018-01-21T12:22:43Z</time>
      </trkpt>
      <trkpt lat="62.646596615967" lon="17.864246323779">
        <ele>114.2</ele>
        <time>2018-01-21T12:22:44Z</time>
      </trkpt>
      <trkpt lat="62.646628886282" lon="17.864261243561">
        <ele>114.2</ele>
        <time>2018-01-21T12:22:45Z</time>
      </trkpt>
      <trkpt lat="62.646664844633" lon="17.864283371777">
        <ele>114.2</ele>
        <time>2018-01-21T12:22:46Z</time>
      </trkpt>
      <trkpt lat="62.646701641174" lon="17.864314720083">
        <ele>114.2</ele>
        <time>2018-01-21T12:22:47Z</time>
      </trkpt>
      <trkpt lat="62.64674388595" lon="17.864350426977">
        <ele>113.4</ele>
        <time>2018-01-21T12:22:48Z</time>
      </trkpt>
      <trkpt lat="62.646779509025" lon="17.864377584333">
        <ele>113.2</ele>
        <time>2018-01-21T12:22:49Z</time>
      </trkpt>
      <trkpt lat="62.646822256715" lon="17.864405831336">
        <ele>112.8</ele>
        <time>2018-01-21T12:22:50Z</time>
      </trkpt>
      <trkpt lat="62.646864166215" lon="17.864432737235">
        <ele>112.6</ele>
        <time>2018-01-21T12:22:51Z</time>
      </trkpt>
      <trkpt lat="62.646906662448" lon="17.864455452184">
        <ele>112.4</ele>
        <time>2018-01-21T12:22:52Z</time>
      </trkpt>
      <trkpt lat="62.646947482301" lon="17.864480514065">
        <ele>112.4</ele>
        <time>2018-01-21T12:22:53Z</time>
      </trkpt>
      <trkpt lat="62.646992912199" lon="17.864510940362">
        <ele>112.2</ele>
        <time>2018-01-21T12:22:54Z</time>
      </trkpt>
      <trkpt lat="62.647044377065" lon="17.864554358604">
        <ele>111.8</ele>
        <time>2018-01-21T12:22:55Z</time>
      </trkpt>
      <trkpt lat="62.64709676394" lon="17.864599788502">
        <ele>111.2</ele>
        <time>2018-01-21T12:22:56Z</time>
      </trkpt>
      <trkpt lat="62.647155018145" lon="17.864637423233">
        <ele>110.6</ele>
        <time>2018-01-21T12:22:57Z</time>
      </trkpt>
      <trkpt lat="62.647213775264" lon="17.864668855358">
        <ele>109.6</ele>
        <time>2018-01-21T12:22:58Z</time>
      </trkpt>
      <trkpt lat="62.647263479931" lon="17.864690732117">
        <ele>108.8</ele>
        <time>2018-01-21T12:22:59Z</time>
      </trkpt>
      <trkpt lat="62.647330870407" lon="17.864718392387">
        <ele>108</ele>
        <time>2018-01-21T12:23:00Z</time>
      </trkpt>
      <trkpt lat="62.647388370241" lon="17.864741442612">
        <ele>107.2</ele>
        <time>2018-01-21T12:23:01Z</time>
      </trkpt>
      <trkpt lat="62.647441427668" lon="17.864764157561">
        <ele>106.6</ele>
        <time>2018-01-21T12:23:02Z</time>
      </trkpt>
      <trkpt lat="62.647491719068" lon="17.864789638537">
        <ele>106</ele>
        <time>2018-01-21T12:23:03Z</time>
      </trkpt>
      <trkpt lat="62.647540920821" lon="17.864810760925">
        <ele>105.4</ele>
        <time>2018-01-21T12:23:04Z</time>
      </trkpt>
      <trkpt lat="62.647597079551" lon="17.864845461991">
        <ele>105</ele>
        <time>2018-01-21T12:23:05Z</time>
      </trkpt>
      <trkpt lat="62.647654579385" lon="17.864910673173">
        <ele>104.4</ele>
        <time>2018-01-21T12:23:06Z</time>
      </trkpt>
      <trkpt lat="62.647699757826" lon="17.864984601531">
        <ele>103.8</ele>
        <time>2018-01-21T12:23:07Z</time>
      </trkpt>
      <trkpt lat="62.647741667326" lon="17.865069593997">
        <ele>103</ele>
        <time>2018-01-21T12:23:08Z</time>
      </trkpt>
      <trkpt lat="62.647777290401" lon="17.865142432708">
        <ele>102</ele>
        <time>2018-01-21T12:23:09Z</time>
      </trkpt>
      <trkpt lat="62.647813248752" lon="17.865218791817">
        <ele>101.6</ele>
        <time>2018-01-21T12:23:10Z</time>
      </trkpt>
      <trkpt lat="62.647842836859" lon="17.865278135669">
        <ele>101.2</ele>
        <time>2018-01-21T12:23:11Z</time>
      </trkpt>
      <trkpt lat="62.647880136314" lon="17.865338988263">
        <ele>101.4</ele>
        <time>2018-01-21T12:23:12Z</time>
      </trkpt>
      <trkpt lat="62.647917771045" lon="17.865400762866">
        <ele>101.4</ele>
        <time>2018-01-21T12:23:13Z</time>
      </trkpt>
      <trkpt lat="62.64795171774" lon="17.86546580641">
        <ele>101.6</ele>
        <time>2018-01-21T12:23:14Z</time>
      </trkpt>
      <trkpt lat="62.647991699403" lon="17.865535459999">
        <ele>101.8</ele>
        <time>2018-01-21T12:23:15Z</time>
      </trkpt>
      <trkpt lat="62.648024388813" lon="17.86558902034">
        <ele>101.8</ele>
        <time>2018-01-21T12:23:16Z</time>
      </trkpt>
      <trkpt lat="62.64804643321" lon="17.86562422432">
        <ele>101.6</ele>
        <time>2018-01-21T12:23:17Z</time>
      </trkpt>
      <trkpt lat="62.648074177299" lon="17.865670408589">
        <ele>101.8</ele>
        <time>2018-01-21T12:23:18Z</time>
      </trkpt>
      <trkpt lat="62.648103849225" lon="17.865702930361">
        <ele>101.8</ele>
        <time>2018-01-21T12:23:19Z</time>
      </trkpt>
      <trkpt lat="62.648138298834" lon="17.865745426594">
        <ele>101.8</ele>
        <time>2018-01-21T12:23:20Z</time>
      </trkpt>
      <trkpt lat="62.648175598289" lon="17.865790269759">
        <ele>102</ele>
        <time>2018-01-21T12:23:21Z</time>
      </trkpt>
      <trkpt lat="62.648210299355" lon="17.865822623893">
        <ele>101.8</ele>
        <time>2018-01-21T12:23:22Z</time>
      </trkpt>
      <trkpt lat="62.648249023733" lon="17.865867467058">
        <ele>101.8</ele>
        <time>2018-01-21T12:23:23Z</time>
      </trkpt>
      <trkpt lat="62.648291855242" lon="17.865916584992">
        <ele>101.6</ele>
        <time>2018-01-21T12:23:24Z</time>
      </trkpt>
      <trkpt lat="62.648329154697" lon="17.865966038202">
        <ele>101.4</ele>
        <time>2018-01-21T12:23:25Z</time>
      </trkpt>
      <trkpt lat="62.648364358677" lon="17.866018005982">
        <ele>101.2</ele>
        <time>2018-01-21T12:23:26Z</time>
      </trkpt>
      <trkpt lat="62.648409034204" lon="17.866074080893">
        <ele>101</ele>
        <time>2018-01-21T12:23:27Z</time>
      </trkpt>
      <trkpt lat="62.648449770238" lon="17.86614306393">
        <ele>100.6</ele>
        <time>2018-01-21T12:23:28Z</time>
      </trkpt>
      <trkpt lat="62.64846971916" lon="17.866225038912">
        <ele>100.4</ele>
        <time>2018-01-21T12:23:29Z</time>
      </trkpt>
      <trkpt lat="62.648491176824" lon="17.866343978073">
        <ele>99.8</ele>
        <time>2018-01-21T12:23:30Z</time>
      </trkpt>
      <trkpt lat="62.648508108262" lon="17.866457636637">
        <ele>99.2</ele>
        <time>2018-01-21T12:23:31Z</time>
      </trkpt>
      <trkpt lat="62.648523614777" lon="17.866567607165">
        <ele>98.2</ele>
        <time>2018-01-21T12:23:32Z</time>
      </trkpt>
      <trkpt lat="62.648537864007" lon="17.866678918797">
        <ele>97.4</ele>
        <time>2018-01-21T12:23:33Z</time>
      </trkpt>
      <trkpt lat="62.648554041074" lon="17.866786123298">
        <ele>96.6</ele>
        <time>2018-01-21T12:23:34Z</time>
      </trkpt>
      <trkpt lat="62.648572481254" lon="17.866898440758">
        <ele>96.2</ele>
        <time>2018-01-21T12:23:35Z</time>
      </trkpt>
      <trkpt lat="62.6485920949" lon="17.867014362435">
        <ele>95.6</ele>
        <time>2018-01-21T12:23:36Z</time>
      </trkpt>
      <trkpt lat="62.648604919207" lon="17.867122656583">
        <ele>95.2</ele>
        <time>2018-01-21T12:23:37Z</time>
      </trkpt>
      <trkpt lat="62.648618246428" lon="17.867239667907">
        <ele>94.8</ele>
        <time>2018-01-21T12:23:38Z</time>
      </trkpt>
      <trkpt lat="62.648629729631" lon="17.867336143576">
        <ele>94.6</ele>
        <time>2018-01-21T12:23:39Z</time>
      </trkpt>
      <trkpt lat="62.648645152327" lon="17.867437396928">
        <ele>94.6</ele>
        <time>2018-01-21T12:23:40Z</time>
      </trkpt>
      <trkpt lat="62.64865663553" lon="17.867499003893">
        <ele>94.8</ele>
        <time>2018-01-21T12:23:41Z</time>
      </trkpt>
      <trkpt lat="62.648668202552" lon="17.867575698278">
        <ele>95</ele>
        <time>2018-01-21T12:23:42Z</time>
      </trkpt>
      <trkpt lat="62.648683625248" lon="17.867645016591">
        <ele>95.2</ele>
        <time>2018-01-21T12:23:43Z</time>
      </trkpt>
      <trkpt lat="62.648702316885" lon="17.867703438434">
        <ele>95.4</ele>
        <time>2018-01-21T12:23:44Z</time>
      </trkpt>
      <trkpt lat="62.648724361282" lon="17.86777334348">
        <ele>95.2</ele>
        <time>2018-01-21T12:23:45Z</time>
      </trkpt>
      <trkpt lat="62.648741376539" lon="17.867839225214">
        <ele>95.4</ele>
        <time>2018-01-21T12:23:46Z</time>
      </trkpt>
      <trkpt lat="62.648754033208" lon="17.867890773899">
        <ele>95.2</ele>
        <time>2018-01-21T12:23:47Z</time>
      </trkpt>
      <trkpt lat="62.648763756212" lon="17.867954057244">
        <ele>95.2</ele>
        <time>2018-01-21T12:23:48Z</time>
      </trkpt>
      <trkpt lat="62.648774233587" lon="17.868000073875">
        <ele>95.2</ele>
        <time>2018-01-21T12:23:49Z</time>
      </trkpt>
      <trkpt lat="62.648788398998" lon="17.868069811283">
        <ele>95.2</ele>
        <time>2018-01-21T12:23:50Z</time>
      </trkpt>
      <trkpt lat="62.648809772843" lon="17.868130160963">
        <ele>95.4</ele>
        <time>2018-01-21T12:23:51Z</time>
      </trkpt>
      <trkpt lat="62.648824022073" lon="17.868195120688">
        <ele>95.2</ele>
        <time>2018-01-21T12:23:52Z</time>
      </trkpt>
      <trkpt lat="62.648841624063" lon="17.868264271363">
        <ele>95.2</ele>
        <time>2018-01-21T12:23:53Z</time>
      </trkpt>
      <trkpt lat="62.64886115389" lon="17.868327135613">
        <ele>94.8</ele>
        <time>2018-01-21T12:23:54Z</time>
      </trkpt>
      <trkpt lat="62.648884455572" lon="17.868405757835">
        <ele>94.6</ele>
        <time>2018-01-21T12:23:55Z</time>
      </trkpt>
      <trkpt lat="62.648904655951" lon="17.868464179678">
        <ele>94.6</ele>
        <time>2018-01-21T12:23:56Z</time>
      </trkpt>
      <trkpt lat="62.648925862158" lon="17.86852017077">
        <ele>94.4</ele>
        <time>2018-01-21T12:23:57Z</time>
      </trkpt>
      <trkpt lat="62.64894664927" lon="17.86858303502">
        <ele>94.4</ele>
        <time>2018-01-21T12:23:58Z</time>
      </trkpt>
      <trkpt lat="62.648964670355" lon="17.868629889841">
        <ele>94.4</ele>
        <time>2018-01-21T12:23:59Z</time>
      </trkpt>
      <trkpt lat="62.648985038372" lon="17.868693927557">
        <ele>94.4</ele>
        <time>2018-01-21T12:24:00Z</time>
      </trkpt>
      <trkpt lat="62.649004400561" lon="17.868764419336">
        <ele>94.4</ele>
        <time>2018-01-21T12:24:01Z</time>
      </trkpt>
      <trkpt lat="62.649022589284" lon="17.868826864491">
        <ele>94.4</ele>
        <time>2018-01-21T12:24:02Z</time>
      </trkpt>
      <trkpt lat="62.649041867654" lon="17.868904313247">
        <ele>94.2</ele>
        <time>2018-01-21T12:24:03Z</time>
      </trkpt>
      <trkpt lat="62.64906399587" lon="17.868979750347">
        <ele>94.2</ele>
        <time>2018-01-21T12:24:04Z</time>
      </trkpt>
      <trkpt lat="62.649086291724" lon="17.869049990669">
        <ele>94</ele>
        <time>2018-01-21T12:24:05Z</time>
      </trkpt>
      <trkpt lat="62.649111437424" lon="17.869123332294">
        <ele>93.8</ele>
        <time>2018-01-21T12:24:06Z</time>
      </trkpt>
      <trkpt lat="62.649136834581" lon="17.869176557359">
        <ele>93.8</ele>
        <time>2018-01-21T12:24:07Z</time>
      </trkpt>
      <trkpt lat="62.649159381892" lon="17.869252245916">
        <ele>93.6</ele>
        <time>2018-01-21T12:24:08Z</time>
      </trkpt>
      <trkpt lat="62.649176397149" lon="17.869320055487">
        <ele>93.4</ele>
        <time>2018-01-21T12:24:09Z</time>
      </trkpt>
      <trkpt lat="62.649200704659" lon="17.869385099031">
        <ele>93.4</ele>
        <time>2018-01-21T12:24:10Z</time>
      </trkpt>
      <trkpt lat="62.649227862015" lon="17.869455339353">
        <ele>93.2</ele>
        <time>2018-01-21T12:24:11Z</time>
      </trkpt>
      <trkpt lat="62.649264574737" lon="17.869523316562">
        <ele>93</ele>
        <time>2018-01-21T12:24:12Z</time>
      </trkpt>
      <trkpt lat="62.649296761233" lon="17.869587438097">
        <ele>93</ele>
        <time>2018-01-21T12:24:13Z</time>
      </trkpt>
      <trkpt lat="62.649325762607" lon="17.869642339542">
        <ele>92.8</ele>
        <time>2018-01-21T12:24:14Z</time>
      </trkpt>
      <trkpt lat="62.649358619655" lon="17.869706377258">
        <ele>92.4</ele>
        <time>2018-01-21T12:24:15Z</time>
      </trkpt>
      <trkpt lat="62.649388207762" lon="17.869766475481">
        <ele>92.2</ele>
        <time>2018-01-21T12:24:16Z</time>
      </trkpt>
      <trkpt lat="62.649417209136" lon="17.86980930699">
        <ele>92</ele>
        <time>2018-01-21T12:24:17Z</time>
      </trkpt>
      <trkpt lat="62.649453586582" lon="17.869868567023">
        <ele>91.8</ele>
        <time>2018-01-21T12:24:18Z</time>
      </trkpt>
      <trkpt lat="62.649488036191" lon="17.869929335798">
        <ele>91.6</ele>
        <time>2018-01-21T12:24:19Z</time>
      </trkpt>
      <trkpt lat="62.649524581275" lon="17.869998989387">
        <ele>91.4</ele>
        <time>2018-01-21T12:24:20Z</time>
      </trkpt>
      <trkpt lat="62.649562048368" lon="17.870072833926">
        <ele>91.2</ele>
        <time>2018-01-21T12:24:21Z</time>
      </trkpt>
      <trkpt lat="62.649597000891" lon="17.870128154466">
        <ele>91</ele>
        <time>2018-01-21T12:24:22Z</time>
      </trkpt>
      <trkpt lat="62.649635976726" lon="17.870195377304">
        <ele>90.8</ele>
        <time>2018-01-21T12:24:23Z</time>
      </trkpt>
      <trkpt lat="62.649679394968" lon="17.870278274295">
        <ele>90.6</ele>
        <time>2018-01-21T12:24:24Z</time>
      </trkpt>
      <trkpt lat="62.649718706079" lon="17.870355136318">
        <ele>90.4</ele>
        <time>2018-01-21T12:24:25Z</time>
      </trkpt>
      <trkpt lat="62.649747288358" lon="17.87044046406">
        <ele>90.2</ele>
        <time>2018-01-21T12:24:26Z</time>
      </trkpt>
      <trkpt lat="62.649766147633" lon="17.870507100165">
        <ele>89.6</ele>
        <time>2018-01-21T12:24:27Z</time>
      </trkpt>
      <trkpt lat="62.64978400108" lon="17.870593349916">
        <ele>89.6</ele>
        <time>2018-01-21T12:24:28Z</time>
      </trkpt>
      <trkpt lat="62.649805458744" lon="17.870667697369">
        <ele>89.2</ele>
        <time>2018-01-21T12:24:29Z</time>
      </trkpt>
      <trkpt lat="62.649824653295" lon="17.870745984315">
        <ele>89</ele>
        <time>2018-01-21T12:24:30Z</time>
      </trkpt>
      <trkpt lat="62.649840998" lon="17.87082519327">
        <ele>88.8</ele>
        <time>2018-01-21T12:24:31Z</time>
      </trkpt>
      <trkpt lat="62.649858683809" lon="17.87090482132">
        <ele>88.6</ele>
        <time>2018-01-21T12:24:32Z</time>
      </trkpt>
      <trkpt lat="62.649873100677" lon="17.870982353895">
        <ele>88.6</ele>
        <time>2018-01-21T12:24:33Z</time>
      </trkpt>
      <trkpt lat="62.649886595536" lon="17.871049073819">
        <ele>88.6</ele>
        <time>2018-01-21T12:24:34Z</time>
      </trkpt>
      <trkpt lat="62.649899252205" lon="17.871111435155">
        <ele>88.4</ele>
        <time>2018-01-21T12:24:35Z</time>
      </trkpt>
      <trkpt lat="62.64990972958" lon="17.871189386825">
        <ele>88.4</ele>
        <time>2018-01-21T12:24:36Z</time>
      </trkpt>
      <trkpt lat="62.649922972982" lon="17.871267841409">
        <ele>88.4</ele>
        <time>2018-01-21T12:24:37Z</time>
      </trkpt>
      <trkpt lat="62.6499331989" lon="17.871333220229">
        <ele>88.2</ele>
        <time>2018-01-21T12:24:38Z</time>
      </trkpt>
      <trkpt lat="62.649941329343" lon="17.871402789999">
        <ele>88.2</ele>
        <time>2018-01-21T12:24:39Z</time>
      </trkpt>
      <trkpt lat="62.649953818374" lon="17.871478813832">
        <ele>88</ele>
        <time>2018-01-21T12:24:40Z</time>
      </trkpt>
      <trkpt lat="62.649961362084" lon="17.871546791041">
        <ele>88</ele>
        <time>2018-01-21T12:24:41Z</time>
      </trkpt>
      <trkpt lat="62.649971168907" lon="17.871615690259">
        <ele>87.8</ele>
        <time>2018-01-21T12:24:42Z</time>
      </trkpt>
      <trkpt lat="62.649982987386" lon="17.871676626672">
        <ele>87.8</ele>
        <time>2018-01-21T12:24:43Z</time>
      </trkpt>
      <trkpt lat="62.649991620743" lon="17.8717363058">
        <ele>87.8</ele>
        <time>2018-01-21T12:24:44Z</time>
      </trkpt>
      <trkpt lat="62.650006540525" lon="17.871810653253">
        <ele>87.8</ele>
        <time>2018-01-21T12:24:45Z</time>
      </trkpt>
      <trkpt lat="62.650020454479" lon="17.871874774788">
        <ele>87.8</ele>
        <time>2018-01-21T12:24:46Z</time>
      </trkpt>
      <trkpt lat="62.650033194967" lon="17.871927077844">
        <ele>87.8</ele>
        <time>2018-01-21T12:24:47Z</time>
      </trkpt>
      <trkpt lat="62.650049958767" lon="17.871988181895">
        <ele>88</ele>
        <time>2018-01-21T12:24:48Z</time>
      </trkpt>
      <trkpt lat="62.650061525789" lon="17.872033611793">
        <ele>88</ele>
        <time>2018-01-21T12:24:49Z</time>
      </trkpt>
      <trkpt lat="62.650073847182" lon="17.872089686704">
        <ele>88</ele>
        <time>2018-01-21T12:24:50Z</time>
      </trkpt>
      <trkpt lat="62.650084827471" lon="17.8721470189">
        <ele>88</ele>
        <time>2018-01-21T12:24:51Z</time>
      </trkpt>
      <trkpt lat="62.650091700629" lon="17.872203932001">
        <ele>88</ele>
        <time>2018-01-21T12:24:52Z</time>
      </trkpt>
      <trkpt lat="62.650091030077" lon="17.872260928921">
        <ele>88</ele>
        <time>2018-01-21T12:24:53Z</time>
      </trkpt>
      <trkpt lat="62.650084324557" lon="17.872311387959">
        <ele>88</ele>
        <time>2018-01-21T12:24:54Z</time>
      </trkpt>
      <trkpt lat="62.65007652939" lon="17.872352291631">
        <ele>88.2</ele>
        <time>2018-01-21T12:24:55Z</time>
      </trkpt>
      <trkpt lat="62.650046186912" lon="17.872366037947">
        <ele>88.2</ele>
        <time>2018-01-21T12:24:56Z</time>
      </trkpt>
      <trkpt lat="62.65002288523" lon="17.872340054057">
        <ele>88.4</ele>
        <time>2018-01-21T12:24:57Z</time>
      </trkpt>
      <trkpt lat="62.650005199421" lon="17.872296803453">
        <ele>88.4</ele>
        <time>2018-01-21T12:24:58Z</time>
      </trkpt>
      <trkpt lat="62.649991788381" lon="17.872247685519">
        <ele>88.4</ele>
        <time>2018-01-21T12:24:59Z</time>
      </trkpt>
      <trkpt lat="62.649992291295" lon="17.8721973103">
        <ele>88.4</ele>
        <time>2018-01-21T12:25:00Z</time>
      </trkpt>
      <trkpt lat="62.649983238843" lon="17.872142073579">
        <ele>88.4</ele>
        <time>2018-01-21T12:25:01Z</time>
      </trkpt>
      <trkpt lat="62.64996924107" lon="17.87208583103">
        <ele>88.2</ele>
        <time>2018-01-21T12:25:02Z</time>
      </trkpt>
      <trkpt lat="62.649958679876" lon="17.872033947069">
        <ele>88.2</ele>
        <time>2018-01-21T12:25:03Z</time>
      </trkpt>
      <trkpt lat="62.649946023207" lon="17.871985080592">
        <ele>88</ele>
        <time>2018-01-21T12:25:04Z</time>
      </trkpt>
      <trkpt lat="62.64993487528" lon="17.871932609898">
        <ele>88</ele>
        <time>2018-01-21T12:25:05Z</time>
      </trkpt>
      <trkpt lat="62.649917860023" lon="17.871878630462">
        <ele>88</ele>
        <time>2018-01-21T12:25:06Z</time>
      </trkpt>
      <trkpt lat="62.649904951897" lon="17.871827165596">
        <ele>88</ele>
        <time>2018-01-21T12:25:07Z</time>
      </trkpt>
      <trkpt lat="62.649890786486" lon="17.871776036006">
        <ele>88</ele>
        <time>2018-01-21T12:25:08Z</time>
      </trkpt>
      <trkpt lat="62.649880560568" lon="17.871730522289">
        <ele>87.8</ele>
        <time>2018-01-21T12:25:09Z</time>
      </trkpt>
      <trkpt lat="62.649864383501" lon="17.871675034111">
        <ele>87.8</ele>
        <time>2018-01-21T12:25:10Z</time>
      </trkpt>
      <trkpt lat="62.649854325221" lon="17.871628430747">
        <ele>87.8</ele>
        <time>2018-01-21T12:25:11Z</time>
      </trkpt>
      <trkpt lat="62.649838734887" lon="17.871580318641">
        <ele>87.8</ele>
        <time>2018-01-21T12:25:12Z</time>
      </trkpt>
      <trkpt lat="62.649825659123" lon="17.871530697793">
        <ele>87.8</ele>
        <time>2018-01-21T12:25:13Z</time>
      </trkpt>
      <trkpt lat="62.649815936119" lon="17.871480574031">
        <ele>87.6</ele>
        <time>2018-01-21T12:25:14Z</time>
      </trkpt>
      <trkpt lat="62.649804620554" lon="17.871419386161">
        <ele>87.6</ele>
        <time>2018-01-21T12:25:15Z</time>
      </trkpt>
      <trkpt lat="62.649794729912" lon="17.871369430037">
        <ele>87.6</ele>
        <time>2018-01-21T12:25:16Z</time>
      </trkpt>
      <trkpt lat="62.649787689116" lon="17.871328358727">
        <ele>87.6</ele>
        <time>2018-01-21T12:25:17Z</time>
      </trkpt>
      <trkpt lat="62.649781905605" lon="17.87129290329">
        <ele>87.6</ele>
        <time>2018-01-21T12:25:18Z</time>
      </trkpt>
      <trkpt lat="62.649773523705" lon="17.871246467564">
        <ele>88</ele>
        <time>2018-01-21T12:25:19Z</time>
      </trkpt>
      <trkpt lat="62.649761872864" lon="17.87119734963">
        <ele>88</ele>
        <time>2018-01-21T12:25:20Z</time>
      </trkpt>
      <trkpt lat="62.649748126548" lon="17.871157032691">
        <ele>88</ele>
        <time>2018-01-21T12:25:21Z</time>
      </trkpt>
      <trkpt lat="62.649736894802" lon="17.871109004404">
        <ele>88</ele>
        <time>2018-01-21T12:25:22Z</time>
      </trkpt>
      <trkpt lat="62.649724573409" lon="17.871057707176">
        <ele>88</ele>
        <time>2018-01-21T12:25:23Z</time>
      </trkpt>
      <trkpt lat="62.649715353319" lon="17.871013618382">
        <ele>87.8</ele>
        <time>2018-01-21T12:25:24Z</time>
      </trkpt>
      <trkpt lat="62.649704289211" lon="17.87097103833">
        <ele>87.8</ele>
        <time>2018-01-21T12:25:25Z</time>
      </trkpt>
      <trkpt lat="62.649689872343" lon="17.870924183509">
        <ele>87.8</ele>
        <time>2018-01-21T12:25:26Z</time>
      </trkpt>
      <trkpt lat="62.649678556778" lon="17.870896271782">
        <ele>88</ele>
        <time>2018-01-21T12:25:27Z</time>
      </trkpt>
      <trkpt lat="62.649664056091" lon="17.870848243495">
        <ele>88</ele>
        <time>2018-01-21T12:25:28Z</time>
      </trkpt>
      <trkpt lat="62.649653830173" lon="17.870812871877">
        <ele>88</ele>
        <time>2018-01-21T12:25:29Z</time>
      </trkpt>
      <trkpt lat="62.649641257323" lon="17.870767777255">
        <ele>88.2</ele>
        <time>2018-01-21T12:25:30Z</time>
      </trkpt>
      <trkpt lat="62.649629019749" lon="17.870718575502">
        <ele>88.2</ele>
        <time>2018-01-21T12:25:31Z</time>
      </trkpt>
      <trkpt lat="62.649610579569" lon="17.870679767305">
        <ele>88.2</ele>
        <time>2018-01-21T12:25:32Z</time>
      </trkpt>
      <trkpt lat="62.649598341995" lon="17.870653280501">
        <ele>88.2</ele>
        <time>2018-01-21T12:25:33Z</time>
      </trkpt>
      <trkpt lat="62.649586858792" lon="17.870615561951">
        <ele>88.4</ele>
        <time>2018-01-21T12:25:34Z</time>
      </trkpt>
      <trkpt lat="62.649569843535" lon="17.870575245012">
        <ele>88.4</ele>
        <time>2018-01-21T12:25:35Z</time>
      </trkpt>
      <trkpt lat="62.64955852797" lon="17.870541549774">
        <ele>88.6</ele>
        <time>2018-01-21T12:25:36Z</time>
      </trkpt>
      <trkpt lat="62.649548134414" lon="17.87050249012">
        <ele>88.6</ele>
        <time>2018-01-21T12:25:37Z</time>
      </trkpt>
      <trkpt lat="62.64953505865" lon="17.8704706389">
        <ele>88.6</ele>
        <time>2018-01-21T12:25:38Z</time>
      </trkpt>
      <trkpt lat="62.649522150524" lon="17.870449265055">
        <ele>88.6</ele>
        <time>2018-01-21T12:25:39Z</time>
      </trkpt>
      <trkpt lat="62.649502620697" lon="17.870415402179">
        <ele>88.8</ele>
        <time>2018-01-21T12:25:40Z</time>
      </trkpt>
      <trkpt lat="62.64948644363" lon="17.87037759981">
        <ele>88.8</ele>
        <time>2018-01-21T12:25:41Z</time>
      </trkpt>
      <trkpt lat="62.649467668174" lon="17.870344156029">
        <ele>89</ele>
        <time>2018-01-21T12:25:42Z</time>
      </trkpt>
      <trkpt lat="62.649453167487" lon="17.870320267614">
        <ele>89</ele>
        <time>2018-01-21T12:25:43Z</time>
      </trkpt>
      <trkpt lat="62.649439002076" lon="17.870295876285">
        <ele>89.2</ele>
        <time>2018-01-21T12:25:44Z</time>
      </trkpt>
      <trkpt lat="62.649414946023" lon="17.870249440559">
        <ele>89.4</ele>
        <time>2018-01-21T12:25:45Z</time>
      </trkpt>
      <trkpt lat="62.649397846947" lon="17.870210045629">
        <ele>89.6</ele>
        <time>2018-01-21T12:25:46Z</time>
      </trkpt>
      <trkpt lat="62.649381250785" lon="17.870177523857">
        <ele>89.6</ele>
        <time>2018-01-21T12:25:47Z</time>
      </trkpt>
      <trkpt lat="62.649364738442" lon="17.870140643497">
        <ele>89.8</ele>
        <time>2018-01-21T12:25:48Z</time>
      </trkpt>
      <trkpt lat="62.649351746497" lon="17.870112396494">
        <ele>90</ele>
        <time>2018-01-21T12:25:49Z</time>
      </trkpt>
      <trkpt lat="62.649332049032" lon="17.870079036532">
        <ele>90.2</ele>
        <time>2018-01-21T12:25:50Z</time>
      </trkpt>
      <trkpt lat="62.649312770662" lon="17.870050118977">
        <ele>90.4</ele>
        <time>2018-01-21T12:25:51Z</time>
      </trkpt>
      <trkpt lat="62.649298186156" lon="17.870027571666">
        <ele>90.6</ele>
        <time>2018-01-21T12:25:52Z</time>
      </trkpt>
      <trkpt lat="62.649281003261" lon="17.869993960247">
        <ele>90.6</ele>
        <time>2018-01-21T12:25:53Z</time>
      </trkpt>
      <trkpt lat="62.649262060167" lon="17.869955654964">
        <ele>90.8</ele>
        <time>2018-01-21T12:25:54Z</time>
      </trkpt>
      <trkpt lat="62.649244877272" lon="17.86992330083">
        <ele>91</ele>
        <time>2018-01-21T12:25:55Z</time>
      </trkpt>
      <trkpt lat="62.649231298594" lon="17.86989731694">
        <ele>91</ele>
        <time>2018-01-21T12:25:56Z</time>
      </trkpt>
      <trkpt lat="62.64921570826" lon="17.869864040797">
        <ele>91.2</ele>
        <time>2018-01-21T12:25:57Z</time>
      </trkpt>
      <trkpt lat="62.649202967772" lon="17.869837889269">
        <ele>91.4</ele>
        <time>2018-01-21T12:25:58Z</time>
      </trkpt>
      <trkpt lat="62.649192406578" lon="17.869807882067">
        <ele>91.4</ele>
        <time>2018-01-21T12:25:59Z</time>
      </trkpt>
      <trkpt lat="62.649172541475" lon="17.869755495192">
        <ele>91.4</ele>
        <time>2018-01-21T12:26:00Z</time>
      </trkpt>
      <trkpt lat="62.649155693856" lon="17.869728756931">
        <ele>91.4</ele>
        <time>2018-01-21T12:26:01Z</time>
      </trkpt>
      <trkpt lat="62.649139768246" lon="17.869695732245">
        <ele>91.4</ele>
        <time>2018-01-21T12:26:02Z</time>
      </trkpt>
      <trkpt lat="62.649119986962" lon="17.869652900736">
        <ele>91.4</ele>
        <time>2018-01-21T12:26:03Z</time>
      </trkpt>
      <trkpt lat="62.649109006673" lon="17.869622642077">
        <ele>91.6</ele>
        <time>2018-01-21T12:26:04Z</time>
      </trkpt>
      <trkpt lat="62.649098864574" lon="17.869585174984">
        <ele>91.6</ele>
        <time>2018-01-21T12:26:05Z</time>
      </trkpt>
      <trkpt lat="62.649084615344" lon="17.869540499457">
        <ele>91.8</ele>
        <time>2018-01-21T12:26:06Z</time>
      </trkpt>
      <trkpt lat="62.649076317263" lon="17.869517784508">
        <ele>92</ele>
        <time>2018-01-21T12:26:07Z</time>
      </trkpt>
      <trkpt lat="62.64906231949" lon="17.869482580528">
        <ele>92</ele>
        <time>2018-01-21T12:26:08Z</time>
      </trkpt>
      <trkpt lat="62.649047986441" lon="17.86944720891">
        <ele>92.2</ele>
        <time>2018-01-21T12:26:09Z</time>
      </trkpt>
      <trkpt lat="62.649034491582" lon="17.869415273871">
        <ele>92.2</ele>
        <time>2018-01-21T12:26:10Z</time>
      </trkpt>
      <trkpt lat="62.649012950099" lon="17.869379986072">
        <ele>92.4</ele>
        <time>2018-01-21T12:26:11Z</time>
      </trkpt>
      <trkpt lat="62.648986966209" lon="17.869352828716">
        <ele>92.4</ele>
        <time>2018-01-21T12:26:12Z</time>
      </trkpt>
      <trkpt lat="62.648962323423" lon="17.869312595596">
        <ele>92.4</ele>
        <time>2018-01-21T12:26:13Z</time>
      </trkpt>
      <trkpt lat="62.648945894899" lon="17.869273033028">
        <ele>92.4</ele>
        <time>2018-01-21T12:26:14Z</time>
      </trkpt>
      <trkpt lat="62.648929298737" lon="17.869235398297">
        <ele>92.4</ele>
        <time>2018-01-21T12:26:15Z</time>
      </trkpt>
      <trkpt lat="62.648908846901" lon="17.869192566788">
        <ele>92.6</ele>
        <time>2018-01-21T12:26:16Z</time>
      </trkpt>
      <trkpt lat="62.64889635787" lon="17.86916390069">
        <ele>92.6</ele>
        <time>2018-01-21T12:26:17Z</time>
      </trkpt>
      <trkpt lat="62.648882360097" lon="17.869131295099">
        <ele>92.6</ele>
        <time>2018-01-21T12:26:18Z</time>
      </trkpt>
      <trkpt lat="62.648867440315" lon="17.869089134142">
        <ele>92.8</ele>
        <time>2018-01-21T12:26:19Z</time>
      </trkpt>
      <trkpt lat="62.648852436714" lon="17.869046973185">
        <ele>92.8</ele>
        <time>2018-01-21T12:26:20Z</time>
      </trkpt>
      <trkpt lat="62.648839025674" lon="17.869019396734">
        <ele>92.8</ele>
        <time>2018-01-21T12:26:21Z</time>
      </trkpt>
      <trkpt lat="62.648817903286" lon="17.868972709551">
        <ele>93</ele>
        <time>2018-01-21T12:26:22Z</time>
      </trkpt>
      <trkpt lat="62.648805162798" lon="17.868935326277">
        <ele>93.2</ele>
        <time>2018-01-21T12:26:23Z</time>
      </trkpt>
      <trkpt lat="62.648793595776" lon="17.868901798677">
        <ele>93.2</ele>
        <time>2018-01-21T12:26:24Z</time>
      </trkpt>
      <trkpt lat="62.648779598003" lon="17.868852680743">
        <ele>93.4</ele>
        <time>2018-01-21T12:26:25Z</time>
      </trkpt>
      <trkpt lat="62.648771132284" lon="17.86882191917">
        <ele>93.4</ele>
        <time>2018-01-21T12:26:26Z</time>
      </trkpt>
      <trkpt lat="62.648759565262" lon="17.868777998014">
        <ele>93.4</ele>
        <time>2018-01-21T12:26:27Z</time>
      </trkpt>
      <trkpt lat="62.648748752611" lon="17.868730305003">
        <ele>93.4</ele>
        <time>2018-01-21T12:26:28Z</time>
      </trkpt>
      <trkpt lat="62.648737353227" lon="17.868683869277">
        <ele>93.6</ele>
        <time>2018-01-21T12:26:29Z</time>
      </trkpt>
      <trkpt lat="62.648726708214" lon="17.868653610618">
        <ele>93.6</ele>
        <time>2018-01-21T12:26:30Z</time>
      </trkpt>
      <trkpt lat="62.648718913047" lon="17.868609605643">
        <ele>93.6</ele>
        <time>2018-01-21T12:26:31Z</time>
      </trkpt>
      <trkpt lat="62.648712458984" lon="17.868564678659">
        <ele>93.8</ele>
        <time>2018-01-21T12:26:32Z</time>
      </trkpt>
      <trkpt lat="62.648701478695" lon="17.86851011249">
        <ele>93.8</ele>
        <time>2018-01-21T12:26:33Z</time>
      </trkpt>
      <trkpt lat="62.648694102623" lon="17.868473399768">
        <ele>93.8</ele>
        <time>2018-01-21T12:26:34Z</time>
      </trkpt>
      <trkpt lat="62.648685301628" lon="17.868422773092">
        <ele>94</ele>
        <time>2018-01-21T12:26:35Z</time>
      </trkpt>
      <trkpt lat="62.648676584452" lon="17.868365189439">
        <ele>94</ele>
        <time>2018-01-21T12:26:36Z</time>
      </trkpt>
      <trkpt lat="62.648670717122" lon="17.868326884156">
        <ele>94</ele>
        <time>2018-01-21T12:26:37Z</time>
      </trkpt>
      <trkpt lat="62.648666358534" lon="17.868281789534">
        <ele>94</ele>
        <time>2018-01-21T12:26:38Z</time>
      </trkpt>
      <trkpt lat="62.648657808996" lon="17.868234767075">
        <ele>94</ele>
        <time>2018-01-21T12:26:39Z</time>
      </trkpt>
      <trkpt lat="62.648651690209" lon="17.868196880887">
        <ele>94.2</ele>
        <time>2018-01-21T12:26:40Z</time>
      </trkpt>
      <trkpt lat="62.64864573906" lon="17.868150193704">
        <ele>94.4</ele>
        <time>2018-01-21T12:26:41Z</time>
      </trkpt>
      <trkpt lat="62.648636435151" lon="17.868098980295">
        <ele>94.4</ele>
        <time>2018-01-21T12:26:42Z</time>
      </trkpt>
      <trkpt lat="62.648625873957" lon="17.868060339736">
        <ele>94.6</ele>
        <time>2018-01-21T12:26:43Z</time>
      </trkpt>
      <trkpt lat="62.648610199804" lon="17.868013233458">
        <ele>94.6</ele>
        <time>2018-01-21T12:26:44Z</time>
      </trkpt>
      <trkpt lat="62.64859796223" lon="17.867955733624">
        <ele>94.6</ele>
        <time>2018-01-21T12:26:45Z</time>
      </trkpt>
      <trkpt lat="62.648592430176" lon="17.86791080664">
        <ele>94.4</ele>
        <time>2018-01-21T12:26:46Z</time>
      </trkpt>
      <trkpt lat="62.648584048276" lon="17.867861940163">
        <ele>94.4</ele>
        <time>2018-01-21T12:26:47Z</time>
      </trkpt>
      <trkpt lat="62.64857700748" lon="17.86780687108">
        <ele>94.4</ele>
        <time>2018-01-21T12:26:48Z</time>
      </trkpt>
      <trkpt lat="62.648566027191" lon="17.867751047626">
        <ele>94.4</ele>
        <time>2018-01-21T12:26:49Z</time>
      </trkpt>
      <trkpt lat="62.648555549816" lon="17.867699666579">
        <ele>94.6</ele>
        <time>2018-01-21T12:26:50Z</time>
      </trkpt>
      <trkpt lat="62.648546329726" lon="17.867642166745">
        <ele>94.8</ele>
        <time>2018-01-21T12:26:51Z</time>
      </trkpt>
      <trkpt lat="62.648536103808" lon="17.867596820666">
        <ele>94.8</ele>
        <time>2018-01-21T12:26:52Z</time>
      </trkpt>
      <trkpt lat="62.648526799899" lon="17.867545020524">
        <ele>94.8</ele>
        <time>2018-01-21T12:26:53Z</time>
      </trkpt>
      <trkpt lat="62.648516238705" lon="17.867481820998">
        <ele>94.8</ele>
        <time>2018-01-21T12:26:54Z</time>
      </trkpt>
      <trkpt lat="62.648500648371" lon="17.867431110503">
        <ele>94.8</ele>
        <time>2018-01-21T12:26:55Z</time>
      </trkpt>
      <trkpt lat="62.648487404969" lon="17.867371263737">
        <ele>94.8</ele>
        <time>2018-01-21T12:26:56Z</time>
      </trkpt>
      <trkpt lat="62.648479861259" lon="17.867319631233">
        <ele>94.8</ele>
        <time>2018-01-21T12:26:57Z</time>
      </trkpt>
      <trkpt lat="62.64847391011" lon="17.867267663453">
        <ele>94.8</ele>
        <time>2018-01-21T12:26:58Z</time>
      </trkpt>
      <trkpt lat="62.648469132427" lon="17.86722013808">
        <ele>94.8</ele>
        <time>2018-01-21T12:26:59Z</time>
      </trkpt>
      <trkpt lat="62.648461001984" lon="17.867165991006">
        <ele>94.8</ele>
        <time>2018-01-21T12:27:00Z</time>
      </trkpt>
      <trkpt lat="62.648455302292" lon="17.867120309651">
        <ele>94.8</ele>
        <time>2018-01-21T12:27:01Z</time>
      </trkpt>
      <trkpt lat="62.648447590944" lon="17.867072449002">
        <ele>95</ele>
        <time>2018-01-21T12:27:02Z</time>
      </trkpt>
      <trkpt lat="62.648442645623" lon="17.867023917801">
        <ele>95</ele>
        <time>2018-01-21T12:27:03Z</time>
      </trkpt>
      <trkpt lat="62.648436107741" lon="17.866986953622">
        <ele>95.2</ele>
        <time>2018-01-21T12:27:04Z</time>
      </trkpt>
      <trkpt lat="62.648432503524" lon="17.866943619199">
        <ele>95.2</ele>
        <time>2018-01-21T12:27:05Z</time>
      </trkpt>
      <trkpt lat="62.648432754981" lon="17.866892657247">
        <ele>95.4</ele>
        <time>2018-01-21T12:27:06Z</time>
      </trkpt>
      <trkpt lat="62.648430575687" lon="17.866838174897">
        <ele>95.4</ele>
        <time>2018-01-21T12:27:07Z</time>
      </trkpt>
      <trkpt lat="62.648428983126" lon="17.866790062791">
        <ele>95.6</ele>
        <time>2018-01-21T12:27:08Z</time>
      </trkpt>
      <trkpt lat="62.648426720013" lon="17.866749410576">
        <ele>95.8</ele>
        <time>2018-01-21T12:27:09Z</time>
      </trkpt>
      <trkpt lat="62.64842110414" lon="17.866705740877">
        <ele>96</ele>
        <time>2018-01-21T12:27:10Z</time>
      </trkpt>
      <trkpt lat="62.648413811887" lon="17.866667938508">
        <ele>96.2</ele>
        <time>2018-01-21T12:27:11Z</time>
      </trkpt>
      <trkpt lat="62.648405429987" lon="17.866620077859">
        <ele>96.2</ele>
        <time>2018-01-21T12:27:12Z</time>
      </trkpt>
      <trkpt lat="62.648395539345" lon="17.866571798115">
        <ele>96.6</ele>
        <time>2018-01-21T12:27:13Z</time>
      </trkpt>
      <trkpt lat="62.648384559056" lon="17.866533744289">
        <ele>96.6</ele>
        <time>2018-01-21T12:27:14Z</time>
      </trkpt>
      <trkpt lat="62.648377266803" lon="17.866490326047">
        <ele>96.8</ele>
        <time>2018-01-21T12:27:15Z</time>
      </trkpt>
      <trkpt lat="62.648370309826" lon="17.866454200058">
        <ele>97</ele>
        <time>2018-01-21T12:27:16Z</time>
      </trkpt>
      <trkpt lat="62.648361257374" lon="17.866409273074">
        <ele>97</ele>
        <time>2018-01-21T12:27:17Z</time>
      </trkpt>
      <trkpt lat="62.648352288741" lon="17.866362166796">
        <ele>97.4</ele>
        <time>2018-01-21T12:27:18Z</time>
      </trkpt>
      <trkpt lat="62.648347594877" lon="17.86632662754">
        <ele>97.4</ele>
        <time>2018-01-21T12:27:19Z</time>
      </trkpt>
      <trkpt lat="62.648340051167" lon="17.866289998637">
        <ele>97.6</ele>
        <time>2018-01-21T12:27:20Z</time>
      </trkpt>
      <trkpt lat="62.648333010371" lon="17.866264014747">
        <ele>97.8</ele>
        <time>2018-01-21T12:27:21Z</time>
      </trkpt>
      <trkpt lat="62.648323957919" lon="17.866236438296">
        <ele>98</ele>
        <time>2018-01-21T12:27:22Z</time>
      </trkpt>
      <trkpt lat="62.648314402553" lon="17.866209867673">
        <ele>98.2</ele>
        <time>2018-01-21T12:27:23Z</time>
      </trkpt>
      <trkpt lat="62.648299398952" lon="17.866177848815">
        <ele>98.2</ele>
        <time>2018-01-21T12:27:24Z</time>
      </trkpt>
      <trkpt lat="62.648283305704" lon="17.866146584328">
        <ele>98.4</ele>
        <time>2018-01-21T12:27:25Z</time>
      </trkpt>
      <trkpt lat="62.648263775877" lon="17.866118253506">
        <ele>98.6</ele>
        <time>2018-01-21T12:27:26Z</time>
      </trkpt>
      <trkpt lat="62.648251119208" lon="17.866105261561">
        <ele>98.8</ele>
        <time>2018-01-21T12:27:27Z</time>
      </trkpt>
      <trkpt lat="62.648235612693" lon="17.866094784186">
        <ele>99</ele>
        <time>2018-01-21T12:27:28Z</time>
      </trkpt>
      <trkpt lat="62.648220106178" lon="17.866086234648">
        <ele>99.2</ele>
        <time>2018-01-21T12:27:29Z</time>
      </trkpt>
      <trkpt lat="62.648199319066" lon="17.866081456965">
        <ele>99.4</ele>
        <time>2018-01-21T12:27:30Z</time>
      </trkpt>
      <trkpt lat="62.648182555266" lon="17.866086486105">
        <ele>99.6</ele>
        <time>2018-01-21T12:27:31Z</time>
      </trkpt>
      <trkpt lat="62.64816629438" lon="17.866094532729">
        <ele>99.6</ele>
        <time>2018-01-21T12:27:32Z</time>
      </trkpt>
      <trkpt lat="62.648148021838" lon="17.866105010104">
        <ele>99.8</ele>
        <time>2018-01-21T12:27:33Z</time>
      </trkpt>
      <trkpt lat="62.648134862255" lon="17.866112469995">
        <ele>99.8</ele>
        <time>2018-01-21T12:27:34Z</time>
      </trkpt>
      <trkpt lat="62.648121954129" lon="17.866123198827">
        <ele>100</ele>
        <time>2018-01-21T12:27:35Z</time>
      </trkpt>
      <trkpt lat="62.648107537261" lon="17.866140046446">
        <ele>100.2</ele>
        <time>2018-01-21T12:27:36Z</time>
      </trkpt>
      <trkpt lat="62.648095467325" lon="17.866154379495">
        <ele>100.4</ele>
        <time>2018-01-21T12:27:37Z</time>
      </trkpt>
      <trkpt lat="62.648084067941" lon="17.866165946517">
        <ele>100.6</ele>
        <time>2018-01-21T12:27:38Z</time>
      </trkpt>
      <trkpt lat="62.648070992177" lon="17.866182961774">
        <ele>100.6</ele>
        <time>2018-01-21T12:27:39Z</time>
      </trkpt>
      <trkpt lat="62.648053557825" lon="17.866202491601">
        <ele>101</ele>
        <time>2018-01-21T12:27:40Z</time>
      </trkpt>
      <trkpt lat="62.648038805681" lon="17.866221686152">
        <ele>101</ele>
        <time>2018-01-21T12:27:41Z</time>
      </trkpt>
      <trkpt lat="62.648023885899" lon="17.866245155472">
        <ele>101.4</ele>
        <time>2018-01-21T12:27:42Z</time>
      </trkpt>
      <trkpt lat="62.648009971945" lon="17.866265020575">
        <ele>101.4</ele>
        <time>2018-01-21T12:27:43Z</time>
      </trkpt>
      <trkpt lat="62.647997231457" lon="17.866283712212">
        <ele>101.8</ele>
        <time>2018-01-21T12:27:44Z</time>
      </trkpt>
      <trkpt lat="62.647980970571" lon="17.866307684446">
        <ele>102</ele>
        <time>2018-01-21T12:27:45Z</time>
      </trkpt>
      <trkpt lat="62.64796680516" lon="17.866324364427">
        <ele>102.2</ele>
        <time>2018-01-21T12:27:46Z</time>
      </trkpt>
      <trkpt lat="62.647954567586" lon="17.866338529838">
        <ele>102.4</ele>
        <time>2018-01-21T12:27:47Z</time>
      </trkpt>
      <trkpt lat="62.647942413831" lon="17.866363256443">
        <ele>102.6</ele>
        <time>2018-01-21T12:27:48Z</time>
      </trkpt>
      <trkpt lat="62.647932271732" lon="17.86638446265">
        <ele>102.8</ele>
        <time>2018-01-21T12:27:49Z</time>
      </trkpt>
      <trkpt lat="62.647920620891" lon="17.866407764332">
        <ele>103</ele>
        <time>2018-01-21T12:27:50Z</time>
      </trkpt>
      <trkpt lat="62.647907628946" lon="17.866429138177">
        <ele>103.2</ele>
        <time>2018-01-21T12:27:51Z</time>
      </trkpt>
      <trkpt lat="62.647896648657" lon="17.86645067966">
        <ele>103.6</ele>
        <time>2018-01-21T12:27:52Z</time>
      </trkpt>
      <trkpt lat="62.64788633892" lon="17.866474735713">
        <ele>103.8</ele>
        <time>2018-01-21T12:27:53Z</time>
      </trkpt>
      <trkpt lat="62.647875861545" lon="17.866499629956">
        <ele>104</ele>
        <time>2018-01-21T12:27:54Z</time>
      </trkpt>
      <trkpt lat="62.647863121057" lon="17.86652946952">
        <ele>104</ele>
        <time>2018-01-21T12:27:55Z</time>
      </trkpt>
      <trkpt lat="62.647851051121" lon="17.866557045971">
        <ele>104.2</ele>
        <time>2018-01-21T12:27:56Z</time>
      </trkpt>
      <trkpt lat="62.647840489927" lon="17.866588059001">
        <ele>104.4</ele>
        <time>2018-01-21T12:27:57Z</time>
      </trkpt>
      <trkpt lat="62.647828168534" lon="17.866616725099">
        <ele>104.6</ele>
        <time>2018-01-21T12:27:58Z</time>
      </trkpt>
      <trkpt lat="62.647819451358" lon="17.866636841659">
        <ele>104.8</ele>
        <time>2018-01-21T12:27:59Z</time>
      </trkpt>
      <trkpt lat="62.647803190472" lon="17.866659724246">
        <ele>105</ele>
        <time>2018-01-21T12:28:00Z</time>
      </trkpt>
      <trkpt lat="62.647792042545" lon="17.866683193566">
        <ele>105.2</ele>
        <time>2018-01-21T12:28:01Z</time>
      </trkpt>
      <trkpt lat="62.647782822455" lon="17.866705657058">
        <ele>105.4</ele>
        <time>2018-01-21T12:28:02Z</time>
      </trkpt>
      <trkpt lat="62.64777485965" lon="17.866725103066">
        <ele>105.6</ele>
        <time>2018-01-21T12:28:03Z</time>
      </trkpt>
      <trkpt lat="62.64776815413" lon="17.866745806359">
        <ele>105.8</ele>
        <time>2018-01-21T12:28:04Z</time>
      </trkpt>
      <trkpt lat="62.647758682583" lon="17.866771957887">
        <ele>106.2</ele>
        <time>2018-01-21T12:28:05Z</time>
      </trkpt>
      <trkpt lat="62.647749797769" lon="17.866805653125">
        <ele>106.4</ele>
        <time>2018-01-21T12:28:06Z</time>
      </trkpt>
      <trkpt lat="62.647739068937" lon="17.86684295258">
        <ele>106.8</ele>
        <time>2018-01-21T12:28:07Z</time>
      </trkpt>
      <trkpt lat="62.647730938494" lon="17.8668748038">
        <ele>107</ele>
        <time>2018-01-21T12:28:08Z</time>
      </trkpt>
      <trkpt lat="62.64772121549" lon="17.866918138223">
        <ele>107.2</ele>
        <time>2018-01-21T12:28:09Z</time>
      </trkpt>
      <trkpt lat="62.647710067563" lon="17.866969351632">
        <ele>107.4</ele>
        <time>2018-01-21T12:28:10Z</time>
      </trkpt>
      <trkpt lat="62.647704535509" lon="17.867006902544">
        <ele>107.4</ele>
        <time>2018-01-21T12:28:11Z</time>
      </trkpt>
      <trkpt lat="62.647698416722" lon="17.867057193944">
        <ele>107.4</ele>
        <time>2018-01-21T12:28:12Z</time>
      </trkpt>
      <trkpt lat="62.64769020246" lon="17.867104132584">
        <ele>107.6</ele>
        <time>2018-01-21T12:28:13Z</time>
      </trkpt>
      <trkpt lat="62.64768265875" lon="17.867142354048">
        <ele>107.6</ele>
        <time>2018-01-21T12:28:14Z</time>
      </trkpt>
      <trkpt lat="62.647674612126" lon="17.867179569684">
        <ele>107.6</ele>
        <time>2018-01-21T12:28:15Z</time>
      </trkpt>
      <trkpt lat="62.647669499167" lon="17.867217874967">
        <ele>107.8</ele>
        <time>2018-01-21T12:28:16Z</time>
      </trkpt>
      <trkpt lat="62.647663296561" lon="17.867251234929">
        <ele>108</ele>
        <time>2018-01-21T12:28:17Z</time>
      </trkpt>
      <trkpt lat="62.647657010136" lon="17.867283505244">
        <ele>108.2</ele>
        <time>2018-01-21T12:28:18Z</time>
      </trkpt>
      <trkpt lat="62.647651813358" lon="17.867316110835">
        <ele>108.2</ele>
        <time>2018-01-21T12:28:19Z</time>
      </trkpt>
      <trkpt lat="62.647643766734" lon="17.867354499937">
        <ele>108.4</ele>
        <time>2018-01-21T12:28:20Z</time>
      </trkpt>
      <trkpt lat="62.647635468653" lon="17.867392050849">
        <ele>108.6</ele>
        <time>2018-01-21T12:28:21Z</time>
      </trkpt>
      <trkpt lat="62.647629266047" lon="17.867429182666">
        <ele>108.8</ele>
        <time>2018-01-21T12:28:22Z</time>
      </trkpt>
      <trkpt lat="62.647624320726" lon="17.867458854592">
        <ele>109</ele>
        <time>2018-01-21T12:28:23Z</time>
      </trkpt>
      <trkpt lat="62.64761727993" lon="17.867490705812">
        <ele>109.2</ele>
        <time>2018-01-21T12:28:24Z</time>
      </trkpt>
      <trkpt lat="62.647609149487" lon="17.867528005267">
        <ele>109.4</ele>
        <time>2018-01-21T12:28:25Z</time>
      </trkpt>
      <trkpt lat="62.647601773415" lon="17.867565975274">
        <ele>109.8</ele>
        <time>2018-01-21T12:28:26Z</time>
      </trkpt>
      <trkpt lat="62.647596157542" lon="17.867604112919">
        <ele>109.8</ele>
        <time>2018-01-21T12:28:27Z</time>
      </trkpt>
      <trkpt lat="62.647588865289" lon="17.86764007127">
        <ele>110</ele>
        <time>2018-01-21T12:28:28Z</time>
      </trkpt>
      <trkpt lat="62.647580902484" lon="17.867675694345">
        <ele>110.2</ele>
        <time>2018-01-21T12:28:29Z</time>
      </trkpt>
      <trkpt lat="62.647573526412" lon="17.867711401239">
        <ele>110.4</ele>
        <time>2018-01-21T12:28:30Z</time>
      </trkpt>
      <trkpt lat="62.647563216675" lon="17.867750377074">
        <ele>110.6</ele>
        <time>2018-01-21T12:28:31Z</time>
      </trkpt>
      <trkpt lat="62.647558355173" lon="17.867789101452">
        <ele>110.8</ele>
        <time>2018-01-21T12:28:32Z</time>
      </trkpt>
      <trkpt lat="62.647548129255" lon="17.867821539405">
        <ele>111</ele>
        <time>2018-01-21T12:28:33Z</time>
      </trkpt>
      <trkpt lat="62.647536981328" lon="17.867852552435">
        <ele>111.4</ele>
        <time>2018-01-21T12:28:34Z</time>
      </trkpt>
      <trkpt lat="62.64752256446" lon="17.867882559637">
        <ele>111.4</ele>
        <time>2018-01-21T12:28:35Z</time>
      </trkpt>
      <trkpt lat="62.647502783176" lon="17.867907286242">
        <ele>111.6</ele>
        <time>2018-01-21T12:28:36Z</time>
      </trkpt>
      <trkpt lat="62.647479984408" lon="17.867933102494">
        <ele>111.6</ele>
        <time>2018-01-21T12:28:37Z</time>
      </trkpt>
      <trkpt lat="62.647457353278" lon="17.867950704484">
        <ele>111.8</ele>
        <time>2018-01-21T12:28:38Z</time>
      </trkpt>
      <trkpt lat="62.647437739632" lon="17.867969982854">
        <ele>112</ele>
        <time>2018-01-21T12:28:39Z</time>
      </trkpt>
      <trkpt lat="62.647415443778" lon="17.86798289098">
        <ele>112</ele>
        <time>2018-01-21T12:28:40Z</time>
      </trkpt>
      <trkpt lat="62.647389711345" lon="17.867981633695">
        <ele>112.2</ele>
        <time>2018-01-21T12:28:41Z</time>
      </trkpt>
      <trkpt lat="62.647362134894" lon="17.867971659234">
        <ele>112.2</ele>
        <time>2018-01-21T12:28:42Z</time>
      </trkpt>
      <trkpt lat="62.647339922859" lon="17.867962690601">
        <ele>112.4</ele>
        <time>2018-01-21T12:28:43Z</time>
      </trkpt>
      <trkpt lat="62.647321901774" lon="17.867953973425">
        <ele>112.4</ele>
        <time>2018-01-21T12:28:44Z</time>
      </trkpt>
      <trkpt lat="62.64729792954" lon="17.867929498277">
        <ele>112.6</ele>
        <time>2018-01-21T12:28:45Z</time>
      </trkpt>
      <trkpt lat="62.6472761366" lon="17.867895803039">
        <ele>112.6</ele>
        <time>2018-01-21T12:28:46Z</time>
      </trkpt>
      <trkpt lat="62.647259288981" lon="17.867871160253">
        <ele>112.6</ele>
        <time>2018-01-21T12:28:47Z</time>
      </trkpt>
      <trkpt lat="62.647236406394" lon="17.86784542782">
        <ele>112.6</ele>
        <time>2018-01-21T12:28:48Z</time>
      </trkpt>
      <trkpt lat="62.647216206015" lon="17.867811732582">
        <ele>112.8</ele>
        <time>2018-01-21T12:28:49Z</time>
      </trkpt>
      <trkpt lat="62.647196760007" lon="17.867766302684">
        <ele>112.8</ele>
        <time>2018-01-21T12:28:50Z</time>
      </trkpt>
      <trkpt lat="62.647182426958" lon="17.867728416496">
        <ele>113</ele>
        <time>2018-01-21T12:28:51Z</time>
      </trkpt>
      <trkpt lat="62.647166836624" lon="17.867691787593">
        <ele>113.4</ele>
        <time>2018-01-21T12:28:52Z</time>
      </trkpt>
      <trkpt lat="62.64714705534" lon="17.867655745423">
        <ele>113.6</ele>
        <time>2018-01-21T12:28:53Z</time>
      </trkpt>
      <trkpt lat="62.647129537169" lon="17.867612494819">
        <ele>113.6</ele>
        <time>2018-01-21T12:28:54Z</time>
      </trkpt>
      <trkpt lat="62.647114952663" lon="17.867580475961">
        <ele>113.6</ele>
        <time>2018-01-21T12:28:55Z</time>
      </trkpt>
      <trkpt lat="62.647095841931" lon="17.867547115999">
        <ele>113.6</ele>
        <time>2018-01-21T12:28:56Z</time>
      </trkpt>
      <trkpt lat="62.647072624068" lon="17.867506379965">
        <ele>113.6</ele>
        <time>2018-01-21T12:28:57Z</time>
      </trkpt>
      <trkpt lat="62.64705317806" lon="17.867471092166">
        <ele>113.4</ele>
        <time>2018-01-21T12:28:58Z</time>
      </trkpt>
      <trkpt lat="62.647034570242" lon="17.867432283969">
        <ele>113.4</ele>
        <time>2018-01-21T12:28:59Z</time>
      </trkpt>
      <trkpt lat="62.647010933284" lon="17.867371431375">
        <ele>113.6</ele>
        <time>2018-01-21T12:29:00Z</time>
      </trkpt>
      <trkpt lat="62.646998192796" lon="17.86732491183">
        <ele>113.6</ele>
        <time>2018-01-21T12:29:01Z</time>
      </trkpt>
      <trkpt lat="62.646982602462" lon="17.867275626258">
        <ele>114</ele>
        <time>2018-01-21T12:29:02Z</time>
      </trkpt>
      <trkpt lat="62.646959803694" lon="17.86722181446">
        <ele>114.2</ele>
        <time>2018-01-21T12:29:03Z</time>
      </trkpt>
      <trkpt lat="62.646940273867" lon="17.867180156417">
        <ele>114.2</ele>
        <time>2018-01-21T12:29:04Z</time>
      </trkpt>
      <trkpt lat="62.646919654393" lon="17.867128188637">
        <ele>114.4</ele>
        <time>2018-01-21T12:29:05Z</time>
      </trkpt>
      <trkpt lat="62.646907668276" lon="17.867072113726">
        <ele>114.4</ele>
        <time>2018-01-21T12:29:06Z</time>
      </trkpt>
      <trkpt lat="62.646900459842" lon="17.867022073783">
        <ele>114.4</ele>
        <time>2018-01-21T12:29:07Z</time>
      </trkpt>
      <trkpt lat="62.646887467897" lon="17.866969183994">
        <ele>114.4</ele>
        <time>2018-01-21T12:29:08Z</time>
      </trkpt>
      <trkpt lat="62.646876990522" lon="17.866909756323">
        <ele>114.4</ele>
        <time>2018-01-21T12:29:09Z</time>
      </trkpt>
      <trkpt lat="62.646868105708" lon="17.8668496581">
        <ele>114.4</ele>
        <time>2018-01-21T12:29:10Z</time>
      </trkpt>
      <trkpt lat="62.646865339681" lon="17.866792744999">
        <ele>114.4</ele>
        <time>2018-01-21T12:29:11Z</time>
      </trkpt>
      <trkpt lat="62.646870536459" lon="17.866725019247">
        <ele>114.6</ele>
        <time>2018-01-21T12:29:12Z</time>
      </trkpt>
      <trkpt lat="62.646871458468" lon="17.866672464734">
        <ele>114.6</ele>
        <time>2018-01-21T12:29:13Z</time>
      </trkpt>
      <trkpt lat="62.646870955554" lon="17.86660406843">
        <ele>114.6</ele>
        <time>2018-01-21T12:29:14Z</time>
      </trkpt>
      <trkpt lat="62.646870285002" lon="17.86654204237">
        <ele>114.6</ele>
        <time>2018-01-21T12:29:15Z</time>
      </trkpt>
      <trkpt lat="62.646869027717" lon="17.86648001631">
        <ele>114.6</ele>
        <time>2018-01-21T12:29:16Z</time>
      </trkpt>
      <trkpt lat="62.646865674957" lon="17.866409021617">
        <ele>114.6</ele>
        <time>2018-01-21T12:29:17Z</time>
      </trkpt>
      <trkpt lat="62.64686039436" lon="17.866336099087">
        <ele>114.6</ele>
        <time>2018-01-21T12:29:18Z</time>
      </trkpt>
      <trkpt lat="62.646853102107" lon="17.866258063598">
        <ele>114.4</ele>
        <time>2018-01-21T12:29:19Z</time>
      </trkpt>
      <trkpt lat="62.646841535085" lon="17.866179441376">
        <ele>114.4</ele>
        <time>2018-01-21T12:29:20Z</time>
      </trkpt>
      <trkpt lat="62.646836170669" lon="17.866116660945">
        <ele>114.4</ele>
        <time>2018-01-21T12:29:21Z</time>
      </trkpt>
      <trkpt lat="62.646823597819" lon="17.866033009583">
        <ele>114.4</ele>
        <time>2018-01-21T12:29:22Z</time>
      </trkpt>
      <trkpt lat="62.646818736317" lon="17.865956818112">
        <ele>114.2</ele>
        <time>2018-01-21T12:29:23Z</time>
      </trkpt>
      <trkpt lat="62.646818736317" lon="17.865882219202">
        <ele>114.2</ele>
        <time>2018-01-21T12:29:24Z</time>
      </trkpt>
      <trkpt lat="62.646809516227" lon="17.865794460709">
        <ele>114.2</ele>
        <time>2018-01-21T12:29:25Z</time>
      </trkpt>
      <trkpt lat="62.646796608101" lon="17.865716592858">
        <ele>114</ele>
        <time>2018-01-21T12:29:26Z</time>
      </trkpt>
      <trkpt lat="62.64676986984" lon="17.865641742491">
        <ele>114</ele>
        <time>2018-01-21T12:29:27Z</time>
      </trkpt>
      <trkpt lat="62.646746987253" lon="17.865574854929">
        <ele>113.8</ele>
        <time>2018-01-21T12:29:28Z</time>
      </trkpt>
      <trkpt lat="62.64673382767" lon="17.865529760307">
        <ele>113.6</ele>
        <time>2018-01-21T12:29:29Z</time>
      </trkpt>
      <trkpt lat="62.646713459653" lon="17.8654666446">
        <ele>113.6</ele>
        <time>2018-01-21T12:29:30Z</time>
      </trkpt>
      <trkpt lat="62.646691163799" lon="17.865419035408">
        <ele>113.4</ele>
        <time>2018-01-21T12:29:31Z</time>
      </trkpt>
      <trkpt lat="62.646666353375" lon="17.865363966325">
        <ele>113.2</ele>
        <time>2018-01-21T12:29:32Z</time>
      </trkpt>
      <trkpt lat="62.646633831603" lon="17.865292887813">
        <ele>113.2</ele>
        <time>2018-01-21T12:29:33Z</time>
      </trkpt>
      <trkpt lat="62.646607512437" lon="17.865242428775">
        <ele>113.2</ele>
        <time>2018-01-21T12:29:34Z</time>
      </trkpt>
      <trkpt lat="62.646583288746" lon="17.865192388832">
        <ele>113.2</ele>
        <time>2018-01-21T12:29:35Z</time>
      </trkpt>
      <trkpt lat="62.646563256005" lon="17.865129356944">
        <ele>113</ele>
        <time>2018-01-21T12:29:36Z</time>
      </trkpt>
      <trkpt lat="62.646547917128" lon="17.865070935101">
        <ele>113</ele>
        <time>2018-01-21T12:29:37Z</time>
      </trkpt>
      <trkpt lat="62.646536350106" lon="17.865027013945">
        <ele>113</ele>
        <time>2018-01-21T12:29:38Z</time>
      </trkpt>
      <trkpt lat="62.646518161383" lon="17.864986529368">
        <ele>113</ele>
        <time>2018-01-21T12:29:39Z</time>
      </trkpt>
      <trkpt lat="62.646493686235" lon="17.864948307904">
        <ele>113</ele>
        <time>2018-01-21T12:29:40Z</time>
      </trkpt>
      <trkpt lat="62.646468456716" lon="17.864911511363">
        <ele>113</ele>
        <time>2018-01-21T12:29:41Z</time>
      </trkpt>
      <trkpt lat="62.646447669604" lon="17.86488242617">
        <ele>113.2</ele>
        <time>2018-01-21T12:29:42Z</time>
      </trkpt>
      <trkpt lat="62.646417494764" lon="17.864850155855">
        <ele>113.2</ele>
        <time>2018-01-21T12:29:43Z</time>
      </trkpt>
      <trkpt lat="62.646387236105" lon="17.864814448961">
        <ele>113.2</ele>
        <time>2018-01-21T12:29:44Z</time>
      </trkpt>
      <trkpt lat="62.646358737645" lon="17.864795673505">
        <ele>113.2</ele>
        <time>2018-01-21T12:29:45Z</time>
      </trkpt>
      <trkpt lat="62.646326802606" lon="17.864779244981">
        <ele>113.2</ele>
        <time>2018-01-21T12:29:46Z</time>
      </trkpt>
      <trkpt lat="62.646296627766" lon="17.864757368222">
        <ele>113.2</ele>
        <time>2018-01-21T12:29:47Z</time>
      </trkpt>
      <trkpt lat="62.646264944184" lon="17.864735240006">
        <ele>113.2</ele>
        <time>2018-01-21T12:29:48Z</time>
      </trkpt>
      <trkpt lat="62.646233763516" lon="17.864723840622">
        <ele>113.2</ele>
        <time>2018-01-21T12:29:49Z</time>
      </trkpt>
      <trkpt lat="62.646198810993" lon="17.864729707952">
        <ele>113</ele>
        <time>2018-01-21T12:29:50Z</time>
      </trkpt>
      <trkpt lat="62.646169139067" lon="17.864749740693">
        <ele>113</ele>
        <time>2018-01-21T12:29:51Z</time>
      </trkpt>
      <trkpt lat="62.646139131865" lon="17.864785531406">
        <ele>113</ele>
        <time>2018-01-21T12:29:52Z</time>
      </trkpt>
      <trkpt lat="62.646117590382" lon="17.864823501413">
        <ele>113</ele>
        <time>2018-01-21T12:29:53Z</time>
      </trkpt>
      <trkpt lat="62.646094372519" lon="17.864869601863">
        <ele>112.6</ele>
        <time>2018-01-21T12:29:54Z</time>
      </trkpt>
      <trkpt lat="62.646070651742" lon="17.864927520792">
        <ele>112.4</ele>
        <time>2018-01-21T12:29:55Z</time>
      </trkpt>
      <trkpt lat="62.646051038096" lon="17.864993234888">
        <ele>112.4</ele>
        <time>2018-01-21T12:29:56Z</time>
      </trkpt>
      <trkpt lat="62.646027317319" lon="17.865054841853">
        <ele>112.2</ele>
        <time>2018-01-21T12:29:57Z</time>
      </trkpt>
      <trkpt lat="62.645999070316" lon="17.865120975044">
        <ele>112.2</ele>
        <time>2018-01-21T12:29:58Z</time>
      </trkpt>
      <trkpt lat="62.645970655675" lon="17.865179732163">
        <ele>112</ele>
        <time>2018-01-21T12:29:59Z</time>
      </trkpt>
      <trkpt lat="62.64592916527" lon="17.865256594186">
        <ele>111.8</ele>
        <time>2018-01-21T12:30:00Z</time>
      </trkpt>
      <trkpt lat="62.645891195263" lon="17.86532331411">
        <ele>111.4</ele>
        <time>2018-01-21T12:30:01Z</time>
      </trkpt>
      <trkpt lat="62.645853979627" lon="17.865384250523">
        <ele>110.8</ele>
        <time>2018-01-21T12:30:02Z</time>
      </trkpt>
      <trkpt lat="62.645813746507" lon="17.865449294067">
        <ele>110.2</ele>
        <time>2018-01-21T12:30:03Z</time>
      </trkpt>
      <trkpt lat="62.645773429568" lon="17.865518109466">
        <ele>109.8</ele>
        <time>2018-01-21T12:30:04Z</time>
      </trkpt>
      <trkpt lat="62.645727832032" lon="17.865603018113">
        <ele>109.4</ele>
        <time>2018-01-21T12:30:05Z</time>
      </trkpt>
      <trkpt lat="62.645682485953" lon="17.865681975611">
        <ele>109.2</ele>
        <time>2018-01-21T12:30:06Z</time>
      </trkpt>
      <trkpt lat="62.645635714951" lon="17.865772751588">
        <ele>108.6</ele>
        <time>2018-01-21T12:30:07Z</time>
      </trkpt>
      <trkpt lat="62.645592129071" lon="17.865864449574">
        <ele>108</ele>
        <time>2018-01-21T12:30:08Z</time>
      </trkpt>
      <trkpt lat="62.645551644494" lon="17.865954890275">
        <ele>107.6</ele>
        <time>2018-01-21T12:30:09Z</time>
      </trkpt>
      <trkpt lat="62.645503616207" lon="17.866050276297">
        <ele>107</ele>
        <time>2018-01-21T12:30:10Z</time>
      </trkpt>
      <trkpt lat="62.64546145525" lon="17.866138537704">
        <ele>106.2</ele>
        <time>2018-01-21T12:30:11Z</time>
      </trkpt>
      <trkpt lat="62.645404542149" lon="17.866246580395">
        <ele>105.2</ele>
        <time>2018-01-21T12:30:12Z</time>
      </trkpt>
      <trkpt lat="62.645353580197" lon="17.866339368028">
        <ele>104.4</ele>
        <time>2018-01-21T12:30:13Z</time>
      </trkpt>
      <trkpt lat="62.645306557738" lon="17.866420923915">
        <ele>103.2</ele>
        <time>2018-01-21T12:30:14Z</time>
      </trkpt>
      <trkpt lat="62.64524352585" lon="17.866525194751">
        <ele>102.6</ele>
        <time>2018-01-21T12:30:15Z</time>
      </trkpt>
      <trkpt lat="62.645191055156" lon="17.866620077859">
        <ele>101.8</ele>
        <time>2018-01-21T12:30:16Z</time>
      </trkpt>
      <trkpt lat="62.645150235303" lon="17.866715799157">
        <ele>101.2</ele>
        <time>2018-01-21T12:30:17Z</time>
      </trkpt>
      <trkpt lat="62.645104721586" lon="17.866845215693">
        <ele>100.4</ele>
        <time>2018-01-21T12:30:18Z</time>
      </trkpt>
      <trkpt lat="62.645072199814" lon="17.866953845117">
        <ele>99.8</ele>
        <time>2018-01-21T12:30:19Z</time>
      </trkpt>
      <trkpt lat="62.645037834024" lon="17.867095583046">
        <ele>99</ele>
        <time>2018-01-21T12:30:20Z</time>
      </trkpt>
      <trkpt lat="62.645005982804" lon="17.867241679563">
        <ele>98</ele>
        <time>2018-01-21T12:30:21Z</time>
      </trkpt>
      <trkpt lat="62.644969353901" lon="17.86740789264">
        <ele>97</ele>
        <time>2018-01-21T12:30:22Z</time>
      </trkpt>
      <trkpt lat="62.644938340871" lon="17.867530771294">
        <ele>96</ele>
        <time>2018-01-21T12:30:23Z</time>
      </trkpt>
      <trkpt lat="62.644903304529" lon="17.867660020192">
        <ele>94.6</ele>
        <time>2018-01-21T12:30:24Z</time>
      </trkpt>
      <trkpt lat="62.644861227391" lon="17.867798153904">
        <ele>93.6</ele>
        <time>2018-01-21T12:30:25Z</time>
      </trkpt>
      <trkpt lat="62.64482526904" lon="17.867911058097">
        <ele>93</ele>
        <time>2018-01-21T12:30:26Z</time>
      </trkpt>
      <trkpt lat="62.644797776408" lon="17.868015664209">
        <ele>92.2</ele>
        <time>2018-01-21T12:30:27Z</time>
      </trkpt>
      <trkpt lat="62.64477916859" lon="17.868123203986">
        <ele>91.8</ele>
        <time>2018-01-21T12:30:28Z</time>
      </trkpt>
      <trkpt lat="62.644766176645" lon="17.8682242897">
        <ele>91.6</ele>
        <time>2018-01-21T12:30:29Z</time>
      </trkpt>
      <trkpt lat="62.644745892447" lon="17.868353622417">
        <ele>91.6</ele>
        <time>2018-01-21T12:30:30Z</time>
      </trkpt>
      <trkpt lat="62.644736756176" lon="17.868450181905">
        <ele>91.8</ele>
        <time>2018-01-21T12:30:31Z</time>
      </trkpt>
      <trkpt lat="62.644727955181" lon="17.868536180199">
        <ele>92</ele>
        <time>2018-01-21T12:30:32Z</time>
      </trkpt>
      <trkpt lat="62.644718735091" lon="17.868617149353">
        <ele>92.2</ele>
        <time>2018-01-21T12:30:33Z</time>
      </trkpt>
      <trkpt lat="62.644708844449" lon="17.868693843738">
        <ele>92.8</ele>
        <time>2018-01-21T12:30:34Z</time>
      </trkpt>
      <trkpt lat="62.644702809481" lon="17.868774561435">
        <ele>93.2</ele>
        <time>2018-01-21T12:30:35Z</time>
      </trkpt>
      <trkpt lat="62.644705659327" lon="17.868852177829">
        <ele>93</ele>
        <time>2018-01-21T12:30:36Z</time>
      </trkpt>
      <trkpt lat="62.644701803653" lon="17.868936583562">
        <ele>93.2</ele>
        <time>2018-01-21T12:30:37Z</time>
      </trkpt>
      <trkpt lat="62.644695768685" lon="17.869007075341">
        <ele>93.2</ele>
        <time>2018-01-21T12:30:38Z</time>
      </trkpt>
      <trkpt lat="62.644693757029" lon="17.869079159681">
        <ele>93.2</ele>
        <time>2018-01-21T12:30:39Z</time>
      </trkpt>
      <trkpt lat="62.644690823364" lon="17.869160967025">
        <ele>93</ele>
        <time>2018-01-21T12:30:40Z</time>
      </trkpt>
      <trkpt lat="62.644684536939" lon="17.869231207347">
        <ele>93</ele>
        <time>2018-01-21T12:30:41Z</time>
      </trkpt>
      <trkpt lat="62.644685542767" lon="17.869302034402">
        <ele>93</ele>
        <time>2018-01-21T12:30:42Z</time>
      </trkpt>
      <trkpt lat="62.644678837247" lon="17.869376214217">
        <ele>92.8</ele>
        <time>2018-01-21T12:30:43Z</time>
      </trkpt>
      <trkpt lat="62.644673640469" lon="17.86945391443">
        <ele>92.8</ele>
        <time>2018-01-21T12:30:44Z</time>
      </trkpt>
      <trkpt lat="62.644670539166" lon="17.869535805593">
        <ele>92.8</ele>
        <time>2018-01-21T12:30:45Z</time>
      </trkpt>
      <trkpt lat="62.6446693657" lon="17.869622306801">
        <ele>92.4</ele>
        <time>2018-01-21T12:30:46Z</time>
      </trkpt>
      <trkpt lat="62.644668024596" lon="17.869704449421">
        <ele>92.2</ele>
        <time>2018-01-21T12:30:47Z</time>
      </trkpt>
      <trkpt lat="62.644659894153" lon="17.869810648094">
        <ele>92</ele>
        <time>2018-01-21T12:30:48Z</time>
      </trkpt>
      <trkpt lat="62.644652937176" lon="17.869899160958">
        <ele>91.8</ele>
        <time>2018-01-21T12:30:49Z</time>
      </trkpt>
      <trkpt lat="62.64464422" lon="17.869998067378">
        <ele>91.8</ele>
        <time>2018-01-21T12:30:50Z</time>
      </trkpt>
      <trkpt lat="62.644635502824" lon="17.870092028477">
        <ele>91.6</ele>
        <time>2018-01-21T12:30:51Z</time>
      </trkpt>
      <trkpt lat="62.644628378209" lon="17.870184564653">
        <ele>91.6</ele>
        <time>2018-01-21T12:30:52Z</time>
      </trkpt>
      <trkpt lat="62.644619661033" lon="17.870270227671">
        <ele>91.4</ele>
        <time>2018-01-21T12:30:53Z</time>
      </trkpt>
      <trkpt lat="62.64460482507" lon="17.870367457711">
        <ele>91.2</ele>
        <time>2018-01-21T12:30:54Z</time>
      </trkpt>
      <trkpt lat="62.644596191713" lon="17.87047231528">
        <ele>91.2</ele>
        <time>2018-01-21T12:30:55Z</time>
      </trkpt>
      <trkpt lat="62.644585965795" lon="17.870566863112">
        <ele>91</ele>
        <time>2018-01-21T12:30:56Z</time>
      </trkpt>
      <trkpt lat="62.644572722393" lon="17.87067264269">
        <ele>90.4</ele>
        <time>2018-01-21T12:30:57Z</time>
      </trkpt>
      <trkpt lat="62.644562412656" lon="17.870780014829">
        <ele>89.8</ele>
        <time>2018-01-21T12:30:58Z</time>
      </trkpt>
      <trkpt lat="62.644553946937" lon="17.870866096942">
        <ele>89.2</ele>
        <time>2018-01-21T12:30:59Z</time>
      </trkpt>
      <trkpt lat="62.644543972476" lon="17.870984533189">
        <ele>88.4</ele>
        <time>2018-01-21T12:31:00Z</time>
      </trkpt>
      <trkpt lat="62.644539530069" lon="17.87109509045">
        <ele>87.8</ele>
        <time>2018-01-21T12:31:01Z</time>
      </trkpt>
      <trkpt lat="62.644535925852" lon="17.871172706844">
        <ele>87.8</ele>
        <time>2018-01-21T12:31:02Z</time>
      </trkpt>
      <trkpt lat="62.644529136513" lon="17.871264991563">
        <ele>87.8</ele>
        <time>2018-01-21T12:31:03Z</time>
      </trkpt>
      <trkpt lat="62.644518994414" lon="17.871355264626">
        <ele>87.8</ele>
        <time>2018-01-21T12:31:04Z</time>
      </trkpt>
      <trkpt lat="62.644505415736" lon="17.871446627336">
        <ele>87.8</ele>
        <time>2018-01-21T12:31:05Z</time>
      </trkpt>
      <trkpt lat="62.644499716044" lon="17.87153262563">
        <ele>87.8</ele>
        <time>2018-01-21T12:31:06Z</time>
      </trkpt>
      <trkpt lat="62.644495608913" lon="17.871608649463">
        <ele>87.8</ele>
        <time>2018-01-21T12:31:07Z</time>
      </trkpt>
      <trkpt lat="62.644484712443" lon="17.871687523142">
        <ele>87.8</ele>
        <time>2018-01-21T12:31:08Z</time>
      </trkpt>
      <trkpt lat="62.644471720498" lon="17.871765307174">
        <ele>87.8</ele>
        <time>2018-01-21T12:31:09Z</time>
      </trkpt>
      <trkpt lat="62.644453196499" lon="17.871853987676">
        <ele>87.6</ele>
        <time>2018-01-21T12:31:10Z</time>
      </trkpt>
      <trkpt lat="62.644432577025" lon="17.871933448088">
        <ele>87.6</ele>
        <time>2018-01-21T12:31:11Z</time>
      </trkpt>
      <trkpt lat="62.64441623232" lon="17.872021793314">
        <ele>87.4</ele>
        <time>2018-01-21T12:31:12Z</time>
      </trkpt>
      <trkpt lat="62.644405084393" lon="17.872095218758">
        <ele>87.4</ele>
        <time>2018-01-21T12:31:13Z</time>
      </trkpt>
      <trkpt lat="62.644392427724" lon="17.872167554555">
        <ele>87.2</ele>
        <time>2018-01-21T12:31:14Z</time>
      </trkpt>
      <trkpt lat="62.644372730259" lon="17.872260258369">
        <ele>87.2</ele>
        <time>2018-01-21T12:31:15Z</time>
      </trkpt>
      <trkpt lat="62.64435336807" lon="17.872337958582">
        <ele>87</ele>
        <time>2018-01-21T12:31:16Z</time>
      </trkpt>
      <trkpt lat="62.644334005881" lon="17.872410462017">
        <ele>87</ele>
        <time>2018-01-21T12:31:17Z</time>
      </trkpt>
      <trkpt lat="62.64431313495" lon="17.872495873578">
        <ele>87</ele>
        <time>2018-01-21T12:31:18Z</time>
      </trkpt>
      <trkpt lat="62.644288408345" lon="17.872566868271">
        <ele>87</ele>
        <time>2018-01-21T12:31:19Z</time>
      </trkpt>
      <trkpt lat="62.644262172998" lon="17.872661919017">
        <ele>86.8</ele>
        <time>2018-01-21T12:31:20Z</time>
      </trkpt>
      <trkpt lat="62.644245073922" lon="17.87273710466">
        <ele>86.8</ele>
        <time>2018-01-21T12:31:21Z</time>
      </trkpt>
      <trkpt lat="62.644229818864" lon="17.872827377723">
        <ele>86.6</ele>
        <time>2018-01-21T12:31:22Z</time>
      </trkpt>
      <trkpt lat="62.644218503299" lon="17.872920584451">
        <ele>86.4</ele>
        <time>2018-01-21T12:31:23Z</time>
      </trkpt>
      <trkpt lat="62.64420165568" lon="17.873023430364">
        <ele>86.2</ele>
        <time>2018-01-21T12:31:24Z</time>
      </trkpt>
      <trkpt lat="62.644202326232" lon="17.873116050359">
        <ele>86.2</ele>
        <time>2018-01-21T12:31:25Z</time>
      </trkpt>
      <trkpt lat="62.6441915974" lon="17.873220572652">
        <ele>85.8</ele>
        <time>2018-01-21T12:31:26Z</time>
      </trkpt>
      <trkpt lat="62.644176593799" lon="17.873324256755">
        <ele>85.4</ele>
        <time>2018-01-21T12:31:27Z</time>
      </trkpt>
      <trkpt lat="62.644159578542" lon="17.873426013021">
        <ele>84.8</ele>
        <time>2018-01-21T12:31:28Z</time>
      </trkpt>
      <trkpt lat="62.644147257149" lon="17.873528104563">
        <ele>84.6</ele>
        <time>2018-01-21T12:31:29Z</time>
      </trkpt>
      <trkpt lat="62.644125883304" lon="17.873620473101">
        <ele>83.6</ele>
        <time>2018-01-21T12:31:30Z</time>
      </trkpt>
      <trkpt lat="62.644109287142" lon="17.873714685657">
        <ele>83.6</ele>
        <time>2018-01-21T12:31:31Z</time>
      </trkpt>
      <trkpt lat="62.644096379016" lon="17.873802108874">
        <ele>83.4</ele>
        <time>2018-01-21T12:31:32Z</time>
      </trkpt>
      <trkpt lat="62.644076681551" lon="17.873887771892">
        <ele>83.2</ele>
        <time>2018-01-21T12:31:33Z</time>
      </trkpt>
      <trkpt lat="62.644053463688" lon="17.873988438511">
        <ele>83.4</ele>
        <time>2018-01-21T12:31:34Z</time>
      </trkpt>
      <trkpt lat="62.644032508938" lon="17.874076113185">
        <ele>83.4</ele>
        <time>2018-01-21T12:31:35Z</time>
      </trkpt>
      <trkpt lat="62.644006692686" lon="17.874173678501">
        <ele>83.4</ele>
        <time>2018-01-21T12:31:36Z</time>
      </trkpt>
      <trkpt lat="62.643978780959" lon="17.874275602405">
        <ele>83.2</ele>
        <time>2018-01-21T12:31:37Z</time>
      </trkpt>
      <trkpt lat="62.643956401286" lon="17.874339891578">
        <ele>82.8</ele>
        <time>2018-01-21T12:31:38Z</time>
      </trkpt>
      <trkpt lat="62.64393343488" lon="17.874420106361">
        <ele>82</ele>
        <time>2018-01-21T12:31:39Z</time>
      </trkpt>
      <trkpt lat="62.64391248013" lon="17.874527981414">
        <ele>81.8</ele>
        <time>2018-01-21T12:31:40Z</time>
      </trkpt>
      <trkpt lat="62.643895883968" lon="17.874614231165">
        <ele>81.4</ele>
        <time>2018-01-21T12:31:41Z</time>
      </trkpt>
      <trkpt lat="62.643878868711" lon="17.874716574164">
        <ele>81.2</ele>
        <time>2018-01-21T12:31:42Z</time>
      </trkpt>
      <trkpt lat="62.643863613653" lon="17.874809864711">
        <ele>81.2</ele>
        <time>2018-01-21T12:31:43Z</time>
      </trkpt>
      <trkpt lat="62.643844083826" lon="17.874900305412">
        <ele>81.2</ele>
        <time>2018-01-21T12:31:44Z</time>
      </trkpt>
      <trkpt lat="62.643825559827" lon="17.87499770309">
        <ele>81</ele>
        <time>2018-01-21T12:31:45Z</time>
      </trkpt>
      <trkpt lat="62.643813825167" lon="17.875071631448">
        <ele>80.8</ele>
        <time>2018-01-21T12:31:46Z</time>
      </trkpt>
      <trkpt lat="62.643802425783" lon="17.875147152367">
        <ele>80.6</ele>
        <time>2018-01-21T12:31:47Z</time>
      </trkpt>
      <trkpt lat="62.643789685295" lon="17.875231055186">
        <ele>80.4</ele>
        <time>2018-01-21T12:31:48Z</time>
      </trkpt>
      <trkpt lat="62.643781135757" lon="17.875296266368">
        <ele>80.4</ele>
        <time>2018-01-21T12:31:49Z</time>
      </trkpt>
      <trkpt lat="62.64376914964" lon="17.875382683757">
        <ele>80.4</ele>
        <time>2018-01-21T12:31:50Z</time>
      </trkpt>
      <trkpt lat="62.643756073876" lon="17.875464994015">
        <ele>80.4</ele>
        <time>2018-01-21T12:31:51Z</time>
      </trkpt>
      <trkpt lat="62.643746434691" lon="17.875533474138">
        <ele>80.4</ele>
        <time>2018-01-21T12:31:52Z</time>
      </trkpt>
      <trkpt lat="62.643736544049" lon="17.875605139383">
        <ele>80.4</ele>
        <time>2018-01-21T12:31:53Z</time>
      </trkpt>
      <trkpt lat="62.643729167977" lon="17.875680408845">
        <ele>80.4</ele>
        <time>2018-01-21T12:31:54Z</time>
      </trkpt>
      <trkpt lat="62.643715421661" lon="17.875767915881">
        <ele>80.2</ele>
        <time>2018-01-21T12:31:55Z</time>
      </trkpt>
      <trkpt lat="62.643701926802" lon="17.875851315786">
        <ele>80</ele>
        <time>2018-01-21T12:31:56Z</time>
      </trkpt>
      <trkpt lat="62.643692622893" lon="17.875920801737">
        <ele>80</ele>
        <time>2018-01-21T12:31:57Z</time>
      </trkpt>
      <trkpt lat="62.643685414459" lon="17.875992886077">
        <ele>79.8</ele>
        <time>2018-01-21T12:31:58Z</time>
      </trkpt>
      <trkpt lat="62.643675859093" lon="17.876065976245">
        <ele>79.6</ele>
        <time>2018-01-21T12:31:59Z</time>
      </trkpt>
      <trkpt lat="62.643662531872" lon="17.876145771933">
        <ele>79.6</ele>
        <time>2018-01-21T12:32:00Z</time>
      </trkpt>
      <trkpt lat="62.643654149972" lon="17.876216263712">
        <ele>79.6</ele>
        <time>2018-01-21T12:32:01Z</time>
      </trkpt>
      <trkpt lat="62.643650294298" lon="17.876281223437">
        <ele>79.4</ele>
        <time>2018-01-21T12:32:02Z</time>
      </trkpt>
      <trkpt lat="62.64364425933" lon="17.876355403252">
        <ele>79.4</ele>
        <time>2018-01-21T12:32:03Z</time>
      </trkpt>
      <trkpt lat="62.643634368688" lon="17.876428074325">
        <ele>79.4</ele>
        <time>2018-01-21T12:32:04Z</time>
      </trkpt>
      <trkpt lat="62.643613665395" lon="17.876501248312">
        <ele>79.4</ele>
        <time>2018-01-21T12:32:05Z</time>
      </trkpt>
      <trkpt lat="62.643584077288" lon="17.876581546914">
        <ele>79.4</ele>
        <time>2018-01-21T12:32:06Z</time>
      </trkpt>
      <trkpt lat="62.643552561344" lon="17.876640220214">
        <ele>79.2</ele>
        <time>2018-01-21T12:32:07Z</time>
      </trkpt>
      <trkpt lat="62.643509059283" lon="17.876684811922">
        <ele>79</ele>
        <time>2018-01-21T12:32:08Z</time>
      </trkpt>
      <trkpt lat="62.643470837819" lon="17.876723955395">
        <ele>78.8</ele>
        <time>2018-01-21T12:32:09Z</time>
      </trkpt>
      <trkpt lat="62.643430101785" lon="17.876743401403">
        <ele>78.8</ele>
        <time>2018-01-21T12:32:10Z</time>
      </trkpt>
      <trkpt lat="62.643392718511" lon="17.876751112751">
        <ele>78.6</ele>
        <time>2018-01-21T12:32:11Z</time>
      </trkpt>
      <trkpt lat="62.643356257246" lon="17.876756980081">
        <ele>78.4</ele>
        <time>2018-01-21T12:32:12Z</time>
      </trkpt>
      <trkpt lat="62.643318706334" lon="17.876755890434">
        <ele>78.4</ele>
        <time>2018-01-21T12:32:13Z</time>
      </trkpt>
      <trkpt lat="62.643279395223" lon="17.876751615665">
        <ele>78.2</ele>
        <time>2018-01-21T12:32:14Z</time>
      </trkpt>
      <trkpt lat="62.6432444427" lon="17.876744071955">
        <ele>78.2</ele>
        <time>2018-01-21T12:32:15Z</time>
      </trkpt>
      <trkpt lat="62.643215776602" lon="17.87672940363">
        <ele>78.2</ele>
        <time>2018-01-21T12:32:16Z</time>
      </trkpt>
      <trkpt lat="62.643191217635" lon="17.876724709766">
        <ele>78</ele>
        <time>2018-01-21T12:32:17Z</time>
      </trkpt>
      <trkpt lat="62.643160036967" lon="17.876713813296">
        <ele>78.2</ele>
        <time>2018-01-21T12:32:18Z</time>
      </trkpt>
      <trkpt lat="62.643129443032" lon="17.876703084464">
        <ele>78.2</ele>
        <time>2018-01-21T12:32:19Z</time>
      </trkpt>
      <trkpt lat="62.64310278859" lon="17.876697217134">
        <ele>78.2</ele>
        <time>2018-01-21T12:32:20Z</time>
      </trkpt>
      <trkpt lat="62.643072362293" lon="17.876682716447">
        <ele>78.2</ele>
        <time>2018-01-21T12:32:21Z</time>
      </trkpt>
      <trkpt lat="62.64303908615" lon="17.876667042294">
        <ele>78.2</ele>
        <time>2018-01-21T12:32:22Z</time>
      </trkpt>
      <trkpt lat="62.643014024269" lon="17.876656900195">
        <ele>78.2</ele>
        <time>2018-01-21T12:32:23Z</time>
      </trkpt>
      <trkpt lat="62.642986196361" lon="17.876647093372">
        <ele>78.2</ele>
        <time>2018-01-21T12:32:24Z</time>
      </trkpt>
      <trkpt lat="62.64295861991" lon="17.876633766151">
        <ele>78.4</ele>
        <time>2018-01-21T12:32:25Z</time>
      </trkpt>
      <trkpt lat="62.642937329884" lon="17.87662630626">
        <ele>78.6</ele>
        <time>2018-01-21T12:32:26Z</time>
      </trkpt>
      <trkpt lat="62.642916291315" lon="17.876619852197">
        <ele>78.6</ele>
        <time>2018-01-21T12:32:27Z</time>
      </trkpt>
      <trkpt lat="62.64289743204" lon="17.876617756722">
        <ele>78.6</ele>
        <time>2018-01-21T12:32:28Z</time>
      </trkpt>
      <trkpt lat="62.642880752059" lon="17.876614823057">
        <ele>78.8</ele>
        <time>2018-01-21T12:32:29Z</time>
      </trkpt>
      <trkpt lat="62.642862311879" lon="17.876612811401">
        <ele>78.8</ele>
        <time>2018-01-21T12:32:30Z</time>
      </trkpt>
      <trkpt lat="62.642847392097" lon="17.876614403962">
        <ele>79</ele>
        <time>2018-01-21T12:32:31Z</time>
      </trkpt>
      <trkpt lat="62.642831969401" lon="17.876605016234">
        <ele>79</ele>
        <time>2018-01-21T12:32:32Z</time>
      </trkpt>
      <trkpt lat="62.642816798162" lon="17.876606608795">
        <ele>79.4</ele>
        <time>2018-01-21T12:32:33Z</time>
      </trkpt>
      <trkpt lat="62.642801375466" lon="17.876606776433">
        <ele>79.6</ele>
        <time>2018-01-21T12:32:34Z</time>
      </trkpt>
      <trkpt lat="62.642786288046" lon="17.876609039546">
        <ele>80</ele>
        <time>2018-01-21T12:32:35Z</time>
      </trkpt>
      <trkpt lat="62.64276835078" lon="17.876610632107">
        <ele>80.2</ele>
        <time>2018-01-21T12:32:36Z</time>
      </trkpt>
      <trkpt lat="62.642751251704" lon="17.876616331799">
        <ele>80.8</ele>
        <time>2018-01-21T12:32:37Z</time>
      </trkpt>
      <trkpt lat="62.642731135144" lon="17.876623624052">
        <ele>81.2</ele>
        <time>2018-01-21T12:32:38Z</time>
      </trkpt>
      <trkpt lat="62.642710348032" lon="17.876633598513">
        <ele>81.6</ele>
        <time>2018-01-21T12:32:39Z</time>
      </trkpt>
      <trkpt lat="62.642690818205" lon="17.876648518295">
        <ele>82</ele>
        <time>2018-01-21T12:32:40Z</time>
      </trkpt>
      <trkpt lat="62.642676568975" lon="17.876663940991">
        <ele>82.2</ele>
        <time>2018-01-21T12:32:41Z</time>
      </trkpt>
      <trkpt lat="62.642643209013" lon="17.876679782782">
        <ele>82.2</ele>
        <time>2018-01-21T12:32:42Z</time>
      </trkpt>
      <trkpt lat="62.642622086625" lon="17.876694618745">
        <ele>82.2</ele>
        <time>2018-01-21T12:32:43Z</time>
      </trkpt>
      <trkpt lat="62.642601299513" lon="17.876711550183">
        <ele>82.4</ele>
        <time>2018-01-21T12:32:44Z</time>
      </trkpt>
      <trkpt lat="62.642580931496" lon="17.87672940363">
        <ele>82.4</ele>
        <time>2018-01-21T12:32:45Z</time>
      </trkpt>
      <trkpt lat="62.642561820764" lon="17.87674365286">
        <ele>82.6</ele>
        <time>2018-01-21T12:32:46Z</time>
      </trkpt>
      <trkpt lat="62.64254455405" lon="17.876761338669">
        <ele>82.8</ele>
        <time>2018-01-21T12:32:47Z</time>
      </trkpt>
      <trkpt lat="62.642529047535" lon="17.876787741654">
        <ele>83</ele>
        <time>2018-01-21T12:32:48Z</time>
      </trkpt>
      <trkpt lat="62.642512451373" lon="17.876812300621">
        <ele>83.2</ele>
        <time>2018-01-21T12:32:49Z</time>
      </trkpt>
      <trkpt lat="62.642490406976" lon="17.876837697778">
        <ele>83.4</ele>
        <time>2018-01-21T12:32:50Z</time>
      </trkpt>
      <trkpt lat="62.642473391719" lon="17.876862340564">
        <ele>83.4</ele>
        <time>2018-01-21T12:32:51Z</time>
      </trkpt>
      <trkpt lat="62.642460148317" lon="17.876885893703">
        <ele>83.6</ele>
        <time>2018-01-21T12:32:52Z</time>
      </trkpt>
      <trkpt lat="62.642443803612" lon="17.87691548181">
        <ele>83.8</ele>
        <time>2018-01-21T12:32:53Z</time>
      </trkpt>
      <trkpt lat="62.642423351776" lon="17.876953367998">
        <ele>83.8</ele>
        <time>2018-01-21T12:32:54Z</time>
      </trkpt>
      <trkpt lat="62.642407593804" lon="17.876988152883">
        <ele>83.8</ele>
        <time>2018-01-21T12:32:55Z</time>
      </trkpt>
      <trkpt lat="62.642388231615" lon="17.877030816754">
        <ele>84</ele>
        <time>2018-01-21T12:32:56Z</time>
      </trkpt>
      <trkpt lat="62.642366103399" lon="17.877072307159">
        <ele>84</ele>
        <time>2018-01-21T12:32:57Z</time>
      </trkpt>
      <trkpt lat="62.642349088142" lon="17.877105918578">
        <ele>84.2</ele>
        <time>2018-01-21T12:32:58Z</time>
      </trkpt>
      <trkpt lat="62.642330731781" lon="17.877143385671">
        <ele>84.2</ele>
        <time>2018-01-21T12:32:59Z</time>
      </trkpt>
      <trkpt lat="62.642305334624" lon="17.877192168329">
        <ele>84.4</ele>
        <time>2018-01-21T12:33:00Z</time>
      </trkpt>
      <trkpt lat="62.642276919983" lon="17.87724237591">
        <ele>84.4</ele>
        <time>2018-01-21T12:33:01Z</time>
      </trkpt>
      <trkpt lat="62.642252528654" lon="17.877293337862">
        <ele>84.4</ele>
        <time>2018-01-21T12:33:02Z</time>
      </trkpt>
      <trkpt lat="62.642224449289" lon="17.877343880719">
        <ele>84.2</ele>
        <time>2018-01-21T12:33:03Z</time>
      </trkpt>
      <trkpt lat="62.642197040476" lon="17.877394172119">
        <ele>84</ele>
        <time>2018-01-21T12:33:04Z</time>
      </trkpt>
      <trkpt lat="62.642170386034" lon="17.877450330849">
        <ele>84</ele>
        <time>2018-01-21T12:33:05Z</time>
      </trkpt>
      <trkpt lat="62.642141719936" lon="17.877508333597">
        <ele>83.6</ele>
        <time>2018-01-21T12:33:06Z</time>
      </trkpt>
      <trkpt lat="62.64211791534" lon="17.877568767096">
        <ele>83.4</ele>
        <time>2018-01-21T12:33:07Z</time>
      </trkpt>
      <trkpt lat="62.642089081604" lon="17.877634145916">
        <ele>83.2</ele>
        <time>2018-01-21T12:33:08Z</time>
      </trkpt>
      <trkpt lat="62.642059744954" lon="17.877699440917">
        <ele>83.2</ele>
        <time>2018-01-21T12:33:09Z</time>
      </trkpt>
      <trkpt lat="62.642027223182" lon="17.877779404243">
        <ele>82.8</ele>
        <time>2018-01-21T12:33:10Z</time>
      </trkpt>
      <trkpt lat="62.64199889236" lon="17.877856266266">
        <ele>82.4</ele>
        <time>2018-01-21T12:33:11Z</time>
      </trkpt>
      <trkpt lat="62.641968130787" lon="17.877955843238">
        <ele>81.8</ele>
        <time>2018-01-21T12:33:12Z</time>
      </trkpt>
      <trkpt lat="62.641941141069" lon="17.878052402726">
        <ele>81.4</ele>
        <time>2018-01-21T12:33:13Z</time>
      </trkpt>
      <trkpt lat="62.641912139695" lon="17.878162792349">
        <ele>80.8</ele>
        <time>2018-01-21T12:33:14Z</time>
      </trkpt>
      <trkpt lat="62.641884479425" lon="17.878283994623">
        <ele>80.4</ele>
        <time>2018-01-21T12:33:15Z</time>
      </trkpt>
      <trkpt lat="62.641860926286" lon="17.878407627648">
        <ele>79.8</ele>
        <time>2018-01-21T12:33:16Z</time>
      </trkpt>
      <trkpt lat="62.641840306812" lon="17.878526734447">
        <ele>79.2</ele>
        <time>2018-01-21T12:33:17Z</time>
      </trkpt>
      <trkpt lat="62.641818765329" lon="17.878660341933">
        <ele>78.4</ele>
        <time>2018-01-21T12:33:18Z</time>
      </trkpt>
      <trkpt lat="62.641800492787" lon="17.878782382397">
        <ele>77.8</ele>
        <time>2018-01-21T12:33:19Z</time>
      </trkpt>
      <trkpt lat="62.641790518326" lon="17.878902243567">
        <ele>76.8</ele>
        <time>2018-01-21T12:33:20Z</time>
      </trkpt>
      <trkpt lat="62.641785321548" lon="17.879014225751">
        <ele>76</ele>
        <time>2018-01-21T12:33:21Z</time>
      </trkpt>
      <trkpt lat="62.641783812806" lon="17.879130231247">
        <ele>75.4</ele>
        <time>2018-01-21T12:33:22Z</time>
      </trkpt>
      <trkpt lat="62.641785489186" lon="17.879233496255">
        <ele>75</ele>
        <time>2018-01-21T12:33:23Z</time>
      </trkpt>
      <trkpt lat="62.641791607973" lon="17.8793638348">
        <ele>74.8</ele>
        <time>2018-01-21T12:33:24Z</time>
      </trkpt>
      <trkpt lat="62.641801414796" lon="17.879505069815">
        <ele>74.4</ele>
        <time>2018-01-21T12:33:25Z</time>
      </trkpt>
      <trkpt lat="62.641809712877" lon="17.879622248777">
        <ele>74</ele>
        <time>2018-01-21T12:33:26Z</time>
      </trkpt>
      <trkpt lat="62.641818178596" lon="17.879738757187">
        <ele>73.6</ele>
        <time>2018-01-21T12:33:27Z</time>
      </trkpt>
      <trkpt lat="62.641821866632" lon="17.879835316675">
        <ele>73.2</ele>
        <time>2018-01-21T12:33:28Z</time>
      </trkpt>
      <trkpt lat="62.641825889944" lon="17.879947131221">
        <ele>73</ele>
        <time>2018-01-21T12:33:29Z</time>
      </trkpt>
      <trkpt lat="62.641833852749" lon="17.88003354861">
        <ele>72.8</ele>
        <time>2018-01-21T12:33:30Z</time>
      </trkpt>
      <trkpt lat="62.641845587409" lon="17.88015089521">
        <ele>72.8</ele>
        <time>2018-01-21T12:33:31Z</time>
      </trkpt>
      <trkpt lat="62.641843659572" lon="17.880262542118">
        <ele>72.8</ele>
        <time>2018-01-21T12:33:32Z</time>
      </trkpt>
      <trkpt lat="62.641835277672" lon="17.880372261189">
        <ele>72.6</ele>
        <time>2018-01-21T12:33:33Z</time>
      </trkpt>
      <trkpt lat="62.64182454884" lon="17.880466809021">
        <ele>72.2</ele>
        <time>2018-01-21T12:33:34Z</time>
      </trkpt>
      <trkpt lat="62.641810718705" lon="17.880563117052">
        <ele>71.8</ele>
        <time>2018-01-21T12:33:35Z</time>
      </trkpt>
      <trkpt lat="62.641793284353" lon="17.880670824467">
        <ele>71.2</ele>
        <time>2018-01-21T12:33:36Z</time>
      </trkpt>
      <trkpt lat="62.641782136426" lon="17.880760175521">
        <ele>71</ele>
        <time>2018-01-21T12:33:37Z</time>
      </trkpt>
      <trkpt lat="62.64178096296" lon="17.880827146902">
        <ele>70.8</ele>
        <time>2018-01-21T12:33:38Z</time>
      </trkpt>
      <trkpt lat="62.641774005983" lon="17.880881545433">
        <ele>71</ele>
        <time>2018-01-21T12:33:39Z</time>
      </trkpt>
      <trkpt lat="62.64176252278" lon="17.880957736904">
        <ele>71.2</ele>
        <time>2018-01-21T12:33:40Z</time>
      </trkpt>
      <trkpt lat="62.641751710129" lon="17.881011297245">
        <ele>71.4</ele>
        <time>2018-01-21T12:33:41Z</time>
      </trkpt>
      <trkpt lat="62.641739388736" lon="17.881064857586">
        <ele>71.8</ele>
        <time>2018-01-21T12:33:42Z</time>
      </trkpt>
      <trkpt lat="62.6417273188" lon="17.881112718235">
        <ele>71.6</ele>
        <time>2018-01-21T12:33:43Z</time>
      </trkpt>
      <trkpt lat="62.641715165045" lon="17.881175414847">
        <ele>71.6</ele>
        <time>2018-01-21T12:33:44Z</time>
      </trkpt>
      <trkpt lat="62.641702089281" lon="17.881263340978">
        <ele>71.8</ele>
        <time>2018-01-21T12:33:45Z</time>
      </trkpt>
      <trkpt lat="62.641693455924" lon="17.881356044792">
        <ele>71.8</ele>
        <time>2018-01-21T12:33:46Z</time>
      </trkpt>
      <trkpt lat="62.641691192811" lon="17.881433409729">
        <ele>72</ele>
        <time>2018-01-21T12:33:47Z</time>
      </trkpt>
      <trkpt lat="62.641687420956" lon="17.881537010013">
        <ele>72.2</ele>
        <time>2018-01-21T12:33:48Z</time>
      </trkpt>
      <trkpt lat="62.641676524486" lon="17.88161353676">
        <ele>72</ele>
        <time>2018-01-21T12:33:49Z</time>
      </trkpt>
      <trkpt lat="62.641657581392" lon="17.88169567938">
        <ele>71.6</ele>
        <time>2018-01-21T12:33:50Z</time>
      </trkpt>
      <trkpt lat="62.641640901411" lon="17.881755442327">
        <ele>71.2</ele>
        <time>2018-01-21T12:33:51Z</time>
      </trkpt>
      <trkpt lat="62.641616426263" lon="17.881792574144">
        <ele>70.8</ele>
        <time>2018-01-21T12:33:52Z</time>
      </trkpt>
      <trkpt lat="62.641595136237" lon="17.881807326288">
        <ele>70.8</ele>
        <time>2018-01-21T12:33:53Z</time>
      </trkpt>
      <trkpt lat="62.641571247822" lon="17.881817971301">
        <ele>70.6</ele>
        <time>2018-01-21T12:33:54Z</time>
      </trkpt>
      <trkpt lat="62.64153788786" lon="17.881832723445">
        <ele>70.8</ele>
        <time>2018-01-21T12:33:55Z</time>
      </trkpt>
      <trkpt lat="62.641506958649" lon="17.881843117001">
        <ele>70.6</ele>
        <time>2018-01-21T12:33:56Z</time>
      </trkpt>
      <trkpt lat="62.641484746614" lon="17.88185242091">
        <ele>70.8</ele>
        <time>2018-01-21T12:33:57Z</time>
      </trkpt>
      <trkpt lat="62.641464630054" lon="17.881859796982">
        <ele>70.8</ele>
        <time>2018-01-21T12:33:58Z</time>
      </trkpt>
      <trkpt lat="62.641437724155" lon="17.881869855262">
        <ele>71</ele>
        <time>2018-01-21T12:33:59Z</time>
      </trkpt>
      <trkpt lat="62.641406962582" lon="17.881886535243">
        <ele>71</ele>
        <time>2018-01-21T12:34:00Z</time>
      </trkpt>
      <trkpt lat="62.641385169642" lon="17.881901371206">
        <ele>71.4</ele>
        <time>2018-01-21T12:34:01Z</time>
      </trkpt>
      <trkpt lat="62.641355246259" lon="17.881918721739">
        <ele>71.6</ele>
        <time>2018-01-21T12:34:02Z</time>
      </trkpt>
      <trkpt lat="62.641331860758" lon="17.881934731168">
        <ele>71.6</ele>
        <time>2018-01-21T12:34:03Z</time>
      </trkpt>
      <trkpt lat="62.641314174949" lon="17.88195551828">
        <ele>71.6</ele>
        <time>2018-01-21T12:34:04Z</time>
      </trkpt>
      <trkpt lat="62.641288191059" lon="17.88198401674">
        <ele>71.6</ele>
        <time>2018-01-21T12:34:05Z</time>
      </trkpt>
      <trkpt lat="62.641253154717" lon="17.882018131073">
        <ele>71.6</ele>
        <time>2018-01-21T12:34:06Z</time>
      </trkpt>
      <trkpt lat="62.641219124203" lon="17.882058448012">
        <ele>71.6</ele>
        <time>2018-01-21T12:34:07Z</time>
      </trkpt>
      <trkpt lat="62.641186770069" lon="17.882118630054">
        <ele>71.6</ele>
        <time>2018-01-21T12:34:08Z</time>
      </trkpt>
      <trkpt lat="62.641161708188" lon="17.882188786557">
        <ele>71.6</ele>
        <time>2018-01-21T12:34:09Z</time>
      </trkpt>
      <trkpt lat="62.641128683502" lon="17.882299343818">
        <ele>71.4</ele>
        <time>2018-01-21T12:34:10Z</time>
      </trkpt>
      <trkpt lat="62.641104292173" lon="17.882375535289">
        <ele>70.8</ele>
        <time>2018-01-21T12:34:11Z</time>
      </trkpt>
      <trkpt lat="62.641074620247" lon="17.882483158885">
        <ele>69.8</ele>
        <time>2018-01-21T12:34:12Z</time>
      </trkpt>
      <trkpt lat="62.64105509042" lon="17.882572174663">
        <ele>68.8</ele>
        <time>2018-01-21T12:34:13Z</time>
      </trkpt>
      <trkpt lat="62.641040505914" lon="17.882668650332">
        <ele>67.4</ele>
        <time>2018-01-21T12:34:14Z</time>
      </trkpt>
      <trkpt lat="62.64102994472" lon="17.882764706906">
        <ele>66.8</ele>
        <time>2018-01-21T12:34:15Z</time>
      </trkpt>
      <trkpt lat="62.641023993571" lon="17.882854728512">
        <ele>66.4</ele>
        <time>2018-01-21T12:34:16Z</time>
      </trkpt>
      <trkpt lat="62.641018545336" lon="17.882933015458">
        <ele>66.2</ele>
        <time>2018-01-21T12:34:17Z</time>
      </trkpt>
      <trkpt lat="62.64101150454" lon="17.883028652937">
        <ele>66.2</ele>
        <time>2018-01-21T12:34:18Z</time>
      </trkpt>
      <trkpt lat="62.641002452088" lon="17.883094450852">
        <ele>66.4</ele>
        <time>2018-01-21T12:34:19Z</time>
      </trkpt>
      <trkpt lat="62.640992058532" lon="17.883171312875">
        <ele>66.8</ele>
        <time>2018-01-21T12:34:20Z</time>
      </trkpt>
      <trkpt lat="62.640980240053" lon="17.883248258717">
        <ele>66.8</ele>
        <time>2018-01-21T12:34:21Z</time>
      </trkpt>
      <trkpt lat="62.64096875685" lon="17.88333182626">
        <ele>67</ele>
        <time>2018-01-21T12:34:22Z</time>
      </trkpt>
      <trkpt lat="62.640966326099" lon="17.883409526473">
        <ele>67</ele>
        <time>2018-01-21T12:34:23Z</time>
      </trkpt>
      <trkpt lat="62.640973450714" lon="17.883502984658">
        <ele>67</ele>
        <time>2018-01-21T12:34:24Z</time>
      </trkpt>
      <trkpt lat="62.640989543962" lon="17.883601388164">
        <ele>66.4</ele>
        <time>2018-01-21T12:34:25Z</time>
      </trkpt>
      <trkpt lat="62.641007145952" lon="17.883682524956">
        <ele>66</ele>
        <time>2018-01-21T12:34:26Z</time>
      </trkpt>
      <trkpt lat="62.641023406838" lon="17.883753184373">
        <ele>65.6</ele>
        <time>2018-01-21T12:34:27Z</time>
      </trkpt>
      <trkpt lat="62.641039751543" lon="17.883818982288">
        <ele>64.8</ele>
        <time>2018-01-21T12:34:28Z</time>
      </trkpt>
      <trkpt lat="62.641055341877" lon="17.883880505434">
        <ele>64.2</ele>
        <time>2018-01-21T12:34:29Z</time>
      </trkpt>
      <trkpt lat="62.641083085966" lon="17.883986201193">
        <ele>63.8</ele>
        <time>2018-01-21T12:34:30Z</time>
      </trkpt>
      <trkpt lat="62.64110957277" lon="17.884083095957">
        <ele>63.4</ele>
        <time>2018-01-21T12:34:31Z</time>
      </trkpt>
      <trkpt lat="62.641132455357" lon="17.884174542486">
        <ele>63</ele>
        <time>2018-01-21T12:34:32Z</time>
      </trkpt>
      <trkpt lat="62.641154248297" lon="17.884260456961">
        <ele>62.6</ele>
        <time>2018-01-21T12:34:33Z</time>
      </trkpt>
      <trkpt lat="62.641174783952" lon="17.884337989536">
        <ele>62.2</ele>
        <time>2018-01-21T12:34:34Z</time>
      </trkpt>
      <trkpt lat="62.641197331263" lon="17.884415941206">
        <ele>61.6</ele>
        <time>2018-01-21T12:34:35Z</time>
      </trkpt>
      <trkpt lat="62.641225326809" lon="17.884501604224">
        <ele>61.2</ele>
        <time>2018-01-21T12:34:36Z</time>
      </trkpt>
      <trkpt lat="62.641252651803" lon="17.8845689947">
        <ele>61</ele>
        <time>2018-01-21T12:34:37Z</time>
      </trkpt>
      <trkpt lat="62.641284670661" lon="17.884636552814">
        <ele>60.8</ele>
        <time>2018-01-21T12:34:38Z</time>
      </trkpt>
      <trkpt lat="62.641313672035" lon="17.88469388501">
        <ele>60.8</ele>
        <time>2018-01-21T12:34:39Z</time>
      </trkpt>
      <trkpt lat="62.641352228775" lon="17.884764544427">
        <ele>60.4</ele>
        <time>2018-01-21T12:34:40Z</time>
      </trkpt>
      <trkpt lat="62.641385002004" lon="17.884819781148">
        <ele>60.2</ele>
        <time>2018-01-21T12:34:41Z</time>
      </trkpt>
      <trkpt lat="62.641423977839" lon="17.884888764185">
        <ele>59.8</ele>
        <time>2018-01-21T12:34:42Z</time>
      </trkpt>
      <trkpt lat="62.641457673077" lon="17.884951963711">
        <ele>59.4</ele>
        <time>2018-01-21T12:34:43Z</time>
      </trkpt>
      <trkpt lat="62.641487093546" lon="17.88500569169">
        <ele>59.4</ele>
        <time>2018-01-21T12:34:44Z</time>
      </trkpt>
      <trkpt lat="62.641524728277" lon="17.885076183469">
        <ele>59.4</ele>
        <time>2018-01-21T12:34:45Z</time>
      </trkpt>
      <trkpt lat="62.641559177886" lon="17.885140137366">
        <ele>59.2</ele>
        <time>2018-01-21T12:34:46Z</time>
      </trkpt>
      <trkpt lat="62.641590274735" lon="17.885198978304">
        <ele>59</ele>
        <time>2018-01-21T12:34:47Z</time>
      </trkpt>
      <trkpt lat="62.641630843131" lon="17.88527810344">
        <ele>58.8</ele>
        <time>2018-01-21T12:34:48Z</time>
      </trkpt>
      <trkpt lat="62.641664622188" lon="17.885342308794">
        <ele>58.4</ele>
        <time>2018-01-21T12:34:49Z</time>
      </trkpt>
      <trkpt lat="62.641709884448" lon="17.885426295432">
        <ele>57.6</ele>
        <time>2018-01-21T12:34:50Z</time>
      </trkpt>
      <trkpt lat="62.641750955758" lon="17.885500810523">
        <ele>57</ele>
        <time>2018-01-21T12:34:51Z</time>
      </trkpt>
      <trkpt lat="62.641794290181" lon="17.885581360582">
        <ele>56.2</ele>
        <time>2018-01-21T12:34:52Z</time>
      </trkpt>
      <trkpt lat="62.641832176369" lon="17.885651349447">
        <ele>55.6</ele>
        <time>2018-01-21T12:34:53Z</time>
      </trkpt>
      <trkpt lat="62.641872241851" lon="17.885722008864">
        <ele>55</ele>
        <time>2018-01-21T12:34:54Z</time>
      </trkpt>
      <trkpt lat="62.641912391152" lon="17.885798954706">
        <ele>54.2</ele>
        <time>2018-01-21T12:34:55Z</time>
      </trkpt>
      <trkpt lat="62.641945164381" lon="17.885857879463">
        <ele>53.8</ele>
        <time>2018-01-21T12:34:56Z</time>
      </trkpt>
      <trkpt lat="62.641977267058" lon="17.885914038193">
        <ele>53.8</ele>
        <time>2018-01-21T12:34:57Z</time>
      </trkpt>
      <trkpt lat="62.642006771346" lon="17.885954187494">
        <ele>54</ele>
        <time>2018-01-21T12:34:58Z</time>
      </trkpt>
      <trkpt lat="62.642032168503" lon="17.88598805037">
        <ele>54.2</ele>
        <time>2018-01-21T12:34:59Z</time>
      </trkpt>
      <trkpt lat="62.642065444646" lon="17.886048064774">
        <ele>54.4</ele>
        <time>2018-01-21T12:35:00Z</time>
      </trkpt>
      <trkpt lat="62.642088075776" lon="17.886090728645">
        <ele>54.8</ele>
        <time>2018-01-21T12:35:01Z</time>
      </trkpt>
      <trkpt lat="62.642109365802" lon="17.886139846579">
        <ele>54.6</ele>
        <time>2018-01-21T12:35:02Z</time>
      </trkpt>
      <trkpt lat="62.642132248389" lon="17.88619173054">
        <ele>54.6</ele>
        <time>2018-01-21T12:35:03Z</time>
      </trkpt>
      <trkpt lat="62.642155382433" lon="17.886241435207">
        <ele>54.6</ele>
        <time>2018-01-21T12:35:04Z</time>
      </trkpt>
      <trkpt lat="62.642182204513" lon="17.88629734248">
        <ele>54.4</ele>
        <time>2018-01-21T12:35:05Z</time>
      </trkpt>
      <trkpt lat="62.642215229199" lon="17.886367666621">
        <ele>54.2</ele>
        <time>2018-01-21T12:35:06Z</time>
      </trkpt>
      <trkpt lat="62.64225202574" lon="17.886445534472">
        <ele>54</ele>
        <time>2018-01-21T12:35:07Z</time>
      </trkpt>
      <trkpt lat="62.642288403186" lon="17.886533376784">
        <ele>53.6</ele>
        <time>2018-01-21T12:35:08Z</time>
      </trkpt>
      <trkpt lat="62.642320505863" lon="17.886618955983">
        <ele>53.4</ele>
        <time>2018-01-21T12:35:09Z</time>
      </trkpt>
      <trkpt lat="62.642352943816" lon="17.886713252358">
        <ele>52.8</ele>
        <time>2018-01-21T12:35:10Z</time>
      </trkpt>
      <trkpt lat="62.642375994041" lon="17.886796316987">
        <ele>52</ele>
        <time>2018-01-21T12:35:11Z</time>
      </trkpt>
      <trkpt lat="62.642395523868" lon="17.886891954466">
        <ele>51.4</ele>
        <time>2018-01-21T12:35:12Z</time>
      </trkpt>
      <trkpt lat="62.642407509985" lon="17.886983652452">
        <ele>50.6</ele>
        <time>2018-01-21T12:35:13Z</time>
      </trkpt>
      <trkpt lat="62.642409521641" lon="17.887074512248">
        <ele>50.2</ele>
        <time>2018-01-21T12:35:14Z</time>
      </trkpt>
      <trkpt lat="62.642398289895" lon="17.887171407012">
        <ele>49.6</ele>
        <time>2018-01-21T12:35:15Z</time>
      </trkpt>
      <trkpt lat="62.642374736756" lon="17.887247095569">
        <ele>49.2</ele>
        <time>2018-01-21T12:35:16Z</time>
      </trkpt>
      <trkpt lat="62.642346405934" lon="17.88730652324">
        <ele>48.8</ele>
        <time>2018-01-21T12:35:17Z</time>
      </trkpt>
      <trkpt lat="62.642312626877" lon="17.88736771111">
        <ele>48.4</ele>
        <time>2018-01-21T12:35:18Z</time>
      </trkpt>
      <trkpt lat="62.642280775657" lon="17.887420768537">
        <ele>48</ele>
        <time>2018-01-21T12:35:19Z</time>
      </trkpt>
      <trkpt lat="62.642241632184" lon="17.887483548968">
        <ele>47.8</ele>
        <time>2018-01-21T12:35:20Z</time>
      </trkpt>
      <trkpt lat="62.642203578358" lon="17.887538115137">
        <ele>47.6</ele>
        <time>2018-01-21T12:35:21Z</time>
      </trkpt>
      <trkpt lat="62.642165356894" lon="17.88758731689">
        <ele>47.4</ele>
        <time>2018-01-21T12:35:22Z</time>
      </trkpt>
      <trkpt lat="62.642126548697" lon="17.887643727077">
        <ele>47.2</ele>
        <time>2018-01-21T12:35:23Z</time>
      </trkpt>
      <trkpt lat="62.642076760211" lon="17.887687815871">
        <ele>46.6</ele>
        <time>2018-01-21T12:35:24Z</time>
      </trkpt>
      <trkpt lat="62.642036694729" lon="17.887727881353">
        <ele>46.4</ele>
        <time>2018-01-21T12:35:25Z</time>
      </trkpt>
      <trkpt lat="62.642011046115" lon="17.887799798055">
        <ele>46</ele>
        <time>2018-01-21T12:35:26Z</time>
      </trkpt>
      <trkpt lat="62.641989420813" lon="17.887862662305">
        <ele>46</ele>
        <time>2018-01-21T12:35:27Z</time>
      </trkpt>
      <trkpt lat="62.641966454407" lon="17.887921000329">
        <ele>45.8</ele>
        <time>2018-01-21T12:35:28Z</time>
      </trkpt>
      <trkpt lat="62.64195027734" lon="17.887972297557">
        <ele>45.8</ele>
        <time>2018-01-21T12:35:29Z</time>
      </trkpt>
      <trkpt lat="62.641933597359" lon="17.888043627526">
        <ele>45.8</ele>
        <time>2018-01-21T12:35:30Z</time>
      </trkpt>
      <trkpt lat="62.641918593758" lon="17.888111688554">
        <ele>45.8</ele>
        <time>2018-01-21T12:35:31Z</time>
      </trkpt>
      <trkpt lat="62.64190082413" lon="17.888179414306">
        <ele>45.8</ele>
        <time>2018-01-21T12:35:32Z</time>
      </trkpt>
      <trkpt lat="62.641883473597" lon="17.888240602176">
        <ele>45.6</ele>
        <time>2018-01-21T12:35:33Z</time>
      </trkpt>
      <trkpt lat="62.641867547987" lon="17.88829474925">
        <ele>45.6</ele>
        <time>2018-01-21T12:35:34Z</time>
      </trkpt>
      <trkpt lat="62.641854639861" lon="17.88834336427">
        <ele>45.4</ele>
        <time>2018-01-21T12:35:35Z</time>
      </trkpt>
      <trkpt lat="62.641842486106" lon="17.888410335651">
        <ele>45.4</ele>
        <time>2018-01-21T12:35:36Z</time>
      </trkpt>
      <trkpt lat="62.641826644315" lon="17.888479737783">
        <ele>45.2</ele>
        <time>2018-01-21T12:35:37Z</time>
      </trkpt>
      <trkpt lat="62.641811221619" lon="17.888554504331">
        <ele>45.2</ele>
        <time>2018-01-21T12:35:38Z</time>
      </trkpt>
      <trkpt lat="62.641801750072" lon="17.888612926174">
        <ele>45</ele>
        <time>2018-01-21T12:35:39Z</time>
      </trkpt>
      <trkpt lat="62.641787919937" lon="17.888687608903">
        <ele>44.8</ele>
        <time>2018-01-21T12:35:40Z</time>
      </trkpt>
      <trkpt lat="62.641776269096" lon="17.888729015489">
        <ele>44.6</ele>
        <time>2018-01-21T12:35:41Z</time>
      </trkpt>
      <trkpt lat="62.641764115341" lon="17.888771846998">
        <ele>44.6</ele>
        <time>2018-01-21T12:35:42Z</time>
      </trkpt>
      <trkpt lat="62.641756906907" lon="17.888803279123">
        <ele>44.4</ele>
        <time>2018-01-21T12:35:43Z</time>
      </trkpt>
      <trkpt lat="62.641752296862" lon="17.888822725131">
        <ele>44.6</ele>
        <time>2018-01-21T12:35:44Z</time>
      </trkpt>
      <trkpt lat="62.641745842799" lon="17.8888521456">
        <ele>44.8</ele>
        <time>2018-01-21T12:35:45Z</time>
      </trkpt>
      <trkpt lat="62.641740226926" lon="17.888876956024">
        <ele>45</ele>
        <time>2018-01-21T12:35:46Z</time>
      </trkpt>
      <trkpt lat="62.641734611053" lon="17.888896402032">
        <ele>45.4</ele>
        <time>2018-01-21T12:35:47Z</time>
      </trkpt>
      <trkpt lat="62.641727905533" lon="17.888922050646">
        <ele>45.6</ele>
        <time>2018-01-21T12:35:48Z</time>
      </trkpt>
      <trkpt lat="62.641722457298" lon="17.888938730627">
        <ele>45.8</ele>
        <time>2018-01-21T12:35:49Z</time>
      </trkpt>
      <trkpt lat="62.641714997407" lon="17.88895859573">
        <ele>46</ele>
        <time>2018-01-21T12:35:50Z</time>
      </trkpt>
      <trkpt lat="62.641707788973" lon="17.888982651783">
        <ele>46.4</ele>
        <time>2018-01-21T12:35:51Z</time>
      </trkpt>
      <trkpt lat="62.641700664358" lon="17.889009390044">
        <ele>46.6</ele>
        <time>2018-01-21T12:35:52Z</time>
      </trkpt>
      <trkpt lat="62.641692785372" lon="17.889030428613">
        <ele>46.6</ele>
        <time>2018-01-21T12:35:53Z</time>
      </trkpt>
      <trkpt lat="62.641685074024" lon="17.889058591797">
        <ele>47</ele>
        <time>2018-01-21T12:35:54Z</time>
      </trkpt>
      <trkpt lat="62.641677614133" lon="17.889088263723">
        <ele>47.4</ele>
        <time>2018-01-21T12:35:55Z</time>
      </trkpt>
      <trkpt lat="62.641672668812" lon="17.889110224301">
        <ele>47.8</ele>
        <time>2018-01-21T12:35:56Z</time>
      </trkpt>
      <trkpt lat="62.641667136758" lon="17.889135034725">
        <ele>48</ele>
        <time>2018-01-21T12:35:57Z</time>
      </trkpt>
      <trkpt lat="62.641663783998" lon="17.889161521529">
        <ele>48.4</ele>
        <time>2018-01-21T12:35:58Z</time>
      </trkpt>
      <trkpt lat="62.641660179781" lon="17.889184487935">
        <ele>48.4</ele>
        <time>2018-01-21T12:35:59Z</time>
      </trkpt>
      <trkpt lat="62.64165523446" lon="17.889213824585">
        <ele>49</ele>
        <time>2018-01-21T12:36:00Z</time>
      </trkpt>
      <trkpt lat="62.641649870044" lon="17.889240059932">
        <ele>49.2</ele>
        <time>2018-01-21T12:36:01Z</time>
      </trkpt>
      <trkpt lat="62.64164517618" lon="17.889262104329">
        <ele>49.6</ele>
        <time>2018-01-21T12:36:02Z</time>
      </trkpt>
      <trkpt lat="62.641640230859" lon="17.889279873957">
        <ele>49.8</ele>
        <time>2018-01-21T12:36:03Z</time>
      </trkpt>
      <trkpt lat="62.641635285538" lon="17.889299319965">
        <ele>50</ele>
        <time>2018-01-21T12:36:04Z</time>
      </trkpt>
      <trkpt lat="62.641631094588" lon="17.88932069381">
        <ele>50.2</ele>
        <time>2018-01-21T12:36:05Z</time>
      </trkpt>
      <trkpt lat="62.641626819819" lon="17.88934416313">
        <ele>50.6</ele>
        <time>2018-01-21T12:36:06Z</time>
      </trkpt>
      <trkpt lat="62.641622880326" lon="17.889362016577">
        <ele>50.8</ele>
        <time>2018-01-21T12:36:07Z</time>
      </trkpt>
      <trkpt lat="62.6416183541" lon="17.889381630223">
        <ele>51.4</ele>
        <time>2018-01-21T12:36:08Z</time>
      </trkpt>
      <trkpt lat="62.641614833702" lon="17.889404093715">
        <ele>51.6</ele>
        <time>2018-01-21T12:36:09Z</time>
      </trkpt>
      <trkpt lat="62.641613744055" lon="17.889431753985">
        <ele>52</ele>
        <time>2018-01-21T12:36:10Z</time>
      </trkpt>
      <trkpt lat="62.641613073503" lon="17.889449942708">
        <ele>52.2</ele>
        <time>2018-01-21T12:36:11Z</time>
      </trkpt>
      <trkpt lat="62.641612151494" lon="17.889469137259">
        <ele>52.4</ele>
        <time>2018-01-21T12:36:12Z</time>
      </trkpt>
      <trkpt lat="62.641610558933" lon="17.889486068697">
        <ele>52.6</ele>
        <time>2018-01-21T12:36:13Z</time>
      </trkpt>
      <trkpt lat="62.641608798734" lon="17.889503754506">
        <ele>52.8</ele>
        <time>2018-01-21T12:36:14Z</time>
      </trkpt>
      <trkpt lat="62.641606787078" lon="17.889525463627">
        <ele>53</ele>
        <time>2018-01-21T12:36:15Z</time>
      </trkpt>
      <trkpt lat="62.641604021051" lon="17.88955119606">
        <ele>53.4</ele>
        <time>2018-01-21T12:36:16Z</time>
      </trkpt>
      <trkpt lat="62.641604691603" lon="17.889573156638">
        <ele>53.6</ele>
        <time>2018-01-21T12:36:17Z</time>
      </trkpt>
      <trkpt lat="62.641605362155" lon="17.88959981108">
        <ele>53.8</ele>
        <time>2018-01-21T12:36:18Z</time>
      </trkpt>
      <trkpt lat="62.64160661944" lon="17.889622358391">
        <ele>54.2</ele>
        <time>2018-01-21T12:36:19Z</time>
      </trkpt>
      <trkpt lat="62.641607541449" lon="17.889646917358">
        <ele>54.4</ele>
        <time>2018-01-21T12:36:20Z</time>
      </trkpt>
      <trkpt lat="62.641608631096" lon="17.889671141049">
        <ele>54.6</ele>
        <time>2018-01-21T12:36:21Z</time>
      </trkpt>
      <trkpt lat="62.641609385467" lon="17.889693855998">
        <ele>54.8</ele>
        <time>2018-01-21T12:36:22Z</time>
      </trkpt>
      <trkpt lat="62.641610558933" lon="17.889712715273">
        <ele>55.2</ele>
        <time>2018-01-21T12:36:23Z</time>
      </trkpt>
      <trkpt lat="62.641609720743" lon="17.889731239272">
        <ele>55.4</ele>
        <time>2018-01-21T12:36:24Z</time>
      </trkpt>
      <trkpt lat="62.641610056019" lon="17.889755127687">
        <ele>55.8</ele>
        <time>2018-01-21T12:36:25Z</time>
      </trkpt>
      <trkpt lat="62.641610056019" lon="17.889778764645">
        <ele>56.2</ele>
        <time>2018-01-21T12:36:26Z</time>
      </trkpt>
      <trkpt lat="62.641611145666" lon="17.889800557585">
        <ele>56.4</ele>
        <time>2018-01-21T12:36:27Z</time>
      </trkpt>
      <trkpt lat="62.641613995512" lon="17.889825619466">
        <ele>56.8</ele>
        <time>2018-01-21T12:36:28Z</time>
      </trkpt>
      <trkpt lat="62.641616342444" lon="17.889850848985">
        <ele>56.8</ele>
        <time>2018-01-21T12:36:29Z</time>
      </trkpt>
      <trkpt lat="62.641621874498" lon="17.889876916694">
        <ele>57</ele>
        <time>2018-01-21T12:36:30Z</time>
      </trkpt>
      <trkpt lat="62.641627322733" lon="17.889915305796">
        <ele>57</ele>
        <time>2018-01-21T12:36:31Z</time>
      </trkpt>
      <trkpt lat="62.641631094588" lon="17.889950258319">
        <ele>57.2</ele>
        <time>2018-01-21T12:36:32Z</time>
      </trkpt>
      <trkpt lat="62.641634531167" lon="17.889981271349">
        <ele>57.6</ele>
        <time>2018-01-21T12:36:33Z</time>
      </trkpt>
      <trkpt lat="62.641639476488" lon="17.890007758153">
        <ele>57.6</ele>
        <time>2018-01-21T12:36:34Z</time>
      </trkpt>
      <trkpt lat="62.64164601437" lon="17.89003986083">
        <ele>57.8</ele>
        <time>2018-01-21T12:36:35Z</time>
      </trkpt>
      <trkpt lat="62.64165020532" lon="17.890062072865">
        <ele>58</ele>
        <time>2018-01-21T12:36:36Z</time>
      </trkpt>
      <trkpt lat="62.641672501174" lon="17.890129211884">
        <ele>58.2</ele>
        <time>2018-01-21T12:36:37Z</time>
      </trkpt>
      <trkpt lat="62.641690103164" lon="17.890170450832">
        <ele>58.2</ele>
        <time>2018-01-21T12:36:38Z</time>
      </trkpt>
      <trkpt lat="62.641704184756" lon="17.890203643156">
        <ele>58.4</ele>
        <time>2018-01-21T12:36:39Z</time>
      </trkpt>
      <trkpt lat="62.641723714583" lon="17.890250162701">
        <ele>58.6</ele>
        <time>2018-01-21T12:36:40Z</time>
      </trkpt>
      <trkpt lat="62.641742070944" lon="17.890289222355">
        <ele>58.4</ele>
        <time>2018-01-21T12:36:41Z</time>
      </trkpt>
      <trkpt lat="62.641768306291" lon="17.89033825647">
        <ele>58.4</ele>
        <time>2018-01-21T12:36:42Z</time>
      </trkpt>
      <trkpt lat="62.641796553294" lon="17.890382177626">
        <ele>58</ele>
        <time>2018-01-21T12:36:43Z</time>
      </trkpt>
      <trkpt lat="62.641824884116" lon="17.890417716882">
        <ele>57.8</ele>
        <time>2018-01-21T12:36:44Z</time>
      </trkpt>
      <trkpt lat="62.641868469996" lon="17.890461386581">
        <ele>57.2</ele>
        <time>2018-01-21T12:36:45Z</time>
      </trkpt>
      <trkpt lat="62.64191507336" lon="17.890499440407">
        <ele>56.6</ele>
        <time>2018-01-21T12:36:46Z</time>
      </trkpt>
      <trkpt lat="62.641962766371" lon="17.890534895844">
        <ele>56</ele>
        <time>2018-01-21T12:36:47Z</time>
      </trkpt>
      <trkpt lat="62.642032755236" lon="17.890582924131">
        <ele>55.2</ele>
        <time>2018-01-21T12:36:48Z</time>
      </trkpt>
      <trkpt lat="62.642094026925" lon="17.890622486699">
        <ele>54.6</ele>
        <time>2018-01-21T12:36:49Z</time>
      </trkpt>
      <trkpt lat="62.642167620007" lon="17.890671185538">
        <ele>53.6</ele>
        <time>2018-01-21T12:36:50Z</time>
      </trkpt>
      <trkpt lat="62.642246493686" lon="17.890728266277">
        <ele>52.4</ele>
        <time>2018-01-21T12:36:51Z</time>
      </trkpt>
      <trkpt lat="62.642313381248" lon="17.890779395867">
        <ele>53</ele>
        <time>2018-01-21T12:36:52Z</time>
      </trkpt>
      <trkpt lat="62.642358056775" lon="17.890816779141">
        <ele>53</ele>
        <time>2018-01-21T12:36:53Z</time>
      </trkpt>
      <trkpt lat="62.642396278239" lon="17.890852318397">
        <ele>52.4</ele>
        <time>2018-01-21T12:36:54Z</time>
      </trkpt>
      <trkpt lat="62.642430895486" lon="17.8908805654">
        <ele>52</ele>
        <time>2018-01-21T12:36:55Z</time>
      </trkpt>
      <trkpt lat="62.642458471937" lon="17.890907722756">
        <ele>51.8</ele>
        <time>2018-01-21T12:36:56Z</time>
      </trkpt>
      <trkpt lat="62.642478923773" lon="17.890938651967">
        <ele>51.6</ele>
        <time>2018-01-21T12:36:57Z</time>
      </trkpt>
      <trkpt lat="62.642494178831" lon="17.890964552038">
        <ele>51.6</ele>
        <time>2018-01-21T12:36:58Z</time>
      </trkpt>
      <trkpt lat="62.642503315102" lon="17.890989111005">
        <ele>51.4</ele>
        <time>2018-01-21T12:36:59Z</time>
      </trkpt>
      <trkpt lat="62.642515636495" lon="17.891031020505">
        <ele>51.8</ele>
        <time>2018-01-21T12:37:00Z</time>
      </trkpt>
      <trkpt lat="62.642523096386" lon="17.89107418729">
        <ele>52</ele>
        <time>2018-01-21T12:37:01Z</time>
      </trkpt>
      <trkpt lat="62.642529131354" lon="17.891118695179">
        <ele>51.8</ele>
        <time>2018-01-21T12:37:02Z</time>
      </trkpt>
      <trkpt lat="62.64253281939" lon="17.891163286887">
        <ele>52</ele>
        <time>2018-01-21T12:37:03Z</time>
      </trkpt>
      <trkpt lat="62.642534411951" lon="17.891211985726">
        <ele>52.2</ele>
        <time>2018-01-21T12:37:04Z</time>
      </trkpt>
      <trkpt lat="62.642536675064" lon="17.89126361823">
        <ele>52.2</ele>
        <time>2018-01-21T12:37:05Z</time>
      </trkpt>
      <trkpt lat="62.642532316476" lon="17.89133402619">
        <ele>52</ele>
        <time>2018-01-21T12:37:06Z</time>
      </trkpt>
      <trkpt lat="62.64252108473" lon="17.891390855472">
        <ele>52.2</ele>
        <time>2018-01-21T12:37:07Z</time>
      </trkpt>
      <trkpt lat="62.642512451373" lon="17.891437291198">
        <ele>52</ele>
        <time>2018-01-21T12:37:08Z</time>
      </trkpt>
      <trkpt lat="62.642495771392" lon="17.891485654761">
        <ele>52</ele>
        <time>2018-01-21T12:37:09Z</time>
      </trkpt>
      <trkpt lat="62.642473475538" lon="17.891547345545">
        <ele>52</ele>
        <time>2018-01-21T12:37:10Z</time>
      </trkpt>
      <trkpt lat="62.642451012046" lon="17.891594032728">
        <ele>51.8</ele>
        <time>2018-01-21T12:37:11Z</time>
      </trkpt>
      <trkpt lat="62.642416813894" lon="17.891654382408">
        <ele>52</ele>
        <time>2018-01-21T12:37:12Z</time>
      </trkpt>
      <trkpt lat="62.642385130312" lon="17.891705679636">
        <ele>51.8</ele>
        <time>2018-01-21T12:37:13Z</time>
      </trkpt>
      <trkpt lat="62.64236015225" lon="17.891749433154">
        <ele>51.8</ele>
        <time>2018-01-21T12:37:14Z</time>
      </trkpt>
      <trkpt lat="62.64233668293" lon="17.891790755921">
        <ele>51.8</ele>
        <time>2018-01-21T12:37:15Z</time>
      </trkpt>
      <trkpt lat="62.642318745664" lon="17.891818919105">
        <ele>51.8</ele>
        <time>2018-01-21T12:37:16Z</time>
      </trkpt>
      <trkpt lat="62.64230315533" lon="17.891839622398">
        <ele>51.6</ele>
        <time>2018-01-21T12:37:17Z</time>
      </trkpt>
      <trkpt lat="62.642285804797" lon="17.891861834433">
        <ele>51.8</ele>
        <time>2018-01-21T12:37:18Z</time>
      </trkpt>
      <trkpt lat="62.642273231947" lon="17.891875664568">
        <ele>51.6</ele>
        <time>2018-01-21T12:37:19Z</time>
      </trkpt>
      <trkpt lat="62.642259904726" lon="17.891883124459">
        <ele>51.6</ele>
        <time>2018-01-21T12:37:20Z</time>
      </trkpt>
      <trkpt lat="62.642245487858" lon="17.891891841635">
        <ele>51.6</ele>
        <time>2018-01-21T12:37:21Z</time>
      </trkpt>
      <trkpt lat="62.642230065162" lon="17.891897457508">
        <ele>51.8</ele>
        <time>2018-01-21T12:37:22Z</time>
      </trkpt>
      <trkpt lat="62.642216570303" lon="17.891901397001">
        <ele>51.6</ele>
        <time>2018-01-21T12:37:23Z</time>
      </trkpt>
      <trkpt lat="62.64220089615" lon="17.891906342322">
        <ele>51.6</ele>
        <time>2018-01-21T12:37:24Z</time>
      </trkpt>
      <trkpt lat="62.642184048531" lon="17.891907096693">
        <ele>51.4</ele>
        <time>2018-01-21T12:37:25Z</time>
      </trkpt>
      <trkpt lat="62.642168290559" lon="17.891911120005">
        <ele>51.6</ele>
        <time>2018-01-21T12:37:26Z</time>
      </trkpt>
      <trkpt lat="62.642151191483" lon="17.891915897688">
        <ele>51.8</ele>
        <time>2018-01-21T12:37:27Z</time>
      </trkpt>
      <trkpt lat="62.642134846778" lon="17.891920004819">
        <ele>52.2</ele>
        <time>2018-01-21T12:37:28Z</time>
      </trkpt>
      <trkpt lat="62.642121016643" lon="17.891922100294">
        <ele>52.4</ele>
        <time>2018-01-21T12:37:29Z</time>
      </trkpt>
      <trkpt lat="62.642100648626" lon="17.891925117778">
        <ele>52.4</ele>
        <time>2018-01-21T12:37:30Z</time>
      </trkpt>
      <trkpt lat="62.642086650853" lon="17.891926542701">
        <ele>52.6</ele>
        <time>2018-01-21T12:37:31Z</time>
      </trkpt>
      <trkpt lat="62.642074832374" lon="17.891927799986">
        <ele>53</ele>
        <time>2018-01-21T12:37:32Z</time>
      </trkpt>
      <trkpt lat="62.642060666963" lon="17.891930566013">
        <ele>53</ele>
        <time>2018-01-21T12:37:33Z</time>
      </trkpt>
      <trkpt lat="62.642047255923" lon="17.891932242393">
        <ele>53.2</ele>
        <time>2018-01-21T12:37:34Z</time>
      </trkpt>
      <trkpt lat="62.642032503779" lon="17.891938528818">
        <ele>53.2</ele>
        <time>2018-01-21T12:37:35Z</time>
      </trkpt>
      <trkpt lat="62.642013895961" lon="17.89194925765">
        <ele>53.4</ele>
        <time>2018-01-21T12:37:36Z</time>
      </trkpt>
      <trkpt lat="62.641996126333" lon="17.891960070301">
        <ele>53.4</ele>
        <time>2018-01-21T12:37:37Z</time>
      </trkpt>
      <trkpt lat="62.641979446352" lon="17.891968116925">
        <ele>53.6</ele>
        <time>2018-01-21T12:37:38Z</time>
      </trkpt>
      <trkpt lat="62.641965532398" lon="17.891977253196">
        <ele>53.8</ele>
        <time>2018-01-21T12:37:39Z</time>
      </trkpt>
      <trkpt lat="62.641949020055" lon="17.891987730571">
        <ele>54</ele>
        <time>2018-01-21T12:37:40Z</time>
      </trkpt>
      <trkpt lat="62.641936279567" lon="17.892004662009">
        <ele>54.2</ele>
        <time>2018-01-21T12:37:41Z</time>
      </trkpt>
      <trkpt lat="62.641921611242" lon="17.892029220976">
        <ele>54.4</ele>
        <time>2018-01-21T12:37:42Z</time>
      </trkpt>
      <trkpt lat="62.641909457487" lon="17.892055540142">
        <ele>54.6</ele>
        <time>2018-01-21T12:37:43Z</time>
      </trkpt>
      <trkpt lat="62.641904847442" lon="17.892080182928">
        <ele>54.8</ele>
        <time>2018-01-21T12:37:44Z</time>
      </trkpt>
      <trkpt lat="62.641900572673" lon="17.892108010836">
        <ele>55.2</ele>
        <time>2018-01-21T12:37:45Z</time>
      </trkpt>
      <trkpt lat="62.641895962628" lon="17.892132988898">
        <ele>55.6</ele>
        <time>2018-01-21T12:37:46Z</time>
      </trkpt>
      <trkpt lat="62.641891520221" lon="17.892158972788">
        <ele>56</ele>
        <time>2018-01-21T12:37:47Z</time>
      </trkpt>
      <trkpt lat="62.641888418918" lon="17.892195769329">
        <ele>56.4</ele>
        <time>2018-01-21T12:37:48Z</time>
      </trkpt>
      <trkpt lat="62.641887916004" lon="17.892224351608">
        <ele>56.8</ele>
        <time>2018-01-21T12:37:49Z</time>
      </trkpt>
      <trkpt lat="62.641888502737" lon="17.892257963027">
        <ele>57.2</ele>
        <time>2018-01-21T12:37:50Z</time>
      </trkpt>
      <trkpt lat="62.64188992766" lon="17.892293250826">
        <ele>57.4</ele>
        <time>2018-01-21T12:37:51Z</time>
      </trkpt>
      <trkpt lat="62.641891687859" lon="17.892333400127">
        <ele>58</ele>
        <time>2018-01-21T12:37:52Z</time>
      </trkpt>
      <trkpt lat="62.641892693687" lon="17.892362820596">
        <ele>58.2</ele>
        <time>2018-01-21T12:37:53Z</time>
      </trkpt>
      <trkpt lat="62.641892693687" lon="17.892404143363">
        <ele>58.4</ele>
        <time>2018-01-21T12:37:54Z</time>
      </trkpt>
      <trkpt lat="62.641895459714" lon="17.892456697876">
        <ele>58.8</ele>
        <time>2018-01-21T12:37:55Z</time>
      </trkpt>
      <trkpt lat="62.641897052275" lon="17.892499194109">
        <ele>59.2</ele>
        <time>2018-01-21T12:37:56Z</time>
      </trkpt>
      <trkpt lat="62.641897722827" lon="17.892535906831">
        <ele>59.2</ele>
        <time>2018-01-21T12:37:57Z</time>
      </trkpt>
      <trkpt lat="62.64189663318" lon="17.892571529906">
        <ele>59.2</ele>
        <time>2018-01-21T12:37:58Z</time>
      </trkpt>
      <trkpt lat="62.641896968456" lon="17.892598938719">
        <ele>59.2</ele>
        <time>2018-01-21T12:37:59Z</time>
      </trkpt>
      <trkpt lat="62.64189747137" lon="17.892638166011">
        <ele>59.2</ele>
        <time>2018-01-21T12:38:00Z</time>
      </trkpt>
      <trkpt lat="62.641896214085" lon="17.892667502661">
        <ele>59.2</ele>
        <time>2018-01-21T12:38:01Z</time>
      </trkpt>
      <trkpt lat="62.641893364239" lon="17.89269692313">
        <ele>59.4</ele>
        <time>2018-01-21T12:38:02Z</time>
      </trkpt>
      <trkpt lat="62.64188992766" lon="17.892724834857">
        <ele>59.6</ele>
        <time>2018-01-21T12:38:03Z</time>
      </trkpt>
      <trkpt lat="62.641887580728" lon="17.892748723272">
        <ele>59.8</ele>
        <time>2018-01-21T12:38:04Z</time>
      </trkpt>
      <trkpt lat="62.641885988167" lon="17.892776383542">
        <ele>60.2</ele>
        <time>2018-01-21T12:38:05Z</time>
      </trkpt>
      <trkpt lat="62.641890095298" lon="17.892803959993">
        <ele>60.4</ele>
        <time>2018-01-21T12:38:06Z</time>
      </trkpt>
      <trkpt lat="62.64188908947" lon="17.892824663286">
        <ele>60.6</ele>
        <time>2018-01-21T12:38:07Z</time>
      </trkpt>
      <trkpt lat="62.641887748366" lon="17.892842097638">
        <ele>60.8</ele>
        <time>2018-01-21T12:38:08Z</time>
      </trkpt>
      <trkpt lat="62.641885485253" lon="17.892862800931">
        <ele>61.2</ele>
        <time>2018-01-21T12:38:09Z</time>
      </trkpt>
      <trkpt lat="62.641882048674" lon="17.8928838395">
        <ele>61.4</ele>
        <time>2018-01-21T12:38:10Z</time>
      </trkpt>
      <trkpt lat="62.641879534104" lon="17.892900351843">
        <ele>61.6</ele>
        <time>2018-01-21T12:38:11Z</time>
      </trkpt>
      <trkpt lat="62.641878025362" lon="17.892917534738">
        <ele>62</ele>
        <time>2018-01-21T12:38:12Z</time>
      </trkpt>
      <trkpt lat="62.641875929887" lon="17.892942009886">
        <ele>62.2</ele>
        <time>2018-01-21T12:38:13Z</time>
      </trkpt>
      <trkpt lat="62.641872744765" lon="17.892966065939">
        <ele>62.6</ele>
        <time>2018-01-21T12:38:14Z</time>
      </trkpt>
      <trkpt lat="62.641868469996" lon="17.892987020689">
        <ele>63</ele>
        <time>2018-01-21T12:38:15Z</time>
      </trkpt>
      <trkpt lat="62.641866542159" lon="17.893002275747">
        <ele>63.4</ele>
        <time>2018-01-21T12:38:16Z</time>
      </trkpt>
      <trkpt lat="62.641866709797" lon="17.893016105882">
        <ele>63.6</ele>
        <time>2018-01-21T12:38:17Z</time>
      </trkpt>
      <trkpt lat="62.641865201055" lon="17.89303722827">
        <ele>63.8</ele>
        <time>2018-01-21T12:38:18Z</time>
      </trkpt>
      <trkpt lat="62.641863021761" lon="17.893059943219">
        <ele>64</ele>
        <time>2018-01-21T12:38:19Z</time>
      </trkpt>
      <trkpt lat="62.641857070612" lon="17.89308332872">
        <ele>64.4</ele>
        <time>2018-01-21T12:38:20Z</time>
      </trkpt>
      <trkpt lat="62.641850868006" lon="17.893110066981">
        <ele>64.6</ele>
        <time>2018-01-21T12:38:21Z</time>
      </trkpt>
      <trkpt lat="62.641847347608" lon="17.893133871577">
        <ele>64.6</ele>
        <time>2018-01-21T12:38:22Z</time>
      </trkpt>
      <trkpt lat="62.641844246305" lon="17.893158933458">
        <ele>65</ele>
        <time>2018-01-21T12:38:23Z</time>
      </trkpt>
      <trkpt lat="62.641839887717" lon="17.893188018651">
        <ele>65.4</ele>
        <time>2018-01-21T12:38:24Z</time>
      </trkpt>
      <trkpt lat="62.641835361491" lon="17.893217020025">
        <ele>65.8</ele>
        <time>2018-01-21T12:38:25Z</time>
      </trkpt>
      <trkpt lat="62.641831505817" lon="17.893249206521">
        <ele>66.2</ele>
        <time>2018-01-21T12:38:26Z</time>
      </trkpt>
      <trkpt lat="62.641827231048" lon="17.89328030337">
        <ele>66.6</ele>
        <time>2018-01-21T12:38:27Z</time>
      </trkpt>
      <trkpt lat="62.641820525528" lon="17.893321961413">
        <ele>66.8</ele>
        <time>2018-01-21T12:38:28Z</time>
      </trkpt>
      <trkpt lat="62.641814658198" lon="17.893356494841">
        <ele>67</ele>
        <time>2018-01-21T12:38:29Z</time>
      </trkpt>
      <trkpt lat="62.641806443936" lon="17.893404020214">
        <ele>67.2</ele>
        <time>2018-01-21T12:38:30Z</time>
      </trkpt>
      <trkpt lat="62.641800911882" lon="17.893448192827">
        <ele>67.4</ele>
        <time>2018-01-21T12:38:31Z</time>
      </trkpt>
      <trkpt lat="62.641794793095" lon="17.893489767051">
        <ele>67.4</ele>
        <time>2018-01-21T12:38:32Z</time>
      </trkpt>
      <trkpt lat="62.641791775611" lon="17.893525138669">
        <ele>67.6</ele>
        <time>2018-01-21T12:38:33Z</time>
      </trkpt>
      <trkpt lat="62.641786495014" lon="17.893553637129">
        <ele>67.6</ele>
        <time>2018-01-21T12:38:34Z</time>
      </trkpt>
      <trkpt lat="62.641778113114" lon="17.893587416186">
        <ele>67.8</ele>
        <time>2018-01-21T12:38:35Z</time>
      </trkpt>
      <trkpt lat="62.641771994327" lon="17.893625134736">
        <ele>68</ele>
        <time>2018-01-21T12:38:36Z</time>
      </trkpt>
      <trkpt lat="62.641767887196" lon="17.893658913793">
        <ele>68</ele>
        <time>2018-01-21T12:38:37Z</time>
      </trkpt>
      <trkpt lat="62.641767803377" lon="17.893749605951">
        <ele>68.6</ele>
        <time>2018-01-21T12:38:39Z</time>
      </trkpt>
      <trkpt lat="62.641770317947" lon="17.893802663378">
        <ele>68.8</ele>
        <time>2018-01-21T12:38:40Z</time>
      </trkpt>
      <trkpt lat="62.641775598544" lon="17.893851026941">
        <ele>69</ele>
        <time>2018-01-21T12:38:41Z</time>
      </trkpt>
      <trkpt lat="62.64178934486" lon="17.893897127391">
        <ele>69.2</ele>
        <time>2018-01-21T12:38:42Z</time>
      </trkpt>
      <trkpt lat="62.641810718705" lon="17.893933337199">
        <ele>69.4</ele>
        <time>2018-01-21T12:38:43Z</time>
      </trkpt>
      <trkpt lat="62.641840055355" lon="17.893957393252">
        <ele>69.4</ele>
        <time>2018-01-21T12:38:44Z</time>
      </trkpt>
      <trkpt lat="62.641881126665" lon="17.893967116256">
        <ele>69.4</ele>
        <time>2018-01-21T12:38:45Z</time>
      </trkpt>
      <trkpt lat="62.641926472744" lon="17.89396175184">
        <ele>69.4</ele>
        <time>2018-01-21T12:38:46Z</time>
      </trkpt>
      <trkpt lat="62.641970980633" lon="17.893950184818">
        <ele>69.2</ele>
        <time>2018-01-21T12:38:47Z</time>
      </trkpt>
      <trkpt lat="62.642018673644" lon="17.893941886737">
        <ele>68.6</ele>
        <time>2018-01-21T12:38:48Z</time>
      </trkpt>
      <trkpt lat="62.642062427162" lon="17.893938785434">
        <ele>68</ele>
        <time>2018-01-21T12:38:49Z</time>
      </trkpt>
      <trkpt lat="62.642110120173" lon="17.893949849542">
        <ele>67.2</ele>
        <time>2018-01-21T12:38:50Z</time>
      </trkpt>
      <trkpt lat="62.642152197311" lon="17.893986226988">
        <ele>66.4</ele>
        <time>2018-01-21T12:38:51Z</time>
      </trkpt>
      <trkpt lat="62.642182288332" lon="17.894040038786">
        <ele>65.6</ele>
        <time>2018-01-21T12:38:52Z</time>
      </trkpt>
      <trkpt lat="62.642203243082" lon="17.894101226656">
        <ele>65</ele>
        <time>2018-01-21T12:38:53Z</time>
      </trkpt>
      <trkpt lat="62.642216067389" lon="17.894171886073">
        <ele>64.2</ele>
        <time>2018-01-21T12:38:54Z</time>
      </trkpt>
      <trkpt lat="62.642220342158" lon="17.894247406992">
        <ele>63.8</ele>
        <time>2018-01-21T12:38:55Z</time>
      </trkpt>
      <trkpt lat="62.642223359642" lon="17.894327789413">
        <ele>63.4</ele>
        <time>2018-01-21T12:38:56Z</time>
      </trkpt>
      <trkpt lat="62.64222352728" lon="17.894419571218">
        <ele>63.4</ele>
        <time>2018-01-21T12:38:57Z</time>
      </trkpt>
      <trkpt lat="62.642217073217" lon="17.894533816515">
        <ele>63.2</ele>
        <time>2018-01-21T12:38:58Z</time>
      </trkpt>
      <trkpt lat="62.642203243082" lon="17.894646636889">
        <ele>63</ele>
        <time>2018-01-21T12:38:59Z</time>
      </trkpt>
      <trkpt lat="62.642175498993" lon="17.894792565768">
        <ele>62.6</ele>
        <time>2018-01-21T12:39:00Z</time>
      </trkpt>
      <trkpt lat="62.642151945854" lon="17.894915109146">
        <ele>61.6</ele>
        <time>2018-01-21T12:39:01Z</time>
      </trkpt>
      <trkpt lat="62.642134176226" lon="17.895031198461">
        <ele>60.4</ele>
        <time>2018-01-21T12:39:02Z</time>
      </trkpt>
      <trkpt lat="62.642127386887" lon="17.895144354111">
        <ele>59.2</ele>
        <time>2018-01-21T12:39:03Z</time>
      </trkpt>
      <trkpt lat="62.642126716335" lon="17.895277626321">
        <ele>58.4</ele>
        <time>2018-01-21T12:39:04Z</time>
      </trkpt>
      <trkpt lat="62.64212378267" lon="17.895447192158">
        <ele>57.4</ele>
        <time>2018-01-21T12:39:05Z</time>
      </trkpt>
      <trkpt lat="62.642112970019" lon="17.895626480999">
        <ele>56.6</ele>
        <time>2018-01-21T12:39:06Z</time>
      </trkpt>
      <trkpt lat="62.642098720789" lon="17.89579571156">
        <ele>55.6</ele>
        <time>2018-01-21T12:39:07Z</time>
      </trkpt>
      <trkpt lat="62.642078185134" lon="17.895950273796">
        <ele>54.6</ele>
        <time>2018-01-21T12:39:08Z</time>
      </trkpt>
      <trkpt lat="62.642052955615" lon="17.896086898766">
        <ele>54</ele>
        <time>2018-01-21T12:39:09Z</time>
      </trkpt>
      <trkpt lat="62.642023116051" lon="17.896225619211">
        <ele>53.2</ele>
        <time>2018-01-21T12:39:10Z</time>
      </trkpt>
      <trkpt lat="62.641996545428" lon="17.896344474553">
        <ele>52.2</ele>
        <time>2018-01-21T12:39:11Z</time>
      </trkpt>
      <trkpt lat="62.641971567366" lon="17.896455786185">
        <ele>51.4</ele>
        <time>2018-01-21T12:39:12Z</time>
      </trkpt>
      <trkpt lat="62.641944577648" lon="17.896569193292">
        <ele>51</ele>
        <time>2018-01-21T12:39:13Z</time>
      </trkpt>
      <trkpt lat="62.641922952346" lon="17.896677655078">
        <ele>50.8</ele>
        <time>2018-01-21T12:39:14Z</time>
      </trkpt>
      <trkpt lat="62.641903841614" lon="17.896795588411">
        <ele>50.8</ele>
        <time>2018-01-21T12:39:15Z</time>
      </trkpt>
      <trkpt lat="62.641887748366" lon="17.896904553111">
        <ele>50.8</ele>
        <time>2018-01-21T12:39:16Z</time>
      </trkpt>
      <trkpt lat="62.641876013706" lon="17.897013769268">
        <ele>51</ele>
        <time>2018-01-21T12:39:17Z</time>
      </trkpt>
      <trkpt lat="62.641866374521" lon="17.897141425605">
        <ele>51</ele>
        <time>2018-01-21T12:39:18Z</time>
      </trkpt>
      <trkpt lat="62.64185891463" lon="17.897258688386">
        <ele>50.8</ele>
        <time>2018-01-21T12:39:19Z</time>
      </trkpt>
      <trkpt lat="62.641851538558" lon="17.897389026931">
        <ele>50.2</ele>
        <time>2018-01-21T12:39:20Z</time>
      </trkpt>
      <trkpt lat="62.641843575753" lon="17.897512240861">
        <ele>49.6</ele>
        <time>2018-01-21T12:39:21Z</time>
      </trkpt>
      <trkpt lat="62.641834271844" lon="17.897635957705">
        <ele>48.6</ele>
        <time>2018-01-21T12:39:22Z</time>
      </trkpt>
      <trkpt lat="62.6418279016" lon="17.89773612141">
        <ele>48</ele>
        <time>2018-01-21T12:39:23Z</time>
      </trkpt>
      <trkpt lat="62.641823459193" lon="17.897833519088">
        <ele>47.6</ele>
        <time>2018-01-21T12:39:24Z</time>
      </trkpt>
      <trkpt lat="62.641819603519" lon="17.897936029725">
        <ele>47.6</ele>
        <time>2018-01-21T12:39:25Z</time>
      </trkpt>
      <trkpt lat="62.641815161112" lon="17.898026721883">
        <ele>47.6</ele>
        <time>2018-01-21T12:39:26Z</time>
      </trkpt>
      <trkpt lat="62.641814322922" lon="17.898100650241">
        <ele>47.8</ele>
        <time>2018-01-21T12:39:27Z</time>
      </trkpt>
      <trkpt lat="62.641812730361" lon="17.898175584427">
        <ele>48</ele>
        <time>2018-01-21T12:39:28Z</time>
      </trkpt>
      <trkpt lat="62.641809545239" lon="17.898231910795">
        <ele>48.2</ele>
        <time>2018-01-21T12:39:29Z</time>
      </trkpt>
      <trkpt lat="62.641805689565" lon="17.898307264076">
        <ele>48.2</ele>
        <time>2018-01-21T12:39:30Z</time>
      </trkpt>
      <trkpt lat="62.641800073692" lon="17.898376163294">
        <ele>48.4</ele>
        <time>2018-01-21T12:39:31Z</time>
      </trkpt>
      <trkpt lat="62.641798313493" lon="17.898434166042">
        <ele>48.6</ele>
        <time>2018-01-21T12:39:32Z</time>
      </trkpt>
      <trkpt lat="62.64179772676" lon="17.898486636736">
        <ele>48.6</ele>
        <time>2018-01-21T12:39:33Z</time>
      </trkpt>
      <trkpt lat="62.641794038724" lon="17.898549500986">
        <ele>49</ele>
        <time>2018-01-21T12:39:34Z</time>
      </trkpt>
      <trkpt lat="62.641790602145" lon="17.898622758792">
        <ele>49</ele>
        <time>2018-01-21T12:39:35Z</time>
      </trkpt>
      <trkpt lat="62.641788590489" lon="17.898686209775">
        <ele>49.4</ele>
        <time>2018-01-21T12:39:36Z</time>
      </trkpt>
      <trkpt lat="62.641787417023" lon="17.898738931926">
        <ele>49.4</ele>
        <time>2018-01-21T12:39:37Z</time>
      </trkpt>
      <trkpt lat="62.641785070091" lon="17.898792827543">
        <ele>49.6</ele>
        <time>2018-01-21T12:39:38Z</time>
      </trkpt>
      <trkpt lat="62.641781717331" lon="17.898852758128">
        <ele>49.8</ele>
        <time>2018-01-21T12:39:39Z</time>
      </trkpt>
      <trkpt lat="62.64177425744" lon="17.898919310414">
        <ele>49.8</ele>
        <time>2018-01-21T12:39:40Z</time>
      </trkpt>
      <trkpt lat="62.641767719558" lon="17.89896658433">
        <ele>50</ele>
        <time>2018-01-21T12:39:41Z</time>
      </trkpt>
      <trkpt lat="62.641756739269" lon="17.89902022849">
        <ele>50.4</ele>
        <time>2018-01-21T12:39:42Z</time>
      </trkpt>
      <trkpt lat="62.641739556374" lon="17.899079823799">
        <ele>50.6</ele>
        <time>2018-01-21T12:39:43Z</time>
      </trkpt>
      <trkpt lat="62.641728408447" lon="17.899120643652">
        <ele>50.6</ele>
        <time>2018-01-21T12:39:44Z</time>
      </trkpt>
      <trkpt lat="62.641715751778" lon="17.8991535007">
        <ele>50.6</ele>
        <time>2018-01-21T12:39:45Z</time>
      </trkpt>
      <trkpt lat="62.641703430385" lon="17.899173030527">
        <ele>50.8</ele>
        <time>2018-01-21T12:39:46Z</time>
      </trkpt>
      <trkpt lat="62.641695970494" lon="17.899182334436">
        <ele>50.8</ele>
        <time>2018-01-21T12:39:47Z</time>
      </trkpt>
      <trkpt lat="62.635650776576" lon="17.915215987127">
        <ele>42.4</ele>
        <time>2018-01-21T12:49:41Z</time>
      </trkpt>
      <trkpt lat="62.635648429644" lon="17.91520651558">
        <ele>42.4</ele>
        <time>2018-01-21T12:49:42Z</time>
      </trkpt>
    </trkseg>
  </trk>
</gpx>